<?xml version="1.0" encoding="UTF-8" standalone="yes"?>
<gpx
 xmlns="http://www.topografix.com/GPX/1/1"
 creator="OziExplorer Version 3956f - http://www.oziexplorer.com"
 version="1.1"
 xmlns:xsi="http://www.w3.org/2001/XMLSchema-instance"
 xsi:schemaLocation="http://www.topografix.com/GPX/1/1 http://www.topografix.com/GPX/1/1/gpx.xsd">
<metadata>
 <time>2023-11-29T16:37:05Z</time>
 <bounds minlat="32.603154" minlon="35.101356" maxlat="32.640416" maxlon="35.135115"/>
</metadata>
<trk>
 <name>HaZorea_sin.30km.600m</name>
 <desc>HaZorea_sin.30km.600m</desc>
<trkseg>
<trkpt lat="32.6361240" lon="35.1090370">
<ele>87.599998</ele>
<time>2022-10-14T04:52:49.000Z</time>
</trkpt>
<trkpt lat="32.6361240" lon="35.1090590">
<ele>87.599998</ele>
<time>2022-10-14T04:52:53.000Z</time>
</trkpt>
<trkpt lat="32.6361170" lon="35.1090730">
<ele>87.599998</ele>
<time>2022-10-14T04:52:56.000Z</time>
</trkpt>
<trkpt lat="32.6361270" lon="35.1090840">
<ele>87.599998</ele>
<time>2022-10-14T04:52:57.000Z</time>
</trkpt>
<trkpt lat="32.6361400" lon="35.1091150">
<ele>87.599998</ele>
<time>2022-10-14T04:53:01.000Z</time>
</trkpt>
<trkpt lat="32.6361340" lon="35.1091310">
<ele>87.599998</ele>
<time>2022-10-14T04:53:04.000Z</time>
</trkpt>
<trkpt lat="32.6361230" lon="35.1091430">
<ele>87.599998</ele>
<time>2022-10-14T04:53:05.000Z</time>
</trkpt>
<trkpt lat="32.6361710" lon="35.1091450">
<ele>87.599998</ele>
<time>2022-10-14T04:53:38.000Z</time>
</trkpt>
<trkpt lat="32.6361780" lon="35.1091440">
<ele>87.599998</ele>
<time>2022-10-14T04:53:47.000Z</time>
</trkpt>
<trkpt lat="32.6361850" lon="35.1091270">
<ele>87.599998</ele>
<time>2022-10-14T04:53:52.000Z</time>
</trkpt>
<trkpt lat="32.6361860" lon="35.1091260">
<ele>87.599998</ele>
<time>2022-10-14T04:53:53.000Z</time>
</trkpt>
<trkpt lat="32.6361850" lon="35.1091290">
<ele>87.599998</ele>
<time>2022-10-14T04:54:11.000Z</time>
</trkpt>
<trkpt lat="32.6361840" lon="35.1091400">
<ele>87.599998</ele>
<time>2022-10-14T04:54:17.000Z</time>
</trkpt>
<trkpt lat="32.6361840" lon="35.1091380">
<ele>87.599998</ele>
<time>2022-10-14T04:54:24.000Z</time>
</trkpt>
<trkpt lat="32.6361860" lon="35.1091360">
<ele>87.599998</ele>
<time>2022-10-14T04:54:26.000Z</time>
</trkpt>
<trkpt lat="32.6361830" lon="35.1091370">
<ele>87.599998</ele>
<time>2022-10-14T04:54:27.000Z</time>
</trkpt>
<trkpt lat="32.6361830" lon="35.1091390">
<ele>87.599998</ele>
<time>2022-10-14T04:54:31.000Z</time>
</trkpt>
<trkpt lat="32.6361820" lon="35.1091290">
<ele>87.599998</ele>
<time>2022-10-14T04:54:58.000Z</time>
</trkpt>
<trkpt lat="32.6361900" lon="35.1091390">
<ele>87.599998</ele>
<time>2022-10-14T04:56:00.000Z</time>
</trkpt>
<trkpt lat="32.6361920" lon="35.1091380">
<ele>87.599998</ele>
<time>2022-10-14T04:56:02.000Z</time>
</trkpt>
<trkpt lat="32.6362090" lon="35.1091550">
<ele>87.599998</ele>
<time>2022-10-14T04:56:48.000Z</time>
</trkpt>
<trkpt lat="32.6361680" lon="35.1092010">
<ele>87.599998</ele>
<time>2022-10-14T04:57:30.000Z</time>
</trkpt>
<trkpt lat="32.6361660" lon="35.1092330">
<ele>87.599998</ele>
<time>2022-10-14T04:57:32.000Z</time>
</trkpt>
<trkpt lat="32.6361820" lon="35.1092590">
<ele>87.199997</ele>
<time>2022-10-14T04:57:34.000Z</time>
</trkpt>
<trkpt lat="32.6362010" lon="35.1092740">
<ele>87.000000</ele>
<time>2022-10-14T04:57:36.000Z</time>
</trkpt>
<trkpt lat="32.6362230" lon="35.1092860">
<ele>86.800003</ele>
<time>2022-10-14T04:57:38.000Z</time>
</trkpt>
<trkpt lat="32.6362680" lon="35.1092870">
<ele>86.400002</ele>
<time>2022-10-14T04:57:40.000Z</time>
</trkpt>
<trkpt lat="32.6363100" lon="35.1092650">
<ele>86.400002</ele>
<time>2022-10-14T04:57:42.000Z</time>
</trkpt>
<trkpt lat="32.6363250" lon="35.1092510">
<ele>86.200005</ele>
<time>2022-10-14T04:57:43.000Z</time>
</trkpt>
<trkpt lat="32.6363490" lon="35.1091940">
<ele>86.200005</ele>
<time>2022-10-14T04:57:46.000Z</time>
</trkpt>
<trkpt lat="32.6363480" lon="35.1091490">
<ele>86.599998</ele>
<time>2022-10-14T04:57:48.000Z</time>
</trkpt>
<trkpt lat="32.6363370" lon="35.1091170">
<ele>87.000000</ele>
<time>2022-10-14T04:57:50.000Z</time>
</trkpt>
<trkpt lat="32.6363300" lon="35.1091020">
<ele>87.199997</ele>
<time>2022-10-14T04:57:51.000Z</time>
</trkpt>
<trkpt lat="32.6363210" lon="35.1090880">
<ele>87.399994</ele>
<time>2022-10-14T04:57:52.000Z</time>
</trkpt>
<trkpt lat="32.6363010" lon="35.1090650">
<ele>87.799995</ele>
<time>2022-10-14T04:57:54.000Z</time>
</trkpt>
<trkpt lat="32.6361940" lon="35.1089780">
<ele>89.000000</ele>
<time>2022-10-14T04:58:02.000Z</time>
</trkpt>
<trkpt lat="32.6361570" lon="35.1089830">
<ele>89.199997</ele>
<time>2022-10-14T04:58:04.000Z</time>
</trkpt>
<trkpt lat="32.6361270" lon="35.1089950">
<ele>89.400002</ele>
<time>2022-10-14T04:58:06.000Z</time>
</trkpt>
<trkpt lat="32.6361170" lon="35.1090020">
<ele>89.599998</ele>
<time>2022-10-14T04:58:07.000Z</time>
</trkpt>
<trkpt lat="32.6360320" lon="35.1090540">
<ele>90.800003</ele>
<time>2022-10-14T04:58:12.000Z</time>
</trkpt>
<trkpt lat="32.6359790" lon="35.1091290">
<ele>91.199997</ele>
<time>2022-10-14T04:58:16.000Z</time>
</trkpt>
<trkpt lat="32.6359650" lon="35.1091470">
<ele>91.400002</ele>
<time>2022-10-14T04:58:17.000Z</time>
</trkpt>
<trkpt lat="32.6359540" lon="35.1091680">
<ele>91.400002</ele>
<time>2022-10-14T04:58:18.000Z</time>
</trkpt>
<trkpt lat="32.6359400" lon="35.1091900">
<ele>91.599998</ele>
<time>2022-10-14T04:58:19.000Z</time>
</trkpt>
<trkpt lat="32.6359000" lon="35.1092690">
<ele>91.799995</ele>
<time>2022-10-14T04:58:22.000Z</time>
</trkpt>
<trkpt lat="32.6358840" lon="35.1093320">
<ele>91.799995</ele>
<time>2022-10-14T04:58:24.000Z</time>
</trkpt>
<trkpt lat="32.6358750" lon="35.1093610">
<ele>91.799995</ele>
<time>2022-10-14T04:58:25.000Z</time>
</trkpt>
<trkpt lat="32.6358680" lon="35.1093960">
<ele>91.599998</ele>
<time>2022-10-14T04:58:26.000Z</time>
</trkpt>
<trkpt lat="32.6358710" lon="35.1095240">
<ele>90.400002</ele>
<time>2022-10-14T04:58:29.000Z</time>
</trkpt>
<trkpt lat="32.6358540" lon="35.1096160">
<ele>89.400002</ele>
<time>2022-10-14T04:58:31.000Z</time>
</trkpt>
<trkpt lat="32.6358290" lon="35.1097040">
<ele>88.400002</ele>
<time>2022-10-14T04:58:33.000Z</time>
</trkpt>
<trkpt lat="32.6357550" lon="35.1098190">
<ele>87.599998</ele>
<time>2022-10-14T04:58:36.000Z</time>
</trkpt>
<trkpt lat="32.6356820" lon="35.1099460">
<ele>87.399994</ele>
<time>2022-10-14T04:58:39.000Z</time>
</trkpt>
<trkpt lat="32.6355690" lon="35.1101570">
<ele>86.800003</ele>
<time>2022-10-14T04:58:44.000Z</time>
</trkpt>
<trkpt lat="32.6352070" lon="35.1104960">
<ele>85.600006</ele>
<time>2022-10-14T04:58:55.000Z</time>
</trkpt>
<trkpt lat="32.6351160" lon="35.1105710">
<ele>84.000000</ele>
<time>2022-10-14T04:58:58.000Z</time>
</trkpt>
<trkpt lat="32.6350430" lon="35.1106180">
<ele>83.000000</ele>
<time>2022-10-14T04:59:00.000Z</time>
</trkpt>
<trkpt lat="32.6350160" lon="35.1106330">
<ele>82.599998</ele>
<time>2022-10-14T04:59:01.000Z</time>
</trkpt>
<trkpt lat="32.6349340" lon="35.1106930">
<ele>81.200005</ele>
<time>2022-10-14T04:59:03.000Z</time>
</trkpt>
<trkpt lat="32.6348860" lon="35.1107100">
<ele>80.400002</ele>
<time>2022-10-14T04:59:04.000Z</time>
</trkpt>
<trkpt lat="32.6347820" lon="35.1107100">
<ele>79.400002</ele>
<time>2022-10-14T04:59:06.000Z</time>
</trkpt>
<trkpt lat="32.6346430" lon="35.1106790">
<ele>78.800003</ele>
<time>2022-10-14T04:59:09.000Z</time>
</trkpt>
<trkpt lat="32.6344330" lon="35.1106910">
<ele>78.199997</ele>
<time>2022-10-14T04:59:13.000Z</time>
</trkpt>
<trkpt lat="32.6343320" lon="35.1106950">
<ele>78.000000</ele>
<time>2022-10-14T04:59:15.000Z</time>
</trkpt>
<trkpt lat="32.6342830" lon="35.1106980">
<ele>78.000000</ele>
<time>2022-10-14T04:59:16.000Z</time>
</trkpt>
<trkpt lat="32.6341120" lon="35.1106680">
<ele>78.600006</ele>
<time>2022-10-14T04:59:20.000Z</time>
</trkpt>
<trkpt lat="32.6340440" lon="35.1106640">
<ele>79.000000</ele>
<time>2022-10-14T04:59:22.000Z</time>
</trkpt>
<trkpt lat="32.6339700" lon="35.1106830">
<ele>79.200005</ele>
<time>2022-10-14T04:59:24.000Z</time>
</trkpt>
<trkpt lat="32.6338370" lon="35.1107110">
<ele>79.200005</ele>
<time>2022-10-14T04:59:27.000Z</time>
</trkpt>
<trkpt lat="32.6337890" lon="35.1107120">
<ele>79.200005</ele>
<time>2022-10-14T04:59:28.000Z</time>
</trkpt>
<trkpt lat="32.6337520" lon="35.1107140">
<ele>79.200005</ele>
<time>2022-10-14T04:59:29.000Z</time>
</trkpt>
<trkpt lat="32.6336800" lon="35.1107360">
<ele>79.400002</ele>
<time>2022-10-14T04:59:31.000Z</time>
</trkpt>
<trkpt lat="32.6336290" lon="35.1107520">
<ele>79.599998</ele>
<time>2022-10-14T04:59:32.000Z</time>
</trkpt>
<trkpt lat="32.6335590" lon="35.1107690">
<ele>80.199997</ele>
<time>2022-10-14T04:59:34.000Z</time>
</trkpt>
<trkpt lat="32.6334490" lon="35.1107900">
<ele>81.400002</ele>
<time>2022-10-14T04:59:38.000Z</time>
</trkpt>
<trkpt lat="32.6334180" lon="35.1107980">
<ele>81.800003</ele>
<time>2022-10-14T04:59:39.000Z</time>
</trkpt>
<trkpt lat="32.6332330" lon="35.1108000">
<ele>83.400002</ele>
<time>2022-10-14T04:59:45.000Z</time>
</trkpt>
<trkpt lat="32.6331410" lon="35.1108270">
<ele>83.800003</ele>
<time>2022-10-14T04:59:48.000Z</time>
</trkpt>
<trkpt lat="32.6331120" lon="35.1108420">
<ele>83.800003</ele>
<time>2022-10-14T04:59:49.000Z</time>
</trkpt>
<trkpt lat="32.6330880" lon="35.1108590">
<ele>84.000000</ele>
<time>2022-10-14T04:59:50.000Z</time>
</trkpt>
<trkpt lat="32.6329850" lon="35.1109530">
<ele>84.400002</ele>
<time>2022-10-14T04:59:54.000Z</time>
</trkpt>
<trkpt lat="32.6327560" lon="35.1111100">
<ele>86.200005</ele>
<time>2022-10-14T05:00:02.000Z</time>
</trkpt>
<trkpt lat="32.6327180" lon="35.1111520">
<ele>86.800003</ele>
<time>2022-10-14T05:00:07.000Z</time>
</trkpt>
<trkpt lat="32.6326530" lon="35.1112680">
<ele>86.000000</ele>
<time>2022-10-14T05:00:10.000Z</time>
</trkpt>
<trkpt lat="32.6325470" lon="35.1113820">
<ele>85.399994</ele>
<time>2022-10-14T05:00:13.000Z</time>
</trkpt>
<trkpt lat="32.6324660" lon="35.1114980">
<ele>85.800003</ele>
<time>2022-10-14T05:00:16.000Z</time>
</trkpt>
<trkpt lat="32.6324340" lon="35.1115830">
<ele>86.000000</ele>
<time>2022-10-14T05:00:18.000Z</time>
</trkpt>
<trkpt lat="32.6324230" lon="35.1116300">
<ele>86.000000</ele>
<time>2022-10-14T05:00:19.000Z</time>
</trkpt>
<trkpt lat="32.6324250" lon="35.1117060">
<ele>85.800003</ele>
<time>2022-10-14T05:00:21.000Z</time>
</trkpt>
<trkpt lat="32.6324380" lon="35.1118520">
<ele>84.199997</ele>
<time>2022-10-14T05:00:24.000Z</time>
</trkpt>
<trkpt lat="32.6324380" lon="35.1119840">
<ele>81.599998</ele>
<time>2022-10-14T05:00:27.000Z</time>
</trkpt>
<trkpt lat="32.6324300" lon="35.1120330">
<ele>80.599998</ele>
<time>2022-10-14T05:00:28.000Z</time>
</trkpt>
<trkpt lat="32.6324060" lon="35.1121170">
<ele>79.800003</ele>
<time>2022-10-14T05:00:30.000Z</time>
</trkpt>
<trkpt lat="32.6324070" lon="35.1121460">
<ele>79.599998</ele>
<time>2022-10-14T05:00:31.000Z</time>
</trkpt>
<trkpt lat="32.6324280" lon="35.1121990">
<ele>78.800003</ele>
<time>2022-10-14T05:00:33.000Z</time>
</trkpt>
<trkpt lat="32.6324380" lon="35.1122280">
<ele>78.199997</ele>
<time>2022-10-14T05:00:34.000Z</time>
</trkpt>
<trkpt lat="32.6324210" lon="35.1122910">
<ele>77.800003</ele>
<time>2022-10-14T05:00:36.000Z</time>
</trkpt>
<trkpt lat="32.6323990" lon="35.1123140">
<ele>77.800003</ele>
<time>2022-10-14T05:00:37.000Z</time>
</trkpt>
<trkpt lat="32.6323200" lon="35.1123770">
<ele>77.599998</ele>
<time>2022-10-14T05:00:40.000Z</time>
</trkpt>
<trkpt lat="32.6322250" lon="35.1124650">
<ele>77.800003</ele>
<time>2022-10-14T05:00:43.000Z</time>
</trkpt>
<trkpt lat="32.6320890" lon="35.1125690">
<ele>78.199997</ele>
<time>2022-10-14T05:00:47.000Z</time>
</trkpt>
<trkpt lat="32.6320290" lon="35.1126040">
<ele>78.399994</ele>
<time>2022-10-14T05:00:49.000Z</time>
</trkpt>
<trkpt lat="32.6319040" lon="35.1126610">
<ele>78.800003</ele>
<time>2022-10-14T05:00:53.000Z</time>
</trkpt>
<trkpt lat="32.6318140" lon="35.1127180">
<ele>79.200005</ele>
<time>2022-10-14T05:00:56.000Z</time>
</trkpt>
<trkpt lat="32.6317370" lon="35.1127670">
<ele>79.400002</ele>
<time>2022-10-14T05:00:59.000Z</time>
</trkpt>
<trkpt lat="32.6316240" lon="35.1128430">
<ele>80.199997</ele>
<time>2022-10-14T05:01:03.000Z</time>
</trkpt>
<trkpt lat="32.6315960" lon="35.1128590">
<ele>80.400002</ele>
<time>2022-10-14T05:01:04.000Z</time>
</trkpt>
<trkpt lat="32.6315110" lon="35.1129080">
<ele>80.799995</ele>
<time>2022-10-14T05:01:07.000Z</time>
</trkpt>
<trkpt lat="32.6314820" lon="35.1129220">
<ele>80.999992</ele>
<time>2022-10-14T05:01:08.000Z</time>
</trkpt>
<trkpt lat="32.6314290" lon="35.1129510">
<ele>81.200005</ele>
<time>2022-10-14T05:01:10.000Z</time>
</trkpt>
<trkpt lat="32.6314060" lon="35.1129590">
<ele>81.400002</ele>
<time>2022-10-14T05:01:11.000Z</time>
</trkpt>
<trkpt lat="32.6313630" lon="35.1129780">
<ele>81.800003</ele>
<time>2022-10-14T05:01:13.000Z</time>
</trkpt>
<trkpt lat="32.6312660" lon="35.1130220">
<ele>82.400002</ele>
<time>2022-10-14T05:01:17.000Z</time>
</trkpt>
<trkpt lat="32.6308600" lon="35.1132870">
<ele>82.400002</ele>
<time>2022-10-14T05:01:31.000Z</time>
</trkpt>
<trkpt lat="32.6307850" lon="35.1133300">
<ele>82.199997</ele>
<time>2022-10-14T05:01:33.000Z</time>
</trkpt>
<trkpt lat="32.6307080" lon="35.1133600">
<ele>82.199997</ele>
<time>2022-10-14T05:01:35.000Z</time>
</trkpt>
<trkpt lat="32.6306230" lon="35.1133770">
<ele>82.199997</ele>
<time>2022-10-14T05:01:37.000Z</time>
</trkpt>
<trkpt lat="32.6305770" lon="35.1133730">
<ele>82.199997</ele>
<time>2022-10-14T05:01:38.000Z</time>
</trkpt>
<trkpt lat="32.6305360" lon="35.1133600">
<ele>82.199997</ele>
<time>2022-10-14T05:01:39.000Z</time>
</trkpt>
<trkpt lat="32.6304560" lon="35.1133230">
<ele>82.400002</ele>
<time>2022-10-14T05:01:41.000Z</time>
</trkpt>
<trkpt lat="32.6303460" lon="35.1132790">
<ele>82.400002</ele>
<time>2022-10-14T05:01:44.000Z</time>
</trkpt>
<trkpt lat="32.6302700" lon="35.1132580">
<ele>82.400002</ele>
<time>2022-10-14T05:01:46.000Z</time>
</trkpt>
<trkpt lat="32.6301920" lon="35.1132280">
<ele>82.599998</ele>
<time>2022-10-14T05:01:48.000Z</time>
</trkpt>
<trkpt lat="32.6300400" lon="35.1131920">
<ele>83.000000</ele>
<time>2022-10-14T05:01:52.000Z</time>
</trkpt>
<trkpt lat="32.6299650" lon="35.1131810">
<ele>83.400002</ele>
<time>2022-10-14T05:01:54.000Z</time>
</trkpt>
<trkpt lat="32.6298160" lon="35.1131310">
<ele>84.000000</ele>
<time>2022-10-14T05:01:58.000Z</time>
</trkpt>
<trkpt lat="32.6297850" lon="35.1131240">
<ele>84.199997</ele>
<time>2022-10-14T05:01:59.000Z</time>
</trkpt>
<trkpt lat="32.6296910" lon="35.1131000">
<ele>84.599998</ele>
<time>2022-10-14T05:02:02.000Z</time>
</trkpt>
<trkpt lat="32.6296490" lon="35.1130950">
<ele>85.000000</ele>
<time>2022-10-14T05:02:03.000Z</time>
</trkpt>
<trkpt lat="32.6295910" lon="35.1130900">
<ele>85.199997</ele>
<time>2022-10-14T05:02:05.000Z</time>
</trkpt>
<trkpt lat="32.6294670" lon="35.1130590">
<ele>86.000000</ele>
<time>2022-10-14T05:02:09.000Z</time>
</trkpt>
<trkpt lat="32.6294010" lon="35.1130460">
<ele>86.200005</ele>
<time>2022-10-14T05:02:11.000Z</time>
</trkpt>
<trkpt lat="32.6293060" lon="35.1130430">
<ele>86.599998</ele>
<time>2022-10-14T05:02:14.000Z</time>
</trkpt>
<trkpt lat="32.6289350" lon="35.1129710">
<ele>86.200005</ele>
<time>2022-10-14T05:02:23.000Z</time>
</trkpt>
<trkpt lat="32.6288470" lon="35.1129510">
<ele>86.200005</ele>
<time>2022-10-14T05:02:25.000Z</time>
</trkpt>
<trkpt lat="32.6288070" lon="35.1129320">
<ele>86.400002</ele>
<time>2022-10-14T05:02:26.000Z</time>
</trkpt>
<trkpt lat="32.6287460" lon="35.1128730">
<ele>86.599998</ele>
<time>2022-10-14T05:02:28.000Z</time>
</trkpt>
<trkpt lat="32.6286100" lon="35.1127160">
<ele>87.199997</ele>
<time>2022-10-14T05:02:33.000Z</time>
</trkpt>
<trkpt lat="32.6285420" lon="35.1126140">
<ele>87.399994</ele>
<time>2022-10-14T05:02:36.000Z</time>
</trkpt>
<trkpt lat="32.6284700" lon="35.1125120">
<ele>87.999992</ele>
<time>2022-10-14T05:02:39.000Z</time>
</trkpt>
<trkpt lat="32.6284510" lon="35.1124760">
<ele>88.200005</ele>
<time>2022-10-14T05:02:40.000Z</time>
</trkpt>
<trkpt lat="32.6283920" lon="35.1123720">
<ele>88.400002</ele>
<time>2022-10-14T05:02:43.000Z</time>
</trkpt>
<trkpt lat="32.6283720" lon="35.1123390">
<ele>88.599998</ele>
<time>2022-10-14T05:02:44.000Z</time>
</trkpt>
<trkpt lat="32.6283340" lon="35.1122690">
<ele>89.000000</ele>
<time>2022-10-14T05:02:46.000Z</time>
</trkpt>
<trkpt lat="32.6282700" lon="35.1121240">
<ele>89.599998</ele>
<time>2022-10-14T05:02:50.000Z</time>
</trkpt>
<trkpt lat="32.6281350" lon="35.1118580">
<ele>90.800003</ele>
<time>2022-10-14T05:02:57.000Z</time>
</trkpt>
<trkpt lat="32.6280350" lon="35.1116780">
<ele>91.199997</ele>
<time>2022-10-14T05:03:01.000Z</time>
</trkpt>
<trkpt lat="32.6280170" lon="35.1116440">
<ele>91.199997</ele>
<time>2022-10-14T05:03:02.000Z</time>
</trkpt>
<trkpt lat="32.6279970" lon="35.1115960">
<ele>91.199997</ele>
<time>2022-10-14T05:03:03.000Z</time>
</trkpt>
<trkpt lat="32.6279030" lon="35.1114100">
<ele>91.400002</ele>
<time>2022-10-14T05:03:07.000Z</time>
</trkpt>
<trkpt lat="32.6278780" lon="35.1113640">
<ele>91.599998</ele>
<time>2022-10-14T05:03:08.000Z</time>
</trkpt>
<trkpt lat="32.6278500" lon="35.1113200">
<ele>91.599998</ele>
<time>2022-10-14T05:03:09.000Z</time>
</trkpt>
<trkpt lat="32.6277360" lon="35.1111280">
<ele>91.799995</ele>
<time>2022-10-14T05:03:13.000Z</time>
</trkpt>
<trkpt lat="32.6275620" lon="35.1107440">
<ele>92.000000</ele>
<time>2022-10-14T05:03:20.000Z</time>
</trkpt>
<trkpt lat="32.6275460" lon="35.1106940">
<ele>92.000000</ele>
<time>2022-10-14T05:03:21.000Z</time>
</trkpt>
<trkpt lat="32.6275260" lon="35.1105820">
<ele>92.399994</ele>
<time>2022-10-14T05:03:23.000Z</time>
</trkpt>
<trkpt lat="32.6275160" lon="35.1103740">
<ele>93.200005</ele>
<time>2022-10-14T05:03:27.000Z</time>
</trkpt>
<trkpt lat="32.6275190" lon="35.1103370">
<ele>93.200005</ele>
<time>2022-10-14T05:03:28.000Z</time>
</trkpt>
<trkpt lat="32.6275240" lon="35.1102520">
<ele>93.599998</ele>
<time>2022-10-14T05:03:30.000Z</time>
</trkpt>
<trkpt lat="32.6275330" lon="35.1101700">
<ele>94.000000</ele>
<time>2022-10-14T05:03:32.000Z</time>
</trkpt>
<trkpt lat="32.6275410" lon="35.1100940">
<ele>94.199997</ele>
<time>2022-10-14T05:03:34.000Z</time>
</trkpt>
<trkpt lat="32.6275470" lon="35.1100020">
<ele>94.600006</ele>
<time>2022-10-14T05:03:37.000Z</time>
</trkpt>
<trkpt lat="32.6275560" lon="35.1099790">
<ele>94.800003</ele>
<time>2022-10-14T05:03:38.000Z</time>
</trkpt>
<trkpt lat="32.6275700" lon="35.1099570">
<ele>94.800003</ele>
<time>2022-10-14T05:03:39.000Z</time>
</trkpt>
<trkpt lat="32.6276040" lon="35.1099220">
<ele>95.000000</ele>
<time>2022-10-14T05:03:41.000Z</time>
</trkpt>
<trkpt lat="32.6276430" lon="35.1098960">
<ele>95.400002</ele>
<time>2022-10-14T05:03:43.000Z</time>
</trkpt>
<trkpt lat="32.6276580" lon="35.1098540">
<ele>96.000000</ele>
<time>2022-10-14T05:03:45.000Z</time>
</trkpt>
<trkpt lat="32.6276650" lon="35.1097750">
<ele>96.199997</ele>
<time>2022-10-14T05:03:48.000Z</time>
</trkpt>
<trkpt lat="32.6276700" lon="35.1097400">
<ele>96.199997</ele>
<time>2022-10-14T05:03:49.000Z</time>
</trkpt>
<trkpt lat="32.6276970" lon="35.1096820">
<ele>96.400002</ele>
<time>2022-10-14T05:03:51.000Z</time>
</trkpt>
<trkpt lat="32.6277760" lon="35.1095550">
<ele>96.999992</ele>
<time>2022-10-14T05:03:56.000Z</time>
</trkpt>
<trkpt lat="32.6277980" lon="35.1095370">
<ele>97.200005</ele>
<time>2022-10-14T05:03:57.000Z</time>
</trkpt>
<trkpt lat="32.6278210" lon="35.1095410">
<ele>97.400002</ele>
<time>2022-10-14T05:03:58.000Z</time>
</trkpt>
<trkpt lat="32.6278360" lon="35.1095830">
<ele>98.199997</ele>
<time>2022-10-14T05:04:00.000Z</time>
</trkpt>
<trkpt lat="32.6277590" lon="35.1097870">
<ele>98.799995</ele>
<time>2022-10-14T05:04:06.000Z</time>
</trkpt>
<trkpt lat="32.6277480" lon="35.1098270">
<ele>98.799995</ele>
<time>2022-10-14T05:04:07.000Z</time>
</trkpt>
<trkpt lat="32.6277140" lon="35.1099370">
<ele>98.599998</ele>
<time>2022-10-14T05:04:10.000Z</time>
</trkpt>
<trkpt lat="32.6277000" lon="35.1100250">
<ele>98.400002</ele>
<time>2022-10-14T05:04:12.000Z</time>
</trkpt>
<trkpt lat="32.6276910" lon="35.1100690">
<ele>98.400002</ele>
<time>2022-10-14T05:04:13.000Z</time>
</trkpt>
<trkpt lat="32.6276860" lon="35.1101090">
<ele>98.199997</ele>
<time>2022-10-14T05:04:14.000Z</time>
</trkpt>
<trkpt lat="32.6276720" lon="35.1101940">
<ele>98.000000</ele>
<time>2022-10-14T05:04:16.000Z</time>
</trkpt>
<trkpt lat="32.6276660" lon="35.1102370">
<ele>98.000000</ele>
<time>2022-10-14T05:04:17.000Z</time>
</trkpt>
<trkpt lat="32.6276660" lon="35.1103770">
<ele>97.800003</ele>
<time>2022-10-14T05:04:20.000Z</time>
</trkpt>
<trkpt lat="32.6276620" lon="35.1104640">
<ele>97.599998</ele>
<time>2022-10-14T05:04:22.000Z</time>
</trkpt>
<trkpt lat="32.6276590" lon="35.1105110">
<ele>97.400002</ele>
<time>2022-10-14T05:04:23.000Z</time>
</trkpt>
<trkpt lat="32.6276790" lon="35.1106240">
<ele>96.999992</ele>
<time>2022-10-14T05:04:25.000Z</time>
</trkpt>
<trkpt lat="32.6277030" lon="35.1106740">
<ele>96.999992</ele>
<time>2022-10-14T05:04:26.000Z</time>
</trkpt>
<trkpt lat="32.6277530" lon="35.1107660">
<ele>96.799995</ele>
<time>2022-10-14T05:04:28.000Z</time>
</trkpt>
<trkpt lat="32.6277910" lon="35.1108470">
<ele>96.799995</ele>
<time>2022-10-14T05:04:30.000Z</time>
</trkpt>
<trkpt lat="32.6278270" lon="35.1109380">
<ele>96.599998</ele>
<time>2022-10-14T05:04:32.000Z</time>
</trkpt>
<trkpt lat="32.6279100" lon="35.1110850">
<ele>96.999992</ele>
<time>2022-10-14T05:04:37.000Z</time>
</trkpt>
<trkpt lat="32.6280030" lon="35.1112810">
<ele>96.999992</ele>
<time>2022-10-14T05:04:42.000Z</time>
</trkpt>
<trkpt lat="32.6280850" lon="35.1114980">
<ele>96.199997</ele>
<time>2022-10-14T05:04:47.000Z</time>
</trkpt>
<trkpt lat="32.6281400" lon="35.1115770">
<ele>96.000000</ele>
<time>2022-10-14T05:04:49.000Z</time>
</trkpt>
<trkpt lat="32.6281840" lon="35.1116420">
<ele>95.800003</ele>
<time>2022-10-14T05:04:51.000Z</time>
</trkpt>
<trkpt lat="32.6282360" lon="35.1117570">
<ele>96.000000</ele>
<time>2022-10-14T05:04:54.000Z</time>
</trkpt>
<trkpt lat="32.6282700" lon="35.1118040">
<ele>96.000000</ele>
<time>2022-10-14T05:04:55.000Z</time>
</trkpt>
<trkpt lat="32.6282980" lon="35.1118520">
<ele>96.000000</ele>
<time>2022-10-14T05:04:56.000Z</time>
</trkpt>
<trkpt lat="32.6283720" lon="35.1119560">
<ele>96.799995</ele>
<time>2022-10-14T05:04:59.000Z</time>
</trkpt>
<trkpt lat="32.6283900" lon="35.1119750">
<ele>97.200005</ele>
<time>2022-10-14T05:05:00.000Z</time>
</trkpt>
<trkpt lat="32.6284040" lon="35.1119840">
<ele>97.599998</ele>
<time>2022-10-14T05:05:01.000Z</time>
</trkpt>
<trkpt lat="32.6284280" lon="35.1119840">
<ele>98.400002</ele>
<time>2022-10-14T05:05:03.000Z</time>
</trkpt>
<trkpt lat="32.6284120" lon="35.1119400">
<ele>99.000000</ele>
<time>2022-10-14T05:05:05.000Z</time>
</trkpt>
<trkpt lat="32.6283750" lon="35.1117530">
<ele>100.199997</ele>
<time>2022-10-14T05:05:11.000Z</time>
</trkpt>
<trkpt lat="32.6283480" lon="35.1117040">
<ele>100.599998</ele>
<time>2022-10-14T05:05:13.000Z</time>
</trkpt>
<trkpt lat="32.6282930" lon="35.1116550">
<ele>101.199997</ele>
<time>2022-10-14T05:05:16.000Z</time>
</trkpt>
<trkpt lat="32.6282590" lon="35.1115960">
<ele>101.399994</ele>
<time>2022-10-14T05:05:18.000Z</time>
</trkpt>
<trkpt lat="32.6281570" lon="35.1113330">
<ele>102.200005</ele>
<time>2022-10-14T05:05:25.000Z</time>
</trkpt>
<trkpt lat="32.6280690" lon="35.1111590">
<ele>103.399994</ele>
<time>2022-10-14T05:05:31.000Z</time>
</trkpt>
<trkpt lat="32.6280410" lon="35.1110940">
<ele>103.399994</ele>
<time>2022-10-14T05:05:33.000Z</time>
</trkpt>
<trkpt lat="32.6280250" lon="35.1110620">
<ele>103.599998</ele>
<time>2022-10-14T05:05:34.000Z</time>
</trkpt>
<trkpt lat="32.6280110" lon="35.1110260">
<ele>103.599998</ele>
<time>2022-10-14T05:05:35.000Z</time>
</trkpt>
<trkpt lat="32.6279200" lon="35.1108310">
<ele>103.599998</ele>
<time>2022-10-14T05:05:41.000Z</time>
</trkpt>
<trkpt lat="32.6279030" lon="35.1107970">
<ele>103.599998</ele>
<time>2022-10-14T05:05:42.000Z</time>
</trkpt>
<trkpt lat="32.6278810" lon="35.1107070">
<ele>103.599998</ele>
<time>2022-10-14T05:05:44.000Z</time>
</trkpt>
<trkpt lat="32.6278750" lon="35.1106430">
<ele>103.799995</ele>
<time>2022-10-14T05:05:46.000Z</time>
</trkpt>
<trkpt lat="32.6278660" lon="35.1105300">
<ele>103.999992</ele>
<time>2022-10-14T05:05:49.000Z</time>
</trkpt>
<trkpt lat="32.6278610" lon="35.1103960">
<ele>103.999992</ele>
<time>2022-10-14T05:05:52.000Z</time>
</trkpt>
<trkpt lat="32.6278520" lon="35.1103100">
<ele>103.999992</ele>
<time>2022-10-14T05:05:54.000Z</time>
</trkpt>
<trkpt lat="32.6278280" lon="35.1101170">
<ele>103.399994</ele>
<time>2022-10-14T05:05:58.000Z</time>
</trkpt>
<trkpt lat="32.6278300" lon="35.1100760">
<ele>103.399994</ele>
<time>2022-10-14T05:05:59.000Z</time>
</trkpt>
<trkpt lat="32.6278320" lon="35.1100330">
<ele>103.399994</ele>
<time>2022-10-14T05:06:00.000Z</time>
</trkpt>
<trkpt lat="32.6278510" lon="35.1099840">
<ele>103.399994</ele>
<time>2022-10-14T05:06:01.000Z</time>
</trkpt>
<trkpt lat="32.6278630" lon="35.1099490">
<ele>103.599998</ele>
<time>2022-10-14T05:06:02.000Z</time>
</trkpt>
<trkpt lat="32.6279430" lon="35.1097440">
<ele>105.000000</ele>
<time>2022-10-14T05:06:08.000Z</time>
</trkpt>
<trkpt lat="32.6279600" lon="35.1096780">
<ele>105.199997</ele>
<time>2022-10-14T05:06:10.000Z</time>
</trkpt>
<trkpt lat="32.6279630" lon="35.1096440">
<ele>105.199997</ele>
<time>2022-10-14T05:06:11.000Z</time>
</trkpt>
<trkpt lat="32.6279780" lon="35.1095620">
<ele>105.199997</ele>
<time>2022-10-14T05:06:13.000Z</time>
</trkpt>
<trkpt lat="32.6279940" lon="35.1095170">
<ele>105.199997</ele>
<time>2022-10-14T05:06:14.000Z</time>
</trkpt>
<trkpt lat="32.6280810" lon="35.1093640">
<ele>105.400002</ele>
<time>2022-10-14T05:06:18.000Z</time>
</trkpt>
<trkpt lat="32.6281010" lon="35.1093260">
<ele>105.599998</ele>
<time>2022-10-14T05:06:19.000Z</time>
</trkpt>
<trkpt lat="32.6281200" lon="35.1092900">
<ele>105.599998</ele>
<time>2022-10-14T05:06:20.000Z</time>
</trkpt>
<trkpt lat="32.6281500" lon="35.1092010">
<ele>105.599998</ele>
<time>2022-10-14T05:06:22.000Z</time>
</trkpt>
<trkpt lat="32.6281960" lon="35.1091110">
<ele>105.400002</ele>
<time>2022-10-14T05:06:24.000Z</time>
</trkpt>
<trkpt lat="32.6282230" lon="35.1090690">
<ele>105.400002</ele>
<time>2022-10-14T05:06:25.000Z</time>
</trkpt>
<trkpt lat="32.6282430" lon="35.1090330">
<ele>105.400002</ele>
<time>2022-10-14T05:06:26.000Z</time>
</trkpt>
<trkpt lat="32.6283320" lon="35.1089310">
<ele>106.000008</ele>
<time>2022-10-14T05:06:30.000Z</time>
</trkpt>
<trkpt lat="32.6283830" lon="35.1088810">
<ele>105.799995</ele>
<time>2022-10-14T05:06:32.000Z</time>
</trkpt>
<trkpt lat="32.6284640" lon="35.1087740">
<ele>105.799995</ele>
<time>2022-10-14T05:06:35.000Z</time>
</trkpt>
<trkpt lat="32.6285200" lon="35.1087410">
<ele>105.599998</ele>
<time>2022-10-14T05:06:37.000Z</time>
</trkpt>
<trkpt lat="32.6286530" lon="35.1085560">
<ele>104.800003</ele>
<time>2022-10-14T05:06:42.000Z</time>
</trkpt>
<trkpt lat="32.6287170" lon="35.1085120">
<ele>104.400002</ele>
<time>2022-10-14T05:06:44.000Z</time>
</trkpt>
<trkpt lat="32.6287430" lon="35.1084820">
<ele>104.400002</ele>
<time>2022-10-14T05:06:45.000Z</time>
</trkpt>
<trkpt lat="32.6287740" lon="35.1083940">
<ele>103.799995</ele>
<time>2022-10-14T05:06:47.000Z</time>
</trkpt>
<trkpt lat="32.6288000" lon="35.1083510">
<ele>103.399994</ele>
<time>2022-10-14T05:06:48.000Z</time>
</trkpt>
<trkpt lat="32.6288360" lon="35.1083160">
<ele>103.199997</ele>
<time>2022-10-14T05:06:49.000Z</time>
</trkpt>
<trkpt lat="32.6288750" lon="35.1082840">
<ele>103.000000</ele>
<time>2022-10-14T05:06:50.000Z</time>
</trkpt>
<trkpt lat="32.6289080" lon="35.1082520">
<ele>102.800003</ele>
<time>2022-10-14T05:06:51.000Z</time>
</trkpt>
<trkpt lat="32.6290190" lon="35.1081120">
<ele>102.800003</ele>
<time>2022-10-14T05:06:55.000Z</time>
</trkpt>
<trkpt lat="32.6290790" lon="35.1080140">
<ele>102.800003</ele>
<time>2022-10-14T05:06:58.000Z</time>
</trkpt>
<trkpt lat="32.6291040" lon="35.1079580">
<ele>102.599998</ele>
<time>2022-10-14T05:07:00.000Z</time>
</trkpt>
<trkpt lat="32.6291130" lon="35.1079290">
<ele>102.599998</ele>
<time>2022-10-14T05:07:01.000Z</time>
</trkpt>
<trkpt lat="32.6291130" lon="35.1079010">
<ele>102.400002</ele>
<time>2022-10-14T05:07:02.000Z</time>
</trkpt>
<trkpt lat="32.6291030" lon="35.1078800">
<ele>102.400002</ele>
<time>2022-10-14T05:07:03.000Z</time>
</trkpt>
<trkpt lat="32.6290520" lon="35.1078390">
<ele>101.600006</ele>
<time>2022-10-14T05:07:06.000Z</time>
</trkpt>
<trkpt lat="32.6289890" lon="35.1077890">
<ele>100.400002</ele>
<time>2022-10-14T05:07:18.000Z</time>
</trkpt>
<trkpt lat="32.6288600" lon="35.1076580">
<ele>99.600006</ele>
<time>2022-10-14T05:07:24.000Z</time>
</trkpt>
<trkpt lat="32.6287560" lon="35.1075270">
<ele>98.799995</ele>
<time>2022-10-14T05:07:28.000Z</time>
</trkpt>
<trkpt lat="32.6286350" lon="35.1074050">
<ele>97.800003</ele>
<time>2022-10-14T05:07:33.000Z</time>
</trkpt>
<trkpt lat="32.6285470" lon="35.1073340">
<ele>97.599998</ele>
<time>2022-10-14T05:07:36.000Z</time>
</trkpt>
<trkpt lat="32.6285170" lon="35.1073230">
<ele>97.599998</ele>
<time>2022-10-14T05:07:37.000Z</time>
</trkpt>
<trkpt lat="32.6284570" lon="35.1073260">
<ele>97.800003</ele>
<time>2022-10-14T05:07:39.000Z</time>
</trkpt>
<trkpt lat="32.6283390" lon="35.1073900">
<ele>98.000000</ele>
<time>2022-10-14T05:07:43.000Z</time>
</trkpt>
<trkpt lat="32.6283130" lon="35.1074190">
<ele>98.000000</ele>
<time>2022-10-14T05:07:44.000Z</time>
</trkpt>
<trkpt lat="32.6281860" lon="35.1075890">
<ele>97.800003</ele>
<time>2022-10-14T05:07:49.000Z</time>
</trkpt>
<trkpt lat="32.6281620" lon="35.1076220">
<ele>97.800003</ele>
<time>2022-10-14T05:07:50.000Z</time>
</trkpt>
<trkpt lat="32.6281100" lon="35.1076890">
<ele>97.800003</ele>
<time>2022-10-14T05:07:52.000Z</time>
</trkpt>
<trkpt lat="32.6280470" lon="35.1077560">
<ele>97.400002</ele>
<time>2022-10-14T05:07:54.000Z</time>
</trkpt>
<trkpt lat="32.6279820" lon="35.1078350">
<ele>97.200005</ele>
<time>2022-10-14T05:07:56.000Z</time>
</trkpt>
<trkpt lat="32.6275840" lon="35.1082450">
<ele>96.400002</ele>
<time>2022-10-14T05:08:07.000Z</time>
</trkpt>
<trkpt lat="32.6275560" lon="35.1082800">
<ele>96.400002</ele>
<time>2022-10-14T05:08:08.000Z</time>
</trkpt>
<trkpt lat="32.6274380" lon="35.1084070">
<ele>96.599998</ele>
<time>2022-10-14T05:08:12.000Z</time>
</trkpt>
<trkpt lat="32.6272890" lon="35.1086060">
<ele>96.799995</ele>
<time>2022-10-14T05:08:18.000Z</time>
</trkpt>
<trkpt lat="32.6272710" lon="35.1086450">
<ele>96.999992</ele>
<time>2022-10-14T05:08:19.000Z</time>
</trkpt>
<trkpt lat="32.6271140" lon="35.1089250">
<ele>97.400002</ele>
<time>2022-10-14T05:08:26.000Z</time>
</trkpt>
<trkpt lat="32.6269080" lon="35.1093510">
<ele>95.400002</ele>
<time>2022-10-14T05:08:33.000Z</time>
</trkpt>
<trkpt lat="32.6268540" lon="35.1094920">
<ele>95.200005</ele>
<time>2022-10-14T05:08:35.000Z</time>
</trkpt>
<trkpt lat="32.6268160" lon="35.1096220">
<ele>95.200005</ele>
<time>2022-10-14T05:08:37.000Z</time>
</trkpt>
<trkpt lat="32.6268030" lon="35.1096880">
<ele>95.200005</ele>
<time>2022-10-14T05:08:38.000Z</time>
</trkpt>
<trkpt lat="32.6267890" lon="35.1097570">
<ele>95.000000</ele>
<time>2022-10-14T05:08:39.000Z</time>
</trkpt>
<trkpt lat="32.6267490" lon="35.1099550">
<ele>94.800003</ele>
<time>2022-10-14T05:08:42.000Z</time>
</trkpt>
<trkpt lat="32.6267430" lon="35.1100180">
<ele>94.800003</ele>
<time>2022-10-14T05:08:43.000Z</time>
</trkpt>
<trkpt lat="32.6267090" lon="35.1102530">
<ele>94.600006</ele>
<time>2022-10-14T05:08:47.000Z</time>
</trkpt>
<trkpt lat="32.6266990" lon="35.1104250">
<ele>94.800003</ele>
<time>2022-10-14T05:08:50.000Z</time>
</trkpt>
<trkpt lat="32.6266970" lon="35.1104800">
<ele>94.800003</ele>
<time>2022-10-14T05:08:51.000Z</time>
</trkpt>
<trkpt lat="32.6266950" lon="35.1107440">
<ele>94.800003</ele>
<time>2022-10-14T05:08:56.000Z</time>
</trkpt>
<trkpt lat="32.6266880" lon="35.1109480">
<ele>94.800003</ele>
<time>2022-10-14T05:09:00.000Z</time>
</trkpt>
<trkpt lat="32.6266890" lon="35.1110540">
<ele>94.800003</ele>
<time>2022-10-14T05:09:02.000Z</time>
</trkpt>
<trkpt lat="32.6266900" lon="35.1111050">
<ele>94.800003</ele>
<time>2022-10-14T05:09:03.000Z</time>
</trkpt>
<trkpt lat="32.6266880" lon="35.1111510">
<ele>94.800003</ele>
<time>2022-10-14T05:09:04.000Z</time>
</trkpt>
<trkpt lat="32.6266930" lon="35.1111950">
<ele>95.000000</ele>
<time>2022-10-14T05:09:05.000Z</time>
</trkpt>
<trkpt lat="32.6266970" lon="35.1112340">
<ele>95.000000</ele>
<time>2022-10-14T05:09:06.000Z</time>
</trkpt>
<trkpt lat="32.6266990" lon="35.1112650">
<ele>95.400002</ele>
<time>2022-10-14T05:09:07.000Z</time>
</trkpt>
<trkpt lat="32.6267010" lon="35.1114130">
<ele>96.799995</ele>
<time>2022-10-14T05:09:12.000Z</time>
</trkpt>
<trkpt lat="32.6267040" lon="35.1114610">
<ele>97.400002</ele>
<time>2022-10-14T05:09:14.000Z</time>
</trkpt>
<trkpt lat="32.6267060" lon="35.1114900">
<ele>97.599998</ele>
<time>2022-10-14T05:09:15.000Z</time>
</trkpt>
<trkpt lat="32.6267180" lon="35.1115790">
<ele>98.000000</ele>
<time>2022-10-14T05:09:18.000Z</time>
</trkpt>
<trkpt lat="32.6267360" lon="35.1116620">
<ele>99.000000</ele>
<time>2022-10-14T05:09:22.000Z</time>
</trkpt>
<trkpt lat="32.6267410" lon="35.1116790">
<ele>99.400002</ele>
<time>2022-10-14T05:09:23.000Z</time>
</trkpt>
<trkpt lat="32.6267790" lon="35.1117920">
<ele>100.799995</ele>
<time>2022-10-14T05:09:28.000Z</time>
</trkpt>
<trkpt lat="32.6268250" lon="35.1118690">
<ele>102.000000</ele>
<time>2022-10-14T05:09:32.000Z</time>
</trkpt>
<trkpt lat="32.6269230" lon="35.1121020">
<ele>104.200005</ele>
<time>2022-10-14T05:09:42.000Z</time>
</trkpt>
<trkpt lat="32.6269790" lon="35.1121950">
<ele>105.000000</ele>
<time>2022-10-14T05:09:46.000Z</time>
</trkpt>
<trkpt lat="32.6269930" lon="35.1122180">
<ele>105.199997</ele>
<time>2022-10-14T05:09:47.000Z</time>
</trkpt>
<trkpt lat="32.6270290" lon="35.1122520">
<ele>105.599998</ele>
<time>2022-10-14T05:09:49.000Z</time>
</trkpt>
<trkpt lat="32.6270400" lon="35.1122750">
<ele>105.799995</ele>
<time>2022-10-14T05:09:50.000Z</time>
</trkpt>
<trkpt lat="32.6270500" lon="35.1122910">
<ele>106.000008</ele>
<time>2022-10-14T05:09:51.000Z</time>
</trkpt>
<trkpt lat="32.6270560" lon="35.1123100">
<ele>106.400002</ele>
<time>2022-10-14T05:09:52.000Z</time>
</trkpt>
<trkpt lat="32.6270600" lon="35.1123310">
<ele>106.599998</ele>
<time>2022-10-14T05:09:53.000Z</time>
</trkpt>
<trkpt lat="32.6270920" lon="35.1123810">
<ele>107.199997</ele>
<time>2022-10-14T05:09:56.000Z</time>
</trkpt>
<trkpt lat="32.6271430" lon="35.1124760">
<ele>107.799995</ele>
<time>2022-10-14T05:10:00.000Z</time>
</trkpt>
<trkpt lat="32.6271550" lon="35.1124980">
<ele>107.799995</ele>
<time>2022-10-14T05:10:01.000Z</time>
</trkpt>
<trkpt lat="32.6271810" lon="35.1125490">
<ele>108.399994</ele>
<time>2022-10-14T05:10:04.000Z</time>
</trkpt>
<trkpt lat="32.6272170" lon="35.1125990">
<ele>109.400002</ele>
<time>2022-10-14T05:10:08.000Z</time>
</trkpt>
<trkpt lat="32.6272370" lon="35.1126480">
<ele>109.799995</ele>
<time>2022-10-14T05:10:11.000Z</time>
</trkpt>
<trkpt lat="32.6272680" lon="35.1126970">
<ele>110.399994</ele>
<time>2022-10-14T05:10:14.000Z</time>
</trkpt>
<trkpt lat="32.6273020" lon="35.1127720">
<ele>111.200005</ele>
<time>2022-10-14T05:10:18.000Z</time>
</trkpt>
<trkpt lat="32.6273120" lon="35.1127910">
<ele>111.400002</ele>
<time>2022-10-14T05:10:19.000Z</time>
</trkpt>
<trkpt lat="32.6273420" lon="35.1128150">
<ele>111.599998</ele>
<time>2022-10-14T05:10:21.000Z</time>
</trkpt>
<trkpt lat="32.6273880" lon="35.1128710">
<ele>112.400002</ele>
<time>2022-10-14T05:10:25.000Z</time>
</trkpt>
<trkpt lat="32.6274710" lon="35.1130200">
<ele>113.800003</ele>
<time>2022-10-14T05:10:33.000Z</time>
</trkpt>
<trkpt lat="32.6275780" lon="35.1132010">
<ele>115.800003</ele>
<time>2022-10-14T05:10:44.000Z</time>
</trkpt>
<trkpt lat="32.6276060" lon="35.1132540">
<ele>116.199997</ele>
<time>2022-10-14T05:10:47.000Z</time>
</trkpt>
<trkpt lat="32.6276400" lon="35.1133090">
<ele>116.599998</ele>
<time>2022-10-14T05:10:50.000Z</time>
</trkpt>
<trkpt lat="32.6276610" lon="35.1133520">
<ele>116.799995</ele>
<time>2022-10-14T05:10:52.000Z</time>
</trkpt>
<trkpt lat="32.6277530" lon="35.1134890">
<ele>118.200005</ele>
<time>2022-10-14T05:11:00.000Z</time>
</trkpt>
<trkpt lat="32.6277670" lon="35.1135100">
<ele>118.400002</ele>
<time>2022-10-14T05:11:01.000Z</time>
</trkpt>
<trkpt lat="32.6278220" lon="35.1135840">
<ele>118.800003</ele>
<time>2022-10-14T05:11:05.000Z</time>
</trkpt>
<trkpt lat="32.6278650" lon="35.1136510">
<ele>119.399994</ele>
<time>2022-10-14T05:11:09.000Z</time>
</trkpt>
<trkpt lat="32.6278830" lon="35.1137060">
<ele>120.200005</ele>
<time>2022-10-14T05:11:13.000Z</time>
</trkpt>
<trkpt lat="32.6278840" lon="35.1137180">
<ele>120.400002</ele>
<time>2022-10-14T05:11:14.000Z</time>
</trkpt>
<trkpt lat="32.6278850" lon="35.1137370">
<ele>121.000000</ele>
<time>2022-10-14T05:11:16.000Z</time>
</trkpt>
<trkpt lat="32.6278900" lon="35.1137520">
<ele>121.000000</ele>
<time>2022-10-14T05:11:17.000Z</time>
</trkpt>
<trkpt lat="32.6279070" lon="35.1138220">
<ele>121.599998</ele>
<time>2022-10-14T05:11:20.000Z</time>
</trkpt>
<trkpt lat="32.6279470" lon="35.1139080">
<ele>122.400002</ele>
<time>2022-10-14T05:11:25.000Z</time>
</trkpt>
<trkpt lat="32.6279640" lon="35.1139350">
<ele>122.599998</ele>
<time>2022-10-14T05:11:27.000Z</time>
</trkpt>
<trkpt lat="32.6279870" lon="35.1139550">
<ele>122.800003</ele>
<time>2022-10-14T05:11:29.000Z</time>
</trkpt>
<trkpt lat="32.6280310" lon="35.1139790">
<ele>123.400002</ele>
<time>2022-10-14T05:11:32.000Z</time>
</trkpt>
<trkpt lat="32.6280420" lon="35.1139830">
<ele>123.599998</ele>
<time>2022-10-14T05:11:33.000Z</time>
</trkpt>
<trkpt lat="32.6280880" lon="35.1140270">
<ele>124.199997</ele>
<time>2022-10-14T05:11:36.000Z</time>
</trkpt>
<trkpt lat="32.6281980" lon="35.1141010">
<ele>124.800003</ele>
<time>2022-10-14T05:11:42.000Z</time>
</trkpt>
<trkpt lat="32.6282150" lon="35.1141150">
<ele>124.800003</ele>
<time>2022-10-14T05:11:43.000Z</time>
</trkpt>
<trkpt lat="32.6282320" lon="35.1141290">
<ele>125.200005</ele>
<time>2022-10-14T05:11:44.000Z</time>
</trkpt>
<trkpt lat="32.6283070" lon="35.1142060">
<ele>125.599998</ele>
<time>2022-10-14T05:11:49.000Z</time>
</trkpt>
<trkpt lat="32.6284710" lon="35.1143490">
<ele>126.000000</ele>
<time>2022-10-14T05:11:57.000Z</time>
</trkpt>
<trkpt lat="32.6285500" lon="35.1144190">
<ele>125.599998</ele>
<time>2022-10-14T05:12:00.000Z</time>
</trkpt>
<trkpt lat="32.6285780" lon="35.1144510">
<ele>125.599998</ele>
<time>2022-10-14T05:12:01.000Z</time>
</trkpt>
<trkpt lat="32.6286410" lon="35.1145260">
<ele>125.599998</ele>
<time>2022-10-14T05:12:04.000Z</time>
</trkpt>
<trkpt lat="32.6288400" lon="35.1147960">
<ele>128.199997</ele>
<time>2022-10-14T05:12:17.000Z</time>
</trkpt>
<trkpt lat="32.6288980" lon="35.1148460">
<ele>128.600006</ele>
<time>2022-10-14T05:12:20.000Z</time>
</trkpt>
<trkpt lat="32.6289210" lon="35.1148580">
<ele>128.800003</ele>
<time>2022-10-14T05:12:21.000Z</time>
</trkpt>
<trkpt lat="32.6289410" lon="35.1148640">
<ele>128.800003</ele>
<time>2022-10-14T05:12:22.000Z</time>
</trkpt>
<trkpt lat="32.6290070" lon="35.1148540">
<ele>129.599991</ele>
<time>2022-10-14T05:12:26.000Z</time>
</trkpt>
<trkpt lat="32.6290410" lon="35.1148300">
<ele>130.000000</ele>
<time>2022-10-14T05:12:28.000Z</time>
</trkpt>
<trkpt lat="32.6291760" lon="35.1147450">
<ele>132.000000</ele>
<time>2022-10-14T05:12:37.000Z</time>
</trkpt>
<trkpt lat="32.6291910" lon="35.1147330">
<ele>132.199997</ele>
<time>2022-10-14T05:12:38.000Z</time>
</trkpt>
<trkpt lat="32.6292120" lon="35.1147240">
<ele>132.199997</ele>
<time>2022-10-14T05:12:39.000Z</time>
</trkpt>
<trkpt lat="32.6292570" lon="35.1147270">
<ele>133.000000</ele>
<time>2022-10-14T05:12:42.000Z</time>
</trkpt>
<trkpt lat="32.6293180" lon="35.1147060">
<ele>133.600006</ele>
<time>2022-10-14T05:12:45.000Z</time>
</trkpt>
<trkpt lat="32.6293350" lon="35.1146900">
<ele>133.800003</ele>
<time>2022-10-14T05:12:46.000Z</time>
</trkpt>
<trkpt lat="32.6293560" lon="35.1146800">
<ele>133.800003</ele>
<time>2022-10-14T05:12:47.000Z</time>
</trkpt>
<trkpt lat="32.6293870" lon="35.1146750">
<ele>134.199997</ele>
<time>2022-10-14T05:12:49.000Z</time>
</trkpt>
<trkpt lat="32.6294730" lon="35.1146400">
<ele>135.000000</ele>
<time>2022-10-14T05:12:54.000Z</time>
</trkpt>
<trkpt lat="32.6294920" lon="35.1146350">
<ele>135.399994</ele>
<time>2022-10-14T05:12:55.000Z</time>
</trkpt>
<trkpt lat="32.6295290" lon="35.1146300">
<ele>136.000000</ele>
<time>2022-10-14T05:12:57.000Z</time>
</trkpt>
<trkpt lat="32.6295490" lon="35.1146270">
<ele>136.000000</ele>
<time>2022-10-14T05:12:58.000Z</time>
</trkpt>
<trkpt lat="32.6296800" lon="35.1146230">
<ele>136.800003</ele>
<time>2022-10-14T05:13:04.000Z</time>
</trkpt>
<trkpt lat="32.6297350" lon="35.1146230">
<ele>137.400009</ele>
<time>2022-10-14T05:13:07.000Z</time>
</trkpt>
<trkpt lat="32.6297580" lon="35.1146180">
<ele>137.400009</ele>
<time>2022-10-14T05:13:08.000Z</time>
</trkpt>
<trkpt lat="32.6297820" lon="35.1146190">
<ele>137.600006</ele>
<time>2022-10-14T05:13:09.000Z</time>
</trkpt>
<trkpt lat="32.6298330" lon="35.1146220">
<ele>137.600006</ele>
<time>2022-10-14T05:13:11.000Z</time>
</trkpt>
<trkpt lat="32.6299180" lon="35.1146340">
<ele>137.800003</ele>
<time>2022-10-14T05:13:14.000Z</time>
</trkpt>
<trkpt lat="32.6299820" lon="35.1146460">
<ele>137.600006</ele>
<time>2022-10-14T05:13:16.000Z</time>
</trkpt>
<trkpt lat="32.6300590" lon="35.1146540">
<ele>137.000000</ele>
<time>2022-10-14T05:13:18.000Z</time>
</trkpt>
<trkpt lat="32.6300970" lon="35.1146640">
<ele>137.000000</ele>
<time>2022-10-14T05:13:19.000Z</time>
</trkpt>
<trkpt lat="32.6301360" lon="35.1146810">
<ele>136.800003</ele>
<time>2022-10-14T05:13:20.000Z</time>
</trkpt>
<trkpt lat="32.6302220" lon="35.1147190">
<ele>136.399994</ele>
<time>2022-10-14T05:13:22.000Z</time>
</trkpt>
<trkpt lat="32.6304190" lon="35.1148060">
<ele>135.600006</ele>
<time>2022-10-14T05:13:26.000Z</time>
</trkpt>
<trkpt lat="32.6304780" lon="35.1148390">
<ele>135.399994</ele>
<time>2022-10-14T05:13:27.000Z</time>
</trkpt>
<trkpt lat="32.6307340" lon="35.1150240">
<ele>135.199997</ele>
<time>2022-10-14T05:13:32.000Z</time>
</trkpt>
<trkpt lat="32.6308660" lon="35.1151680">
<ele>135.399994</ele>
<time>2022-10-14T05:13:35.000Z</time>
</trkpt>
<trkpt lat="32.6310310" lon="35.1153500">
<ele>135.800003</ele>
<time>2022-10-14T05:13:39.000Z</time>
</trkpt>
<trkpt lat="32.6311590" lon="35.1154410">
<ele>135.800003</ele>
<time>2022-10-14T05:13:42.000Z</time>
</trkpt>
<trkpt lat="32.6312100" lon="35.1154620">
<ele>135.800003</ele>
<time>2022-10-14T05:13:43.000Z</time>
</trkpt>
<trkpt lat="32.6312610" lon="35.1154720">
<ele>135.600006</ele>
<time>2022-10-14T05:13:44.000Z</time>
</trkpt>
<trkpt lat="32.6313210" lon="35.1154720">
<ele>135.399994</ele>
<time>2022-10-14T05:13:45.000Z</time>
</trkpt>
<trkpt lat="32.6313710" lon="35.1154590">
<ele>135.199997</ele>
<time>2022-10-14T05:13:46.000Z</time>
</trkpt>
<trkpt lat="32.6314190" lon="35.1154350">
<ele>135.199997</ele>
<time>2022-10-14T05:13:47.000Z</time>
</trkpt>
<trkpt lat="32.6315000" lon="35.1153610">
<ele>135.199997</ele>
<time>2022-10-14T05:13:49.000Z</time>
</trkpt>
<trkpt lat="32.6315970" lon="35.1152360">
<ele>135.399994</ele>
<time>2022-10-14T05:13:52.000Z</time>
</trkpt>
<trkpt lat="32.6316710" lon="35.1151000">
<ele>135.199997</ele>
<time>2022-10-14T05:13:55.000Z</time>
</trkpt>
<trkpt lat="32.6317580" lon="35.1149240">
<ele>134.599991</ele>
<time>2022-10-14T05:13:58.000Z</time>
</trkpt>
<trkpt lat="32.6318260" lon="35.1148020">
<ele>133.800003</ele>
<time>2022-10-14T05:14:00.000Z</time>
</trkpt>
<trkpt lat="32.6318740" lon="35.1147330">
<ele>133.000000</ele>
<time>2022-10-14T05:14:01.000Z</time>
</trkpt>
<trkpt lat="32.6319400" lon="35.1146530">
<ele>132.400009</ele>
<time>2022-10-14T05:14:02.000Z</time>
</trkpt>
<trkpt lat="32.6320020" lon="35.1145890">
<ele>131.800003</ele>
<time>2022-10-14T05:14:03.000Z</time>
</trkpt>
<trkpt lat="32.6320690" lon="35.1145350">
<ele>131.399994</ele>
<time>2022-10-14T05:14:04.000Z</time>
</trkpt>
<trkpt lat="32.6322150" lon="35.1144450">
<ele>130.800003</ele>
<time>2022-10-14T05:14:06.000Z</time>
</trkpt>
<trkpt lat="32.6325010" lon="35.1143260">
<ele>130.199997</ele>
<time>2022-10-14T05:14:10.000Z</time>
</trkpt>
<trkpt lat="32.6325740" lon="35.1143090">
<ele>130.000000</ele>
<time>2022-10-14T05:14:11.000Z</time>
</trkpt>
<trkpt lat="32.6326470" lon="35.1143070">
<ele>130.000000</ele>
<time>2022-10-14T05:14:12.000Z</time>
</trkpt>
<trkpt lat="32.6328460" lon="35.1143550">
<ele>130.000000</ele>
<time>2022-10-14T05:14:15.000Z</time>
</trkpt>
<trkpt lat="32.6329420" lon="35.1143960">
<ele>130.800003</ele>
<time>2022-10-14T05:14:17.000Z</time>
</trkpt>
<trkpt lat="32.6330000" lon="35.1144200">
<ele>131.199997</ele>
<time>2022-10-14T05:14:18.000Z</time>
</trkpt>
<trkpt lat="32.6332500" lon="35.1145690">
<ele>131.800003</ele>
<time>2022-10-14T05:14:24.000Z</time>
</trkpt>
<trkpt lat="32.6333260" lon="35.1146320">
<ele>131.800003</ele>
<time>2022-10-14T05:14:26.000Z</time>
</trkpt>
<trkpt lat="32.6334040" lon="35.1147330">
<ele>131.800003</ele>
<time>2022-10-14T05:14:28.000Z</time>
</trkpt>
<trkpt lat="32.6334420" lon="35.1147800">
<ele>131.800003</ele>
<time>2022-10-14T05:14:29.000Z</time>
</trkpt>
<trkpt lat="32.6334850" lon="35.1148140">
<ele>132.000000</ele>
<time>2022-10-14T05:14:30.000Z</time>
</trkpt>
<trkpt lat="32.6335740" lon="35.1148550">
<ele>132.400009</ele>
<time>2022-10-14T05:14:32.000Z</time>
</trkpt>
<trkpt lat="32.6336140" lon="35.1148480">
<ele>132.600006</ele>
<time>2022-10-14T05:14:33.000Z</time>
</trkpt>
<trkpt lat="32.6336540" lon="35.1148210">
<ele>132.600006</ele>
<time>2022-10-14T05:14:34.000Z</time>
</trkpt>
<trkpt lat="32.6336900" lon="35.1147830">
<ele>132.800003</ele>
<time>2022-10-14T05:14:35.000Z</time>
</trkpt>
<trkpt lat="32.6337270" lon="35.1147390">
<ele>132.800003</ele>
<time>2022-10-14T05:14:36.000Z</time>
</trkpt>
<trkpt lat="32.6337620" lon="35.1146900">
<ele>133.000000</ele>
<time>2022-10-14T05:14:37.000Z</time>
</trkpt>
<trkpt lat="32.6338720" lon="35.1145490">
<ele>133.199997</ele>
<time>2022-10-14T05:14:40.000Z</time>
</trkpt>
<trkpt lat="32.6339850" lon="35.1144350">
<ele>135.199997</ele>
<time>2022-10-14T05:14:44.000Z</time>
</trkpt>
<trkpt lat="32.6340010" lon="35.1144010">
<ele>135.600006</ele>
<time>2022-10-14T05:14:45.000Z</time>
</trkpt>
<trkpt lat="32.6340290" lon="35.1142810">
<ele>136.599991</ele>
<time>2022-10-14T05:14:48.000Z</time>
</trkpt>
<trkpt lat="32.6340290" lon="35.1142530">
<ele>137.000000</ele>
<time>2022-10-14T05:14:49.000Z</time>
</trkpt>
<trkpt lat="32.6340380" lon="35.1142160">
<ele>137.400009</ele>
<time>2022-10-14T05:14:50.000Z</time>
</trkpt>
<trkpt lat="32.6340580" lon="35.1140410">
<ele>138.000000</ele>
<time>2022-10-14T05:14:55.000Z</time>
</trkpt>
<trkpt lat="32.6340700" lon="35.1139690">
<ele>138.199997</ele>
<time>2022-10-14T05:14:57.000Z</time>
</trkpt>
<trkpt lat="32.6340840" lon="35.1139390">
<ele>138.399994</ele>
<time>2022-10-14T05:14:58.000Z</time>
</trkpt>
<trkpt lat="32.6341090" lon="35.1138620">
<ele>138.800003</ele>
<time>2022-10-14T05:15:00.000Z</time>
</trkpt>
<trkpt lat="32.6341270" lon="35.1137870">
<ele>139.000000</ele>
<time>2022-10-14T05:15:02.000Z</time>
</trkpt>
<trkpt lat="32.6341360" lon="35.1137500">
<ele>139.000000</ele>
<time>2022-10-14T05:15:03.000Z</time>
</trkpt>
<trkpt lat="32.6341500" lon="35.1137200">
<ele>139.199997</ele>
<time>2022-10-14T05:15:04.000Z</time>
</trkpt>
<trkpt lat="32.6342600" lon="35.1135890">
<ele>140.399994</ele>
<time>2022-10-14T05:15:11.000Z</time>
</trkpt>
<trkpt lat="32.6343600" lon="35.1134890">
<ele>141.600006</ele>
<time>2022-10-14T05:15:17.000Z</time>
</trkpt>
<trkpt lat="32.6345830" lon="35.1134010">
<ele>143.000000</ele>
<time>2022-10-14T05:15:28.000Z</time>
</trkpt>
<trkpt lat="32.6346620" lon="35.1134000">
<ele>143.399994</ele>
<time>2022-10-14T05:15:31.000Z</time>
</trkpt>
<trkpt lat="32.6346870" lon="35.1134030">
<ele>143.599991</ele>
<time>2022-10-14T05:15:32.000Z</time>
</trkpt>
<trkpt lat="32.6347140" lon="35.1134050">
<ele>143.599991</ele>
<time>2022-10-14T05:15:33.000Z</time>
</trkpt>
<trkpt lat="32.6348110" lon="35.1134390">
<ele>144.199997</ele>
<time>2022-10-14T05:15:37.000Z</time>
</trkpt>
<trkpt lat="32.6348560" lon="35.1134540">
<ele>144.400009</ele>
<time>2022-10-14T05:15:39.000Z</time>
</trkpt>
<trkpt lat="32.6349440" lon="35.1134910">
<ele>144.600006</ele>
<time>2022-10-14T05:15:42.000Z</time>
</trkpt>
<trkpt lat="32.6350480" lon="35.1135340">
<ele>144.800003</ele>
<time>2022-10-14T05:15:46.000Z</time>
</trkpt>
<trkpt lat="32.6351300" lon="35.1135750">
<ele>145.199997</ele>
<time>2022-10-14T05:15:49.000Z</time>
</trkpt>
<trkpt lat="32.6353050" lon="35.1136340">
<ele>145.800003</ele>
<time>2022-10-14T05:15:55.000Z</time>
</trkpt>
<trkpt lat="32.6353590" lon="35.1136610">
<ele>146.199997</ele>
<time>2022-10-14T05:15:57.000Z</time>
</trkpt>
<trkpt lat="32.6353850" lon="35.1136760">
<ele>146.199997</ele>
<time>2022-10-14T05:15:58.000Z</time>
</trkpt>
<trkpt lat="32.6354190" lon="35.1136900">
<ele>146.400009</ele>
<time>2022-10-14T05:15:59.000Z</time>
</trkpt>
<trkpt lat="32.6355060" lon="35.1137370">
<ele>146.400009</ele>
<time>2022-10-14T05:16:02.000Z</time>
</trkpt>
<trkpt lat="32.6356660" lon="35.1138240">
<ele>146.600006</ele>
<time>2022-10-14T05:16:07.000Z</time>
</trkpt>
<trkpt lat="32.6357050" lon="35.1138440">
<ele>146.600006</ele>
<time>2022-10-14T05:16:08.000Z</time>
</trkpt>
<trkpt lat="32.6357980" lon="35.1138990">
<ele>147.000000</ele>
<time>2022-10-14T05:16:11.000Z</time>
</trkpt>
<trkpt lat="32.6358220" lon="35.1139110">
<ele>147.199997</ele>
<time>2022-10-14T05:16:12.000Z</time>
</trkpt>
<trkpt lat="32.6358580" lon="35.1139340">
<ele>147.199997</ele>
<time>2022-10-14T05:16:13.000Z</time>
</trkpt>
<trkpt lat="32.6358840" lon="35.1139480">
<ele>147.399994</ele>
<time>2022-10-14T05:16:14.000Z</time>
</trkpt>
<trkpt lat="32.6359240" lon="35.1139750">
<ele>147.399994</ele>
<time>2022-10-14T05:16:15.000Z</time>
</trkpt>
<trkpt lat="32.6361140" lon="35.1140690">
<ele>148.000000</ele>
<time>2022-10-14T05:16:21.000Z</time>
</trkpt>
<trkpt lat="32.6364050" lon="35.1141640">
<ele>149.600006</ele>
<time>2022-10-14T05:16:31.000Z</time>
</trkpt>
<trkpt lat="32.6364530" lon="35.1141760">
<ele>150.000000</ele>
<time>2022-10-14T05:16:33.000Z</time>
</trkpt>
<trkpt lat="32.6365050" lon="35.1141980">
<ele>150.199997</ele>
<time>2022-10-14T05:16:35.000Z</time>
</trkpt>
<trkpt lat="32.6365610" lon="35.1142150">
<ele>150.800003</ele>
<time>2022-10-14T05:16:37.000Z</time>
</trkpt>
<trkpt lat="32.6366640" lon="35.1142410">
<ele>151.000000</ele>
<time>2022-10-14T05:16:40.000Z</time>
</trkpt>
<trkpt lat="32.6366970" lon="35.1142460">
<ele>151.199997</ele>
<time>2022-10-14T05:16:41.000Z</time>
</trkpt>
<trkpt lat="32.6368450" lon="35.1143080">
<ele>152.000000</ele>
<time>2022-10-14T05:16:46.000Z</time>
</trkpt>
<trkpt lat="32.6368910" lon="35.1143330">
<ele>152.000000</ele>
<time>2022-10-14T05:16:48.000Z</time>
</trkpt>
<trkpt lat="32.6369210" lon="35.1143480">
<ele>152.399994</ele>
<time>2022-10-14T05:16:49.000Z</time>
</trkpt>
<trkpt lat="32.6370420" lon="35.1144120">
<ele>153.400009</ele>
<time>2022-10-14T05:16:54.000Z</time>
</trkpt>
<trkpt lat="32.6370620" lon="35.1144190">
<ele>153.600006</ele>
<time>2022-10-14T05:16:55.000Z</time>
</trkpt>
<trkpt lat="32.6370890" lon="35.1144380">
<ele>153.600006</ele>
<time>2022-10-14T05:16:56.000Z</time>
</trkpt>
<trkpt lat="32.6372530" lon="35.1145780">
<ele>154.199997</ele>
<time>2022-10-14T05:17:03.000Z</time>
</trkpt>
<trkpt lat="32.6372710" lon="35.1146000">
<ele>154.199997</ele>
<time>2022-10-14T05:17:04.000Z</time>
</trkpt>
<trkpt lat="32.6372920" lon="35.1146300">
<ele>154.199997</ele>
<time>2022-10-14T05:17:05.000Z</time>
</trkpt>
<trkpt lat="32.6373570" lon="35.1147180">
<ele>154.399994</ele>
<time>2022-10-14T05:17:08.000Z</time>
</trkpt>
<trkpt lat="32.6374950" lon="35.1150510">
<ele>155.000000</ele>
<time>2022-10-14T05:17:17.000Z</time>
</trkpt>
<trkpt lat="32.6375250" lon="35.1152060">
<ele>155.400009</ele>
<time>2022-10-14T05:17:21.000Z</time>
</trkpt>
<trkpt lat="32.6375310" lon="35.1152880">
<ele>155.600006</ele>
<time>2022-10-14T05:17:23.000Z</time>
</trkpt>
<trkpt lat="32.6375340" lon="35.1153310">
<ele>155.600006</ele>
<time>2022-10-14T05:17:24.000Z</time>
</trkpt>
<trkpt lat="32.6375370" lon="35.1153700">
<ele>155.600006</ele>
<time>2022-10-14T05:17:25.000Z</time>
</trkpt>
<trkpt lat="32.6375430" lon="35.1154510">
<ele>155.800003</ele>
<time>2022-10-14T05:17:27.000Z</time>
</trkpt>
<trkpt lat="32.6375460" lon="35.1154930">
<ele>155.800003</ele>
<time>2022-10-14T05:17:28.000Z</time>
</trkpt>
<trkpt lat="32.6375440" lon="35.1155350">
<ele>155.800003</ele>
<time>2022-10-14T05:17:29.000Z</time>
</trkpt>
<trkpt lat="32.6375500" lon="35.1157530">
<ele>156.000000</ele>
<time>2022-10-14T05:17:34.000Z</time>
</trkpt>
<trkpt lat="32.6375840" lon="35.1159870">
<ele>155.800003</ele>
<time>2022-10-14T05:17:39.000Z</time>
</trkpt>
<trkpt lat="32.6376090" lon="35.1160820">
<ele>155.800003</ele>
<time>2022-10-14T05:17:41.000Z</time>
</trkpt>
<trkpt lat="32.6376570" lon="35.1162200">
<ele>155.600006</ele>
<time>2022-10-14T05:17:44.000Z</time>
</trkpt>
<trkpt lat="32.6377270" lon="35.1163330">
<ele>155.400009</ele>
<time>2022-10-14T05:17:46.000Z</time>
</trkpt>
<trkpt lat="32.6378530" lon="35.1164870">
<ele>155.000000</ele>
<time>2022-10-14T05:17:49.000Z</time>
</trkpt>
<trkpt lat="32.6380690" lon="35.1167380">
<ele>154.399994</ele>
<time>2022-10-14T05:17:53.000Z</time>
</trkpt>
<trkpt lat="32.6381760" lon="35.1168450">
<ele>154.399994</ele>
<time>2022-10-14T05:17:55.000Z</time>
</trkpt>
<trkpt lat="32.6383450" lon="35.1169990">
<ele>154.399994</ele>
<time>2022-10-14T05:17:58.000Z</time>
</trkpt>
<trkpt lat="32.6385060" lon="35.1171100">
<ele>155.199997</ele>
<time>2022-10-14T05:18:01.000Z</time>
</trkpt>
<trkpt lat="32.6385620" lon="35.1171410">
<ele>155.600006</ele>
<time>2022-10-14T05:18:02.000Z</time>
</trkpt>
<trkpt lat="32.6388220" lon="35.1172840">
<ele>156.399994</ele>
<time>2022-10-14T05:18:07.000Z</time>
</trkpt>
<trkpt lat="32.6389180" lon="35.1173260">
<ele>157.000000</ele>
<time>2022-10-14T05:18:09.000Z</time>
</trkpt>
<trkpt lat="32.6389610" lon="35.1173560">
<ele>157.200012</ele>
<time>2022-10-14T05:18:10.000Z</time>
</trkpt>
<trkpt lat="32.6390370" lon="35.1173960">
<ele>157.800003</ele>
<time>2022-10-14T05:18:12.000Z</time>
</trkpt>
<trkpt lat="32.6390640" lon="35.1174110">
<ele>158.199997</ele>
<time>2022-10-14T05:18:13.000Z</time>
</trkpt>
<trkpt lat="32.6391140" lon="35.1174440">
<ele>158.400009</ele>
<time>2022-10-14T05:18:15.000Z</time>
</trkpt>
<trkpt lat="32.6391460" lon="35.1174600">
<ele>158.400009</ele>
<time>2022-10-14T05:18:16.000Z</time>
</trkpt>
<trkpt lat="32.6392120" lon="35.1174760">
<ele>158.400009</ele>
<time>2022-10-14T05:18:18.000Z</time>
</trkpt>
<trkpt lat="32.6394650" lon="35.1175260">
<ele>156.600006</ele>
<time>2022-10-14T05:18:23.000Z</time>
</trkpt>
<trkpt lat="32.6395780" lon="35.1175420">
<ele>156.000000</ele>
<time>2022-10-14T05:18:25.000Z</time>
</trkpt>
<trkpt lat="32.6397030" lon="35.1175770">
<ele>155.400009</ele>
<time>2022-10-14T05:18:27.000Z</time>
</trkpt>
<trkpt lat="32.6397710" lon="35.1176040">
<ele>154.800003</ele>
<time>2022-10-14T05:18:28.000Z</time>
</trkpt>
<trkpt lat="32.6400300" lon="35.1177440">
<ele>152.399994</ele>
<time>2022-10-14T05:18:32.000Z</time>
</trkpt>
<trkpt lat="32.6401720" lon="35.1178800">
<ele>152.399994</ele>
<time>2022-10-14T05:18:35.000Z</time>
</trkpt>
<trkpt lat="32.6403700" lon="35.1180860">
<ele>153.800003</ele>
<time>2022-10-14T05:18:40.000Z</time>
</trkpt>
<trkpt lat="32.6403960" lon="35.1181310">
<ele>154.000000</ele>
<time>2022-10-14T05:18:41.000Z</time>
</trkpt>
<trkpt lat="32.6404160" lon="35.1182320">
<ele>154.199997</ele>
<time>2022-10-14T05:18:43.000Z</time>
</trkpt>
<trkpt lat="32.6404110" lon="35.1182720">
<ele>154.399994</ele>
<time>2022-10-14T05:18:44.000Z</time>
</trkpt>
<trkpt lat="32.6403890" lon="35.1183240">
<ele>155.000000</ele>
<time>2022-10-14T05:18:46.000Z</time>
</trkpt>
<trkpt lat="32.6403840" lon="35.1183420">
<ele>155.199997</ele>
<time>2022-10-14T05:18:47.000Z</time>
</trkpt>
<trkpt lat="32.6403770" lon="35.1183700">
<ele>155.400009</ele>
<time>2022-10-14T05:18:48.000Z</time>
</trkpt>
<trkpt lat="32.6403470" lon="35.1184060">
<ele>156.399994</ele>
<time>2022-10-14T05:18:51.000Z</time>
</trkpt>
<trkpt lat="32.6403360" lon="35.1184110">
<ele>156.600006</ele>
<time>2022-10-14T05:18:52.000Z</time>
</trkpt>
<trkpt lat="32.6403240" lon="35.1184140">
<ele>156.600006</ele>
<time>2022-10-14T05:18:53.000Z</time>
</trkpt>
<trkpt lat="32.6402680" lon="35.1183990">
<ele>157.200012</ele>
<time>2022-10-14T05:18:59.000Z</time>
</trkpt>
<trkpt lat="32.6402700" lon="35.1183970">
<ele>157.200012</ele>
<time>2022-10-14T05:19:01.000Z</time>
</trkpt>
<trkpt lat="32.6402690" lon="35.1183820">
<ele>157.200012</ele>
<time>2022-10-14T05:19:02.000Z</time>
</trkpt>
<trkpt lat="32.6401880" lon="35.1182900">
<ele>157.600006</ele>
<time>2022-10-14T05:19:09.000Z</time>
</trkpt>
<trkpt lat="32.6401810" lon="35.1182790">
<ele>157.600006</ele>
<time>2022-10-14T05:19:10.000Z</time>
</trkpt>
<trkpt lat="32.6401780" lon="35.1182680">
<ele>157.600006</ele>
<time>2022-10-14T05:19:11.000Z</time>
</trkpt>
<trkpt lat="32.6401740" lon="35.1182550">
<ele>157.600006</ele>
<time>2022-10-14T05:19:12.000Z</time>
</trkpt>
<trkpt lat="32.6401670" lon="35.1182210">
<ele>157.600006</ele>
<time>2022-10-14T05:19:15.000Z</time>
</trkpt>
<trkpt lat="32.6401440" lon="35.1182020">
<ele>157.600006</ele>
<time>2022-10-14T05:19:20.000Z</time>
</trkpt>
<trkpt lat="32.6401160" lon="35.1181640">
<ele>157.600006</ele>
<time>2022-10-14T05:19:22.000Z</time>
</trkpt>
<trkpt lat="32.6400920" lon="35.1181130">
<ele>157.600006</ele>
<time>2022-10-14T05:19:24.000Z</time>
</trkpt>
<trkpt lat="32.6399670" lon="35.1180150">
<ele>158.000000</ele>
<time>2022-10-14T05:19:30.000Z</time>
</trkpt>
<trkpt lat="32.6399510" lon="35.1180050">
<ele>158.199997</ele>
<time>2022-10-14T05:19:31.000Z</time>
</trkpt>
<trkpt lat="32.6399350" lon="35.1179960">
<ele>158.199997</ele>
<time>2022-10-14T05:19:32.000Z</time>
</trkpt>
<trkpt lat="32.6399180" lon="35.1179910">
<ele>158.400009</ele>
<time>2022-10-14T05:19:33.000Z</time>
</trkpt>
<trkpt lat="32.6399000" lon="35.1179890">
<ele>158.599991</ele>
<time>2022-10-14T05:19:34.000Z</time>
</trkpt>
<trkpt lat="32.6398780" lon="35.1179980">
<ele>159.000000</ele>
<time>2022-10-14T05:19:36.000Z</time>
</trkpt>
<trkpt lat="32.6398800" lon="35.1180300">
<ele>159.399994</ele>
<time>2022-10-14T05:19:38.000Z</time>
</trkpt>
<trkpt lat="32.6399260" lon="35.1180870">
<ele>159.799988</ele>
<time>2022-10-14T05:19:41.000Z</time>
</trkpt>
<trkpt lat="32.6399450" lon="35.1181400">
<ele>160.000000</ele>
<time>2022-10-14T05:19:43.000Z</time>
</trkpt>
<trkpt lat="32.6399410" lon="35.1181950">
<ele>160.399994</ele>
<time>2022-10-14T05:19:45.000Z</time>
</trkpt>
<trkpt lat="32.6399440" lon="35.1182210">
<ele>160.399994</ele>
<time>2022-10-14T05:19:46.000Z</time>
</trkpt>
<trkpt lat="32.6399510" lon="35.1182470">
<ele>160.399994</ele>
<time>2022-10-14T05:19:47.000Z</time>
</trkpt>
<trkpt lat="32.6399510" lon="35.1183280">
<ele>160.600006</ele>
<time>2022-10-14T05:19:50.000Z</time>
</trkpt>
<trkpt lat="32.6399350" lon="35.1183620">
<ele>160.800003</ele>
<time>2022-10-14T05:19:51.000Z</time>
</trkpt>
<trkpt lat="32.6399140" lon="35.1183810">
<ele>161.000000</ele>
<time>2022-10-14T05:19:52.000Z</time>
</trkpt>
<trkpt lat="32.6398890" lon="35.1183850">
<ele>161.199997</ele>
<time>2022-10-14T05:19:53.000Z</time>
</trkpt>
<trkpt lat="32.6398660" lon="35.1183750">
<ele>161.400009</ele>
<time>2022-10-14T05:19:54.000Z</time>
</trkpt>
<trkpt lat="32.6398280" lon="35.1183310">
<ele>161.999985</ele>
<time>2022-10-14T05:19:57.000Z</time>
</trkpt>
<trkpt lat="32.6398130" lon="35.1183240">
<ele>162.199997</ele>
<time>2022-10-14T05:19:58.000Z</time>
</trkpt>
<trkpt lat="32.6397840" lon="35.1183100">
<ele>162.400009</ele>
<time>2022-10-14T05:20:01.000Z</time>
</trkpt>
<trkpt lat="32.6397220" lon="35.1183160">
<ele>163.399994</ele>
<time>2022-10-14T05:20:05.000Z</time>
</trkpt>
<trkpt lat="32.6396900" lon="35.1182950">
<ele>163.600006</ele>
<time>2022-10-14T05:20:07.000Z</time>
</trkpt>
<trkpt lat="32.6396220" lon="35.1182540">
<ele>164.000000</ele>
<time>2022-10-14T05:20:11.000Z</time>
</trkpt>
<trkpt lat="32.6394630" lon="35.1181100">
<ele>165.000000</ele>
<time>2022-10-14T05:20:21.000Z</time>
</trkpt>
<trkpt lat="32.6393990" lon="35.1180320">
<ele>165.000000</ele>
<time>2022-10-14T05:20:25.000Z</time>
</trkpt>
<trkpt lat="32.6393720" lon="35.1179590">
<ele>164.800003</ele>
<time>2022-10-14T05:20:28.000Z</time>
</trkpt>
<trkpt lat="32.6393280" lon="35.1178990">
<ele>164.800003</ele>
<time>2022-10-14T05:20:31.000Z</time>
</trkpt>
<trkpt lat="32.6392200" lon="35.1178590">
<ele>164.600006</ele>
<time>2022-10-14T05:20:36.000Z</time>
</trkpt>
<trkpt lat="32.6392010" lon="35.1178440">
<ele>164.600006</ele>
<time>2022-10-14T05:20:37.000Z</time>
</trkpt>
<trkpt lat="32.6391630" lon="35.1178280">
<ele>164.800003</ele>
<time>2022-10-14T05:20:39.000Z</time>
</trkpt>
<trkpt lat="32.6391380" lon="35.1178060">
<ele>164.800003</ele>
<time>2022-10-14T05:20:41.000Z</time>
</trkpt>
<trkpt lat="32.6391210" lon="35.1177990">
<ele>164.800003</ele>
<time>2022-10-14T05:20:42.000Z</time>
</trkpt>
<trkpt lat="32.6390770" lon="35.1177950">
<ele>164.800003</ele>
<time>2022-10-14T05:20:44.000Z</time>
</trkpt>
<trkpt lat="32.6390200" lon="35.1177700">
<ele>165.199997</ele>
<time>2022-10-14T05:20:47.000Z</time>
</trkpt>
<trkpt lat="32.6389990" lon="35.1177640">
<ele>165.400009</ele>
<time>2022-10-14T05:20:48.000Z</time>
</trkpt>
<trkpt lat="32.6389780" lon="35.1177650">
<ele>165.400009</ele>
<time>2022-10-14T05:20:49.000Z</time>
</trkpt>
<trkpt lat="32.6389410" lon="35.1177650">
<ele>165.400009</ele>
<time>2022-10-14T05:20:51.000Z</time>
</trkpt>
<trkpt lat="32.6389280" lon="35.1177640">
<ele>165.800003</ele>
<time>2022-10-14T05:20:52.000Z</time>
</trkpt>
<trkpt lat="32.6389020" lon="35.1177580">
<ele>166.000000</ele>
<time>2022-10-14T05:20:54.000Z</time>
</trkpt>
<trkpt lat="32.6388890" lon="35.1177500">
<ele>166.199997</ele>
<time>2022-10-14T05:20:55.000Z</time>
</trkpt>
<trkpt lat="32.6388500" lon="35.1177520">
<ele>166.600006</ele>
<time>2022-10-14T05:20:58.000Z</time>
</trkpt>
<trkpt lat="32.6388460" lon="35.1177630">
<ele>166.800003</ele>
<time>2022-10-14T05:20:59.000Z</time>
</trkpt>
<trkpt lat="32.6388570" lon="35.1177930">
<ele>167.000000</ele>
<time>2022-10-14T05:21:01.000Z</time>
</trkpt>
<trkpt lat="32.6389120" lon="35.1178540">
<ele>167.200012</ele>
<time>2022-10-14T05:21:05.000Z</time>
</trkpt>
<trkpt lat="32.6389220" lon="35.1178740">
<ele>167.200012</ele>
<time>2022-10-14T05:21:06.000Z</time>
</trkpt>
<trkpt lat="32.6389420" lon="35.1179220">
<ele>167.399994</ele>
<time>2022-10-14T05:21:08.000Z</time>
</trkpt>
<trkpt lat="32.6389580" lon="35.1179460">
<ele>167.399994</ele>
<time>2022-10-14T05:21:09.000Z</time>
</trkpt>
<trkpt lat="32.6390020" lon="35.1179890">
<ele>167.600006</ele>
<time>2022-10-14T05:21:11.000Z</time>
</trkpt>
<trkpt lat="32.6390440" lon="35.1180500">
<ele>167.399994</ele>
<time>2022-10-14T05:21:13.000Z</time>
</trkpt>
<trkpt lat="32.6390580" lon="35.1180890">
<ele>167.200012</ele>
<time>2022-10-14T05:21:14.000Z</time>
</trkpt>
<trkpt lat="32.6390360" lon="35.1181500">
<ele>167.200012</ele>
<time>2022-10-14T05:21:16.000Z</time>
</trkpt>
<trkpt lat="32.6390080" lon="35.1181760">
<ele>167.200012</ele>
<time>2022-10-14T05:21:17.000Z</time>
</trkpt>
<trkpt lat="32.6389580" lon="35.1181800">
<ele>167.600006</ele>
<time>2022-10-14T05:21:19.000Z</time>
</trkpt>
<trkpt lat="32.6389430" lon="35.1181650">
<ele>167.600006</ele>
<time>2022-10-14T05:21:20.000Z</time>
</trkpt>
<trkpt lat="32.6389260" lon="35.1181590">
<ele>167.800003</ele>
<time>2022-10-14T05:21:21.000Z</time>
</trkpt>
<trkpt lat="32.6388860" lon="35.1181750">
<ele>168.000000</ele>
<time>2022-10-14T05:21:23.000Z</time>
</trkpt>
<trkpt lat="32.6388610" lon="35.1181780">
<ele>168.199997</ele>
<time>2022-10-14T05:21:24.000Z</time>
</trkpt>
<trkpt lat="32.6388260" lon="35.1181520">
<ele>168.800003</ele>
<time>2022-10-14T05:21:26.000Z</time>
</trkpt>
<trkpt lat="32.6388220" lon="35.1181320">
<ele>168.999985</ele>
<time>2022-10-14T05:21:27.000Z</time>
</trkpt>
<trkpt lat="32.6388120" lon="35.1181130">
<ele>168.999985</ele>
<time>2022-10-14T05:21:28.000Z</time>
</trkpt>
<trkpt lat="32.6387790" lon="35.1180970">
<ele>169.400009</ele>
<time>2022-10-14T05:21:30.000Z</time>
</trkpt>
<trkpt lat="32.6387580" lon="35.1180680">
<ele>170.000000</ele>
<time>2022-10-14T05:21:32.000Z</time>
</trkpt>
<trkpt lat="32.6387280" lon="35.1179800">
<ele>170.199997</ele>
<time>2022-10-14T05:21:35.000Z</time>
</trkpt>
<trkpt lat="32.6386820" lon="35.1179270">
<ele>170.399994</ele>
<time>2022-10-14T05:21:37.000Z</time>
</trkpt>
<trkpt lat="32.6386620" lon="35.1178950">
<ele>170.600006</ele>
<time>2022-10-14T05:21:38.000Z</time>
</trkpt>
<trkpt lat="32.6386000" lon="35.1178030">
<ele>171.000000</ele>
<time>2022-10-14T05:21:42.000Z</time>
</trkpt>
<trkpt lat="32.6385840" lon="35.1177910">
<ele>171.200012</ele>
<time>2022-10-14T05:21:43.000Z</time>
</trkpt>
<trkpt lat="32.6385540" lon="35.1177900">
<ele>171.399994</ele>
<time>2022-10-14T05:21:45.000Z</time>
</trkpt>
<trkpt lat="32.6385280" lon="35.1178450">
<ele>171.800003</ele>
<time>2022-10-14T05:21:48.000Z</time>
</trkpt>
<trkpt lat="32.6385160" lon="35.1178600">
<ele>172.199997</ele>
<time>2022-10-14T05:21:49.000Z</time>
</trkpt>
<trkpt lat="32.6385010" lon="35.1178610">
<ele>172.400009</ele>
<time>2022-10-14T05:21:50.000Z</time>
</trkpt>
<trkpt lat="32.6384880" lon="35.1178460">
<ele>172.400009</ele>
<time>2022-10-14T05:21:51.000Z</time>
</trkpt>
<trkpt lat="32.6384490" lon="35.1177900">
<ele>172.800003</ele>
<time>2022-10-14T05:21:54.000Z</time>
</trkpt>
<trkpt lat="32.6383950" lon="35.1177610">
<ele>173.000015</ele>
<time>2022-10-14T05:21:57.000Z</time>
</trkpt>
<trkpt lat="32.6383760" lon="35.1177570">
<ele>173.400009</ele>
<time>2022-10-14T05:21:58.000Z</time>
</trkpt>
<trkpt lat="32.6383550" lon="35.1177510">
<ele>173.800003</ele>
<time>2022-10-14T05:21:59.000Z</time>
</trkpt>
<trkpt lat="32.6383190" lon="35.1177270">
<ele>174.799988</ele>
<time>2022-10-14T05:22:02.000Z</time>
</trkpt>
<trkpt lat="32.6382970" lon="35.1177270">
<ele>175.199997</ele>
<time>2022-10-14T05:22:04.000Z</time>
</trkpt>
<trkpt lat="32.6382910" lon="35.1177420">
<ele>175.399994</ele>
<time>2022-10-14T05:22:05.000Z</time>
</trkpt>
<trkpt lat="32.6382990" lon="35.1179080">
<ele>176.599991</ele>
<time>2022-10-14T05:22:12.000Z</time>
</trkpt>
<trkpt lat="32.6382480" lon="35.1180660">
<ele>178.000000</ele>
<time>2022-10-14T05:22:20.000Z</time>
</trkpt>
<trkpt lat="32.6381930" lon="35.1181310">
<ele>178.800003</ele>
<time>2022-10-14T05:22:24.000Z</time>
</trkpt>
<trkpt lat="32.6381590" lon="35.1181800">
<ele>179.000000</ele>
<time>2022-10-14T05:22:27.000Z</time>
</trkpt>
<trkpt lat="32.6381490" lon="35.1181950">
<ele>179.000000</ele>
<time>2022-10-14T05:22:28.000Z</time>
</trkpt>
<trkpt lat="32.6381290" lon="35.1182280">
<ele>179.199997</ele>
<time>2022-10-14T05:22:30.000Z</time>
</trkpt>
<trkpt lat="32.6380660" lon="35.1182820">
<ele>179.800003</ele>
<time>2022-10-14T05:22:34.000Z</time>
</trkpt>
<trkpt lat="32.6380330" lon="35.1183150">
<ele>180.199997</ele>
<time>2022-10-14T05:22:38.000Z</time>
</trkpt>
<trkpt lat="32.6380030" lon="35.1183330">
<ele>180.400009</ele>
<time>2022-10-14T05:22:40.000Z</time>
</trkpt>
<trkpt lat="32.6379790" lon="35.1183350">
<ele>180.400009</ele>
<time>2022-10-14T05:22:41.000Z</time>
</trkpt>
<trkpt lat="32.6379640" lon="35.1183310">
<ele>180.600006</ele>
<time>2022-10-14T05:22:42.000Z</time>
</trkpt>
<trkpt lat="32.6379540" lon="35.1183030">
<ele>181.600006</ele>
<time>2022-10-14T05:22:44.000Z</time>
</trkpt>
<trkpt lat="32.6379720" lon="35.1182500">
<ele>182.000000</ele>
<time>2022-10-14T05:22:47.000Z</time>
</trkpt>
<trkpt lat="32.6379870" lon="35.1182250">
<ele>182.199997</ele>
<time>2022-10-14T05:22:49.000Z</time>
</trkpt>
<trkpt lat="32.6380000" lon="35.1181920">
<ele>182.399994</ele>
<time>2022-10-14T05:22:51.000Z</time>
</trkpt>
<trkpt lat="32.6380070" lon="35.1181370">
<ele>182.600006</ele>
<time>2022-10-14T05:22:54.000Z</time>
</trkpt>
<trkpt lat="32.6380160" lon="35.1180820">
<ele>182.800003</ele>
<time>2022-10-14T05:22:56.000Z</time>
</trkpt>
<trkpt lat="32.6380160" lon="35.1180200">
<ele>183.199997</ele>
<time>2022-10-14T05:22:59.000Z</time>
</trkpt>
<trkpt lat="32.6380050" lon="35.1179750">
<ele>183.400009</ele>
<time>2022-10-14T05:23:01.000Z</time>
</trkpt>
<trkpt lat="32.6380000" lon="35.1179520">
<ele>183.400009</ele>
<time>2022-10-14T05:23:02.000Z</time>
</trkpt>
<trkpt lat="32.6379820" lon="35.1178900">
<ele>183.800003</ele>
<time>2022-10-14T05:23:05.000Z</time>
</trkpt>
<trkpt lat="32.6379550" lon="35.1178450">
<ele>183.800003</ele>
<time>2022-10-14T05:23:07.000Z</time>
</trkpt>
<trkpt lat="32.6379370" lon="35.1178210">
<ele>184.000000</ele>
<time>2022-10-14T05:23:08.000Z</time>
</trkpt>
<trkpt lat="32.6378870" lon="35.1177590">
<ele>184.399994</ele>
<time>2022-10-14T05:23:11.000Z</time>
</trkpt>
<trkpt lat="32.6378200" lon="35.1176890">
<ele>185.399994</ele>
<time>2022-10-14T05:23:15.000Z</time>
</trkpt>
<trkpt lat="32.6378020" lon="35.1176770">
<ele>185.600006</ele>
<time>2022-10-14T05:23:16.000Z</time>
</trkpt>
<trkpt lat="32.6377240" lon="35.1176030">
<ele>186.000000</ele>
<time>2022-10-14T05:23:20.000Z</time>
</trkpt>
<trkpt lat="32.6377090" lon="35.1175720">
<ele>186.000000</ele>
<time>2022-10-14T05:23:21.000Z</time>
</trkpt>
<trkpt lat="32.6376040" lon="35.1174700">
<ele>186.199997</ele>
<time>2022-10-14T05:23:25.000Z</time>
</trkpt>
<trkpt lat="32.6375520" lon="35.1174200">
<ele>186.400009</ele>
<time>2022-10-14T05:23:27.000Z</time>
</trkpt>
<trkpt lat="32.6375200" lon="35.1173990">
<ele>186.599991</ele>
<time>2022-10-14T05:23:28.000Z</time>
</trkpt>
<trkpt lat="32.6374280" lon="35.1173380">
<ele>187.400009</ele>
<time>2022-10-14T05:23:32.000Z</time>
</trkpt>
<trkpt lat="32.6373730" lon="35.1173100">
<ele>188.000000</ele>
<time>2022-10-14T05:23:35.000Z</time>
</trkpt>
<trkpt lat="32.6373560" lon="35.1173020">
<ele>188.199997</ele>
<time>2022-10-14T05:23:36.000Z</time>
</trkpt>
<trkpt lat="32.6373370" lon="35.1172960">
<ele>188.399994</ele>
<time>2022-10-14T05:23:37.000Z</time>
</trkpt>
<trkpt lat="32.6373040" lon="35.1172840">
<ele>188.799988</ele>
<time>2022-10-14T05:23:39.000Z</time>
</trkpt>
<trkpt lat="32.6372890" lon="35.1172780">
<ele>189.200012</ele>
<time>2022-10-14T05:23:40.000Z</time>
</trkpt>
<trkpt lat="32.6371780" lon="35.1172100">
<ele>190.599991</ele>
<time>2022-10-14T05:23:47.000Z</time>
</trkpt>
<trkpt lat="32.6371440" lon="35.1172050">
<ele>191.000000</ele>
<time>2022-10-14T05:23:49.000Z</time>
</trkpt>
<trkpt lat="32.6371240" lon="35.1171980">
<ele>191.199997</ele>
<time>2022-10-14T05:23:50.000Z</time>
</trkpt>
<trkpt lat="32.6371080" lon="35.1171940">
<ele>191.399994</ele>
<time>2022-10-14T05:23:51.000Z</time>
</trkpt>
<trkpt lat="32.6370710" lon="35.1171870">
<ele>191.600006</ele>
<time>2022-10-14T05:23:53.000Z</time>
</trkpt>
<trkpt lat="32.6370180" lon="35.1171790">
<ele>192.000000</ele>
<time>2022-10-14T05:23:56.000Z</time>
</trkpt>
<trkpt lat="32.6369890" lon="35.1171760">
<ele>192.399994</ele>
<time>2022-10-14T05:23:58.000Z</time>
</trkpt>
<trkpt lat="32.6369660" lon="35.1171790">
<ele>192.600006</ele>
<time>2022-10-14T05:24:01.000Z</time>
</trkpt>
<trkpt lat="32.6369350" lon="35.1171410">
<ele>192.800003</ele>
<time>2022-10-14T05:24:04.000Z</time>
</trkpt>
<trkpt lat="32.6369440" lon="35.1171190">
<ele>193.000000</ele>
<time>2022-10-14T05:24:06.000Z</time>
</trkpt>
<trkpt lat="32.6369720" lon="35.1171190">
<ele>193.000000</ele>
<time>2022-10-14T05:24:08.000Z</time>
</trkpt>
<trkpt lat="32.6369830" lon="35.1171260">
<ele>193.000000</ele>
<time>2022-10-14T05:24:09.000Z</time>
</trkpt>
<trkpt lat="32.6369910" lon="35.1171390">
<ele>192.800003</ele>
<time>2022-10-14T05:24:10.000Z</time>
</trkpt>
<trkpt lat="32.6369930" lon="35.1171650">
<ele>192.800003</ele>
<time>2022-10-14T05:24:11.000Z</time>
</trkpt>
<trkpt lat="32.6369790" lon="35.1172240">
<ele>192.800003</ele>
<time>2022-10-14T05:24:13.000Z</time>
</trkpt>
<trkpt lat="32.6369510" lon="35.1172430">
<ele>192.800003</ele>
<time>2022-10-14T05:24:15.000Z</time>
</trkpt>
<trkpt lat="32.6369200" lon="35.1172290">
<ele>193.000000</ele>
<time>2022-10-14T05:24:17.000Z</time>
</trkpt>
<trkpt lat="32.6368800" lon="35.1171410">
<ele>193.000000</ele>
<time>2022-10-14T05:24:23.000Z</time>
</trkpt>
<trkpt lat="32.6368270" lon="35.1170990">
<ele>193.400009</ele>
<time>2022-10-14T05:24:27.000Z</time>
</trkpt>
<trkpt lat="32.6367910" lon="35.1170680">
<ele>193.599991</ele>
<time>2022-10-14T05:24:29.000Z</time>
</trkpt>
<trkpt lat="32.6367500" lon="35.1170110">
<ele>193.999985</ele>
<time>2022-10-14T05:24:32.000Z</time>
</trkpt>
<trkpt lat="32.6366810" lon="35.1169610">
<ele>194.400009</ele>
<time>2022-10-14T05:24:36.000Z</time>
</trkpt>
<trkpt lat="32.6366570" lon="35.1169500">
<ele>194.400009</ele>
<time>2022-10-14T05:24:37.000Z</time>
</trkpt>
<trkpt lat="32.6366090" lon="35.1169290">
<ele>194.400009</ele>
<time>2022-10-14T05:24:39.000Z</time>
</trkpt>
<trkpt lat="32.6365400" lon="35.1169260">
<ele>194.400009</ele>
<time>2022-10-14T05:24:41.000Z</time>
</trkpt>
<trkpt lat="32.6364660" lon="35.1168950">
<ele>194.199997</ele>
<time>2022-10-14T05:24:43.000Z</time>
</trkpt>
<trkpt lat="32.6364100" lon="35.1168560">
<ele>194.199997</ele>
<time>2022-10-14T05:24:45.000Z</time>
</trkpt>
<trkpt lat="32.6363840" lon="35.1168330">
<ele>194.199997</ele>
<time>2022-10-14T05:24:46.000Z</time>
</trkpt>
<trkpt lat="32.6362960" lon="35.1167790">
<ele>194.400009</ele>
<time>2022-10-14T05:24:49.000Z</time>
</trkpt>
<trkpt lat="32.6362660" lon="35.1167670">
<ele>194.400009</ele>
<time>2022-10-14T05:24:50.000Z</time>
</trkpt>
<trkpt lat="32.6361870" lon="35.1167140">
<ele>194.400009</ele>
<time>2022-10-14T05:24:53.000Z</time>
</trkpt>
<trkpt lat="32.6361570" lon="35.1167000">
<ele>194.400009</ele>
<time>2022-10-14T05:24:54.000Z</time>
</trkpt>
<trkpt lat="32.6360750" lon="35.1166880">
<ele>193.800003</ele>
<time>2022-10-14T05:24:56.000Z</time>
</trkpt>
<trkpt lat="32.6359910" lon="35.1166480">
<ele>193.199997</ele>
<time>2022-10-14T05:24:58.000Z</time>
</trkpt>
<trkpt lat="32.6359100" lon="35.1166000">
<ele>193.000000</ele>
<time>2022-10-14T05:25:00.000Z</time>
</trkpt>
<trkpt lat="32.6358520" lon="35.1165550">
<ele>193.000000</ele>
<time>2022-10-14T05:25:02.000Z</time>
</trkpt>
<trkpt lat="32.6358260" lon="35.1165470">
<ele>192.800003</ele>
<time>2022-10-14T05:25:03.000Z</time>
</trkpt>
<trkpt lat="32.6357610" lon="35.1165400">
<ele>192.600006</ele>
<time>2022-10-14T05:25:05.000Z</time>
</trkpt>
<trkpt lat="32.6356710" lon="35.1165010">
<ele>192.200012</ele>
<time>2022-10-14T05:25:08.000Z</time>
</trkpt>
<trkpt lat="32.6356030" lon="35.1165600">
<ele>191.799988</ele>
<time>2022-10-14T05:25:11.000Z</time>
</trkpt>
<trkpt lat="32.6355360" lon="35.1165770">
<ele>191.600006</ele>
<time>2022-10-14T05:25:13.000Z</time>
</trkpt>
<trkpt lat="32.6355020" lon="35.1165830">
<ele>191.600006</ele>
<time>2022-10-14T05:25:14.000Z</time>
</trkpt>
<trkpt lat="32.6354730" lon="35.1165990">
<ele>191.399994</ele>
<time>2022-10-14T05:25:15.000Z</time>
</trkpt>
<trkpt lat="32.6354080" lon="35.1166710">
<ele>190.800003</ele>
<time>2022-10-14T05:25:17.000Z</time>
</trkpt>
<trkpt lat="32.6353270" lon="35.1167570">
<ele>190.199997</ele>
<time>2022-10-14T05:25:19.000Z</time>
</trkpt>
<trkpt lat="32.6352930" lon="35.1168090">
<ele>189.800003</ele>
<time>2022-10-14T05:25:20.000Z</time>
</trkpt>
<trkpt lat="32.6352270" lon="35.1168990">
<ele>189.600006</ele>
<time>2022-10-14T05:25:22.000Z</time>
</trkpt>
<trkpt lat="32.6351900" lon="35.1169260">
<ele>189.600006</ele>
<time>2022-10-14T05:25:23.000Z</time>
</trkpt>
<trkpt lat="32.6351580" lon="35.1169370">
<ele>190.000000</ele>
<time>2022-10-14T05:25:24.000Z</time>
</trkpt>
<trkpt lat="32.6350970" lon="35.1169390">
<ele>191.000000</ele>
<time>2022-10-14T05:25:27.000Z</time>
</trkpt>
<trkpt lat="32.6350470" lon="35.1169730">
<ele>191.799988</ele>
<time>2022-10-14T05:25:30.000Z</time>
</trkpt>
<trkpt lat="32.6349460" lon="35.1170330">
<ele>193.000000</ele>
<time>2022-10-14T05:25:34.000Z</time>
</trkpt>
<trkpt lat="32.6349310" lon="35.1170510">
<ele>193.400009</ele>
<time>2022-10-14T05:25:35.000Z</time>
</trkpt>
<trkpt lat="32.6349180" lon="35.1170750">
<ele>193.599991</ele>
<time>2022-10-14T05:25:36.000Z</time>
</trkpt>
<trkpt lat="32.6348920" lon="35.1171210">
<ele>194.199997</ele>
<time>2022-10-14T05:25:38.000Z</time>
</trkpt>
<trkpt lat="32.6348670" lon="35.1171710">
<ele>194.599991</ele>
<time>2022-10-14T05:25:40.000Z</time>
</trkpt>
<trkpt lat="32.6348560" lon="35.1171870">
<ele>194.800003</ele>
<time>2022-10-14T05:25:41.000Z</time>
</trkpt>
<trkpt lat="32.6348470" lon="35.1172090">
<ele>195.199997</ele>
<time>2022-10-14T05:25:42.000Z</time>
</trkpt>
<trkpt lat="32.6348030" lon="35.1172950">
<ele>196.000000</ele>
<time>2022-10-14T05:25:46.000Z</time>
</trkpt>
<trkpt lat="32.6347840" lon="35.1173500">
<ele>196.399994</ele>
<time>2022-10-14T05:25:48.000Z</time>
</trkpt>
<trkpt lat="32.6347420" lon="35.1174610">
<ele>197.000000</ele>
<time>2022-10-14T05:25:52.000Z</time>
</trkpt>
<trkpt lat="32.6347130" lon="35.1175440">
<ele>197.199997</ele>
<time>2022-10-14T05:25:55.000Z</time>
</trkpt>
<trkpt lat="32.6346900" lon="35.1176190">
<ele>197.199997</ele>
<time>2022-10-14T05:25:57.000Z</time>
</trkpt>
<trkpt lat="32.6346840" lon="35.1176540">
<ele>197.199997</ele>
<time>2022-10-14T05:25:58.000Z</time>
</trkpt>
<trkpt lat="32.6346720" lon="35.1177240">
<ele>197.199997</ele>
<time>2022-10-14T05:26:00.000Z</time>
</trkpt>
<trkpt lat="32.6346560" lon="35.1177570">
<ele>197.199997</ele>
<time>2022-10-14T05:26:01.000Z</time>
</trkpt>
<trkpt lat="32.6345920" lon="35.1178400">
<ele>197.800003</ele>
<time>2022-10-14T05:26:05.000Z</time>
</trkpt>
<trkpt lat="32.6345750" lon="35.1178570">
<ele>197.800003</ele>
<time>2022-10-14T05:26:06.000Z</time>
</trkpt>
<trkpt lat="32.6345470" lon="35.1178940">
<ele>198.199997</ele>
<time>2022-10-14T05:26:08.000Z</time>
</trkpt>
<trkpt lat="32.6345170" lon="35.1179200">
<ele>198.600006</ele>
<time>2022-10-14T05:26:10.000Z</time>
</trkpt>
<trkpt lat="32.6345030" lon="35.1179250">
<ele>198.800003</ele>
<time>2022-10-14T05:26:11.000Z</time>
</trkpt>
<trkpt lat="32.6344980" lon="35.1179340">
<ele>199.000000</ele>
<time>2022-10-14T05:26:12.000Z</time>
</trkpt>
<trkpt lat="32.6344930" lon="35.1181300">
<ele>198.800003</ele>
<time>2022-10-14T05:26:19.000Z</time>
</trkpt>
<trkpt lat="32.6344750" lon="35.1182690">
<ele>198.199997</ele>
<time>2022-10-14T05:26:22.000Z</time>
</trkpt>
<trkpt lat="32.6345180" lon="35.1184450">
<ele>197.599991</ele>
<time>2022-10-14T05:26:26.000Z</time>
</trkpt>
<trkpt lat="32.6345160" lon="35.1185550">
<ele>197.400009</ele>
<time>2022-10-14T05:26:28.000Z</time>
</trkpt>
<trkpt lat="32.6344790" lon="35.1186450">
<ele>197.000000</ele>
<time>2022-10-14T05:26:30.000Z</time>
</trkpt>
<trkpt lat="32.6344290" lon="35.1187140">
<ele>197.000000</ele>
<time>2022-10-14T05:26:32.000Z</time>
</trkpt>
<trkpt lat="32.6343970" lon="35.1187390">
<ele>197.000000</ele>
<time>2022-10-14T05:26:33.000Z</time>
</trkpt>
<trkpt lat="32.6343610" lon="35.1187480">
<ele>197.000000</ele>
<time>2022-10-14T05:26:34.000Z</time>
</trkpt>
<trkpt lat="32.6343030" lon="35.1187230">
<ele>197.000000</ele>
<time>2022-10-14T05:26:36.000Z</time>
</trkpt>
<trkpt lat="32.6342350" lon="35.1186350">
<ele>197.800003</ele>
<time>2022-10-14T05:26:40.000Z</time>
</trkpt>
<trkpt lat="32.6342040" lon="35.1185960">
<ele>198.000000</ele>
<time>2022-10-14T05:26:42.000Z</time>
</trkpt>
<trkpt lat="32.6341780" lon="35.1185280">
<ele>198.800003</ele>
<time>2022-10-14T05:26:45.000Z</time>
</trkpt>
<trkpt lat="32.6341690" lon="35.1185030">
<ele>199.000000</ele>
<time>2022-10-14T05:26:46.000Z</time>
</trkpt>
<trkpt lat="32.6341580" lon="35.1184770">
<ele>199.000000</ele>
<time>2022-10-14T05:26:47.000Z</time>
</trkpt>
<trkpt lat="32.6341540" lon="35.1184530">
<ele>199.200012</ele>
<time>2022-10-14T05:26:48.000Z</time>
</trkpt>
<trkpt lat="32.6341580" lon="35.1184270">
<ele>199.399994</ele>
<time>2022-10-14T05:26:49.000Z</time>
</trkpt>
<trkpt lat="32.6341680" lon="35.1184010">
<ele>199.399994</ele>
<time>2022-10-14T05:26:50.000Z</time>
</trkpt>
<trkpt lat="32.6341800" lon="35.1183590">
<ele>199.600006</ele>
<time>2022-10-14T05:26:52.000Z</time>
</trkpt>
<trkpt lat="32.6341760" lon="35.1183440">
<ele>199.800003</ele>
<time>2022-10-14T05:26:53.000Z</time>
</trkpt>
<trkpt lat="32.6341680" lon="35.1183280">
<ele>200.000000</ele>
<time>2022-10-14T05:26:54.000Z</time>
</trkpt>
<trkpt lat="32.6341360" lon="35.1182900">
<ele>200.199997</ele>
<time>2022-10-14T05:26:56.000Z</time>
</trkpt>
<trkpt lat="32.6341310" lon="35.1182690">
<ele>200.199997</ele>
<time>2022-10-14T05:26:57.000Z</time>
</trkpt>
<trkpt lat="32.6341360" lon="35.1182490">
<ele>200.399994</ele>
<time>2022-10-14T05:26:58.000Z</time>
</trkpt>
<trkpt lat="32.6341720" lon="35.1181890">
<ele>200.800003</ele>
<time>2022-10-14T05:27:01.000Z</time>
</trkpt>
<trkpt lat="32.6341860" lon="35.1181400">
<ele>200.999985</ele>
<time>2022-10-14T05:27:03.000Z</time>
</trkpt>
<trkpt lat="32.6341830" lon="35.1180950">
<ele>201.199997</ele>
<time>2022-10-14T05:27:05.000Z</time>
</trkpt>
<trkpt lat="32.6341700" lon="35.1180800">
<ele>201.400009</ele>
<time>2022-10-14T05:27:06.000Z</time>
</trkpt>
<trkpt lat="32.6341570" lon="35.1180620">
<ele>201.599991</ele>
<time>2022-10-14T05:27:07.000Z</time>
</trkpt>
<trkpt lat="32.6341460" lon="35.1180420">
<ele>201.800003</ele>
<time>2022-10-14T05:27:08.000Z</time>
</trkpt>
<trkpt lat="32.6341190" lon="35.1179850">
<ele>202.000000</ele>
<time>2022-10-14T05:27:11.000Z</time>
</trkpt>
<trkpt lat="32.6340880" lon="35.1179710">
<ele>202.199997</ele>
<time>2022-10-14T05:27:13.000Z</time>
</trkpt>
<trkpt lat="32.6340120" lon="35.1179910">
<ele>202.199997</ele>
<time>2022-10-14T05:27:16.000Z</time>
</trkpt>
<trkpt lat="32.6338920" lon="35.1180250">
<ele>201.800003</ele>
<time>2022-10-14T05:27:20.000Z</time>
</trkpt>
<trkpt lat="32.6338390" lon="35.1180580">
<ele>201.599991</ele>
<time>2022-10-14T05:27:22.000Z</time>
</trkpt>
<trkpt lat="32.6337820" lon="35.1181000">
<ele>201.599991</ele>
<time>2022-10-14T05:27:24.000Z</time>
</trkpt>
<trkpt lat="32.6337560" lon="35.1181310">
<ele>201.400009</ele>
<time>2022-10-14T05:27:25.000Z</time>
</trkpt>
<trkpt lat="32.6337050" lon="35.1181910">
<ele>200.999985</ele>
<time>2022-10-14T05:27:27.000Z</time>
</trkpt>
<trkpt lat="32.6336360" lon="35.1182630">
<ele>200.599991</ele>
<time>2022-10-14T05:27:29.000Z</time>
</trkpt>
<trkpt lat="32.6336040" lon="35.1182930">
<ele>200.599991</ele>
<time>2022-10-14T05:27:30.000Z</time>
</trkpt>
<trkpt lat="32.6335710" lon="35.1183230">
<ele>200.399994</ele>
<time>2022-10-14T05:27:31.000Z</time>
</trkpt>
<trkpt lat="32.6335350" lon="35.1183450">
<ele>200.199997</ele>
<time>2022-10-14T05:27:32.000Z</time>
</trkpt>
<trkpt lat="32.6334920" lon="35.1183530">
<ele>200.000000</ele>
<time>2022-10-14T05:27:33.000Z</time>
</trkpt>
<trkpt lat="32.6333090" lon="35.1183090">
<ele>199.000000</ele>
<time>2022-10-14T05:27:38.000Z</time>
</trkpt>
<trkpt lat="32.6332710" lon="35.1183050">
<ele>199.000000</ele>
<time>2022-10-14T05:27:39.000Z</time>
</trkpt>
<trkpt lat="32.6332350" lon="35.1183180">
<ele>198.800003</ele>
<time>2022-10-14T05:27:40.000Z</time>
</trkpt>
<trkpt lat="32.6331500" lon="35.1183530">
<ele>198.399994</ele>
<time>2022-10-14T05:27:42.000Z</time>
</trkpt>
<trkpt lat="32.6331110" lon="35.1183520">
<ele>198.399994</ele>
<time>2022-10-14T05:27:43.000Z</time>
</trkpt>
<trkpt lat="32.6330150" lon="35.1183240">
<ele>198.199997</ele>
<time>2022-10-14T05:27:46.000Z</time>
</trkpt>
<trkpt lat="32.6329870" lon="35.1183290">
<ele>198.199997</ele>
<time>2022-10-14T05:27:47.000Z</time>
</trkpt>
<trkpt lat="32.6329230" lon="35.1183820">
<ele>198.199997</ele>
<time>2022-10-14T05:27:49.000Z</time>
</trkpt>
<trkpt lat="32.6328620" lon="35.1184140">
<ele>197.599991</ele>
<time>2022-10-14T05:27:51.000Z</time>
</trkpt>
<trkpt lat="32.6328340" lon="35.1184050">
<ele>197.599991</ele>
<time>2022-10-14T05:27:52.000Z</time>
</trkpt>
<trkpt lat="32.6327900" lon="35.1183650">
<ele>197.800003</ele>
<time>2022-10-14T05:27:54.000Z</time>
</trkpt>
<trkpt lat="32.6327330" lon="35.1183280">
<ele>198.000000</ele>
<time>2022-10-14T05:27:56.000Z</time>
</trkpt>
<trkpt lat="32.6326610" lon="35.1182830">
<ele>198.000000</ele>
<time>2022-10-14T05:27:58.000Z</time>
</trkpt>
<trkpt lat="32.6325570" lon="35.1182670">
<ele>198.199997</ele>
<time>2022-10-14T05:28:01.000Z</time>
</trkpt>
<trkpt lat="32.6325290" lon="35.1182370">
<ele>198.399994</ele>
<time>2022-10-14T05:28:02.000Z</time>
</trkpt>
<trkpt lat="32.6325140" lon="35.1182050">
<ele>198.600006</ele>
<time>2022-10-14T05:28:03.000Z</time>
</trkpt>
<trkpt lat="32.6324950" lon="35.1181870">
<ele>198.800003</ele>
<time>2022-10-14T05:28:04.000Z</time>
</trkpt>
<trkpt lat="32.6324670" lon="35.1181880">
<ele>199.000000</ele>
<time>2022-10-14T05:28:05.000Z</time>
</trkpt>
<trkpt lat="32.6324350" lon="35.1181890">
<ele>199.200012</ele>
<time>2022-10-14T05:28:06.000Z</time>
</trkpt>
<trkpt lat="32.6323900" lon="35.1181560">
<ele>199.600006</ele>
<time>2022-10-14T05:28:08.000Z</time>
</trkpt>
<trkpt lat="32.6323820" lon="35.1181230">
<ele>199.800003</ele>
<time>2022-10-14T05:28:09.000Z</time>
</trkpt>
<trkpt lat="32.6323820" lon="35.1180470">
<ele>200.000000</ele>
<time>2022-10-14T05:28:11.000Z</time>
</trkpt>
<trkpt lat="32.6323840" lon="35.1180100">
<ele>200.000000</ele>
<time>2022-10-14T05:28:12.000Z</time>
</trkpt>
<trkpt lat="32.6323860" lon="35.1179750">
<ele>200.000000</ele>
<time>2022-10-14T05:28:13.000Z</time>
</trkpt>
<trkpt lat="32.6323810" lon="35.1179450">
<ele>200.199997</ele>
<time>2022-10-14T05:28:14.000Z</time>
</trkpt>
<trkpt lat="32.6323720" lon="35.1179180">
<ele>200.399994</ele>
<time>2022-10-14T05:28:15.000Z</time>
</trkpt>
<trkpt lat="32.6323300" lon="35.1178630">
<ele>200.800003</ele>
<time>2022-10-14T05:28:17.000Z</time>
</trkpt>
<trkpt lat="32.6322170" lon="35.1177350">
<ele>201.800003</ele>
<time>2022-10-14T05:28:22.000Z</time>
</trkpt>
<trkpt lat="32.6322010" lon="35.1177190">
<ele>201.800003</ele>
<time>2022-10-14T05:28:23.000Z</time>
</trkpt>
<trkpt lat="32.6321850" lon="35.1177080">
<ele>202.000000</ele>
<time>2022-10-14T05:28:24.000Z</time>
</trkpt>
<trkpt lat="32.6321620" lon="35.1176480">
<ele>202.199997</ele>
<time>2022-10-14T05:28:27.000Z</time>
</trkpt>
<trkpt lat="32.6321900" lon="35.1175650">
<ele>202.000000</ele>
<time>2022-10-14T05:28:30.000Z</time>
</trkpt>
<trkpt lat="32.6322160" lon="35.1175360">
<ele>202.000000</ele>
<time>2022-10-14T05:28:31.000Z</time>
</trkpt>
<trkpt lat="32.6322640" lon="35.1174980">
<ele>201.800003</ele>
<time>2022-10-14T05:28:33.000Z</time>
</trkpt>
<trkpt lat="32.6324910" lon="35.1174940">
<ele>200.399994</ele>
<time>2022-10-14T05:28:40.000Z</time>
</trkpt>
<trkpt lat="32.6325200" lon="35.1174790">
<ele>200.199997</ele>
<time>2022-10-14T05:28:41.000Z</time>
</trkpt>
<trkpt lat="32.6326550" lon="35.1173320">
<ele>199.200012</ele>
<time>2022-10-14T05:28:46.000Z</time>
</trkpt>
<trkpt lat="32.6326660" lon="35.1173030">
<ele>199.000000</ele>
<time>2022-10-14T05:28:47.000Z</time>
</trkpt>
<trkpt lat="32.6326680" lon="35.1171820">
<ele>198.600006</ele>
<time>2022-10-14T05:28:50.000Z</time>
</trkpt>
<trkpt lat="32.6326170" lon="35.1169340">
<ele>197.800003</ele>
<time>2022-10-14T05:28:56.000Z</time>
</trkpt>
<trkpt lat="32.6326180" lon="35.1168910">
<ele>197.800003</ele>
<time>2022-10-14T05:28:57.000Z</time>
</trkpt>
<trkpt lat="32.6326350" lon="35.1168490">
<ele>197.400009</ele>
<time>2022-10-14T05:28:58.000Z</time>
</trkpt>
<trkpt lat="32.6326600" lon="35.1168140">
<ele>197.000000</ele>
<time>2022-10-14T05:28:59.000Z</time>
</trkpt>
<trkpt lat="32.6326900" lon="35.1167900">
<ele>196.800003</ele>
<time>2022-10-14T05:29:00.000Z</time>
</trkpt>
<trkpt lat="32.6327280" lon="35.1167790">
<ele>196.600006</ele>
<time>2022-10-14T05:29:01.000Z</time>
</trkpt>
<trkpt lat="32.6328520" lon="35.1167840">
<ele>195.799988</ele>
<time>2022-10-14T05:29:04.000Z</time>
</trkpt>
<trkpt lat="32.6328810" lon="35.1167570">
<ele>195.600006</ele>
<time>2022-10-14T05:29:05.000Z</time>
</trkpt>
<trkpt lat="32.6329000" lon="35.1167190">
<ele>195.199997</ele>
<time>2022-10-14T05:29:06.000Z</time>
</trkpt>
<trkpt lat="32.6329190" lon="35.1166300">
<ele>194.599991</ele>
<time>2022-10-14T05:29:08.000Z</time>
</trkpt>
<trkpt lat="32.6329070" lon="35.1165320">
<ele>193.599991</ele>
<time>2022-10-14T05:29:10.000Z</time>
</trkpt>
<trkpt lat="32.6328970" lon="35.1164920">
<ele>193.199997</ele>
<time>2022-10-14T05:29:11.000Z</time>
</trkpt>
<trkpt lat="32.6328750" lon="35.1164610">
<ele>193.000000</ele>
<time>2022-10-14T05:29:12.000Z</time>
</trkpt>
<trkpt lat="32.6328480" lon="35.1164460">
<ele>192.800003</ele>
<time>2022-10-14T05:29:13.000Z</time>
</trkpt>
<trkpt lat="32.6327720" lon="35.1164420">
<ele>193.199997</ele>
<time>2022-10-14T05:29:16.000Z</time>
</trkpt>
<trkpt lat="32.6327430" lon="35.1164390">
<ele>193.199997</ele>
<time>2022-10-14T05:29:17.000Z</time>
</trkpt>
<trkpt lat="32.6326440" lon="35.1163160">
<ele>193.199997</ele>
<time>2022-10-14T05:29:21.000Z</time>
</trkpt>
<trkpt lat="32.6326160" lon="35.1162820">
<ele>192.600006</ele>
<time>2022-10-14T05:29:22.000Z</time>
</trkpt>
<trkpt lat="32.6325540" lon="35.1162390">
<ele>191.799988</ele>
<time>2022-10-14T05:29:24.000Z</time>
</trkpt>
<trkpt lat="32.6325220" lon="35.1162370">
<ele>191.399994</ele>
<time>2022-10-14T05:29:25.000Z</time>
</trkpt>
<trkpt lat="32.6324640" lon="35.1162560">
<ele>191.199997</ele>
<time>2022-10-14T05:29:27.000Z</time>
</trkpt>
<trkpt lat="32.6324360" lon="35.1162690">
<ele>191.199997</ele>
<time>2022-10-14T05:29:28.000Z</time>
</trkpt>
<trkpt lat="32.6323870" lon="35.1162890">
<ele>191.399994</ele>
<time>2022-10-14T05:29:30.000Z</time>
</trkpt>
<trkpt lat="32.6323350" lon="35.1162910">
<ele>191.199997</ele>
<time>2022-10-14T05:29:32.000Z</time>
</trkpt>
<trkpt lat="32.6322260" lon="35.1163210">
<ele>190.400009</ele>
<time>2022-10-14T05:29:35.000Z</time>
</trkpt>
<trkpt lat="32.6321570" lon="35.1163550">
<ele>190.000000</ele>
<time>2022-10-14T05:29:37.000Z</time>
</trkpt>
<trkpt lat="32.6320980" lon="35.1164060">
<ele>189.800003</ele>
<time>2022-10-14T05:29:39.000Z</time>
</trkpt>
<trkpt lat="32.6320690" lon="35.1164320">
<ele>189.600006</ele>
<time>2022-10-14T05:29:40.000Z</time>
</trkpt>
<trkpt lat="32.6319850" lon="35.1165430">
<ele>190.000000</ele>
<time>2022-10-14T05:29:44.000Z</time>
</trkpt>
<trkpt lat="32.6318950" lon="35.1166070">
<ele>190.199997</ele>
<time>2022-10-14T05:29:47.000Z</time>
</trkpt>
<trkpt lat="32.6318080" lon="35.1167240">
<ele>190.400009</ele>
<time>2022-10-14T05:29:50.000Z</time>
</trkpt>
<trkpt lat="32.6317650" lon="35.1167710">
<ele>190.599991</ele>
<time>2022-10-14T05:29:52.000Z</time>
</trkpt>
<trkpt lat="32.6317220" lon="35.1168380">
<ele>191.600006</ele>
<time>2022-10-14T05:29:55.000Z</time>
</trkpt>
<trkpt lat="32.6317050" lon="35.1168500">
<ele>191.799988</ele>
<time>2022-10-14T05:29:56.000Z</time>
</trkpt>
<trkpt lat="32.6316840" lon="35.1168460">
<ele>191.799988</ele>
<time>2022-10-14T05:29:57.000Z</time>
</trkpt>
<trkpt lat="32.6315980" lon="35.1168210">
<ele>191.000000</ele>
<time>2022-10-14T05:29:59.000Z</time>
</trkpt>
<trkpt lat="32.6315520" lon="35.1167980">
<ele>190.400009</ele>
<time>2022-10-14T05:30:00.000Z</time>
</trkpt>
<trkpt lat="32.6314960" lon="35.1167750">
<ele>190.000000</ele>
<time>2022-10-14T05:30:01.000Z</time>
</trkpt>
<trkpt lat="32.6313090" lon="35.1166540">
<ele>190.599991</ele>
<time>2022-10-14T05:30:06.000Z</time>
</trkpt>
<trkpt lat="32.6312250" lon="35.1166180">
<ele>191.600006</ele>
<time>2022-10-14T05:30:09.000Z</time>
</trkpt>
<trkpt lat="32.6310920" lon="35.1165720">
<ele>192.399994</ele>
<time>2022-10-14T05:30:14.000Z</time>
</trkpt>
<trkpt lat="32.6310170" lon="35.1165710">
<ele>193.000000</ele>
<time>2022-10-14T05:30:17.000Z</time>
</trkpt>
<trkpt lat="32.6309920" lon="35.1165740">
<ele>193.199997</ele>
<time>2022-10-14T05:30:18.000Z</time>
</trkpt>
<trkpt lat="32.6309680" lon="35.1165760">
<ele>193.400009</ele>
<time>2022-10-14T05:30:19.000Z</time>
</trkpt>
<trkpt lat="32.6309230" lon="35.1165660">
<ele>193.400009</ele>
<time>2022-10-14T05:30:21.000Z</time>
</trkpt>
<trkpt lat="32.6308530" lon="35.1165070">
<ele>193.400009</ele>
<time>2022-10-14T05:30:24.000Z</time>
</trkpt>
<trkpt lat="32.6307930" lon="35.1164530">
<ele>192.800003</ele>
<time>2022-10-14T05:30:26.000Z</time>
</trkpt>
<trkpt lat="32.6307180" lon="35.1164220">
<ele>191.399994</ele>
<time>2022-10-14T05:30:28.000Z</time>
</trkpt>
<trkpt lat="32.6306360" lon="35.1163610">
<ele>190.599991</ele>
<time>2022-10-14T05:30:30.000Z</time>
</trkpt>
<trkpt lat="32.6305400" lon="35.1162700">
<ele>188.799988</ele>
<time>2022-10-14T05:30:32.000Z</time>
</trkpt>
<trkpt lat="32.6304380" lon="35.1161870">
<ele>187.800003</ele>
<time>2022-10-14T05:30:34.000Z</time>
</trkpt>
<trkpt lat="32.6303850" lon="35.1161610">
<ele>187.599991</ele>
<time>2022-10-14T05:30:35.000Z</time>
</trkpt>
<trkpt lat="32.6303400" lon="35.1161490">
<ele>187.599991</ele>
<time>2022-10-14T05:30:36.000Z</time>
</trkpt>
<trkpt lat="32.6302570" lon="35.1161240">
<ele>187.599991</ele>
<time>2022-10-14T05:30:38.000Z</time>
</trkpt>
<trkpt lat="32.6302220" lon="35.1161110">
<ele>187.400009</ele>
<time>2022-10-14T05:30:39.000Z</time>
</trkpt>
<trkpt lat="32.6301370" lon="35.1160850">
<ele>187.199997</ele>
<time>2022-10-14T05:30:41.000Z</time>
</trkpt>
<trkpt lat="32.6300390" lon="35.1160760">
<ele>187.000015</ele>
<time>2022-10-14T05:30:43.000Z</time>
</trkpt>
<trkpt lat="32.6299970" lon="35.1160880">
<ele>187.000015</ele>
<time>2022-10-14T05:30:44.000Z</time>
</trkpt>
<trkpt lat="32.6299590" lon="35.1161100">
<ele>187.000015</ele>
<time>2022-10-14T05:30:45.000Z</time>
</trkpt>
<trkpt lat="32.6299320" lon="35.1161330">
<ele>187.199997</ele>
<time>2022-10-14T05:30:46.000Z</time>
</trkpt>
<trkpt lat="32.6299100" lon="35.1161530">
<ele>187.599991</ele>
<time>2022-10-14T05:30:47.000Z</time>
</trkpt>
<trkpt lat="32.6298840" lon="35.1161640">
<ele>187.800003</ele>
<time>2022-10-14T05:30:48.000Z</time>
</trkpt>
<trkpt lat="32.6298580" lon="35.1161610">
<ele>188.000000</ele>
<time>2022-10-14T05:30:49.000Z</time>
</trkpt>
<trkpt lat="32.6298320" lon="35.1161450">
<ele>188.000000</ele>
<time>2022-10-14T05:30:50.000Z</time>
</trkpt>
<trkpt lat="32.6298020" lon="35.1161230">
<ele>187.800003</ele>
<time>2022-10-14T05:30:51.000Z</time>
</trkpt>
<trkpt lat="32.6297670" lon="35.1161010">
<ele>187.400009</ele>
<time>2022-10-14T05:30:52.000Z</time>
</trkpt>
<trkpt lat="32.6297300" lon="35.1160830">
<ele>187.000015</ele>
<time>2022-10-14T05:30:53.000Z</time>
</trkpt>
<trkpt lat="32.6296560" lon="35.1160770">
<ele>186.599991</ele>
<time>2022-10-14T05:30:55.000Z</time>
</trkpt>
<trkpt lat="32.6295010" lon="35.1161190">
<ele>186.400009</ele>
<time>2022-10-14T05:30:59.000Z</time>
</trkpt>
<trkpt lat="32.6294320" lon="35.1161500">
<ele>186.800003</ele>
<time>2022-10-14T05:31:01.000Z</time>
</trkpt>
<trkpt lat="32.6294010" lon="35.1161710">
<ele>186.800003</ele>
<time>2022-10-14T05:31:02.000Z</time>
</trkpt>
<trkpt lat="32.6293690" lon="35.1161900">
<ele>186.800003</ele>
<time>2022-10-14T05:31:03.000Z</time>
</trkpt>
<trkpt lat="32.6293390" lon="35.1162000">
<ele>186.800003</ele>
<time>2022-10-14T05:31:04.000Z</time>
</trkpt>
<trkpt lat="32.6291760" lon="35.1162000">
<ele>186.599991</ele>
<time>2022-10-14T05:31:08.000Z</time>
</trkpt>
<trkpt lat="32.6291290" lon="35.1162140">
<ele>186.400009</ele>
<time>2022-10-14T05:31:09.000Z</time>
</trkpt>
<trkpt lat="32.6290400" lon="35.1162240">
<ele>185.800003</ele>
<time>2022-10-14T05:31:11.000Z</time>
</trkpt>
<trkpt lat="32.6289980" lon="35.1162130">
<ele>185.600006</ele>
<time>2022-10-14T05:31:12.000Z</time>
</trkpt>
<trkpt lat="32.6289150" lon="35.1161910">
<ele>185.000000</ele>
<time>2022-10-14T05:31:14.000Z</time>
</trkpt>
<trkpt lat="32.6288270" lon="35.1161960">
<ele>184.399994</ele>
<time>2022-10-14T05:31:16.000Z</time>
</trkpt>
<trkpt lat="32.6288000" lon="35.1161950">
<ele>184.199997</ele>
<time>2022-10-14T05:31:17.000Z</time>
</trkpt>
<trkpt lat="32.6287780" lon="35.1161970">
<ele>184.000000</ele>
<time>2022-10-14T05:31:18.000Z</time>
</trkpt>
<trkpt lat="32.6286920" lon="35.1161750">
<ele>183.000000</ele>
<time>2022-10-14T05:31:21.000Z</time>
</trkpt>
<trkpt lat="32.6286540" lon="35.1161740">
<ele>183.000000</ele>
<time>2022-10-14T05:31:22.000Z</time>
</trkpt>
<trkpt lat="32.6286190" lon="35.1161780">
<ele>182.800003</ele>
<time>2022-10-14T05:31:23.000Z</time>
</trkpt>
<trkpt lat="32.6285620" lon="35.1161560">
<ele>182.800003</ele>
<time>2022-10-14T05:31:25.000Z</time>
</trkpt>
<trkpt lat="32.6284230" lon="35.1160230">
<ele>182.600006</ele>
<time>2022-10-14T05:31:30.000Z</time>
</trkpt>
<trkpt lat="32.6283460" lon="35.1159730">
<ele>182.600006</ele>
<time>2022-10-14T05:31:32.000Z</time>
</trkpt>
<trkpt lat="32.6282410" lon="35.1159470">
<ele>182.800003</ele>
<time>2022-10-14T05:31:35.000Z</time>
</trkpt>
<trkpt lat="32.6281520" lon="35.1158890">
<ele>182.800003</ele>
<time>2022-10-14T05:31:38.000Z</time>
</trkpt>
<trkpt lat="32.6281250" lon="35.1158820">
<ele>183.000000</ele>
<time>2022-10-14T05:31:39.000Z</time>
</trkpt>
<trkpt lat="32.6281000" lon="35.1158710">
<ele>183.199997</ele>
<time>2022-10-14T05:31:40.000Z</time>
</trkpt>
<trkpt lat="32.6280720" lon="35.1158620">
<ele>183.400009</ele>
<time>2022-10-14T05:31:41.000Z</time>
</trkpt>
<trkpt lat="32.6280390" lon="35.1158590">
<ele>183.400009</ele>
<time>2022-10-14T05:31:42.000Z</time>
</trkpt>
<trkpt lat="32.6279720" lon="35.1158580">
<ele>183.599991</ele>
<time>2022-10-14T05:31:44.000Z</time>
</trkpt>
<trkpt lat="32.6279020" lon="35.1158970">
<ele>184.199997</ele>
<time>2022-10-14T05:31:47.000Z</time>
</trkpt>
<trkpt lat="32.6278810" lon="35.1159040">
<ele>184.399994</ele>
<time>2022-10-14T05:31:48.000Z</time>
</trkpt>
<trkpt lat="32.6278130" lon="35.1158940">
<ele>184.799988</ele>
<time>2022-10-14T05:31:51.000Z</time>
</trkpt>
<trkpt lat="32.6277580" lon="35.1158670">
<ele>185.000000</ele>
<time>2022-10-14T05:31:53.000Z</time>
</trkpt>
<trkpt lat="32.6277010" lon="35.1158060">
<ele>184.799988</ele>
<time>2022-10-14T05:31:55.000Z</time>
</trkpt>
<trkpt lat="32.6276040" lon="35.1156420">
<ele>184.399994</ele>
<time>2022-10-14T05:31:59.000Z</time>
</trkpt>
<trkpt lat="32.6275100" lon="35.1155260">
<ele>184.000000</ele>
<time>2022-10-14T05:32:02.000Z</time>
</trkpt>
<trkpt lat="32.6274730" lon="35.1155000">
<ele>184.000000</ele>
<time>2022-10-14T05:32:03.000Z</time>
</trkpt>
<trkpt lat="32.6274300" lon="35.1154810">
<ele>184.000000</ele>
<time>2022-10-14T05:32:04.000Z</time>
</trkpt>
<trkpt lat="32.6273510" lon="35.1154360">
<ele>184.000000</ele>
<time>2022-10-14T05:32:06.000Z</time>
</trkpt>
<trkpt lat="32.6272700" lon="35.1154190">
<ele>184.199997</ele>
<time>2022-10-14T05:32:08.000Z</time>
</trkpt>
<trkpt lat="32.6272210" lon="35.1153770">
<ele>184.199997</ele>
<time>2022-10-14T05:32:10.000Z</time>
</trkpt>
<trkpt lat="32.6272180" lon="35.1153390">
<ele>184.199997</ele>
<time>2022-10-14T05:32:11.000Z</time>
</trkpt>
<trkpt lat="32.6272280" lon="35.1152410">
<ele>184.199997</ele>
<time>2022-10-14T05:32:13.000Z</time>
</trkpt>
<trkpt lat="32.6272340" lon="35.1151920">
<ele>184.000000</ele>
<time>2022-10-14T05:32:14.000Z</time>
</trkpt>
<trkpt lat="32.6272490" lon="35.1151560">
<ele>183.599991</ele>
<time>2022-10-14T05:32:15.000Z</time>
</trkpt>
<trkpt lat="32.6272740" lon="35.1151460">
<ele>183.199997</ele>
<time>2022-10-14T05:32:16.000Z</time>
</trkpt>
<trkpt lat="32.6273050" lon="35.1151470">
<ele>183.000000</ele>
<time>2022-10-14T05:32:17.000Z</time>
</trkpt>
<trkpt lat="32.6273360" lon="35.1151600">
<ele>182.800003</ele>
<time>2022-10-14T05:32:18.000Z</time>
</trkpt>
<trkpt lat="32.6273980" lon="35.1151860">
<ele>182.399994</ele>
<time>2022-10-14T05:32:20.000Z</time>
</trkpt>
<trkpt lat="32.6274270" lon="35.1151790">
<ele>182.199997</ele>
<time>2022-10-14T05:32:21.000Z</time>
</trkpt>
<trkpt lat="32.6274400" lon="35.1151420">
<ele>182.000000</ele>
<time>2022-10-14T05:32:22.000Z</time>
</trkpt>
<trkpt lat="32.6274360" lon="35.1151020">
<ele>181.799988</ele>
<time>2022-10-14T05:32:23.000Z</time>
</trkpt>
<trkpt lat="32.6274160" lon="35.1150610">
<ele>181.399994</ele>
<time>2022-10-14T05:32:24.000Z</time>
</trkpt>
<trkpt lat="32.6273090" lon="35.1149540">
<ele>180.000015</ele>
<time>2022-10-14T05:32:27.000Z</time>
</trkpt>
<trkpt lat="32.6272720" lon="35.1148680">
<ele>179.400009</ele>
<time>2022-10-14T05:32:29.000Z</time>
</trkpt>
<trkpt lat="32.6272500" lon="35.1148320">
<ele>179.000000</ele>
<time>2022-10-14T05:32:30.000Z</time>
</trkpt>
<trkpt lat="32.6272200" lon="35.1148010">
<ele>178.800003</ele>
<time>2022-10-14T05:32:31.000Z</time>
</trkpt>
<trkpt lat="32.6271510" lon="35.1147660">
<ele>178.600006</ele>
<time>2022-10-14T05:32:33.000Z</time>
</trkpt>
<trkpt lat="32.6270320" lon="35.1146420">
<ele>178.000000</ele>
<time>2022-10-14T05:32:37.000Z</time>
</trkpt>
<trkpt lat="32.6269930" lon="35.1146360">
<ele>178.000000</ele>
<time>2022-10-14T05:32:38.000Z</time>
</trkpt>
<trkpt lat="32.6269540" lon="35.1146410">
<ele>177.799988</ele>
<time>2022-10-14T05:32:39.000Z</time>
</trkpt>
<trkpt lat="32.6268280" lon="35.1145920">
<ele>178.800003</ele>
<time>2022-10-14T05:32:44.000Z</time>
</trkpt>
<trkpt lat="32.6267530" lon="35.1145450">
<ele>179.000000</ele>
<time>2022-10-14T05:32:47.000Z</time>
</trkpt>
<trkpt lat="32.6267110" lon="35.1145210">
<ele>179.599991</ele>
<time>2022-10-14T05:32:49.000Z</time>
</trkpt>
<trkpt lat="32.6266680" lon="35.1144600">
<ele>180.400009</ele>
<time>2022-10-14T05:32:52.000Z</time>
</trkpt>
<trkpt lat="32.6266070" lon="35.1143780">
<ele>180.600006</ele>
<time>2022-10-14T05:32:55.000Z</time>
</trkpt>
<trkpt lat="32.6265220" lon="35.1142880">
<ele>180.600006</ele>
<time>2022-10-14T05:32:58.000Z</time>
</trkpt>
<trkpt lat="32.6264750" lon="35.1142230">
<ele>180.600006</ele>
<time>2022-10-14T05:33:00.000Z</time>
</trkpt>
<trkpt lat="32.6264580" lon="35.1141860">
<ele>180.600006</ele>
<time>2022-10-14T05:33:01.000Z</time>
</trkpt>
<trkpt lat="32.6264260" lon="35.1141060">
<ele>180.400009</ele>
<time>2022-10-14T05:33:03.000Z</time>
</trkpt>
<trkpt lat="32.6264140" lon="35.1140220">
<ele>179.800003</ele>
<time>2022-10-14T05:33:05.000Z</time>
</trkpt>
<trkpt lat="32.6263840" lon="35.1139200">
<ele>178.200012</ele>
<time>2022-10-14T05:33:08.000Z</time>
</trkpt>
<trkpt lat="32.6263900" lon="35.1138950">
<ele>177.799988</ele>
<time>2022-10-14T05:33:09.000Z</time>
</trkpt>
<trkpt lat="32.6264080" lon="35.1138770">
<ele>177.399994</ele>
<time>2022-10-14T05:33:10.000Z</time>
</trkpt>
<trkpt lat="32.6264340" lon="35.1138680">
<ele>177.199997</ele>
<time>2022-10-14T05:33:11.000Z</time>
</trkpt>
<trkpt lat="32.6264630" lon="35.1138730">
<ele>176.599991</ele>
<time>2022-10-14T05:33:12.000Z</time>
</trkpt>
<trkpt lat="32.6265360" lon="35.1138730">
<ele>175.199997</ele>
<time>2022-10-14T05:33:15.000Z</time>
</trkpt>
<trkpt lat="32.6265500" lon="35.1138580">
<ele>174.600006</ele>
<time>2022-10-14T05:33:16.000Z</time>
</trkpt>
<trkpt lat="32.6265560" lon="35.1138180">
<ele>174.000000</ele>
<time>2022-10-14T05:33:18.000Z</time>
</trkpt>
<trkpt lat="32.6265430" lon="35.1137950">
<ele>173.800003</ele>
<time>2022-10-14T05:33:19.000Z</time>
</trkpt>
<trkpt lat="32.6265170" lon="35.1137700">
<ele>173.800003</ele>
<time>2022-10-14T05:33:20.000Z</time>
</trkpt>
<trkpt lat="32.6264900" lon="35.1137470">
<ele>173.800003</ele>
<time>2022-10-14T05:33:21.000Z</time>
</trkpt>
<trkpt lat="32.6263970" lon="35.1136530">
<ele>174.399994</ele>
<time>2022-10-14T05:33:25.000Z</time>
</trkpt>
<trkpt lat="32.6263660" lon="35.1136280">
<ele>174.399994</ele>
<time>2022-10-14T05:33:26.000Z</time>
</trkpt>
<trkpt lat="32.6262190" lon="35.1134820">
<ele>175.399994</ele>
<time>2022-10-14T05:33:32.000Z</time>
</trkpt>
<trkpt lat="32.6260610" lon="35.1134040">
<ele>176.599991</ele>
<time>2022-10-14T05:33:39.000Z</time>
</trkpt>
<trkpt lat="32.6259090" lon="35.1132840">
<ele>176.199997</ele>
<time>2022-10-14T05:33:46.000Z</time>
</trkpt>
<trkpt lat="32.6258750" lon="35.1132650">
<ele>175.999985</ele>
<time>2022-10-14T05:33:47.000Z</time>
</trkpt>
<trkpt lat="32.6258370" lon="35.1132560">
<ele>175.999985</ele>
<time>2022-10-14T05:33:48.000Z</time>
</trkpt>
<trkpt lat="32.6257530" lon="35.1132660">
<ele>175.599991</ele>
<time>2022-10-14T05:33:51.000Z</time>
</trkpt>
<trkpt lat="32.6257260" lon="35.1132600">
<ele>175.599991</ele>
<time>2022-10-14T05:33:52.000Z</time>
</trkpt>
<trkpt lat="32.6256740" lon="35.1132450">
<ele>175.399994</ele>
<time>2022-10-14T05:33:54.000Z</time>
</trkpt>
<trkpt lat="32.6255880" lon="35.1131940">
<ele>174.399994</ele>
<time>2022-10-14T05:33:58.000Z</time>
</trkpt>
<trkpt lat="32.6254870" lon="35.1131820">
<ele>173.000015</ele>
<time>2022-10-14T05:34:01.000Z</time>
</trkpt>
<trkpt lat="32.6253670" lon="35.1132120">
<ele>172.000000</ele>
<time>2022-10-14T05:34:04.000Z</time>
</trkpt>
<trkpt lat="32.6253290" lon="35.1132230">
<ele>171.800003</ele>
<time>2022-10-14T05:34:05.000Z</time>
</trkpt>
<trkpt lat="32.6252500" lon="35.1132460">
<ele>170.799988</ele>
<time>2022-10-14T05:34:07.000Z</time>
</trkpt>
<trkpt lat="32.6252020" lon="35.1132520">
<ele>170.399994</ele>
<time>2022-10-14T05:34:08.000Z</time>
</trkpt>
<trkpt lat="32.6251490" lon="35.1132570">
<ele>170.000000</ele>
<time>2022-10-14T05:34:09.000Z</time>
</trkpt>
<trkpt lat="32.6250960" lon="35.1132700">
<ele>169.800003</ele>
<time>2022-10-14T05:34:10.000Z</time>
</trkpt>
<trkpt lat="32.6250480" lon="35.1132890">
<ele>169.599991</ele>
<time>2022-10-14T05:34:11.000Z</time>
</trkpt>
<trkpt lat="32.6250070" lon="35.1133180">
<ele>169.599991</ele>
<time>2022-10-14T05:34:12.000Z</time>
</trkpt>
<trkpt lat="32.6249340" lon="35.1133930">
<ele>169.400009</ele>
<time>2022-10-14T05:34:14.000Z</time>
</trkpt>
<trkpt lat="32.6248520" lon="35.1134720">
<ele>169.400009</ele>
<time>2022-10-14T05:34:16.000Z</time>
</trkpt>
<trkpt lat="32.6245290" lon="35.1138270">
<ele>169.800003</ele>
<time>2022-10-14T05:34:24.000Z</time>
</trkpt>
<trkpt lat="32.6243310" lon="35.1140460">
<ele>169.400009</ele>
<time>2022-10-14T05:34:30.000Z</time>
</trkpt>
<trkpt lat="32.6242990" lon="35.1140840">
<ele>169.400009</ele>
<time>2022-10-14T05:34:32.000Z</time>
</trkpt>
<trkpt lat="32.6242880" lon="35.1140960">
<ele>169.400009</ele>
<time>2022-10-14T05:34:33.000Z</time>
</trkpt>
<trkpt lat="32.6242820" lon="35.1141010">
<ele>169.400009</ele>
<time>2022-10-14T05:34:34.000Z</time>
</trkpt>
<trkpt lat="32.6242810" lon="35.1140950">
<ele>169.199997</ele>
<time>2022-10-14T05:34:54.000Z</time>
</trkpt>
<trkpt lat="32.6242650" lon="35.1141260">
<ele>169.400009</ele>
<time>2022-10-14T05:35:09.000Z</time>
</trkpt>
<trkpt lat="32.6242190" lon="35.1141740">
<ele>169.400009</ele>
<time>2022-10-14T05:35:12.000Z</time>
</trkpt>
<trkpt lat="32.6240120" lon="35.1145050">
<ele>170.000000</ele>
<time>2022-10-14T05:35:28.000Z</time>
</trkpt>
<trkpt lat="32.6239790" lon="35.1145660">
<ele>170.199997</ele>
<time>2022-10-14T05:35:30.000Z</time>
</trkpt>
<trkpt lat="32.6238970" lon="35.1148010">
<ele>170.600006</ele>
<time>2022-10-14T05:35:37.000Z</time>
</trkpt>
<trkpt lat="32.6238570" lon="35.1149010">
<ele>171.200012</ele>
<time>2022-10-14T05:35:41.000Z</time>
</trkpt>
<trkpt lat="32.6238510" lon="35.1149260">
<ele>171.399994</ele>
<time>2022-10-14T05:35:42.000Z</time>
</trkpt>
<trkpt lat="32.6238180" lon="35.1149920">
<ele>172.000000</ele>
<time>2022-10-14T05:35:45.000Z</time>
</trkpt>
<trkpt lat="32.6237970" lon="35.1150440">
<ele>172.599991</ele>
<time>2022-10-14T05:35:48.000Z</time>
</trkpt>
<trkpt lat="32.6237850" lon="35.1150850">
<ele>173.000015</ele>
<time>2022-10-14T05:35:50.000Z</time>
</trkpt>
<trkpt lat="32.6237180" lon="35.1151730">
<ele>173.800003</ele>
<time>2022-10-14T05:35:55.000Z</time>
</trkpt>
<trkpt lat="32.6236610" lon="35.1152140">
<ele>174.000000</ele>
<time>2022-10-14T05:35:58.000Z</time>
</trkpt>
<trkpt lat="32.6235180" lon="35.1153120">
<ele>174.200012</ele>
<time>2022-10-14T05:36:04.000Z</time>
</trkpt>
<trkpt lat="32.6234950" lon="35.1153310">
<ele>174.200012</ele>
<time>2022-10-14T05:36:05.000Z</time>
</trkpt>
<trkpt lat="32.6234020" lon="35.1154050">
<ele>174.200012</ele>
<time>2022-10-14T05:36:09.000Z</time>
</trkpt>
<trkpt lat="32.6233570" lon="35.1154300">
<ele>174.399994</ele>
<time>2022-10-14T05:36:11.000Z</time>
</trkpt>
<trkpt lat="32.6233140" lon="35.1154470">
<ele>174.600006</ele>
<time>2022-10-14T05:36:13.000Z</time>
</trkpt>
<trkpt lat="32.6232940" lon="35.1154570">
<ele>174.600006</ele>
<time>2022-10-14T05:36:14.000Z</time>
</trkpt>
<trkpt lat="32.6232720" lon="35.1154650">
<ele>174.799988</ele>
<time>2022-10-14T05:36:15.000Z</time>
</trkpt>
<trkpt lat="32.6231910" lon="35.1154870">
<ele>175.800003</ele>
<time>2022-10-14T05:36:19.000Z</time>
</trkpt>
<trkpt lat="32.6231620" lon="35.1154680">
<ele>175.999985</ele>
<time>2022-10-14T05:36:21.000Z</time>
</trkpt>
<trkpt lat="32.6231140" lon="35.1154250">
<ele>176.199997</ele>
<time>2022-10-14T05:36:24.000Z</time>
</trkpt>
<trkpt lat="32.6230780" lon="35.1153810">
<ele>175.999985</ele>
<time>2022-10-14T05:36:27.000Z</time>
</trkpt>
<trkpt lat="32.6230270" lon="35.1153400">
<ele>175.800003</ele>
<time>2022-10-14T05:36:30.000Z</time>
</trkpt>
<trkpt lat="32.6229870" lon="35.1152620">
<ele>176.800003</ele>
<time>2022-10-14T05:36:35.000Z</time>
</trkpt>
<trkpt lat="32.6229760" lon="35.1152460">
<ele>176.800003</ele>
<time>2022-10-14T05:36:36.000Z</time>
</trkpt>
<trkpt lat="32.6229620" lon="35.1152050">
<ele>176.800003</ele>
<time>2022-10-14T05:36:38.000Z</time>
</trkpt>
<trkpt lat="32.6229590" lon="35.1151900">
<ele>177.000000</ele>
<time>2022-10-14T05:36:39.000Z</time>
</trkpt>
<trkpt lat="32.6229460" lon="35.1151760">
<ele>177.000000</ele>
<time>2022-10-14T05:36:41.000Z</time>
</trkpt>
<trkpt lat="32.6229630" lon="35.1152000">
<ele>176.800003</ele>
<time>2022-10-14T05:36:51.000Z</time>
</trkpt>
<trkpt lat="32.6230070" lon="35.1152870">
<ele>176.599991</ele>
<time>2022-10-14T05:38:03.000Z</time>
</trkpt>
<trkpt lat="32.6230370" lon="35.1153320">
<ele>176.599991</ele>
<time>2022-10-14T05:38:05.000Z</time>
</trkpt>
<trkpt lat="32.6231200" lon="35.1154050">
<ele>175.999985</ele>
<time>2022-10-14T05:38:08.000Z</time>
</trkpt>
<trkpt lat="32.6231410" lon="35.1154210">
<ele>175.800003</ele>
<time>2022-10-14T05:38:09.000Z</time>
</trkpt>
<trkpt lat="32.6231550" lon="35.1154420">
<ele>175.800003</ele>
<time>2022-10-14T05:38:10.000Z</time>
</trkpt>
<trkpt lat="32.6231580" lon="35.1154620">
<ele>175.999985</ele>
<time>2022-10-14T05:38:11.000Z</time>
</trkpt>
<trkpt lat="32.6231460" lon="35.1154690">
<ele>175.999985</ele>
<time>2022-10-14T05:38:12.000Z</time>
</trkpt>
<trkpt lat="32.6231090" lon="35.1154490">
<ele>175.999985</ele>
<time>2022-10-14T05:38:14.000Z</time>
</trkpt>
<trkpt lat="32.6230910" lon="35.1154280">
<ele>175.999985</ele>
<time>2022-10-14T05:38:15.000Z</time>
</trkpt>
<trkpt lat="32.6230190" lon="35.1151950">
<ele>175.199997</ele>
<time>2022-10-14T05:38:21.000Z</time>
</trkpt>
<trkpt lat="32.6229270" lon="35.1149810">
<ele>174.000000</ele>
<time>2022-10-14T05:38:25.000Z</time>
</trkpt>
<trkpt lat="32.6228070" lon="35.1147440">
<ele>172.199997</ele>
<time>2022-10-14T05:38:29.000Z</time>
</trkpt>
<trkpt lat="32.6227150" lon="35.1146280">
<ele>171.399994</ele>
<time>2022-10-14T05:38:31.000Z</time>
</trkpt>
<trkpt lat="32.6226130" lon="35.1145310">
<ele>171.000000</ele>
<time>2022-10-14T05:38:33.000Z</time>
</trkpt>
<trkpt lat="32.6224410" lon="35.1144110">
<ele>170.600006</ele>
<time>2022-10-14T05:38:36.000Z</time>
</trkpt>
<trkpt lat="32.6223850" lon="35.1143810">
<ele>170.600006</ele>
<time>2022-10-14T05:38:37.000Z</time>
</trkpt>
<trkpt lat="32.6222630" lon="35.1143620">
<ele>170.799988</ele>
<time>2022-10-14T05:38:39.000Z</time>
</trkpt>
<trkpt lat="32.6221650" lon="35.1143390">
<ele>171.000000</ele>
<time>2022-10-14T05:38:41.000Z</time>
</trkpt>
<trkpt lat="32.6221220" lon="35.1143290">
<ele>171.200012</ele>
<time>2022-10-14T05:38:42.000Z</time>
</trkpt>
<trkpt lat="32.6219890" lon="35.1143010">
<ele>171.600006</ele>
<time>2022-10-14T05:38:45.000Z</time>
</trkpt>
<trkpt lat="32.6217960" lon="35.1142770">
<ele>170.399994</ele>
<time>2022-10-14T05:38:49.000Z</time>
</trkpt>
<trkpt lat="32.6217480" lon="35.1142660">
<ele>170.199997</ele>
<time>2022-10-14T05:38:50.000Z</time>
</trkpt>
<trkpt lat="32.6216970" lon="35.1142590">
<ele>170.199997</ele>
<time>2022-10-14T05:38:51.000Z</time>
</trkpt>
<trkpt lat="32.6215930" lon="35.1142330">
<ele>169.199997</ele>
<time>2022-10-14T05:38:53.000Z</time>
</trkpt>
<trkpt lat="32.6213800" lon="35.1141660">
<ele>168.199997</ele>
<time>2022-10-14T05:38:57.000Z</time>
</trkpt>
<trkpt lat="32.6213300" lon="35.1141650">
<ele>168.199997</ele>
<time>2022-10-14T05:38:58.000Z</time>
</trkpt>
<trkpt lat="32.6212900" lon="35.1141750">
<ele>168.199997</ele>
<time>2022-10-14T05:38:59.000Z</time>
</trkpt>
<trkpt lat="32.6212350" lon="35.1142120">
<ele>168.399994</ele>
<time>2022-10-14T05:39:01.000Z</time>
</trkpt>
<trkpt lat="32.6211170" lon="35.1143660">
<ele>169.199997</ele>
<time>2022-10-14T05:39:08.000Z</time>
</trkpt>
<trkpt lat="32.6211090" lon="35.1143840">
<ele>169.400009</ele>
<time>2022-10-14T05:39:09.000Z</time>
</trkpt>
<trkpt lat="32.6211030" lon="35.1144120">
<ele>169.599991</ele>
<time>2022-10-14T05:39:11.000Z</time>
</trkpt>
<trkpt lat="32.6211110" lon="35.1144480">
<ele>169.599991</ele>
<time>2022-10-14T05:39:13.000Z</time>
</trkpt>
<trkpt lat="32.6211200" lon="35.1144590">
<ele>169.599991</ele>
<time>2022-10-14T05:39:14.000Z</time>
</trkpt>
<trkpt lat="32.6211510" lon="35.1144530">
<ele>169.599991</ele>
<time>2022-10-14T05:39:16.000Z</time>
</trkpt>
<trkpt lat="32.6211460" lon="35.1144090">
<ele>169.599991</ele>
<time>2022-10-14T05:39:18.000Z</time>
</trkpt>
<trkpt lat="32.6211460" lon="35.1142950">
<ele>169.400009</ele>
<time>2022-10-14T05:39:22.000Z</time>
</trkpt>
<trkpt lat="32.6211500" lon="35.1142420">
<ele>169.400009</ele>
<time>2022-10-14T05:39:24.000Z</time>
</trkpt>
<trkpt lat="32.6211380" lon="35.1141380">
<ele>169.400009</ele>
<time>2022-10-14T05:39:27.000Z</time>
</trkpt>
<trkpt lat="32.6210780" lon="35.1140310">
<ele>169.800003</ele>
<time>2022-10-14T05:39:31.000Z</time>
</trkpt>
<trkpt lat="32.6210620" lon="35.1140110">
<ele>169.800003</ele>
<time>2022-10-14T05:39:32.000Z</time>
</trkpt>
<trkpt lat="32.6210100" lon="35.1139880">
<ele>170.000000</ele>
<time>2022-10-14T05:39:34.000Z</time>
</trkpt>
<trkpt lat="32.6209540" lon="35.1139550">
<ele>170.199997</ele>
<time>2022-10-14T05:39:36.000Z</time>
</trkpt>
<trkpt lat="32.6208370" lon="35.1138370">
<ele>171.200012</ele>
<time>2022-10-14T05:39:41.000Z</time>
</trkpt>
<trkpt lat="32.6207920" lon="35.1137900">
<ele>172.000000</ele>
<time>2022-10-14T05:39:44.000Z</time>
</trkpt>
<trkpt lat="32.6207360" lon="35.1137680">
<ele>172.199997</ele>
<time>2022-10-14T05:39:47.000Z</time>
</trkpt>
<trkpt lat="32.6206980" lon="35.1137420">
<ele>172.599991</ele>
<time>2022-10-14T05:39:49.000Z</time>
</trkpt>
<trkpt lat="32.6206690" lon="35.1137010">
<ele>172.800003</ele>
<time>2022-10-14T05:39:51.000Z</time>
</trkpt>
<trkpt lat="32.6206670" lon="35.1136780">
<ele>173.199997</ele>
<time>2022-10-14T05:39:52.000Z</time>
</trkpt>
<trkpt lat="32.6206660" lon="35.1136540">
<ele>173.199997</ele>
<time>2022-10-14T05:39:53.000Z</time>
</trkpt>
<trkpt lat="32.6206470" lon="35.1136230">
<ele>173.600006</ele>
<time>2022-10-14T05:39:55.000Z</time>
</trkpt>
<trkpt lat="32.6206310" lon="35.1136090">
<ele>173.800003</ele>
<time>2022-10-14T05:39:56.000Z</time>
</trkpt>
<trkpt lat="32.6206050" lon="35.1135750">
<ele>174.200012</ele>
<time>2022-10-14T05:39:58.000Z</time>
</trkpt>
<trkpt lat="32.6205960" lon="35.1135280">
<ele>174.600006</ele>
<time>2022-10-14T05:40:00.000Z</time>
</trkpt>
<trkpt lat="32.6206130" lon="35.1134870">
<ele>174.799988</ele>
<time>2022-10-14T05:40:02.000Z</time>
</trkpt>
<trkpt lat="32.6206420" lon="35.1134580">
<ele>175.000000</ele>
<time>2022-10-14T05:40:04.000Z</time>
</trkpt>
<trkpt lat="32.6206620" lon="35.1134240">
<ele>175.599991</ele>
<time>2022-10-14T05:40:06.000Z</time>
</trkpt>
<trkpt lat="32.6206760" lon="35.1134090">
<ele>175.999985</ele>
<time>2022-10-14T05:40:07.000Z</time>
</trkpt>
<trkpt lat="32.6207090" lon="35.1134070">
<ele>176.599991</ele>
<time>2022-10-14T05:40:09.000Z</time>
</trkpt>
<trkpt lat="32.6208070" lon="35.1134340">
<ele>177.399994</ele>
<time>2022-10-14T05:40:14.000Z</time>
</trkpt>
<trkpt lat="32.6208310" lon="35.1134270">
<ele>177.600006</ele>
<time>2022-10-14T05:40:16.000Z</time>
</trkpt>
<trkpt lat="32.6208490" lon="35.1133960">
<ele>178.000000</ele>
<time>2022-10-14T05:40:18.000Z</time>
</trkpt>
<trkpt lat="32.6209110" lon="35.1133440">
<ele>178.800003</ele>
<time>2022-10-14T05:40:23.000Z</time>
</trkpt>
<trkpt lat="32.6209440" lon="35.1133390">
<ele>179.000000</ele>
<time>2022-10-14T05:40:25.000Z</time>
</trkpt>
<trkpt lat="32.6210190" lon="35.1133030">
<ele>179.400009</ele>
<time>2022-10-14T05:40:29.000Z</time>
</trkpt>
<trkpt lat="32.6210380" lon="35.1132930">
<ele>179.599991</ele>
<time>2022-10-14T05:40:30.000Z</time>
</trkpt>
<trkpt lat="32.6210580" lon="35.1132800">
<ele>179.599991</ele>
<time>2022-10-14T05:40:31.000Z</time>
</trkpt>
<trkpt lat="32.6211860" lon="35.1131810">
<ele>180.600006</ele>
<time>2022-10-14T05:40:38.000Z</time>
</trkpt>
<trkpt lat="32.6213240" lon="35.1131140">
<ele>181.199997</ele>
<time>2022-10-14T05:40:44.000Z</time>
</trkpt>
<trkpt lat="32.6214430" lon="35.1130270">
<ele>181.199997</ele>
<time>2022-10-14T05:40:49.000Z</time>
</trkpt>
<trkpt lat="32.6214650" lon="35.1129970">
<ele>181.199997</ele>
<time>2022-10-14T05:40:50.000Z</time>
</trkpt>
<trkpt lat="32.6215090" lon="35.1128890">
<ele>181.000000</ele>
<time>2022-10-14T05:40:53.000Z</time>
</trkpt>
<trkpt lat="32.6215350" lon="35.1128640">
<ele>180.800003</ele>
<time>2022-10-14T05:40:54.000Z</time>
</trkpt>
<trkpt lat="32.6215670" lon="35.1128440">
<ele>180.600006</ele>
<time>2022-10-14T05:40:55.000Z</time>
</trkpt>
<trkpt lat="32.6217710" lon="35.1126350">
<ele>178.800003</ele>
<time>2022-10-14T05:41:01.000Z</time>
</trkpt>
<trkpt lat="32.6217920" lon="35.1126060">
<ele>178.800003</ele>
<time>2022-10-14T05:41:02.000Z</time>
</trkpt>
<trkpt lat="32.6217930" lon="35.1125700">
<ele>179.199997</ele>
<time>2022-10-14T05:41:03.000Z</time>
</trkpt>
<trkpt lat="32.6217470" lon="35.1125250">
<ele>179.599991</ele>
<time>2022-10-14T05:41:05.000Z</time>
</trkpt>
<trkpt lat="32.6217180" lon="35.1125120">
<ele>180.000015</ele>
<time>2022-10-14T05:41:06.000Z</time>
</trkpt>
<trkpt lat="32.6216900" lon="35.1125100">
<ele>180.199997</ele>
<time>2022-10-14T05:41:07.000Z</time>
</trkpt>
<trkpt lat="32.6216630" lon="35.1125230">
<ele>180.400009</ele>
<time>2022-10-14T05:41:08.000Z</time>
</trkpt>
<trkpt lat="32.6215560" lon="35.1125840">
<ele>180.800003</ele>
<time>2022-10-14T05:41:11.000Z</time>
</trkpt>
<trkpt lat="32.6214890" lon="35.1126280">
<ele>181.000000</ele>
<time>2022-10-14T05:41:13.000Z</time>
</trkpt>
<trkpt lat="32.6214360" lon="35.1126640">
<ele>181.600006</ele>
<time>2022-10-14T05:41:15.000Z</time>
</trkpt>
<trkpt lat="32.6213980" lon="35.1127060">
<ele>182.199997</ele>
<time>2022-10-14T05:41:17.000Z</time>
</trkpt>
<trkpt lat="32.6213780" lon="35.1127260">
<ele>182.600006</ele>
<time>2022-10-14T05:41:18.000Z</time>
</trkpt>
<trkpt lat="32.6213560" lon="35.1127400">
<ele>182.800003</ele>
<time>2022-10-14T05:41:19.000Z</time>
</trkpt>
<trkpt lat="32.6213060" lon="35.1127350">
<ele>183.199997</ele>
<time>2022-10-14T05:41:21.000Z</time>
</trkpt>
<trkpt lat="32.6212910" lon="35.1127170">
<ele>183.599991</ele>
<time>2022-10-14T05:41:22.000Z</time>
</trkpt>
<trkpt lat="32.6212900" lon="35.1126890">
<ele>183.800003</ele>
<time>2022-10-14T05:41:23.000Z</time>
</trkpt>
<trkpt lat="32.6213450" lon="35.1125970">
<ele>183.800003</ele>
<time>2022-10-14T05:41:26.000Z</time>
</trkpt>
<trkpt lat="32.6213580" lon="35.1125630">
<ele>183.800003</ele>
<time>2022-10-14T05:41:27.000Z</time>
</trkpt>
<trkpt lat="32.6213880" lon="35.1124130">
<ele>183.800003</ele>
<time>2022-10-14T05:41:31.000Z</time>
</trkpt>
<trkpt lat="32.6214290" lon="35.1123590">
<ele>183.800003</ele>
<time>2022-10-14T05:41:33.000Z</time>
</trkpt>
<trkpt lat="32.6214600" lon="35.1122880">
<ele>184.000000</ele>
<time>2022-10-14T05:41:35.000Z</time>
</trkpt>
<trkpt lat="32.6214870" lon="35.1121970">
<ele>184.399994</ele>
<time>2022-10-14T05:41:38.000Z</time>
</trkpt>
<trkpt lat="32.6215090" lon="35.1121690">
<ele>184.399994</ele>
<time>2022-10-14T05:41:39.000Z</time>
</trkpt>
<trkpt lat="32.6215380" lon="35.1121570">
<ele>184.399994</ele>
<time>2022-10-14T05:41:40.000Z</time>
</trkpt>
<trkpt lat="32.6216000" lon="35.1121470">
<ele>184.600006</ele>
<time>2022-10-14T05:41:42.000Z</time>
</trkpt>
<trkpt lat="32.6216310" lon="35.1121560">
<ele>184.399994</ele>
<time>2022-10-14T05:41:43.000Z</time>
</trkpt>
<trkpt lat="32.6216590" lon="35.1121800">
<ele>184.399994</ele>
<time>2022-10-14T05:41:44.000Z</time>
</trkpt>
<trkpt lat="32.6216640" lon="35.1122160">
<ele>184.399994</ele>
<time>2022-10-14T05:41:45.000Z</time>
</trkpt>
<trkpt lat="32.6216760" lon="35.1123140">
<ele>183.400009</ele>
<time>2022-10-14T05:41:48.000Z</time>
</trkpt>
<trkpt lat="32.6216940" lon="35.1123470">
<ele>183.199997</ele>
<time>2022-10-14T05:41:49.000Z</time>
</trkpt>
<trkpt lat="32.6217570" lon="35.1124010">
<ele>182.800003</ele>
<time>2022-10-14T05:41:53.000Z</time>
</trkpt>
<trkpt lat="32.6217590" lon="35.1124030">
<ele>182.800003</ele>
<time>2022-10-14T05:41:56.000Z</time>
</trkpt>
<trkpt lat="32.6217790" lon="35.1124100">
<ele>183.000000</ele>
<time>2022-10-14T05:41:58.000Z</time>
</trkpt>
<trkpt lat="32.6217880" lon="35.1124170">
<ele>183.199997</ele>
<time>2022-10-14T05:41:59.000Z</time>
</trkpt>
<trkpt lat="32.6217940" lon="35.1124190">
<ele>183.199997</ele>
<time>2022-10-14T05:42:00.000Z</time>
</trkpt>
<trkpt lat="32.6217960" lon="35.1124220">
<ele>183.199997</ele>
<time>2022-10-14T05:42:01.000Z</time>
</trkpt>
<trkpt lat="32.6218250" lon="35.1124280">
<ele>183.199997</ele>
<time>2022-10-14T05:42:03.000Z</time>
</trkpt>
<trkpt lat="32.6219040" lon="35.1124640">
<ele>183.400009</ele>
<time>2022-10-14T05:42:07.000Z</time>
</trkpt>
<trkpt lat="32.6219210" lon="35.1124700">
<ele>183.599991</ele>
<time>2022-10-14T05:42:08.000Z</time>
</trkpt>
<trkpt lat="32.6219460" lon="35.1124670">
<ele>183.599991</ele>
<time>2022-10-14T05:42:09.000Z</time>
</trkpt>
<trkpt lat="32.6220200" lon="35.1124370">
<ele>184.000000</ele>
<time>2022-10-14T05:42:12.000Z</time>
</trkpt>
<trkpt lat="32.6221120" lon="35.1124300">
<ele>185.200012</ele>
<time>2022-10-14T05:42:16.000Z</time>
</trkpt>
<trkpt lat="32.6221520" lon="35.1124390">
<ele>185.600006</ele>
<time>2022-10-14T05:42:18.000Z</time>
</trkpt>
<trkpt lat="32.6221630" lon="35.1124280">
<ele>185.600006</ele>
<time>2022-10-14T05:42:19.000Z</time>
</trkpt>
<trkpt lat="32.6221560" lon="35.1123950">
<ele>186.000000</ele>
<time>2022-10-14T05:42:21.000Z</time>
</trkpt>
<trkpt lat="32.6220710" lon="35.1122850">
<ele>187.599991</ele>
<time>2022-10-14T05:42:27.000Z</time>
</trkpt>
<trkpt lat="32.6220600" lon="35.1122590">
<ele>187.599991</ele>
<time>2022-10-14T05:42:28.000Z</time>
</trkpt>
<trkpt lat="32.6219910" lon="35.1122010">
<ele>188.000000</ele>
<time>2022-10-14T05:42:31.000Z</time>
</trkpt>
<trkpt lat="32.6219590" lon="35.1121800">
<ele>188.000000</ele>
<time>2022-10-14T05:42:32.000Z</time>
</trkpt>
<trkpt lat="32.6219090" lon="35.1121300">
<ele>188.199997</ele>
<time>2022-10-14T05:42:34.000Z</time>
</trkpt>
<trkpt lat="32.6218440" lon="35.1120740">
<ele>188.399994</ele>
<time>2022-10-14T05:42:37.000Z</time>
</trkpt>
<trkpt lat="32.6217110" lon="35.1120230">
<ele>188.799988</ele>
<time>2022-10-14T05:42:41.000Z</time>
</trkpt>
<trkpt lat="32.6216310" lon="35.1119690">
<ele>189.000000</ele>
<time>2022-10-14T05:42:44.000Z</time>
</trkpt>
<trkpt lat="32.6215650" lon="35.1118980">
<ele>189.800003</ele>
<time>2022-10-14T05:42:47.000Z</time>
</trkpt>
<trkpt lat="32.6215090" lon="35.1118240">
<ele>190.000000</ele>
<time>2022-10-14T05:42:50.000Z</time>
</trkpt>
<trkpt lat="32.6215110" lon="35.1117800">
<ele>190.199997</ele>
<time>2022-10-14T05:42:52.000Z</time>
</trkpt>
<trkpt lat="32.6215410" lon="35.1117510">
<ele>190.599991</ele>
<time>2022-10-14T05:42:54.000Z</time>
</trkpt>
<trkpt lat="32.6215810" lon="35.1117440">
<ele>191.000000</ele>
<time>2022-10-14T05:42:56.000Z</time>
</trkpt>
<trkpt lat="32.6216420" lon="35.1117150">
<ele>191.399994</ele>
<time>2022-10-14T05:42:59.000Z</time>
</trkpt>
<trkpt lat="32.6216750" lon="35.1116990">
<ele>191.799988</ele>
<time>2022-10-14T05:43:01.000Z</time>
</trkpt>
<trkpt lat="32.6216920" lon="35.1116830">
<ele>192.000000</ele>
<time>2022-10-14T05:43:02.000Z</time>
</trkpt>
<trkpt lat="32.6217010" lon="35.1116620">
<ele>192.000000</ele>
<time>2022-10-14T05:43:03.000Z</time>
</trkpt>
<trkpt lat="32.6216930" lon="35.1116260">
<ele>192.600006</ele>
<time>2022-10-14T05:43:05.000Z</time>
</trkpt>
<trkpt lat="32.6216110" lon="35.1115340">
<ele>193.800003</ele>
<time>2022-10-14T05:43:10.000Z</time>
</trkpt>
<trkpt lat="32.6215450" lon="35.1114780">
<ele>194.400009</ele>
<time>2022-10-14T05:43:13.000Z</time>
</trkpt>
<trkpt lat="32.6214570" lon="35.1114430">
<ele>194.800003</ele>
<time>2022-10-14T05:43:17.000Z</time>
</trkpt>
<trkpt lat="32.6214090" lon="35.1114150">
<ele>195.000000</ele>
<time>2022-10-14T05:43:19.000Z</time>
</trkpt>
<trkpt lat="32.6213120" lon="35.1113740">
<ele>195.600006</ele>
<time>2022-10-14T05:43:23.000Z</time>
</trkpt>
<trkpt lat="32.6212890" lon="35.1113560">
<ele>195.799988</ele>
<time>2022-10-14T05:43:24.000Z</time>
</trkpt>
<trkpt lat="32.6212420" lon="35.1112590">
<ele>196.600006</ele>
<time>2022-10-14T05:43:28.000Z</time>
</trkpt>
<trkpt lat="32.6212160" lon="35.1112250">
<ele>197.000000</ele>
<time>2022-10-14T05:43:30.000Z</time>
</trkpt>
<trkpt lat="32.6211990" lon="35.1112170">
<ele>197.199997</ele>
<time>2022-10-14T05:43:31.000Z</time>
</trkpt>
<trkpt lat="32.6211490" lon="35.1112120">
<ele>197.400009</ele>
<time>2022-10-14T05:43:33.000Z</time>
</trkpt>
<trkpt lat="32.6211280" lon="35.1112060">
<ele>197.400009</ele>
<time>2022-10-14T05:43:34.000Z</time>
</trkpt>
<trkpt lat="32.6210560" lon="35.1112030">
<ele>197.400009</ele>
<time>2022-10-14T05:43:37.000Z</time>
</trkpt>
<trkpt lat="32.6210300" lon="35.1112010">
<ele>197.400009</ele>
<time>2022-10-14T05:43:38.000Z</time>
</trkpt>
<trkpt lat="32.6209790" lon="35.1112020">
<ele>197.400009</ele>
<time>2022-10-14T05:43:40.000Z</time>
</trkpt>
<trkpt lat="32.6209550" lon="35.1112050">
<ele>197.400009</ele>
<time>2022-10-14T05:43:41.000Z</time>
</trkpt>
<trkpt lat="32.6208740" lon="35.1112090">
<ele>197.400009</ele>
<time>2022-10-14T05:43:44.000Z</time>
</trkpt>
<trkpt lat="32.6208200" lon="35.1112110">
<ele>197.599991</ele>
<time>2022-10-14T05:43:46.000Z</time>
</trkpt>
<trkpt lat="32.6207950" lon="35.1112120">
<ele>197.599991</ele>
<time>2022-10-14T05:43:47.000Z</time>
</trkpt>
<trkpt lat="32.6207730" lon="35.1112110">
<ele>197.599991</ele>
<time>2022-10-14T05:43:48.000Z</time>
</trkpt>
<trkpt lat="32.6207500" lon="35.1112130">
<ele>197.800003</ele>
<time>2022-10-14T05:43:49.000Z</time>
</trkpt>
<trkpt lat="32.6207060" lon="35.1112150">
<ele>198.000000</ele>
<time>2022-10-14T05:43:51.000Z</time>
</trkpt>
<trkpt lat="32.6206890" lon="35.1112110">
<ele>198.199997</ele>
<time>2022-10-14T05:43:52.000Z</time>
</trkpt>
<trkpt lat="32.6206620" lon="35.1112180">
<ele>198.399994</ele>
<time>2022-10-14T05:44:32.000Z</time>
</trkpt>
<trkpt lat="32.6205700" lon="35.1112840">
<ele>198.000000</ele>
<time>2022-10-14T05:44:35.000Z</time>
</trkpt>
<trkpt lat="32.6204810" lon="35.1113230">
<ele>197.800003</ele>
<time>2022-10-14T05:44:37.000Z</time>
</trkpt>
<trkpt lat="32.6204250" lon="35.1113300">
<ele>197.599991</ele>
<time>2022-10-14T05:44:38.000Z</time>
</trkpt>
<trkpt lat="32.6203390" lon="35.1113130">
<ele>197.599991</ele>
<time>2022-10-14T05:44:40.000Z</time>
</trkpt>
<trkpt lat="32.6202520" lon="35.1113100">
<ele>197.400009</ele>
<time>2022-10-14T05:44:42.000Z</time>
</trkpt>
<trkpt lat="32.6202060" lon="35.1113210">
<ele>197.199997</ele>
<time>2022-10-14T05:44:43.000Z</time>
</trkpt>
<trkpt lat="32.6201500" lon="35.1113360">
<ele>196.800003</ele>
<time>2022-10-14T05:44:44.000Z</time>
</trkpt>
<trkpt lat="32.6200440" lon="35.1113900">
<ele>195.799988</ele>
<time>2022-10-14T05:44:46.000Z</time>
</trkpt>
<trkpt lat="32.6199880" lon="35.1114080">
<ele>195.199997</ele>
<time>2022-10-14T05:44:47.000Z</time>
</trkpt>
<trkpt lat="32.6198390" lon="35.1114260">
<ele>193.999985</ele>
<time>2022-10-14T05:44:50.000Z</time>
</trkpt>
<trkpt lat="32.6197990" lon="35.1114440">
<ele>193.400009</ele>
<time>2022-10-14T05:44:51.000Z</time>
</trkpt>
<trkpt lat="32.6197240" lon="35.1114950">
<ele>192.600006</ele>
<time>2022-10-14T05:44:53.000Z</time>
</trkpt>
<trkpt lat="32.6196820" lon="35.1115420">
<ele>192.000000</ele>
<time>2022-10-14T05:44:54.000Z</time>
</trkpt>
<trkpt lat="32.6196710" lon="35.1115690">
<ele>191.600006</ele>
<time>2022-10-14T05:44:55.000Z</time>
</trkpt>
<trkpt lat="32.6197090" lon="35.1116250">
<ele>190.800003</ele>
<time>2022-10-14T05:44:57.000Z</time>
</trkpt>
<trkpt lat="32.6197450" lon="35.1116530">
<ele>190.400009</ele>
<time>2022-10-14T05:44:58.000Z</time>
</trkpt>
<trkpt lat="32.6197900" lon="35.1116700">
<ele>189.800003</ele>
<time>2022-10-14T05:44:59.000Z</time>
</trkpt>
<trkpt lat="32.6198240" lon="35.1116980">
<ele>189.399994</ele>
<time>2022-10-14T05:45:00.000Z</time>
</trkpt>
<trkpt lat="32.6198560" lon="35.1117300">
<ele>189.000000</ele>
<time>2022-10-14T05:45:01.000Z</time>
</trkpt>
<trkpt lat="32.6198710" lon="35.1117650">
<ele>188.799988</ele>
<time>2022-10-14T05:45:02.000Z</time>
</trkpt>
<trkpt lat="32.6198670" lon="35.1118030">
<ele>188.000000</ele>
<time>2022-10-14T05:45:03.000Z</time>
</trkpt>
<trkpt lat="32.6198380" lon="35.1118460">
<ele>187.599991</ele>
<time>2022-10-14T05:45:04.000Z</time>
</trkpt>
<trkpt lat="32.6198060" lon="35.1118760">
<ele>186.800003</ele>
<time>2022-10-14T05:45:05.000Z</time>
</trkpt>
<trkpt lat="32.6197680" lon="35.1118940">
<ele>186.199997</ele>
<time>2022-10-14T05:45:06.000Z</time>
</trkpt>
<trkpt lat="32.6197180" lon="35.1119060">
<ele>185.399994</ele>
<time>2022-10-14T05:45:07.000Z</time>
</trkpt>
<trkpt lat="32.6196040" lon="35.1119140">
<ele>184.399994</ele>
<time>2022-10-14T05:45:10.000Z</time>
</trkpt>
<trkpt lat="32.6195740" lon="35.1119200">
<ele>184.199997</ele>
<time>2022-10-14T05:45:11.000Z</time>
</trkpt>
<trkpt lat="32.6194710" lon="35.1119730">
<ele>183.400009</ele>
<time>2022-10-14T05:45:14.000Z</time>
</trkpt>
<trkpt lat="32.6194300" lon="35.1120020">
<ele>183.199997</ele>
<time>2022-10-14T05:45:15.000Z</time>
</trkpt>
<trkpt lat="32.6193390" lon="35.1120890">
<ele>181.199997</ele>
<time>2022-10-14T05:45:18.000Z</time>
</trkpt>
<trkpt lat="32.6193000" lon="35.1120980">
<ele>180.800003</ele>
<time>2022-10-14T05:45:19.000Z</time>
</trkpt>
<trkpt lat="32.6191840" lon="35.1120950">
<ele>179.800003</ele>
<time>2022-10-14T05:45:22.000Z</time>
</trkpt>
<trkpt lat="32.6190900" lon="35.1120620">
<ele>179.599991</ele>
<time>2022-10-14T05:45:24.000Z</time>
</trkpt>
<trkpt lat="32.6189870" lon="35.1119790">
<ele>179.800003</ele>
<time>2022-10-14T05:45:27.000Z</time>
</trkpt>
<trkpt lat="32.6189610" lon="35.1119460">
<ele>179.800003</ele>
<time>2022-10-14T05:45:28.000Z</time>
</trkpt>
<trkpt lat="32.6188720" lon="35.1118070">
<ele>179.199997</ele>
<time>2022-10-14T05:45:32.000Z</time>
</trkpt>
<trkpt lat="32.6188520" lon="35.1117610">
<ele>179.199997</ele>
<time>2022-10-14T05:45:33.000Z</time>
</trkpt>
<trkpt lat="32.6188410" lon="35.1117120">
<ele>179.000000</ele>
<time>2022-10-14T05:45:34.000Z</time>
</trkpt>
<trkpt lat="32.6188390" lon="35.1115330">
<ele>178.399994</ele>
<time>2022-10-14T05:45:38.000Z</time>
</trkpt>
<trkpt lat="32.6188340" lon="35.1114910">
<ele>178.399994</ele>
<time>2022-10-14T05:45:39.000Z</time>
</trkpt>
<trkpt lat="32.6188240" lon="35.1114400">
<ele>178.200012</ele>
<time>2022-10-14T05:45:40.000Z</time>
</trkpt>
<trkpt lat="32.6188210" lon="35.1113840">
<ele>178.000000</ele>
<time>2022-10-14T05:45:41.000Z</time>
</trkpt>
<trkpt lat="32.6187970" lon="35.1112190">
<ele>177.799988</ele>
<time>2022-10-14T05:45:44.000Z</time>
</trkpt>
<trkpt lat="32.6187380" lon="35.1109840">
<ele>175.599991</ele>
<time>2022-10-14T05:45:49.000Z</time>
</trkpt>
<trkpt lat="32.6187120" lon="35.1108230">
<ele>174.600006</ele>
<time>2022-10-14T05:45:52.000Z</time>
</trkpt>
<trkpt lat="32.6187010" lon="35.1107700">
<ele>174.000000</ele>
<time>2022-10-14T05:45:53.000Z</time>
</trkpt>
<trkpt lat="32.6186810" lon="35.1107000">
<ele>173.600006</ele>
<time>2022-10-14T05:45:54.000Z</time>
</trkpt>
<trkpt lat="32.6186710" lon="35.1106330">
<ele>173.199997</ele>
<time>2022-10-14T05:45:55.000Z</time>
</trkpt>
<trkpt lat="32.6186660" lon="35.1105700">
<ele>173.000015</ele>
<time>2022-10-14T05:45:56.000Z</time>
</trkpt>
<trkpt lat="32.6186610" lon="35.1105130">
<ele>172.800003</ele>
<time>2022-10-14T05:45:57.000Z</time>
</trkpt>
<trkpt lat="32.6186240" lon="35.1104070">
<ele>172.599991</ele>
<time>2022-10-14T05:45:59.000Z</time>
</trkpt>
<trkpt lat="32.6185930" lon="35.1103760">
<ele>172.400009</ele>
<time>2022-10-14T05:46:00.000Z</time>
</trkpt>
<trkpt lat="32.6185170" lon="35.1103400">
<ele>171.600006</ele>
<time>2022-10-14T05:46:02.000Z</time>
</trkpt>
<trkpt lat="32.6184740" lon="35.1103460">
<ele>171.000000</ele>
<time>2022-10-14T05:46:03.000Z</time>
</trkpt>
<trkpt lat="32.6183880" lon="35.1104520">
<ele>169.599991</ele>
<time>2022-10-14T05:46:06.000Z</time>
</trkpt>
<trkpt lat="32.6183710" lon="35.1104990">
<ele>169.199997</ele>
<time>2022-10-14T05:46:07.000Z</time>
</trkpt>
<trkpt lat="32.6183440" lon="35.1105420">
<ele>168.999985</ele>
<time>2022-10-14T05:46:08.000Z</time>
</trkpt>
<trkpt lat="32.6183240" lon="35.1105830">
<ele>168.199997</ele>
<time>2022-10-14T05:46:09.000Z</time>
</trkpt>
<trkpt lat="32.6183280" lon="35.1106050">
<ele>167.800003</ele>
<time>2022-10-14T05:46:10.000Z</time>
</trkpt>
<trkpt lat="32.6183170" lon="35.1106170">
<ele>167.399994</ele>
<time>2022-10-14T05:46:12.000Z</time>
</trkpt>
<trkpt lat="32.6183150" lon="35.1106160">
<ele>167.000000</ele>
<time>2022-10-14T05:46:25.000Z</time>
</trkpt>
<trkpt lat="32.6183080" lon="35.1106190">
<ele>167.000000</ele>
<time>2022-10-14T05:46:38.000Z</time>
</trkpt>
<trkpt lat="32.6182630" lon="35.1107090">
<ele>166.399994</ele>
<time>2022-10-14T05:46:42.000Z</time>
</trkpt>
<trkpt lat="32.6182270" lon="35.1108190">
<ele>165.800003</ele>
<time>2022-10-14T05:46:45.000Z</time>
</trkpt>
<trkpt lat="32.6181940" lon="35.1109160">
<ele>164.800003</ele>
<time>2022-10-14T05:46:47.000Z</time>
</trkpt>
<trkpt lat="32.6181760" lon="35.1109770">
<ele>164.200012</ele>
<time>2022-10-14T05:46:48.000Z</time>
</trkpt>
<trkpt lat="32.6181500" lon="35.1111140">
<ele>163.000000</ele>
<time>2022-10-14T05:46:50.000Z</time>
</trkpt>
<trkpt lat="32.6181420" lon="35.1111640">
<ele>162.400009</ele>
<time>2022-10-14T05:46:51.000Z</time>
</trkpt>
<trkpt lat="32.6181080" lon="35.1112860">
<ele>161.199997</ele>
<time>2022-10-14T05:46:53.000Z</time>
</trkpt>
<trkpt lat="32.6180480" lon="35.1113440">
<ele>159.799988</ele>
<time>2022-10-14T05:46:55.000Z</time>
</trkpt>
<trkpt lat="32.6178530" lon="35.1113890">
<ele>159.000000</ele>
<time>2022-10-14T05:47:00.000Z</time>
</trkpt>
<trkpt lat="32.6177820" lon="35.1114200">
<ele>159.000000</ele>
<time>2022-10-14T05:47:02.000Z</time>
</trkpt>
<trkpt lat="32.6177360" lon="35.1114630">
<ele>160.000000</ele>
<time>2022-10-14T05:47:05.000Z</time>
</trkpt>
<trkpt lat="32.6176910" lon="35.1115110">
<ele>160.800003</ele>
<time>2022-10-14T05:47:08.000Z</time>
</trkpt>
<trkpt lat="32.6176600" lon="35.1115460">
<ele>161.199997</ele>
<time>2022-10-14T05:47:10.000Z</time>
</trkpt>
<trkpt lat="32.6176170" lon="35.1116100">
<ele>162.199997</ele>
<time>2022-10-14T05:47:14.000Z</time>
</trkpt>
<trkpt lat="32.6175660" lon="35.1117110">
<ele>163.399994</ele>
<time>2022-10-14T05:47:20.000Z</time>
</trkpt>
<trkpt lat="32.6175360" lon="35.1117110">
<ele>163.799988</ele>
<time>2022-10-14T05:47:22.000Z</time>
</trkpt>
<trkpt lat="32.6175120" lon="35.1116700">
<ele>164.600006</ele>
<time>2022-10-14T05:47:25.000Z</time>
</trkpt>
<trkpt lat="32.6174780" lon="35.1116380">
<ele>165.400009</ele>
<time>2022-10-14T05:47:28.000Z</time>
</trkpt>
<trkpt lat="32.6174610" lon="35.1115920">
<ele>166.000000</ele>
<time>2022-10-14T05:47:31.000Z</time>
</trkpt>
<trkpt lat="32.6174580" lon="35.1115700">
<ele>166.000000</ele>
<time>2022-10-14T05:47:32.000Z</time>
</trkpt>
<trkpt lat="32.6174530" lon="35.1115280">
<ele>166.199997</ele>
<time>2022-10-14T05:47:34.000Z</time>
</trkpt>
<trkpt lat="32.6174310" lon="35.1114670">
<ele>166.199997</ele>
<time>2022-10-14T05:47:37.000Z</time>
</trkpt>
<trkpt lat="32.6174340" lon="35.1113790">
<ele>166.399994</ele>
<time>2022-10-14T05:47:41.000Z</time>
</trkpt>
<trkpt lat="32.6174270" lon="35.1113340">
<ele>166.399994</ele>
<time>2022-10-14T05:47:43.000Z</time>
</trkpt>
<trkpt lat="32.6174130" lon="35.1113220">
<ele>166.399994</ele>
<time>2022-10-14T05:47:44.000Z</time>
</trkpt>
<trkpt lat="32.6174020" lon="35.1113170">
<ele>166.600006</ele>
<time>2022-10-14T05:47:45.000Z</time>
</trkpt>
<trkpt lat="32.6173880" lon="35.1113250">
<ele>167.000000</ele>
<time>2022-10-14T05:47:47.000Z</time>
</trkpt>
<trkpt lat="32.6173890" lon="35.1113880">
<ele>167.399994</ele>
<time>2022-10-14T05:47:50.000Z</time>
</trkpt>
<trkpt lat="32.6173910" lon="35.1114440">
<ele>167.600006</ele>
<time>2022-10-14T05:47:53.000Z</time>
</trkpt>
<trkpt lat="32.6173730" lon="35.1114750">
<ele>167.800003</ele>
<time>2022-10-14T05:47:55.000Z</time>
</trkpt>
<trkpt lat="32.6173570" lon="35.1114900">
<ele>168.199997</ele>
<time>2022-10-14T05:47:56.000Z</time>
</trkpt>
<trkpt lat="32.6173400" lon="35.1114930">
<ele>168.599991</ele>
<time>2022-10-14T05:47:57.000Z</time>
</trkpt>
<trkpt lat="32.6173270" lon="35.1114830">
<ele>168.999985</ele>
<time>2022-10-14T05:47:58.000Z</time>
</trkpt>
<trkpt lat="32.6173140" lon="35.1114560">
<ele>169.199997</ele>
<time>2022-10-14T05:48:00.000Z</time>
</trkpt>
<trkpt lat="32.6173090" lon="35.1114420">
<ele>169.400009</ele>
<time>2022-10-14T05:48:01.000Z</time>
</trkpt>
<trkpt lat="32.6172970" lon="35.1114080">
<ele>169.599991</ele>
<time>2022-10-14T05:48:03.000Z</time>
</trkpt>
<trkpt lat="32.6172820" lon="35.1113670">
<ele>169.599991</ele>
<time>2022-10-14T05:48:05.000Z</time>
</trkpt>
<trkpt lat="32.6172770" lon="35.1113300">
<ele>169.800003</ele>
<time>2022-10-14T05:48:07.000Z</time>
</trkpt>
<trkpt lat="32.6172670" lon="35.1113000">
<ele>169.800003</ele>
<time>2022-10-14T05:48:09.000Z</time>
</trkpt>
<trkpt lat="32.6172290" lon="35.1112620">
<ele>170.600006</ele>
<time>2022-10-14T05:48:14.000Z</time>
</trkpt>
<trkpt lat="32.6172010" lon="35.1112100">
<ele>171.399994</ele>
<time>2022-10-14T05:48:18.000Z</time>
</trkpt>
<trkpt lat="32.6171850" lon="35.1111900">
<ele>171.800003</ele>
<time>2022-10-14T05:48:20.000Z</time>
</trkpt>
<trkpt lat="32.6171530" lon="35.1111650">
<ele>172.400009</ele>
<time>2022-10-14T05:48:23.000Z</time>
</trkpt>
<trkpt lat="32.6171140" lon="35.1111160">
<ele>173.400009</ele>
<time>2022-10-14T05:48:28.000Z</time>
</trkpt>
<trkpt lat="32.6170900" lon="35.1110670">
<ele>174.000000</ele>
<time>2022-10-14T05:48:32.000Z</time>
</trkpt>
<trkpt lat="32.6170720" lon="35.1110480">
<ele>174.399994</ele>
<time>2022-10-14T05:48:34.000Z</time>
</trkpt>
<trkpt lat="32.6170270" lon="35.1110020">
<ele>175.399994</ele>
<time>2022-10-14T05:48:39.000Z</time>
</trkpt>
<trkpt lat="32.6170180" lon="35.1109960">
<ele>175.800003</ele>
<time>2022-10-14T05:48:40.000Z</time>
</trkpt>
<trkpt lat="32.6170060" lon="35.1109930">
<ele>175.999985</ele>
<time>2022-10-14T05:48:41.000Z</time>
</trkpt>
<trkpt lat="32.6169940" lon="35.1109870">
<ele>176.199997</ele>
<time>2022-10-14T05:48:42.000Z</time>
</trkpt>
<trkpt lat="32.6169810" lon="35.1109770">
<ele>176.400009</ele>
<time>2022-10-14T05:48:43.000Z</time>
</trkpt>
<trkpt lat="32.6169690" lon="35.1109680">
<ele>176.599991</ele>
<time>2022-10-14T05:48:44.000Z</time>
</trkpt>
<trkpt lat="32.6169590" lon="35.1109580">
<ele>176.800003</ele>
<time>2022-10-14T05:48:45.000Z</time>
</trkpt>
<trkpt lat="32.6169220" lon="35.1109200">
<ele>177.600006</ele>
<time>2022-10-14T05:48:50.000Z</time>
</trkpt>
<trkpt lat="32.6168970" lon="35.1109040">
<ele>177.799988</ele>
<time>2022-10-14T05:48:52.000Z</time>
</trkpt>
<trkpt lat="32.6168850" lon="35.1108960">
<ele>178.000000</ele>
<time>2022-10-14T05:48:53.000Z</time>
</trkpt>
<trkpt lat="32.6168660" lon="35.1108670">
<ele>178.399994</ele>
<time>2022-10-14T05:48:55.000Z</time>
</trkpt>
<trkpt lat="32.6168550" lon="35.1108300">
<ele>178.600006</ele>
<time>2022-10-14T05:48:57.000Z</time>
</trkpt>
<trkpt lat="32.6168280" lon="35.1107830">
<ele>178.800003</ele>
<time>2022-10-14T05:49:00.000Z</time>
</trkpt>
<trkpt lat="32.6167990" lon="35.1107330">
<ele>179.000000</ele>
<time>2022-10-14T05:49:03.000Z</time>
</trkpt>
<trkpt lat="32.6167870" lon="35.1107160">
<ele>179.199997</ele>
<time>2022-10-14T05:49:04.000Z</time>
</trkpt>
<trkpt lat="32.6167610" lon="35.1106690">
<ele>179.400009</ele>
<time>2022-10-14T05:49:07.000Z</time>
</trkpt>
<trkpt lat="32.6167510" lon="35.1106540">
<ele>179.400009</ele>
<time>2022-10-14T05:49:08.000Z</time>
</trkpt>
<trkpt lat="32.6167150" lon="35.1106120">
<ele>180.000015</ele>
<time>2022-10-14T05:49:11.000Z</time>
</trkpt>
<trkpt lat="32.6166910" lon="35.1105900">
<ele>180.400009</ele>
<time>2022-10-14T05:49:13.000Z</time>
</trkpt>
<trkpt lat="32.6166640" lon="35.1105430">
<ele>181.000000</ele>
<time>2022-10-14T05:49:16.000Z</time>
</trkpt>
<trkpt lat="32.6166290" lon="35.1104940">
<ele>181.199997</ele>
<time>2022-10-14T05:49:19.000Z</time>
</trkpt>
<trkpt lat="32.6165880" lon="35.1104240">
<ele>181.600006</ele>
<time>2022-10-14T05:49:23.000Z</time>
</trkpt>
<trkpt lat="32.6165540" lon="35.1103750">
<ele>182.000000</ele>
<time>2022-10-14T05:49:26.000Z</time>
</trkpt>
<trkpt lat="32.6165250" lon="35.1103180">
<ele>182.199997</ele>
<time>2022-10-14T05:49:29.000Z</time>
</trkpt>
<trkpt lat="32.6165160" lon="35.1103050">
<ele>182.199997</ele>
<time>2022-10-14T05:49:30.000Z</time>
</trkpt>
<trkpt lat="32.6164880" lon="35.1102620">
<ele>182.600006</ele>
<time>2022-10-14T05:49:33.000Z</time>
</trkpt>
<trkpt lat="32.6164780" lon="35.1102470">
<ele>182.800003</ele>
<time>2022-10-14T05:49:34.000Z</time>
</trkpt>
<trkpt lat="32.6164720" lon="35.1102320">
<ele>183.000000</ele>
<time>2022-10-14T05:49:35.000Z</time>
</trkpt>
<trkpt lat="32.6164530" lon="35.1101860">
<ele>183.400009</ele>
<time>2022-10-14T05:49:38.000Z</time>
</trkpt>
<trkpt lat="32.6164460" lon="35.1101700">
<ele>183.599991</ele>
<time>2022-10-14T05:49:39.000Z</time>
</trkpt>
<trkpt lat="32.6163760" lon="35.1101010">
<ele>184.799988</ele>
<time>2022-10-14T05:49:45.000Z</time>
</trkpt>
<trkpt lat="32.6162360" lon="35.1099720">
<ele>185.600006</ele>
<time>2022-10-14T05:49:55.000Z</time>
</trkpt>
<trkpt lat="32.6162140" lon="35.1099600">
<ele>185.800003</ele>
<time>2022-10-14T05:49:56.000Z</time>
</trkpt>
<trkpt lat="32.6161950" lon="35.1099610">
<ele>185.800003</ele>
<time>2022-10-14T05:49:57.000Z</time>
</trkpt>
<trkpt lat="32.6161740" lon="35.1099850">
<ele>186.000000</ele>
<time>2022-10-14T05:49:59.000Z</time>
</trkpt>
<trkpt lat="32.6161660" lon="35.1099970">
<ele>186.199997</ele>
<time>2022-10-14T05:50:00.000Z</time>
</trkpt>
<trkpt lat="32.6162210" lon="35.1100740">
<ele>187.000015</ele>
<time>2022-10-14T05:50:05.000Z</time>
</trkpt>
<trkpt lat="32.6162330" lon="35.1101120">
<ele>187.199997</ele>
<time>2022-10-14T05:50:07.000Z</time>
</trkpt>
<trkpt lat="32.6163130" lon="35.1102270">
<ele>187.199997</ele>
<time>2022-10-14T05:50:12.000Z</time>
</trkpt>
<trkpt lat="32.6164050" lon="35.1104220">
<ele>187.000015</ele>
<time>2022-10-14T05:50:19.000Z</time>
</trkpt>
<trkpt lat="32.6164200" lon="35.1104740">
<ele>187.000015</ele>
<time>2022-10-14T05:50:21.000Z</time>
</trkpt>
<trkpt lat="32.6164160" lon="35.1104940">
<ele>187.000015</ele>
<time>2022-10-14T05:50:22.000Z</time>
</trkpt>
<trkpt lat="32.6164010" lon="35.1105020">
<ele>187.199997</ele>
<time>2022-10-14T05:50:23.000Z</time>
</trkpt>
<trkpt lat="32.6163840" lon="35.1104960">
<ele>187.199997</ele>
<time>2022-10-14T05:50:24.000Z</time>
</trkpt>
<trkpt lat="32.6163720" lon="35.1104850">
<ele>187.599991</ele>
<time>2022-10-14T05:50:25.000Z</time>
</trkpt>
<trkpt lat="32.6163580" lon="35.1104720">
<ele>187.800003</ele>
<time>2022-10-14T05:50:26.000Z</time>
</trkpt>
<trkpt lat="32.6163460" lon="35.1104550">
<ele>188.199997</ele>
<time>2022-10-14T05:50:27.000Z</time>
</trkpt>
<trkpt lat="32.6162990" lon="35.1103670">
<ele>188.600006</ele>
<time>2022-10-14T05:50:32.000Z</time>
</trkpt>
<trkpt lat="32.6162660" lon="35.1103260">
<ele>188.600006</ele>
<time>2022-10-14T05:50:34.000Z</time>
</trkpt>
<trkpt lat="32.6161730" lon="35.1102370">
<ele>189.200012</ele>
<time>2022-10-14T05:50:38.000Z</time>
</trkpt>
<trkpt lat="32.6161520" lon="35.1102200">
<ele>189.200012</ele>
<time>2022-10-14T05:50:39.000Z</time>
</trkpt>
<trkpt lat="32.6160940" lon="35.1101630">
<ele>189.399994</ele>
<time>2022-10-14T05:50:42.000Z</time>
</trkpt>
<trkpt lat="32.6158840" lon="35.1100240">
<ele>190.000000</ele>
<time>2022-10-14T05:50:51.000Z</time>
</trkpt>
<trkpt lat="32.6157460" lon="35.1099240">
<ele>189.600006</ele>
<time>2022-10-14T05:50:55.000Z</time>
</trkpt>
<trkpt lat="32.6157120" lon="35.1098970">
<ele>189.399994</ele>
<time>2022-10-14T05:50:56.000Z</time>
</trkpt>
<trkpt lat="32.6155240" lon="35.1097140">
<ele>187.599991</ele>
<time>2022-10-14T05:51:02.000Z</time>
</trkpt>
<trkpt lat="32.6154940" lon="35.1096950">
<ele>187.400009</ele>
<time>2022-10-14T05:51:03.000Z</time>
</trkpt>
<trkpt lat="32.6154180" lon="35.1096770">
<ele>186.800003</ele>
<time>2022-10-14T05:51:05.000Z</time>
</trkpt>
<trkpt lat="32.6153420" lon="35.1096710">
<ele>186.800003</ele>
<time>2022-10-14T05:51:07.000Z</time>
</trkpt>
<trkpt lat="32.6153010" lon="35.1096590">
<ele>186.599991</ele>
<time>2022-10-14T05:51:08.000Z</time>
</trkpt>
<trkpt lat="32.6152560" lon="35.1096370">
<ele>186.400009</ele>
<time>2022-10-14T05:51:09.000Z</time>
</trkpt>
<trkpt lat="32.6151730" lon="35.1095830">
<ele>186.400009</ele>
<time>2022-10-14T05:51:11.000Z</time>
</trkpt>
<trkpt lat="32.6150000" lon="35.1094410">
<ele>186.599991</ele>
<time>2022-10-14T05:51:16.000Z</time>
</trkpt>
<trkpt lat="32.6149720" lon="35.1094060">
<ele>186.599991</ele>
<time>2022-10-14T05:51:17.000Z</time>
</trkpt>
<trkpt lat="32.6149510" lon="35.1093610">
<ele>186.599991</ele>
<time>2022-10-14T05:51:18.000Z</time>
</trkpt>
<trkpt lat="32.6149340" lon="35.1093100">
<ele>186.599991</ele>
<time>2022-10-14T05:51:19.000Z</time>
</trkpt>
<trkpt lat="32.6148830" lon="35.1090740">
<ele>186.400009</ele>
<time>2022-10-14T05:51:23.000Z</time>
</trkpt>
<trkpt lat="32.6148580" lon="35.1088720">
<ele>186.400009</ele>
<time>2022-10-14T05:51:26.000Z</time>
</trkpt>
<trkpt lat="32.6148550" lon="35.1087410">
<ele>186.400009</ele>
<time>2022-10-14T05:51:28.000Z</time>
</trkpt>
<trkpt lat="32.6148540" lon="35.1086090">
<ele>186.400009</ele>
<time>2022-10-14T05:51:30.000Z</time>
</trkpt>
<trkpt lat="32.6148630" lon="35.1084930">
<ele>186.199997</ele>
<time>2022-10-14T05:51:32.000Z</time>
</trkpt>
<trkpt lat="32.6148690" lon="35.1083850">
<ele>186.199997</ele>
<time>2022-10-14T05:51:34.000Z</time>
</trkpt>
<trkpt lat="32.6148780" lon="35.1082330">
<ele>186.599991</ele>
<time>2022-10-14T05:51:37.000Z</time>
</trkpt>
<trkpt lat="32.6148760" lon="35.1081840">
<ele>186.800003</ele>
<time>2022-10-14T05:51:38.000Z</time>
</trkpt>
<trkpt lat="32.6148730" lon="35.1080420">
<ele>187.400009</ele>
<time>2022-10-14T05:51:41.000Z</time>
</trkpt>
<trkpt lat="32.6148670" lon="35.1079970">
<ele>187.400009</ele>
<time>2022-10-14T05:51:42.000Z</time>
</trkpt>
<trkpt lat="32.6148630" lon="35.1079040">
<ele>187.800003</ele>
<time>2022-10-14T05:51:44.000Z</time>
</trkpt>
<trkpt lat="32.6148600" lon="35.1078580">
<ele>187.800003</ele>
<time>2022-10-14T05:51:45.000Z</time>
</trkpt>
<trkpt lat="32.6148550" lon="35.1077690">
<ele>188.000000</ele>
<time>2022-10-14T05:51:47.000Z</time>
</trkpt>
<trkpt lat="32.6148500" lon="35.1077250">
<ele>188.199997</ele>
<time>2022-10-14T05:51:48.000Z</time>
</trkpt>
<trkpt lat="32.6148430" lon="35.1076840">
<ele>188.199997</ele>
<time>2022-10-14T05:51:49.000Z</time>
</trkpt>
<trkpt lat="32.6148320" lon="35.1076450">
<ele>188.199997</ele>
<time>2022-10-14T05:51:50.000Z</time>
</trkpt>
<trkpt lat="32.6148160" lon="35.1076120">
<ele>188.399994</ele>
<time>2022-10-14T05:51:51.000Z</time>
</trkpt>
<trkpt lat="32.6147920" lon="35.1075440">
<ele>188.600006</ele>
<time>2022-10-14T05:51:53.000Z</time>
</trkpt>
<trkpt lat="32.6147640" lon="35.1074260">
<ele>189.000000</ele>
<time>2022-10-14T05:51:56.000Z</time>
</trkpt>
<trkpt lat="32.6147450" lon="35.1073900">
<ele>189.000000</ele>
<time>2022-10-14T05:51:57.000Z</time>
</trkpt>
<trkpt lat="32.6147220" lon="35.1073570">
<ele>189.000000</ele>
<time>2022-10-14T05:51:58.000Z</time>
</trkpt>
<trkpt lat="32.6145740" lon="35.1072160">
<ele>189.399994</ele>
<time>2022-10-14T05:52:03.000Z</time>
</trkpt>
<trkpt lat="32.6143570" lon="35.1071020">
<ele>189.200012</ele>
<time>2022-10-14T05:52:10.000Z</time>
</trkpt>
<trkpt lat="32.6142300" lon="35.1070200">
<ele>188.799988</ele>
<time>2022-10-14T05:52:14.000Z</time>
</trkpt>
<trkpt lat="32.6139510" lon="35.1068940">
<ele>187.400009</ele>
<time>2022-10-14T05:52:20.000Z</time>
</trkpt>
<trkpt lat="32.6138970" lon="35.1068740">
<ele>186.800003</ele>
<time>2022-10-14T05:52:21.000Z</time>
</trkpt>
<trkpt lat="32.6136030" lon="35.1068270">
<ele>185.800003</ele>
<time>2022-10-14T05:52:26.000Z</time>
</trkpt>
<trkpt lat="32.6135420" lon="35.1068210">
<ele>185.800003</ele>
<time>2022-10-14T05:52:27.000Z</time>
</trkpt>
<trkpt lat="32.6134180" lon="35.1068140">
<ele>185.399994</ele>
<time>2022-10-14T05:52:29.000Z</time>
</trkpt>
<trkpt lat="32.6133560" lon="35.1068110">
<ele>185.399994</ele>
<time>2022-10-14T05:52:30.000Z</time>
</trkpt>
<trkpt lat="32.6132950" lon="35.1068110">
<ele>185.200012</ele>
<time>2022-10-14T05:52:31.000Z</time>
</trkpt>
<trkpt lat="32.6131730" lon="35.1068290">
<ele>185.200012</ele>
<time>2022-10-14T05:52:33.000Z</time>
</trkpt>
<trkpt lat="32.6131210" lon="35.1068450">
<ele>185.200012</ele>
<time>2022-10-14T05:52:34.000Z</time>
</trkpt>
<trkpt lat="32.6130270" lon="35.1068660">
<ele>185.200012</ele>
<time>2022-10-14T05:52:36.000Z</time>
</trkpt>
<trkpt lat="32.6129850" lon="35.1068720">
<ele>185.000000</ele>
<time>2022-10-14T05:52:37.000Z</time>
</trkpt>
<trkpt lat="32.6128970" lon="35.1068730">
<ele>185.000000</ele>
<time>2022-10-14T05:52:39.000Z</time>
</trkpt>
<trkpt lat="32.6128470" lon="35.1068770">
<ele>184.799988</ele>
<time>2022-10-14T05:52:40.000Z</time>
</trkpt>
<trkpt lat="32.6127960" lon="35.1068860">
<ele>184.799988</ele>
<time>2022-10-14T05:52:41.000Z</time>
</trkpt>
<trkpt lat="32.6127510" lon="35.1069000">
<ele>184.799988</ele>
<time>2022-10-14T05:52:42.000Z</time>
</trkpt>
<trkpt lat="32.6126360" lon="35.1069400">
<ele>184.799988</ele>
<time>2022-10-14T05:52:45.000Z</time>
</trkpt>
<trkpt lat="32.6124170" lon="35.1070010">
<ele>184.600006</ele>
<time>2022-10-14T05:52:50.000Z</time>
</trkpt>
<trkpt lat="32.6123720" lon="35.1070140">
<ele>184.600006</ele>
<time>2022-10-14T05:52:51.000Z</time>
</trkpt>
<trkpt lat="32.6121760" lon="35.1070900">
<ele>185.000000</ele>
<time>2022-10-14T05:52:55.000Z</time>
</trkpt>
<trkpt lat="32.6119080" lon="35.1071710">
<ele>185.399994</ele>
<time>2022-10-14T05:53:01.000Z</time>
</trkpt>
<trkpt lat="32.6118670" lon="35.1071830">
<ele>185.600006</ele>
<time>2022-10-14T05:53:02.000Z</time>
</trkpt>
<trkpt lat="32.6117920" lon="35.1072080">
<ele>185.800003</ele>
<time>2022-10-14T05:53:04.000Z</time>
</trkpt>
<trkpt lat="32.6117570" lon="35.1072220">
<ele>185.800003</ele>
<time>2022-10-14T05:53:05.000Z</time>
</trkpt>
<trkpt lat="32.6117190" lon="35.1072380">
<ele>186.000000</ele>
<time>2022-10-14T05:53:06.000Z</time>
</trkpt>
<trkpt lat="32.6116800" lon="35.1072540">
<ele>186.199997</ele>
<time>2022-10-14T05:53:07.000Z</time>
</trkpt>
<trkpt lat="32.6116050" lon="35.1072860">
<ele>186.599991</ele>
<time>2022-10-14T05:53:09.000Z</time>
</trkpt>
<trkpt lat="32.6115300" lon="35.1073200">
<ele>186.800003</ele>
<time>2022-10-14T05:53:11.000Z</time>
</trkpt>
<trkpt lat="32.6114940" lon="35.1073340">
<ele>187.000015</ele>
<time>2022-10-14T05:53:12.000Z</time>
</trkpt>
<trkpt lat="32.6113450" lon="35.1073910">
<ele>187.400009</ele>
<time>2022-10-14T05:53:16.000Z</time>
</trkpt>
<trkpt lat="32.6111730" lon="35.1074170">
<ele>188.000000</ele>
<time>2022-10-14T05:53:20.000Z</time>
</trkpt>
<trkpt lat="32.6108640" lon="35.1074250">
<ele>188.399994</ele>
<time>2022-10-14T05:53:27.000Z</time>
</trkpt>
<trkpt lat="32.6108180" lon="35.1074340">
<ele>188.600006</ele>
<time>2022-10-14T05:53:28.000Z</time>
</trkpt>
<trkpt lat="32.6107740" lon="35.1074430">
<ele>188.600006</ele>
<time>2022-10-14T05:53:29.000Z</time>
</trkpt>
<trkpt lat="32.6106600" lon="35.1074810">
<ele>189.399994</ele>
<time>2022-10-14T05:53:32.000Z</time>
</trkpt>
<trkpt lat="32.6106330" lon="35.1074900">
<ele>189.800003</ele>
<time>2022-10-14T05:53:33.000Z</time>
</trkpt>
<trkpt lat="32.6106080" lon="35.1074940">
<ele>190.000000</ele>
<time>2022-10-14T05:53:34.000Z</time>
</trkpt>
<trkpt lat="32.6105810" lon="35.1075010">
<ele>190.199997</ele>
<time>2022-10-14T05:53:35.000Z</time>
</trkpt>
<trkpt lat="32.6103980" lon="35.1075120">
<ele>190.800003</ele>
<time>2022-10-14T05:53:41.000Z</time>
</trkpt>
<trkpt lat="32.6103290" lon="35.1075410">
<ele>191.199997</ele>
<time>2022-10-14T05:53:44.000Z</time>
</trkpt>
<trkpt lat="32.6103150" lon="35.1075800">
<ele>191.600006</ele>
<time>2022-10-14T05:53:46.000Z</time>
</trkpt>
<trkpt lat="32.6103330" lon="35.1076100">
<ele>192.200012</ele>
<time>2022-10-14T05:53:48.000Z</time>
</trkpt>
<trkpt lat="32.6104350" lon="35.1076450">
<ele>193.000000</ele>
<time>2022-10-14T05:53:53.000Z</time>
</trkpt>
<trkpt lat="32.6105430" lon="35.1077250">
<ele>193.599991</ele>
<time>2022-10-14T05:53:58.000Z</time>
</trkpt>
<trkpt lat="32.6105950" lon="35.1077500">
<ele>193.800003</ele>
<time>2022-10-14T05:54:00.000Z</time>
</trkpt>
<trkpt lat="32.6106830" lon="35.1077690">
<ele>193.999985</ele>
<time>2022-10-14T05:54:03.000Z</time>
</trkpt>
<trkpt lat="32.6107140" lon="35.1077750">
<ele>193.999985</ele>
<time>2022-10-14T05:54:04.000Z</time>
</trkpt>
<trkpt lat="32.6108180" lon="35.1078040">
<ele>193.999985</ele>
<time>2022-10-14T05:54:07.000Z</time>
</trkpt>
<trkpt lat="32.6108770" lon="35.1078310">
<ele>194.400009</ele>
<time>2022-10-14T05:54:09.000Z</time>
</trkpt>
<trkpt lat="32.6109060" lon="35.1078420">
<ele>194.400009</ele>
<time>2022-10-14T05:54:10.000Z</time>
</trkpt>
<trkpt lat="32.6109340" lon="35.1078510">
<ele>194.599991</ele>
<time>2022-10-14T05:54:11.000Z</time>
</trkpt>
<trkpt lat="32.6110030" lon="35.1078540">
<ele>194.599991</ele>
<time>2022-10-14T05:54:13.000Z</time>
</trkpt>
<trkpt lat="32.6110820" lon="35.1078570">
<ele>194.599991</ele>
<time>2022-10-14T05:54:15.000Z</time>
</trkpt>
<trkpt lat="32.6111940" lon="35.1078770">
<ele>194.800003</ele>
<time>2022-10-14T05:54:18.000Z</time>
</trkpt>
<trkpt lat="32.6113380" lon="35.1078840">
<ele>195.199997</ele>
<time>2022-10-14T05:54:22.000Z</time>
</trkpt>
<trkpt lat="32.6113730" lon="35.1078910">
<ele>195.399994</ele>
<time>2022-10-14T05:54:23.000Z</time>
</trkpt>
<trkpt lat="32.6114470" lon="35.1079220">
<ele>195.799988</ele>
<time>2022-10-14T05:54:26.000Z</time>
</trkpt>
<trkpt lat="32.6115130" lon="35.1079240">
<ele>196.399994</ele>
<time>2022-10-14T05:54:29.000Z</time>
</trkpt>
<trkpt lat="32.6115380" lon="35.1079180">
<ele>196.399994</ele>
<time>2022-10-14T05:54:30.000Z</time>
</trkpt>
<trkpt lat="32.6116190" lon="35.1079170">
<ele>196.800003</ele>
<time>2022-10-14T05:54:33.000Z</time>
</trkpt>
<trkpt lat="32.6116420" lon="35.1079250">
<ele>197.000000</ele>
<time>2022-10-14T05:54:34.000Z</time>
</trkpt>
<trkpt lat="32.6116870" lon="35.1079270">
<ele>197.199997</ele>
<time>2022-10-14T05:54:36.000Z</time>
</trkpt>
<trkpt lat="32.6117560" lon="35.1078980">
<ele>197.599991</ele>
<time>2022-10-14T05:54:39.000Z</time>
</trkpt>
<trkpt lat="32.6118350" lon="35.1078560">
<ele>197.599991</ele>
<time>2022-10-14T05:54:42.000Z</time>
</trkpt>
<trkpt lat="32.6118910" lon="35.1078440">
<ele>197.800003</ele>
<time>2022-10-14T05:54:44.000Z</time>
</trkpt>
<trkpt lat="32.6119470" lon="35.1078260">
<ele>197.800003</ele>
<time>2022-10-14T05:54:46.000Z</time>
</trkpt>
<trkpt lat="32.6120000" lon="35.1078030">
<ele>197.800003</ele>
<time>2022-10-14T05:54:48.000Z</time>
</trkpt>
<trkpt lat="32.6121040" lon="35.1077750">
<ele>197.800003</ele>
<time>2022-10-14T05:54:51.000Z</time>
</trkpt>
<trkpt lat="32.6121610" lon="35.1077860">
<ele>197.800003</ele>
<time>2022-10-14T05:54:53.000Z</time>
</trkpt>
<trkpt lat="32.6122400" lon="35.1078060">
<ele>198.199997</ele>
<time>2022-10-14T05:54:56.000Z</time>
</trkpt>
<trkpt lat="32.6123160" lon="35.1078130">
<ele>198.399994</ele>
<time>2022-10-14T05:54:59.000Z</time>
</trkpt>
<trkpt lat="32.6123440" lon="35.1078150">
<ele>198.399994</ele>
<time>2022-10-14T05:55:00.000Z</time>
</trkpt>
<trkpt lat="32.6124540" lon="35.1078200">
<ele>198.800003</ele>
<time>2022-10-14T05:55:04.000Z</time>
</trkpt>
<trkpt lat="32.6124880" lon="35.1078190">
<ele>199.000000</ele>
<time>2022-10-14T05:55:05.000Z</time>
</trkpt>
<trkpt lat="32.6125180" lon="35.1078230">
<ele>199.000000</ele>
<time>2022-10-14T05:55:06.000Z</time>
</trkpt>
<trkpt lat="32.6125770" lon="35.1078290">
<ele>199.200012</ele>
<time>2022-10-14T05:55:08.000Z</time>
</trkpt>
<trkpt lat="32.6126390" lon="35.1078230">
<ele>199.200012</ele>
<time>2022-10-14T05:55:10.000Z</time>
</trkpt>
<trkpt lat="32.6126730" lon="35.1078220">
<ele>199.399994</ele>
<time>2022-10-14T05:55:11.000Z</time>
</trkpt>
<trkpt lat="32.6127450" lon="35.1078150">
<ele>199.399994</ele>
<time>2022-10-14T05:55:13.000Z</time>
</trkpt>
<trkpt lat="32.6128180" lon="35.1077990">
<ele>199.399994</ele>
<time>2022-10-14T05:55:15.000Z</time>
</trkpt>
<trkpt lat="32.6129210" lon="35.1077930">
<ele>199.600006</ele>
<time>2022-10-14T05:55:18.000Z</time>
</trkpt>
<trkpt lat="32.6129840" lon="35.1077950">
<ele>199.800003</ele>
<time>2022-10-14T05:55:20.000Z</time>
</trkpt>
<trkpt lat="32.6131730" lon="35.1078500">
<ele>200.800003</ele>
<time>2022-10-14T05:55:28.000Z</time>
</trkpt>
<trkpt lat="32.6132800" lon="35.1078480">
<ele>201.199997</ele>
<time>2022-10-14T05:55:32.000Z</time>
</trkpt>
<trkpt lat="32.6133050" lon="35.1078590">
<ele>201.400009</ele>
<time>2022-10-14T05:55:33.000Z</time>
</trkpt>
<trkpt lat="32.6133890" lon="35.1078950">
<ele>201.800003</ele>
<time>2022-10-14T05:55:37.000Z</time>
</trkpt>
<trkpt lat="32.6135620" lon="35.1079200">
<ele>202.199997</ele>
<time>2022-10-14T05:55:43.000Z</time>
</trkpt>
<trkpt lat="32.6135960" lon="35.1079330">
<ele>202.199997</ele>
<time>2022-10-14T05:55:44.000Z</time>
</trkpt>
<trkpt lat="32.6136590" lon="35.1079610">
<ele>202.199997</ele>
<time>2022-10-14T05:55:46.000Z</time>
</trkpt>
<trkpt lat="32.6139340" lon="35.1080450">
<ele>200.599991</ele>
<time>2022-10-14T05:55:52.000Z</time>
</trkpt>
<trkpt lat="32.6139760" lon="35.1080700">
<ele>200.199997</ele>
<time>2022-10-14T05:55:53.000Z</time>
</trkpt>
<trkpt lat="32.6140090" lon="35.1081040">
<ele>200.000000</ele>
<time>2022-10-14T05:55:54.000Z</time>
</trkpt>
<trkpt lat="32.6140580" lon="35.1081770">
<ele>200.000000</ele>
<time>2022-10-14T05:55:56.000Z</time>
</trkpt>
<trkpt lat="32.6140790" lon="35.1082510">
<ele>200.399994</ele>
<time>2022-10-14T05:55:59.000Z</time>
</trkpt>
<trkpt lat="32.6140760" lon="35.1082860">
<ele>200.599991</ele>
<time>2022-10-14T05:56:01.000Z</time>
</trkpt>
<trkpt lat="32.6140620" lon="35.1083210">
<ele>200.800003</ele>
<time>2022-10-14T05:56:03.000Z</time>
</trkpt>
<trkpt lat="32.6140320" lon="35.1083530">
<ele>201.400009</ele>
<time>2022-10-14T05:56:05.000Z</time>
</trkpt>
<trkpt lat="32.6140160" lon="35.1083580">
<ele>201.800003</ele>
<time>2022-10-14T05:56:06.000Z</time>
</trkpt>
<trkpt lat="32.6139190" lon="35.1083350">
<ele>203.000000</ele>
<time>2022-10-14T05:56:12.000Z</time>
</trkpt>
<trkpt lat="32.6138960" lon="35.1083350">
<ele>203.399994</ele>
<time>2022-10-14T05:56:14.000Z</time>
</trkpt>
<trkpt lat="32.6138650" lon="35.1083760">
<ele>204.199997</ele>
<time>2022-10-14T05:56:18.000Z</time>
</trkpt>
<trkpt lat="32.6138640" lon="35.1083950">
<ele>204.400009</ele>
<time>2022-10-14T05:56:19.000Z</time>
</trkpt>
<trkpt lat="32.6138720" lon="35.1084290">
<ele>204.800003</ele>
<time>2022-10-14T05:56:21.000Z</time>
</trkpt>
<trkpt lat="32.6138840" lon="35.1084600">
<ele>205.400009</ele>
<time>2022-10-14T05:56:23.000Z</time>
</trkpt>
<trkpt lat="32.6138840" lon="35.1084970">
<ele>205.800003</ele>
<time>2022-10-14T05:56:25.000Z</time>
</trkpt>
<trkpt lat="32.6138650" lon="35.1085320">
<ele>206.000000</ele>
<time>2022-10-14T05:56:27.000Z</time>
</trkpt>
<trkpt lat="32.6138550" lon="35.1085540">
<ele>206.200012</ele>
<time>2022-10-14T05:56:28.000Z</time>
</trkpt>
<trkpt lat="32.6138010" lon="35.1086240">
<ele>206.600006</ele>
<time>2022-10-14T05:56:32.000Z</time>
</trkpt>
<trkpt lat="32.6137880" lon="35.1086690">
<ele>206.799988</ele>
<time>2022-10-14T05:56:34.000Z</time>
</trkpt>
<trkpt lat="32.6137910" lon="35.1087160">
<ele>207.199997</ele>
<time>2022-10-14T05:56:36.000Z</time>
</trkpt>
<trkpt lat="32.6138170" lon="35.1087580">
<ele>207.399994</ele>
<time>2022-10-14T05:56:38.000Z</time>
</trkpt>
<trkpt lat="32.6138690" lon="35.1088440">
<ele>207.399994</ele>
<time>2022-10-14T05:56:42.000Z</time>
</trkpt>
<trkpt lat="32.6138840" lon="35.1088690">
<ele>207.399994</ele>
<time>2022-10-14T05:56:43.000Z</time>
</trkpt>
<trkpt lat="32.6139040" lon="35.1089300">
<ele>207.199997</ele>
<time>2022-10-14T05:56:45.000Z</time>
</trkpt>
<trkpt lat="32.6139030" lon="35.1089590">
<ele>207.199997</ele>
<time>2022-10-14T05:56:46.000Z</time>
</trkpt>
<trkpt lat="32.6138960" lon="35.1089850">
<ele>207.000000</ele>
<time>2022-10-14T05:56:47.000Z</time>
</trkpt>
<trkpt lat="32.6138840" lon="35.1090670">
<ele>207.000000</ele>
<time>2022-10-14T05:56:51.000Z</time>
</trkpt>
<trkpt lat="32.6138810" lon="35.1090890">
<ele>207.000000</ele>
<time>2022-10-14T05:56:52.000Z</time>
</trkpt>
<trkpt lat="32.6138960" lon="35.1093130">
<ele>206.200012</ele>
<time>2022-10-14T05:56:58.000Z</time>
</trkpt>
<trkpt lat="32.6138900" lon="35.1093650">
<ele>206.000000</ele>
<time>2022-10-14T05:56:59.000Z</time>
</trkpt>
<trkpt lat="32.6138460" lon="35.1094560">
<ele>205.800003</ele>
<time>2022-10-14T05:57:02.000Z</time>
</trkpt>
<trkpt lat="32.6138270" lon="35.1094660">
<ele>205.800003</ele>
<time>2022-10-14T05:57:03.000Z</time>
</trkpt>
<trkpt lat="32.6137910" lon="35.1094680">
<ele>206.200012</ele>
<time>2022-10-14T05:57:05.000Z</time>
</trkpt>
<trkpt lat="32.6137670" lon="35.1094620">
<ele>206.399994</ele>
<time>2022-10-14T05:57:07.000Z</time>
</trkpt>
<trkpt lat="32.6137610" lon="35.1094560">
<ele>206.399994</ele>
<time>2022-10-14T05:57:08.000Z</time>
</trkpt>
<trkpt lat="32.6137600" lon="35.1094640">
<ele>206.399994</ele>
<time>2022-10-14T05:57:13.000Z</time>
</trkpt>
<trkpt lat="32.6137510" lon="35.1094630">
<ele>206.200012</ele>
<time>2022-10-14T05:57:55.000Z</time>
</trkpt>
<trkpt lat="32.6137370" lon="35.1094350">
<ele>206.600006</ele>
<time>2022-10-14T05:58:07.000Z</time>
</trkpt>
<trkpt lat="32.6137320" lon="35.1094000">
<ele>206.799988</ele>
<time>2022-10-14T05:58:09.000Z</time>
</trkpt>
<trkpt lat="32.6137160" lon="35.1093330">
<ele>207.000000</ele>
<time>2022-10-14T05:58:12.000Z</time>
</trkpt>
<trkpt lat="32.6136790" lon="35.1092740">
<ele>207.399994</ele>
<time>2022-10-14T05:58:15.000Z</time>
</trkpt>
<trkpt lat="32.6136630" lon="35.1092610">
<ele>207.399994</ele>
<time>2022-10-14T05:58:16.000Z</time>
</trkpt>
<trkpt lat="32.6135880" lon="35.1092210">
<ele>208.199997</ele>
<time>2022-10-14T05:58:20.000Z</time>
</trkpt>
<trkpt lat="32.6135200" lon="35.1091550">
<ele>208.599991</ele>
<time>2022-10-14T05:58:24.000Z</time>
</trkpt>
<trkpt lat="32.6134420" lon="35.1090910">
<ele>209.000000</ele>
<time>2022-10-14T05:58:28.000Z</time>
</trkpt>
<trkpt lat="32.6134020" lon="35.1090540">
<ele>209.199997</ele>
<time>2022-10-14T05:58:30.000Z</time>
</trkpt>
<trkpt lat="32.6133710" lon="35.1090000">
<ele>209.199997</ele>
<time>2022-10-14T05:58:32.000Z</time>
</trkpt>
<trkpt lat="32.6133590" lon="35.1089760">
<ele>209.199997</ele>
<time>2022-10-14T05:58:33.000Z</time>
</trkpt>
<trkpt lat="32.6133440" lon="35.1089570">
<ele>209.199997</ele>
<time>2022-10-14T05:58:34.000Z</time>
</trkpt>
<trkpt lat="32.6132520" lon="35.1089570">
<ele>209.199997</ele>
<time>2022-10-14T05:58:38.000Z</time>
</trkpt>
<trkpt lat="32.6131910" lon="35.1089510">
<ele>209.000000</ele>
<time>2022-10-14T05:58:40.000Z</time>
</trkpt>
<trkpt lat="32.6131570" lon="35.1089460">
<ele>209.000000</ele>
<time>2022-10-14T05:58:41.000Z</time>
</trkpt>
<trkpt lat="32.6131270" lon="35.1089300">
<ele>209.000000</ele>
<time>2022-10-14T05:58:42.000Z</time>
</trkpt>
<trkpt lat="32.6129770" lon="35.1087590">
<ele>208.199997</ele>
<time>2022-10-14T05:58:48.000Z</time>
</trkpt>
<trkpt lat="32.6129400" lon="35.1087460">
<ele>207.999985</ele>
<time>2022-10-14T05:58:49.000Z</time>
</trkpt>
<trkpt lat="32.6127570" lon="35.1087660">
<ele>207.000000</ele>
<time>2022-10-14T05:58:53.000Z</time>
</trkpt>
<trkpt lat="32.6127150" lon="35.1087550">
<ele>206.799988</ele>
<time>2022-10-14T05:58:54.000Z</time>
</trkpt>
<trkpt lat="32.6126110" lon="35.1086720">
<ele>205.800003</ele>
<time>2022-10-14T05:58:57.000Z</time>
</trkpt>
<trkpt lat="32.6125240" lon="35.1086490">
<ele>205.400009</ele>
<time>2022-10-14T05:58:59.000Z</time>
</trkpt>
<trkpt lat="32.6123820" lon="35.1086510">
<ele>204.599991</ele>
<time>2022-10-14T05:59:02.000Z</time>
</trkpt>
<trkpt lat="32.6123070" lon="35.1086190">
<ele>204.199997</ele>
<time>2022-10-14T05:59:04.000Z</time>
</trkpt>
<trkpt lat="32.6122030" lon="35.1085420">
<ele>203.800003</ele>
<time>2022-10-14T05:59:07.000Z</time>
</trkpt>
<trkpt lat="32.6121600" lon="35.1085290">
<ele>203.800003</ele>
<time>2022-10-14T05:59:08.000Z</time>
</trkpt>
<trkpt lat="32.6120810" lon="35.1085330">
<ele>203.200012</ele>
<time>2022-10-14T05:59:10.000Z</time>
</trkpt>
<trkpt lat="32.6120210" lon="35.1085870">
<ele>202.799988</ele>
<time>2022-10-14T05:59:12.000Z</time>
</trkpt>
<trkpt lat="32.6117410" lon="35.1089110">
<ele>201.800003</ele>
<time>2022-10-14T05:59:20.000Z</time>
</trkpt>
<trkpt lat="32.6117110" lon="35.1089560">
<ele>201.800003</ele>
<time>2022-10-14T05:59:21.000Z</time>
</trkpt>
<trkpt lat="32.6116510" lon="35.1091070">
<ele>201.599991</ele>
<time>2022-10-14T05:59:24.000Z</time>
</trkpt>
<trkpt lat="32.6115670" lon="35.1092940">
<ele>201.599991</ele>
<time>2022-10-14T05:59:28.000Z</time>
</trkpt>
<trkpt lat="32.6115000" lon="35.1093890">
<ele>201.599991</ele>
<time>2022-10-14T05:59:32.000Z</time>
</trkpt>
<trkpt lat="32.6114370" lon="35.1094440">
<ele>201.599991</ele>
<time>2022-10-14T05:59:36.000Z</time>
</trkpt>
<trkpt lat="32.6113830" lon="35.1095010">
<ele>202.799988</ele>
<time>2022-10-14T05:59:40.000Z</time>
</trkpt>
<trkpt lat="32.6113590" lon="35.1095390">
<ele>203.399994</ele>
<time>2022-10-14T05:59:42.000Z</time>
</trkpt>
<trkpt lat="32.6113200" lon="35.1096250">
<ele>203.600006</ele>
<time>2022-10-14T05:59:45.000Z</time>
</trkpt>
<trkpt lat="32.6112880" lon="35.1096890">
<ele>203.600006</ele>
<time>2022-10-14T05:59:47.000Z</time>
</trkpt>
<trkpt lat="32.6112450" lon="35.1097490">
<ele>204.000000</ele>
<time>2022-10-14T05:59:49.000Z</time>
</trkpt>
<trkpt lat="32.6111810" lon="35.1098780">
<ele>204.599991</ele>
<time>2022-10-14T05:59:53.000Z</time>
</trkpt>
<trkpt lat="32.6111640" lon="35.1099100">
<ele>204.599991</ele>
<time>2022-10-14T05:59:54.000Z</time>
</trkpt>
<trkpt lat="32.6110520" lon="35.1101430">
<ele>204.599991</ele>
<time>2022-10-14T06:00:01.000Z</time>
</trkpt>
<trkpt lat="32.6110320" lon="35.1101850">
<ele>204.400009</ele>
<time>2022-10-14T06:00:02.000Z</time>
</trkpt>
<trkpt lat="32.6109770" lon="35.1102640">
<ele>204.199997</ele>
<time>2022-10-14T06:00:04.000Z</time>
</trkpt>
<trkpt lat="32.6108800" lon="35.1103640">
<ele>204.199997</ele>
<time>2022-10-14T06:00:08.000Z</time>
</trkpt>
<trkpt lat="32.6108220" lon="35.1104670">
<ele>204.400009</ele>
<time>2022-10-14T06:00:11.000Z</time>
</trkpt>
<trkpt lat="32.6106640" lon="35.1105850">
<ele>204.400009</ele>
<time>2022-10-14T06:00:16.000Z</time>
</trkpt>
<trkpt lat="32.6106030" lon="35.1106100">
<ele>204.599991</ele>
<time>2022-10-14T06:00:18.000Z</time>
</trkpt>
<trkpt lat="32.6105310" lon="35.1106110">
<ele>206.000000</ele>
<time>2022-10-14T06:00:22.000Z</time>
</trkpt>
<trkpt lat="32.6104360" lon="35.1107000">
<ele>206.399994</ele>
<time>2022-10-14T06:00:27.000Z</time>
</trkpt>
<trkpt lat="32.6103710" lon="35.1107580">
<ele>206.000000</ele>
<time>2022-10-14T06:00:29.000Z</time>
</trkpt>
<trkpt lat="32.6103030" lon="35.1107860">
<ele>205.800003</ele>
<time>2022-10-14T06:00:31.000Z</time>
</trkpt>
<trkpt lat="32.6102240" lon="35.1107860">
<ele>206.000000</ele>
<time>2022-10-14T06:00:34.000Z</time>
</trkpt>
<trkpt lat="32.6101570" lon="35.1108100">
<ele>206.399994</ele>
<time>2022-10-14T06:00:37.000Z</time>
</trkpt>
<trkpt lat="32.6100640" lon="35.1108630">
<ele>206.399994</ele>
<time>2022-10-14T06:00:40.000Z</time>
</trkpt>
<trkpt lat="32.6099830" lon="35.1108950">
<ele>205.800003</ele>
<time>2022-10-14T06:00:42.000Z</time>
</trkpt>
<trkpt lat="32.6099450" lon="35.1109150">
<ele>205.800003</ele>
<time>2022-10-14T06:00:43.000Z</time>
</trkpt>
<trkpt lat="32.6098670" lon="35.1109320">
<ele>205.600006</ele>
<time>2022-10-14T06:00:45.000Z</time>
</trkpt>
<trkpt lat="32.6097850" lon="35.1109100">
<ele>206.200012</ele>
<time>2022-10-14T06:00:48.000Z</time>
</trkpt>
<trkpt lat="32.6097420" lon="35.1108940">
<ele>206.600006</ele>
<time>2022-10-14T06:00:50.000Z</time>
</trkpt>
<trkpt lat="32.6096820" lon="35.1108870">
<ele>207.199997</ele>
<time>2022-10-14T06:00:53.000Z</time>
</trkpt>
<trkpt lat="32.6096600" lon="35.1108860">
<ele>207.399994</ele>
<time>2022-10-14T06:00:54.000Z</time>
</trkpt>
<trkpt lat="32.6096190" lon="35.1108880">
<ele>207.999985</ele>
<time>2022-10-14T06:00:56.000Z</time>
</trkpt>
<trkpt lat="32.6094790" lon="35.1109010">
<ele>208.599991</ele>
<time>2022-10-14T06:01:03.000Z</time>
</trkpt>
<trkpt lat="32.6094330" lon="35.1108790">
<ele>208.800003</ele>
<time>2022-10-14T06:01:05.000Z</time>
</trkpt>
<trkpt lat="32.6093690" lon="35.1108240">
<ele>209.600006</ele>
<time>2022-10-14T06:01:09.000Z</time>
</trkpt>
<trkpt lat="32.6093550" lon="35.1107920">
<ele>209.799988</ele>
<time>2022-10-14T06:01:11.000Z</time>
</trkpt>
<trkpt lat="32.6093720" lon="35.1107750">
<ele>210.399994</ele>
<time>2022-10-14T06:01:13.000Z</time>
</trkpt>
<trkpt lat="32.6094120" lon="35.1107720">
<ele>210.800003</ele>
<time>2022-10-14T06:01:16.000Z</time>
</trkpt>
<trkpt lat="32.6094720" lon="35.1107610">
<ele>210.800003</ele>
<time>2022-10-14T06:01:19.000Z</time>
</trkpt>
<trkpt lat="32.6095050" lon="35.1107440">
<ele>211.000000</ele>
<time>2022-10-14T06:01:21.000Z</time>
</trkpt>
<trkpt lat="32.6096820" lon="35.1107370">
<ele>211.000000</ele>
<time>2022-10-14T06:01:28.000Z</time>
</trkpt>
<trkpt lat="32.6097090" lon="35.1107300">
<ele>211.000000</ele>
<time>2022-10-14T06:01:29.000Z</time>
</trkpt>
<trkpt lat="32.6097570" lon="35.1106910">
<ele>211.000000</ele>
<time>2022-10-14T06:01:31.000Z</time>
</trkpt>
<trkpt lat="32.6098000" lon="35.1106430">
<ele>211.800003</ele>
<time>2022-10-14T06:01:34.000Z</time>
</trkpt>
<trkpt lat="32.6098190" lon="35.1106270">
<ele>212.199997</ele>
<time>2022-10-14T06:01:35.000Z</time>
</trkpt>
<trkpt lat="32.6098980" lon="35.1106080">
<ele>212.800003</ele>
<time>2022-10-14T06:01:39.000Z</time>
</trkpt>
<trkpt lat="32.6099360" lon="35.1105720">
<ele>213.399994</ele>
<time>2022-10-14T06:01:42.000Z</time>
</trkpt>
<trkpt lat="32.6099550" lon="35.1105410">
<ele>214.000000</ele>
<time>2022-10-14T06:01:45.000Z</time>
</trkpt>
<trkpt lat="32.6099830" lon="35.1105150">
<ele>214.399994</ele>
<time>2022-10-14T06:01:47.000Z</time>
</trkpt>
<trkpt lat="32.6101050" lon="35.1104740">
<ele>214.199997</ele>
<time>2022-10-14T06:01:52.000Z</time>
</trkpt>
<trkpt lat="32.6101600" lon="35.1104410">
<ele>214.000000</ele>
<time>2022-10-14T06:01:54.000Z</time>
</trkpt>
<trkpt lat="32.6102160" lon="35.1104110">
<ele>214.000000</ele>
<time>2022-10-14T06:01:56.000Z</time>
</trkpt>
<trkpt lat="32.6103140" lon="35.1103100">
<ele>215.199997</ele>
<time>2022-10-14T06:02:01.000Z</time>
</trkpt>
<trkpt lat="32.6103290" lon="35.1102940">
<ele>215.400009</ele>
<time>2022-10-14T06:02:02.000Z</time>
</trkpt>
<trkpt lat="32.6103720" lon="35.1102310">
<ele>216.199997</ele>
<time>2022-10-14T06:02:06.000Z</time>
</trkpt>
<trkpt lat="32.6104470" lon="35.1101690">
<ele>216.600006</ele>
<time>2022-10-14T06:02:10.000Z</time>
</trkpt>
<trkpt lat="32.6104900" lon="35.1101320">
<ele>216.600006</ele>
<time>2022-10-14T06:02:12.000Z</time>
</trkpt>
<trkpt lat="32.6105430" lon="35.1100600">
<ele>216.600006</ele>
<time>2022-10-14T06:02:15.000Z</time>
</trkpt>
<trkpt lat="32.6105710" lon="35.1099700">
<ele>217.399994</ele>
<time>2022-10-14T06:02:19.000Z</time>
</trkpt>
<trkpt lat="32.6106260" lon="35.1099100">
<ele>217.399994</ele>
<time>2022-10-14T06:02:22.000Z</time>
</trkpt>
<trkpt lat="32.6106670" lon="35.1098540">
<ele>217.200012</ele>
<time>2022-10-14T06:02:24.000Z</time>
</trkpt>
<trkpt lat="32.6106970" lon="35.1097470">
<ele>217.200012</ele>
<time>2022-10-14T06:02:28.000Z</time>
</trkpt>
<trkpt lat="32.6107110" lon="35.1096910">
<ele>217.200012</ele>
<time>2022-10-14T06:02:30.000Z</time>
</trkpt>
<trkpt lat="32.6107100" lon="35.1096640">
<ele>217.399994</ele>
<time>2022-10-14T06:02:31.000Z</time>
</trkpt>
<trkpt lat="32.6107030" lon="35.1096360">
<ele>217.600006</ele>
<time>2022-10-14T06:02:32.000Z</time>
</trkpt>
<trkpt lat="32.6106910" lon="35.1096240">
<ele>217.600006</ele>
<time>2022-10-14T06:02:33.000Z</time>
</trkpt>
<trkpt lat="32.6106770" lon="35.1096260">
<ele>217.800003</ele>
<time>2022-10-14T06:02:34.000Z</time>
</trkpt>
<trkpt lat="32.6106690" lon="35.1096360">
<ele>218.000000</ele>
<time>2022-10-14T06:02:35.000Z</time>
</trkpt>
<trkpt lat="32.6106630" lon="35.1096500">
<ele>218.199997</ele>
<time>2022-10-14T06:02:36.000Z</time>
</trkpt>
<trkpt lat="32.6106540" lon="35.1097090">
<ele>218.400009</ele>
<time>2022-10-14T06:02:38.000Z</time>
</trkpt>
<trkpt lat="32.6105920" lon="35.1098040">
<ele>218.800003</ele>
<time>2022-10-14T06:02:42.000Z</time>
</trkpt>
<trkpt lat="32.6105810" lon="35.1098320">
<ele>219.000015</ele>
<time>2022-10-14T06:02:43.000Z</time>
</trkpt>
<trkpt lat="32.6105430" lon="35.1098770">
<ele>219.000015</ele>
<time>2022-10-14T06:02:45.000Z</time>
</trkpt>
<trkpt lat="32.6105030" lon="35.1099130">
<ele>219.199997</ele>
<time>2022-10-14T06:02:47.000Z</time>
</trkpt>
<trkpt lat="32.6104670" lon="35.1099580">
<ele>219.400009</ele>
<time>2022-10-14T06:02:49.000Z</time>
</trkpt>
<trkpt lat="32.6104450" lon="35.1100090">
<ele>219.400009</ele>
<time>2022-10-14T06:02:51.000Z</time>
</trkpt>
<trkpt lat="32.6103850" lon="35.1100860">
<ele>219.199997</ele>
<time>2022-10-14T06:02:54.000Z</time>
</trkpt>
<trkpt lat="32.6102580" lon="35.1101540">
<ele>219.400009</ele>
<time>2022-10-14T06:02:58.000Z</time>
</trkpt>
<trkpt lat="32.6101860" lon="35.1102140">
<ele>219.599991</ele>
<time>2022-10-14T06:03:01.000Z</time>
</trkpt>
<trkpt lat="32.6100870" lon="35.1102750">
<ele>219.400009</ele>
<time>2022-10-14T06:03:04.000Z</time>
</trkpt>
<trkpt lat="32.6100470" lon="35.1102840">
<ele>219.400009</ele>
<time>2022-10-14T06:03:05.000Z</time>
</trkpt>
<trkpt lat="32.6099800" lon="35.1102910">
<ele>219.400009</ele>
<time>2022-10-14T06:03:07.000Z</time>
</trkpt>
<trkpt lat="32.6099280" lon="35.1103030">
<ele>219.400009</ele>
<time>2022-10-14T06:03:09.000Z</time>
</trkpt>
<trkpt lat="32.6097830" lon="35.1103450">
<ele>219.199997</ele>
<time>2022-10-14T06:03:13.000Z</time>
</trkpt>
<trkpt lat="32.6097400" lon="35.1103410">
<ele>219.000015</ele>
<time>2022-10-14T06:03:14.000Z</time>
</trkpt>
<trkpt lat="32.6097060" lon="35.1103270">
<ele>219.000015</ele>
<time>2022-10-14T06:03:15.000Z</time>
</trkpt>
<trkpt lat="32.6096050" lon="35.1102950">
<ele>218.800003</ele>
<time>2022-10-14T06:03:18.000Z</time>
</trkpt>
<trkpt lat="32.6095690" lon="35.1102760">
<ele>218.599991</ele>
<time>2022-10-14T06:03:19.000Z</time>
</trkpt>
<trkpt lat="32.6095360" lon="35.1102540">
<ele>218.599991</ele>
<time>2022-10-14T06:03:20.000Z</time>
</trkpt>
<trkpt lat="32.6094610" lon="35.1102040">
<ele>217.800003</ele>
<time>2022-10-14T06:03:22.000Z</time>
</trkpt>
<trkpt lat="32.6094250" lon="35.1101740">
<ele>217.399994</ele>
<time>2022-10-14T06:03:23.000Z</time>
</trkpt>
<trkpt lat="32.6093450" lon="35.1101260">
<ele>216.799988</ele>
<time>2022-10-14T06:03:25.000Z</time>
</trkpt>
<trkpt lat="32.6093100" lon="35.1100990">
<ele>216.199997</ele>
<time>2022-10-14T06:03:26.000Z</time>
</trkpt>
<trkpt lat="32.6092400" lon="35.1099770">
<ele>215.199997</ele>
<time>2022-10-14T06:03:29.000Z</time>
</trkpt>
<trkpt lat="32.6092220" lon="35.1099300">
<ele>215.000000</ele>
<time>2022-10-14T06:03:30.000Z</time>
</trkpt>
<trkpt lat="32.6092030" lon="35.1098910">
<ele>214.600006</ele>
<time>2022-10-14T06:03:31.000Z</time>
</trkpt>
<trkpt lat="32.6091740" lon="35.1098640">
<ele>214.399994</ele>
<time>2022-10-14T06:03:32.000Z</time>
</trkpt>
<trkpt lat="32.6090530" lon="35.1098080">
<ele>213.600006</ele>
<time>2022-10-14T06:03:35.000Z</time>
</trkpt>
<trkpt lat="32.6089770" lon="35.1097540">
<ele>212.800003</ele>
<time>2022-10-14T06:03:37.000Z</time>
</trkpt>
<trkpt lat="32.6088550" lon="35.1096540">
<ele>211.400009</ele>
<time>2022-10-14T06:03:40.000Z</time>
</trkpt>
<trkpt lat="32.6088180" lon="35.1096120">
<ele>211.000000</ele>
<time>2022-10-14T06:03:41.000Z</time>
</trkpt>
<trkpt lat="32.6087500" lon="35.1094570">
<ele>210.800003</ele>
<time>2022-10-14T06:03:44.000Z</time>
</trkpt>
<trkpt lat="32.6087370" lon="35.1094070">
<ele>210.800003</ele>
<time>2022-10-14T06:03:45.000Z</time>
</trkpt>
<trkpt lat="32.6087080" lon="35.1093280">
<ele>211.400009</ele>
<time>2022-10-14T06:03:47.000Z</time>
</trkpt>
<trkpt lat="32.6086980" lon="35.1093000">
<ele>211.599991</ele>
<time>2022-10-14T06:03:48.000Z</time>
</trkpt>
<trkpt lat="32.6086660" lon="35.1092570">
<ele>211.800003</ele>
<time>2022-10-14T06:03:50.000Z</time>
</trkpt>
<trkpt lat="32.6086490" lon="35.1092250">
<ele>212.000015</ele>
<time>2022-10-14T06:03:51.000Z</time>
</trkpt>
<trkpt lat="32.6086400" lon="35.1091910">
<ele>212.000015</ele>
<time>2022-10-14T06:03:52.000Z</time>
</trkpt>
<trkpt lat="32.6086340" lon="35.1091540">
<ele>212.000015</ele>
<time>2022-10-14T06:03:53.000Z</time>
</trkpt>
<trkpt lat="32.6086280" lon="35.1090770">
<ele>212.000015</ele>
<time>2022-10-14T06:03:55.000Z</time>
</trkpt>
<trkpt lat="32.6086290" lon="35.1090450">
<ele>212.000015</ele>
<time>2022-10-14T06:03:56.000Z</time>
</trkpt>
<trkpt lat="32.6086280" lon="35.1090130">
<ele>212.199997</ele>
<time>2022-10-14T06:03:57.000Z</time>
</trkpt>
<trkpt lat="32.6086250" lon="35.1089800">
<ele>212.199997</ele>
<time>2022-10-14T06:03:58.000Z</time>
</trkpt>
<trkpt lat="32.6085960" lon="35.1088550">
<ele>212.199997</ele>
<time>2022-10-14T06:04:01.000Z</time>
</trkpt>
<trkpt lat="32.6085920" lon="35.1087340">
<ele>212.000015</ele>
<time>2022-10-14T06:04:04.000Z</time>
</trkpt>
<trkpt lat="32.6085810" lon="35.1086960">
<ele>212.000015</ele>
<time>2022-10-14T06:04:05.000Z</time>
</trkpt>
<trkpt lat="32.6085660" lon="35.1086570">
<ele>211.800003</ele>
<time>2022-10-14T06:04:06.000Z</time>
</trkpt>
<trkpt lat="32.6085580" lon="35.1086150">
<ele>211.800003</ele>
<time>2022-10-14T06:04:07.000Z</time>
</trkpt>
<trkpt lat="32.6085560" lon="35.1085460">
<ele>211.400009</ele>
<time>2022-10-14T06:04:09.000Z</time>
</trkpt>
<trkpt lat="32.6085260" lon="35.1084570">
<ele>211.000000</ele>
<time>2022-10-14T06:04:11.000Z</time>
</trkpt>
<trkpt lat="32.6085000" lon="35.1083590">
<ele>210.600006</ele>
<time>2022-10-14T06:04:13.000Z</time>
</trkpt>
<trkpt lat="32.6084950" lon="35.1082660">
<ele>210.200012</ele>
<time>2022-10-14T06:04:15.000Z</time>
</trkpt>
<trkpt lat="32.6085040" lon="35.1082230">
<ele>209.799988</ele>
<time>2022-10-14T06:04:16.000Z</time>
</trkpt>
<trkpt lat="32.6085150" lon="35.1081830">
<ele>209.600006</ele>
<time>2022-10-14T06:04:17.000Z</time>
</trkpt>
<trkpt lat="32.6085190" lon="35.1081240">
<ele>208.800003</ele>
<time>2022-10-14T06:04:19.000Z</time>
</trkpt>
<trkpt lat="32.6085020" lon="35.1081030">
<ele>208.599991</ele>
<time>2022-10-14T06:04:20.000Z</time>
</trkpt>
<trkpt lat="32.6084760" lon="35.1080940">
<ele>208.199997</ele>
<time>2022-10-14T06:04:21.000Z</time>
</trkpt>
<trkpt lat="32.6084460" lon="35.1080950">
<ele>207.999985</ele>
<time>2022-10-14T06:04:22.000Z</time>
</trkpt>
<trkpt lat="32.6084230" lon="35.1081120">
<ele>207.800003</ele>
<time>2022-10-14T06:04:23.000Z</time>
</trkpt>
<trkpt lat="32.6084060" lon="35.1081420">
<ele>207.599991</ele>
<time>2022-10-14T06:04:24.000Z</time>
</trkpt>
<trkpt lat="32.6083930" lon="35.1081770">
<ele>207.399994</ele>
<time>2022-10-14T06:04:25.000Z</time>
</trkpt>
<trkpt lat="32.6083730" lon="35.1082490">
<ele>207.399994</ele>
<time>2022-10-14T06:04:27.000Z</time>
</trkpt>
<trkpt lat="32.6083270" lon="35.1083630">
<ele>207.399994</ele>
<time>2022-10-14T06:04:30.000Z</time>
</trkpt>
<trkpt lat="32.6083010" lon="35.1084580">
<ele>207.399994</ele>
<time>2022-10-14T06:04:32.000Z</time>
</trkpt>
<trkpt lat="32.6083020" lon="35.1086110">
<ele>207.199997</ele>
<time>2022-10-14T06:04:35.000Z</time>
</trkpt>
<trkpt lat="32.6083030" lon="35.1086600">
<ele>207.199997</ele>
<time>2022-10-14T06:04:36.000Z</time>
</trkpt>
<trkpt lat="32.6083060" lon="35.1087110">
<ele>207.199997</ele>
<time>2022-10-14T06:04:37.000Z</time>
</trkpt>
<trkpt lat="32.6083130" lon="35.1087590">
<ele>207.199997</ele>
<time>2022-10-14T06:04:38.000Z</time>
</trkpt>
<trkpt lat="32.6083410" lon="35.1088490">
<ele>207.800003</ele>
<time>2022-10-14T06:04:40.000Z</time>
</trkpt>
<trkpt lat="32.6083580" lon="35.1089450">
<ele>207.800003</ele>
<time>2022-10-14T06:04:42.000Z</time>
</trkpt>
<trkpt lat="32.6083590" lon="35.1089950">
<ele>207.999985</ele>
<time>2022-10-14T06:04:43.000Z</time>
</trkpt>
<trkpt lat="32.6083930" lon="35.1091290">
<ele>207.999985</ele>
<time>2022-10-14T06:04:46.000Z</time>
</trkpt>
<trkpt lat="32.6084110" lon="35.1091710">
<ele>207.800003</ele>
<time>2022-10-14T06:04:47.000Z</time>
</trkpt>
<trkpt lat="32.6085060" lon="35.1094310">
<ele>206.799988</ele>
<time>2022-10-14T06:04:52.000Z</time>
</trkpt>
<trkpt lat="32.6086030" lon="35.1096050">
<ele>206.799988</ele>
<time>2022-10-14T06:04:56.000Z</time>
</trkpt>
<trkpt lat="32.6086870" lon="35.1097900">
<ele>207.199997</ele>
<time>2022-10-14T06:05:00.000Z</time>
</trkpt>
<trkpt lat="32.6088050" lon="35.1099570">
<ele>207.399994</ele>
<time>2022-10-14T06:05:04.000Z</time>
</trkpt>
<trkpt lat="32.6089360" lon="35.1102320">
<ele>207.999985</ele>
<time>2022-10-14T06:05:10.000Z</time>
</trkpt>
<trkpt lat="32.6089950" lon="35.1104000">
<ele>208.800003</ele>
<time>2022-10-14T06:05:14.000Z</time>
</trkpt>
<trkpt lat="32.6090080" lon="35.1104390">
<ele>209.000000</ele>
<time>2022-10-14T06:05:15.000Z</time>
</trkpt>
<trkpt lat="32.6090200" lon="35.1104710">
<ele>209.000000</ele>
<time>2022-10-14T06:05:16.000Z</time>
</trkpt>
<trkpt lat="32.6090430" lon="35.1105370">
<ele>209.000000</ele>
<time>2022-10-14T06:05:18.000Z</time>
</trkpt>
<trkpt lat="32.6090650" lon="35.1107270">
<ele>208.400009</ele>
<time>2022-10-14T06:05:22.000Z</time>
</trkpt>
<trkpt lat="32.6090630" lon="35.1107680">
<ele>208.199997</ele>
<time>2022-10-14T06:05:23.000Z</time>
</trkpt>
<trkpt lat="32.6090490" lon="35.1107900">
<ele>207.999985</ele>
<time>2022-10-14T06:05:24.000Z</time>
</trkpt>
<trkpt lat="32.6089930" lon="35.1107920">
<ele>207.399994</ele>
<time>2022-10-14T06:05:26.000Z</time>
</trkpt>
<trkpt lat="32.6089450" lon="35.1107550">
<ele>206.799988</ele>
<time>2022-10-14T06:05:28.000Z</time>
</trkpt>
<trkpt lat="32.6088990" lon="35.1107510">
<ele>205.800003</ele>
<time>2022-10-14T06:05:30.000Z</time>
</trkpt>
<trkpt lat="32.6088820" lon="35.1107730">
<ele>205.000015</ele>
<time>2022-10-14T06:05:31.000Z</time>
</trkpt>
<trkpt lat="32.6088790" lon="35.1108490">
<ele>203.800003</ele>
<time>2022-10-14T06:05:33.000Z</time>
</trkpt>
<trkpt lat="32.6088970" lon="35.1109510">
<ele>203.200012</ele>
<time>2022-10-14T06:05:35.000Z</time>
</trkpt>
<trkpt lat="32.6089070" lon="35.1110050">
<ele>203.000000</ele>
<time>2022-10-14T06:05:36.000Z</time>
</trkpt>
<trkpt lat="32.6089230" lon="35.1110540">
<ele>202.799988</ele>
<time>2022-10-14T06:05:37.000Z</time>
</trkpt>
<trkpt lat="32.6089780" lon="35.1111660">
<ele>202.000000</ele>
<time>2022-10-14T06:05:40.000Z</time>
</trkpt>
<trkpt lat="32.6089860" lon="35.1112030">
<ele>201.800003</ele>
<time>2022-10-14T06:05:41.000Z</time>
</trkpt>
<trkpt lat="32.6089800" lon="35.1112360">
<ele>201.599991</ele>
<time>2022-10-14T06:05:42.000Z</time>
</trkpt>
<trkpt lat="32.6089650" lon="35.1112620">
<ele>201.400009</ele>
<time>2022-10-14T06:05:43.000Z</time>
</trkpt>
<trkpt lat="32.6089260" lon="35.1112850">
<ele>200.999985</ele>
<time>2022-10-14T06:05:45.000Z</time>
</trkpt>
<trkpt lat="32.6088840" lon="35.1112700">
<ele>200.599991</ele>
<time>2022-10-14T06:05:47.000Z</time>
</trkpt>
<trkpt lat="32.6087450" lon="35.1111790">
<ele>199.399994</ele>
<time>2022-10-14T06:05:52.000Z</time>
</trkpt>
<trkpt lat="32.6086540" lon="35.1111000">
<ele>197.599991</ele>
<time>2022-10-14T06:05:55.000Z</time>
</trkpt>
<trkpt lat="32.6086250" lon="35.1110870">
<ele>197.400009</ele>
<time>2022-10-14T06:05:56.000Z</time>
</trkpt>
<trkpt lat="32.6085650" lon="35.1110530">
<ele>196.600006</ele>
<time>2022-10-14T06:05:58.000Z</time>
</trkpt>
<trkpt lat="32.6084760" lon="35.1109190">
<ele>194.199997</ele>
<time>2022-10-14T06:06:02.000Z</time>
</trkpt>
<trkpt lat="32.6084530" lon="35.1109000">
<ele>193.999985</ele>
<time>2022-10-14T06:06:03.000Z</time>
</trkpt>
<trkpt lat="32.6083950" lon="35.1108830">
<ele>193.400009</ele>
<time>2022-10-14T06:06:05.000Z</time>
</trkpt>
<trkpt lat="32.6083600" lon="35.1108780">
<ele>193.000000</ele>
<time>2022-10-14T06:06:06.000Z</time>
</trkpt>
<trkpt lat="32.6082930" lon="35.1108280">
<ele>192.000000</ele>
<time>2022-10-14T06:06:09.000Z</time>
</trkpt>
<trkpt lat="32.6081620" lon="35.1106270">
<ele>188.199997</ele>
<time>2022-10-14T06:06:16.000Z</time>
</trkpt>
<trkpt lat="32.6081450" lon="35.1105970">
<ele>187.800003</ele>
<time>2022-10-14T06:06:17.000Z</time>
</trkpt>
<trkpt lat="32.6080670" lon="35.1104880">
<ele>186.199997</ele>
<time>2022-10-14T06:06:20.000Z</time>
</trkpt>
<trkpt lat="32.6079370" lon="35.1102500">
<ele>184.799988</ele>
<time>2022-10-14T06:06:25.000Z</time>
</trkpt>
<trkpt lat="32.6079170" lon="35.1102080">
<ele>184.799988</ele>
<time>2022-10-14T06:06:26.000Z</time>
</trkpt>
<trkpt lat="32.6078670" lon="35.1101280">
<ele>184.199997</ele>
<time>2022-10-14T06:06:28.000Z</time>
</trkpt>
<trkpt lat="32.6078150" lon="35.1100340">
<ele>183.800003</ele>
<time>2022-10-14T06:06:30.000Z</time>
</trkpt>
<trkpt lat="32.6077650" lon="35.1098900">
<ele>183.199997</ele>
<time>2022-10-14T06:06:33.000Z</time>
</trkpt>
<trkpt lat="32.6077410" lon="35.1098460">
<ele>183.199997</ele>
<time>2022-10-14T06:06:34.000Z</time>
</trkpt>
<trkpt lat="32.6077140" lon="35.1098080">
<ele>183.000000</ele>
<time>2022-10-14T06:06:35.000Z</time>
</trkpt>
<trkpt lat="32.6076670" lon="35.1097350">
<ele>182.800003</ele>
<time>2022-10-14T06:06:37.000Z</time>
</trkpt>
<trkpt lat="32.6076160" lon="35.1096120">
<ele>182.000000</ele>
<time>2022-10-14T06:06:40.000Z</time>
</trkpt>
<trkpt lat="32.6075810" lon="35.1095610">
<ele>181.600006</ele>
<time>2022-10-14T06:06:42.000Z</time>
</trkpt>
<trkpt lat="32.6075360" lon="35.1095140">
<ele>180.600006</ele>
<time>2022-10-14T06:06:44.000Z</time>
</trkpt>
<trkpt lat="32.6074840" lon="35.1094170">
<ele>179.400009</ele>
<time>2022-10-14T06:06:47.000Z</time>
</trkpt>
<trkpt lat="32.6074360" lon="35.1093630">
<ele>178.600006</ele>
<time>2022-10-14T06:06:49.000Z</time>
</trkpt>
<trkpt lat="32.6074110" lon="35.1093340">
<ele>178.200012</ele>
<time>2022-10-14T06:06:50.000Z</time>
</trkpt>
<trkpt lat="32.6073940" lon="35.1092990">
<ele>178.000000</ele>
<time>2022-10-14T06:06:51.000Z</time>
</trkpt>
<trkpt lat="32.6072740" lon="35.1090040">
<ele>175.599991</ele>
<time>2022-10-14T06:06:58.000Z</time>
</trkpt>
<trkpt lat="32.6072680" lon="35.1089650">
<ele>175.599991</ele>
<time>2022-10-14T06:06:59.000Z</time>
</trkpt>
<trkpt lat="32.6072700" lon="35.1089240">
<ele>175.599991</ele>
<time>2022-10-14T06:07:00.000Z</time>
</trkpt>
<trkpt lat="32.6072750" lon="35.1088880">
<ele>175.800003</ele>
<time>2022-10-14T06:07:01.000Z</time>
</trkpt>
<trkpt lat="32.6072870" lon="35.1088090">
<ele>176.199997</ele>
<time>2022-10-14T06:07:04.000Z</time>
</trkpt>
<trkpt lat="32.6072860" lon="35.1086910">
<ele>177.399994</ele>
<time>2022-10-14T06:07:09.000Z</time>
</trkpt>
<trkpt lat="32.6072860" lon="35.1086330">
<ele>177.799988</ele>
<time>2022-10-14T06:07:11.000Z</time>
</trkpt>
<trkpt lat="32.6072650" lon="35.1085520">
<ele>177.799988</ele>
<time>2022-10-14T06:07:14.000Z</time>
</trkpt>
<trkpt lat="32.6072600" lon="35.1085210">
<ele>177.799988</ele>
<time>2022-10-14T06:07:15.000Z</time>
</trkpt>
<trkpt lat="32.6072550" lon="35.1084840">
<ele>177.799988</ele>
<time>2022-10-14T06:07:16.000Z</time>
</trkpt>
<trkpt lat="32.6072520" lon="35.1084530">
<ele>177.799988</ele>
<time>2022-10-14T06:07:17.000Z</time>
</trkpt>
<trkpt lat="32.6072340" lon="35.1084350">
<ele>177.600006</ele>
<time>2022-10-14T06:07:18.000Z</time>
</trkpt>
<trkpt lat="32.6072040" lon="35.1084240">
<ele>177.600006</ele>
<time>2022-10-14T06:07:19.000Z</time>
</trkpt>
<trkpt lat="32.6071620" lon="35.1084200">
<ele>177.000000</ele>
<time>2022-10-14T06:07:21.000Z</time>
</trkpt>
<trkpt lat="32.6071230" lon="35.1084780">
<ele>175.199997</ele>
<time>2022-10-14T06:07:24.000Z</time>
</trkpt>
<trkpt lat="32.6071250" lon="35.1086010">
<ele>174.200012</ele>
<time>2022-10-14T06:07:28.000Z</time>
</trkpt>
<trkpt lat="32.6071290" lon="35.1086730">
<ele>174.000000</ele>
<time>2022-10-14T06:07:30.000Z</time>
</trkpt>
<trkpt lat="32.6071380" lon="35.1087450">
<ele>174.000000</ele>
<time>2022-10-14T06:07:32.000Z</time>
</trkpt>
<trkpt lat="32.6071570" lon="35.1088140">
<ele>174.000000</ele>
<time>2022-10-14T06:07:34.000Z</time>
</trkpt>
<trkpt lat="32.6071750" lon="35.1088970">
<ele>173.800003</ele>
<time>2022-10-14T06:07:36.000Z</time>
</trkpt>
<trkpt lat="32.6071860" lon="35.1089370">
<ele>173.600006</ele>
<time>2022-10-14T06:07:37.000Z</time>
</trkpt>
<trkpt lat="32.6071940" lon="35.1089710">
<ele>173.400009</ele>
<time>2022-10-14T06:07:38.000Z</time>
</trkpt>
<trkpt lat="32.6071950" lon="35.1090370">
<ele>173.000015</ele>
<time>2022-10-14T06:07:40.000Z</time>
</trkpt>
<trkpt lat="32.6072090" lon="35.1090810">
<ele>172.800003</ele>
<time>2022-10-14T06:07:41.000Z</time>
</trkpt>
<trkpt lat="32.6072350" lon="35.1091920">
<ele>172.199997</ele>
<time>2022-10-14T06:07:44.000Z</time>
</trkpt>
<trkpt lat="32.6072340" lon="35.1092180">
<ele>172.000000</ele>
<time>2022-10-14T06:07:45.000Z</time>
</trkpt>
<trkpt lat="32.6072290" lon="35.1092370">
<ele>172.000000</ele>
<time>2022-10-14T06:07:46.000Z</time>
</trkpt>
<trkpt lat="32.6072010" lon="35.1092630">
<ele>171.800003</ele>
<time>2022-10-14T06:07:47.000Z</time>
</trkpt>
<trkpt lat="32.6071870" lon="35.1092790">
<ele>171.399994</ele>
<time>2022-10-14T06:07:48.000Z</time>
</trkpt>
<trkpt lat="32.6071670" lon="35.1092820">
<ele>171.000000</ele>
<time>2022-10-14T06:07:49.000Z</time>
</trkpt>
<trkpt lat="32.6071480" lon="35.1092690">
<ele>170.799988</ele>
<time>2022-10-14T06:07:50.000Z</time>
</trkpt>
<trkpt lat="32.6071340" lon="35.1092440">
<ele>170.399994</ele>
<time>2022-10-14T06:07:51.000Z</time>
</trkpt>
<trkpt lat="32.6071260" lon="35.1092130">
<ele>170.000000</ele>
<time>2022-10-14T06:07:52.000Z</time>
</trkpt>
<trkpt lat="32.6071260" lon="35.1091690">
<ele>169.800003</ele>
<time>2022-10-14T06:07:53.000Z</time>
</trkpt>
<trkpt lat="32.6070900" lon="35.1090990">
<ele>169.199997</ele>
<time>2022-10-14T06:07:55.000Z</time>
</trkpt>
<trkpt lat="32.6070290" lon="35.1090260">
<ele>168.399994</ele>
<time>2022-10-14T06:07:57.000Z</time>
</trkpt>
<trkpt lat="32.6069390" lon="35.1089290">
<ele>168.000000</ele>
<time>2022-10-14T06:08:00.000Z</time>
</trkpt>
<trkpt lat="32.6069180" lon="35.1089120">
<ele>167.800003</ele>
<time>2022-10-14T06:08:01.000Z</time>
</trkpt>
<trkpt lat="32.6068860" lon="35.1088950">
<ele>167.600006</ele>
<time>2022-10-14T06:08:03.000Z</time>
</trkpt>
<trkpt lat="32.6068730" lon="35.1088890">
<ele>167.600006</ele>
<time>2022-10-14T06:08:07.000Z</time>
</trkpt>
<trkpt lat="32.6068750" lon="35.1088850">
<ele>167.600006</ele>
<time>2022-10-14T06:08:10.000Z</time>
</trkpt>
<trkpt lat="32.6068750" lon="35.1088870">
<ele>167.399994</ele>
<time>2022-10-14T06:08:12.000Z</time>
</trkpt>
<trkpt lat="32.6068780" lon="35.1088850">
<ele>167.399994</ele>
<time>2022-10-14T06:08:13.000Z</time>
</trkpt>
<trkpt lat="32.6068810" lon="35.1088890">
<ele>167.200012</ele>
<time>2022-10-14T06:08:25.000Z</time>
</trkpt>
<trkpt lat="32.6068900" lon="35.1088960">
<ele>167.399994</ele>
<time>2022-10-14T06:08:50.000Z</time>
</trkpt>
<trkpt lat="32.6068820" lon="35.1088960">
<ele>167.399994</ele>
<time>2022-10-14T06:08:53.000Z</time>
</trkpt>
<trkpt lat="32.6068830" lon="35.1088980">
<ele>167.200012</ele>
<time>2022-10-14T06:08:59.000Z</time>
</trkpt>
<trkpt lat="32.6068800" lon="35.1089150">
<ele>167.200012</ele>
<time>2022-10-14T06:09:02.000Z</time>
</trkpt>
<trkpt lat="32.6068810" lon="35.1089680">
<ele>167.000000</ele>
<time>2022-10-14T06:09:04.000Z</time>
</trkpt>
<trkpt lat="32.6068940" lon="35.1090380">
<ele>166.600006</ele>
<time>2022-10-14T06:09:06.000Z</time>
</trkpt>
<trkpt lat="32.6069080" lon="35.1091470">
<ele>166.199997</ele>
<time>2022-10-14T06:09:09.000Z</time>
</trkpt>
<trkpt lat="32.6068990" lon="35.1091800">
<ele>166.000000</ele>
<time>2022-10-14T06:09:10.000Z</time>
</trkpt>
<trkpt lat="32.6068830" lon="35.1092070">
<ele>165.800003</ele>
<time>2022-10-14T06:09:11.000Z</time>
</trkpt>
<trkpt lat="32.6068580" lon="35.1092260">
<ele>165.800003</ele>
<time>2022-10-14T06:09:12.000Z</time>
</trkpt>
<trkpt lat="32.6068000" lon="35.1092330">
<ele>165.599991</ele>
<time>2022-10-14T06:09:14.000Z</time>
</trkpt>
<trkpt lat="32.6067760" lon="35.1092250">
<ele>165.400009</ele>
<time>2022-10-14T06:09:15.000Z</time>
</trkpt>
<trkpt lat="32.6067420" lon="35.1091870">
<ele>165.400009</ele>
<time>2022-10-14T06:09:17.000Z</time>
</trkpt>
<trkpt lat="32.6067080" lon="35.1091080">
<ele>166.000000</ele>
<time>2022-10-14T06:09:21.000Z</time>
</trkpt>
<trkpt lat="32.6066670" lon="35.1090580">
<ele>166.399994</ele>
<time>2022-10-14T06:09:25.000Z</time>
</trkpt>
<trkpt lat="32.6066540" lon="35.1090360">
<ele>166.600006</ele>
<time>2022-10-14T06:09:27.000Z</time>
</trkpt>
<trkpt lat="32.6066510" lon="35.1090020">
<ele>166.800003</ele>
<time>2022-10-14T06:09:30.000Z</time>
</trkpt>
<trkpt lat="32.6066570" lon="35.1090030">
<ele>167.000000</ele>
<time>2022-10-14T06:09:36.000Z</time>
</trkpt>
<trkpt lat="32.6066610" lon="35.1090130">
<ele>167.000000</ele>
<time>2022-10-14T06:09:41.000Z</time>
</trkpt>
<trkpt lat="32.6066710" lon="35.1090210">
<ele>167.000000</ele>
<time>2022-10-14T06:09:42.000Z</time>
</trkpt>
<trkpt lat="32.6067090" lon="35.1090850">
<ele>167.000000</ele>
<time>2022-10-14T06:09:45.000Z</time>
</trkpt>
<trkpt lat="32.6067530" lon="35.1091860">
<ele>167.000000</ele>
<time>2022-10-14T06:09:48.000Z</time>
</trkpt>
<trkpt lat="32.6067940" lon="35.1092220">
<ele>167.000000</ele>
<time>2022-10-14T06:09:50.000Z</time>
</trkpt>
<trkpt lat="32.6068740" lon="35.1092470">
<ele>166.800003</ele>
<time>2022-10-14T06:09:54.000Z</time>
</trkpt>
<trkpt lat="32.6068920" lon="35.1092390">
<ele>166.600006</ele>
<time>2022-10-14T06:09:55.000Z</time>
</trkpt>
<trkpt lat="32.6069060" lon="35.1092250">
<ele>166.600006</ele>
<time>2022-10-14T06:09:56.000Z</time>
</trkpt>
<trkpt lat="32.6069440" lon="35.1091180">
<ele>166.600006</ele>
<time>2022-10-14T06:10:01.000Z</time>
</trkpt>
<trkpt lat="32.6069060" lon="35.1089670">
<ele>167.600006</ele>
<time>2022-10-14T06:10:06.000Z</time>
</trkpt>
<trkpt lat="32.6068750" lon="35.1088940">
<ele>168.000000</ele>
<time>2022-10-14T06:10:09.000Z</time>
</trkpt>
<trkpt lat="32.6068460" lon="35.1088510">
<ele>168.199997</ele>
<time>2022-10-14T06:10:11.000Z</time>
</trkpt>
<trkpt lat="32.6067910" lon="35.1087400">
<ele>168.599991</ele>
<time>2022-10-14T06:10:15.000Z</time>
</trkpt>
<trkpt lat="32.6066850" lon="35.1084610">
<ele>169.199997</ele>
<time>2022-10-14T06:10:24.000Z</time>
</trkpt>
<trkpt lat="32.6066770" lon="35.1084320">
<ele>169.400009</ele>
<time>2022-10-14T06:10:25.000Z</time>
</trkpt>
<trkpt lat="32.6066590" lon="35.1083250">
<ele>170.000000</ele>
<time>2022-10-14T06:10:29.000Z</time>
</trkpt>
<trkpt lat="32.6066040" lon="35.1081910">
<ele>170.799988</ele>
<time>2022-10-14T06:10:35.000Z</time>
</trkpt>
<trkpt lat="32.6065100" lon="35.1080620">
<ele>171.000000</ele>
<time>2022-10-14T06:10:40.000Z</time>
</trkpt>
<trkpt lat="32.6064450" lon="35.1079280">
<ele>172.199997</ele>
<time>2022-10-14T06:10:47.000Z</time>
</trkpt>
<trkpt lat="32.6064260" lon="35.1079060">
<ele>172.400009</ele>
<time>2022-10-14T06:10:49.000Z</time>
</trkpt>
<trkpt lat="32.6064080" lon="35.1078790">
<ele>172.599991</ele>
<time>2022-10-14T06:10:51.000Z</time>
</trkpt>
<trkpt lat="32.6063810" lon="35.1078590">
<ele>172.599991</ele>
<time>2022-10-14T06:10:53.000Z</time>
</trkpt>
<trkpt lat="32.6063470" lon="35.1078220">
<ele>173.000015</ele>
<time>2022-10-14T06:10:56.000Z</time>
</trkpt>
<trkpt lat="32.6062490" lon="35.1077380">
<ele>173.400009</ele>
<time>2022-10-14T06:11:02.000Z</time>
</trkpt>
<trkpt lat="32.6061750" lon="35.1076970">
<ele>173.600006</ele>
<time>2022-10-14T06:11:06.000Z</time>
</trkpt>
<trkpt lat="32.6061060" lon="35.1076600">
<ele>173.800003</ele>
<time>2022-10-14T06:11:09.000Z</time>
</trkpt>
<trkpt lat="32.6060600" lon="35.1076340">
<ele>174.000000</ele>
<time>2022-10-14T06:11:11.000Z</time>
</trkpt>
<trkpt lat="32.6060150" lon="35.1076080">
<ele>174.200012</ele>
<time>2022-10-14T06:11:13.000Z</time>
</trkpt>
<trkpt lat="32.6059940" lon="35.1075960">
<ele>174.200012</ele>
<time>2022-10-14T06:11:14.000Z</time>
</trkpt>
<trkpt lat="32.6059400" lon="35.1075640">
<ele>174.600006</ele>
<time>2022-10-14T06:11:17.000Z</time>
</trkpt>
<trkpt lat="32.6059180" lon="35.1075510">
<ele>175.000000</ele>
<time>2022-10-14T06:11:21.000Z</time>
</trkpt>
<trkpt lat="32.6058790" lon="35.1075190">
<ele>175.199997</ele>
<time>2022-10-14T06:11:24.000Z</time>
</trkpt>
<trkpt lat="32.6058150" lon="35.1074620">
<ele>175.800003</ele>
<time>2022-10-14T06:11:28.000Z</time>
</trkpt>
<trkpt lat="32.6056040" lon="35.1072330">
<ele>177.799988</ele>
<time>2022-10-14T06:11:42.000Z</time>
</trkpt>
<trkpt lat="32.6054300" lon="35.1071010">
<ele>180.400009</ele>
<time>2022-10-14T06:11:54.000Z</time>
</trkpt>
<trkpt lat="32.6054160" lon="35.1070970">
<ele>180.600006</ele>
<time>2022-10-14T06:11:55.000Z</time>
</trkpt>
<trkpt lat="32.6053920" lon="35.1070830">
<ele>180.800003</ele>
<time>2022-10-14T06:11:57.000Z</time>
</trkpt>
<trkpt lat="32.6053740" lon="35.1070750">
<ele>181.199997</ele>
<time>2022-10-14T06:11:59.000Z</time>
</trkpt>
<trkpt lat="32.6053250" lon="35.1070520">
<ele>181.399994</ele>
<time>2022-10-14T06:12:02.000Z</time>
</trkpt>
<trkpt lat="32.6053080" lon="35.1070350">
<ele>181.600006</ele>
<time>2022-10-14T06:12:03.000Z</time>
</trkpt>
<trkpt lat="32.6050950" lon="35.1069120">
<ele>182.800003</ele>
<time>2022-10-14T06:12:16.000Z</time>
</trkpt>
<trkpt lat="32.6050770" lon="35.1069010">
<ele>182.800003</ele>
<time>2022-10-14T06:12:17.000Z</time>
</trkpt>
<trkpt lat="32.6050420" lon="35.1068780">
<ele>183.000000</ele>
<time>2022-10-14T06:12:19.000Z</time>
</trkpt>
<trkpt lat="32.6049480" lon="35.1068120">
<ele>183.199997</ele>
<time>2022-10-14T06:12:24.000Z</time>
</trkpt>
<trkpt lat="32.6049070" lon="35.1067870">
<ele>183.400009</ele>
<time>2022-10-14T06:12:26.000Z</time>
</trkpt>
<trkpt lat="32.6048580" lon="35.1067580">
<ele>183.400009</ele>
<time>2022-10-14T06:12:28.000Z</time>
</trkpt>
<trkpt lat="32.6048320" lon="35.1067430">
<ele>183.400009</ele>
<time>2022-10-14T06:12:29.000Z</time>
</trkpt>
<trkpt lat="32.6047860" lon="35.1067140">
<ele>183.400009</ele>
<time>2022-10-14T06:12:31.000Z</time>
</trkpt>
<trkpt lat="32.6047660" lon="35.1067020">
<ele>183.599991</ele>
<time>2022-10-14T06:12:32.000Z</time>
</trkpt>
<trkpt lat="32.6047240" lon="35.1066870">
<ele>183.599991</ele>
<time>2022-10-14T06:12:34.000Z</time>
</trkpt>
<trkpt lat="32.6046560" lon="35.1066660">
<ele>184.000000</ele>
<time>2022-10-14T06:12:37.000Z</time>
</trkpt>
<trkpt lat="32.6046040" lon="35.1066570">
<ele>184.199997</ele>
<time>2022-10-14T06:12:39.000Z</time>
</trkpt>
<trkpt lat="32.6045160" lon="35.1066560">
<ele>184.199997</ele>
<time>2022-10-14T06:12:42.000Z</time>
</trkpt>
<trkpt lat="32.6044920" lon="35.1066600">
<ele>184.199997</ele>
<time>2022-10-14T06:12:43.000Z</time>
</trkpt>
<trkpt lat="32.6044410" lon="35.1066680">
<ele>184.000000</ele>
<time>2022-10-14T06:12:45.000Z</time>
</trkpt>
<trkpt lat="32.6044130" lon="35.1066690">
<ele>184.000000</ele>
<time>2022-10-14T06:12:46.000Z</time>
</trkpt>
<trkpt lat="32.6043840" lon="35.1066680">
<ele>184.000000</ele>
<time>2022-10-14T06:12:47.000Z</time>
</trkpt>
<trkpt lat="32.6043280" lon="35.1066630">
<ele>183.800003</ele>
<time>2022-10-14T06:12:49.000Z</time>
</trkpt>
<trkpt lat="32.6042850" lon="35.1066490">
<ele>183.800003</ele>
<time>2022-10-14T06:12:51.000Z</time>
</trkpt>
<trkpt lat="32.6042610" lon="35.1066430">
<ele>184.000000</ele>
<time>2022-10-14T06:12:52.000Z</time>
</trkpt>
<trkpt lat="32.6042190" lon="35.1066290">
<ele>184.399994</ele>
<time>2022-10-14T06:12:54.000Z</time>
</trkpt>
<trkpt lat="32.6041550" lon="35.1066310">
<ele>184.799988</ele>
<time>2022-10-14T06:12:57.000Z</time>
</trkpt>
<trkpt lat="32.6041230" lon="35.1066320">
<ele>185.399994</ele>
<time>2022-10-14T06:12:59.000Z</time>
</trkpt>
<trkpt lat="32.6039730" lon="35.1066680">
<ele>187.000015</ele>
<time>2022-10-14T06:13:06.000Z</time>
</trkpt>
<trkpt lat="32.6039450" lon="35.1066840">
<ele>187.400009</ele>
<time>2022-10-14T06:13:08.000Z</time>
</trkpt>
<trkpt lat="32.6038630" lon="35.1067250">
<ele>188.199997</ele>
<time>2022-10-14T06:13:13.000Z</time>
</trkpt>
<trkpt lat="32.6038330" lon="35.1067390">
<ele>188.600006</ele>
<time>2022-10-14T06:13:15.000Z</time>
</trkpt>
<trkpt lat="32.6037630" lon="35.1067780">
<ele>189.600006</ele>
<time>2022-10-14T06:13:20.000Z</time>
</trkpt>
<trkpt lat="32.6037520" lon="35.1067840">
<ele>190.000000</ele>
<time>2022-10-14T06:13:21.000Z</time>
</trkpt>
<trkpt lat="32.6037290" lon="35.1067990">
<ele>190.400009</ele>
<time>2022-10-14T06:13:23.000Z</time>
</trkpt>
<trkpt lat="32.6037170" lon="35.1068070">
<ele>190.599991</ele>
<time>2022-10-14T06:13:24.000Z</time>
</trkpt>
<trkpt lat="32.6036650" lon="35.1068300">
<ele>191.000000</ele>
<time>2022-10-14T06:13:28.000Z</time>
</trkpt>
<trkpt lat="32.6036420" lon="35.1068490">
<ele>191.199997</ele>
<time>2022-10-14T06:13:31.000Z</time>
</trkpt>
<trkpt lat="32.6036420" lon="35.1068710">
<ele>191.399994</ele>
<time>2022-10-14T06:13:34.000Z</time>
</trkpt>
<trkpt lat="32.6036450" lon="35.1068630">
<ele>191.600006</ele>
<time>2022-10-14T06:13:49.000Z</time>
</trkpt>
<trkpt lat="32.6036650" lon="35.1068940">
<ele>191.399994</ele>
<time>2022-10-14T06:14:20.000Z</time>
</trkpt>
<trkpt lat="32.6037280" lon="35.1069270">
<ele>191.199997</ele>
<time>2022-10-14T06:14:24.000Z</time>
</trkpt>
<trkpt lat="32.6037750" lon="35.1069600">
<ele>191.199997</ele>
<time>2022-10-14T06:14:26.000Z</time>
</trkpt>
<trkpt lat="32.6038980" lon="35.1070060">
<ele>191.199997</ele>
<time>2022-10-14T06:14:31.000Z</time>
</trkpt>
<trkpt lat="32.6039240" lon="35.1070200">
<ele>191.000000</ele>
<time>2022-10-14T06:14:32.000Z</time>
</trkpt>
<trkpt lat="32.6039510" lon="35.1070320">
<ele>191.000000</ele>
<time>2022-10-14T06:14:33.000Z</time>
</trkpt>
<trkpt lat="32.6040090" lon="35.1070550">
<ele>191.000000</ele>
<time>2022-10-14T06:14:35.000Z</time>
</trkpt>
<trkpt lat="32.6040380" lon="35.1070690">
<ele>191.000000</ele>
<time>2022-10-14T06:14:36.000Z</time>
</trkpt>
<trkpt lat="32.6041450" lon="35.1070970">
<ele>190.800003</ele>
<time>2022-10-14T06:14:39.000Z</time>
</trkpt>
<trkpt lat="32.6042310" lon="35.1071300">
<ele>190.199997</ele>
<time>2022-10-14T06:14:41.000Z</time>
</trkpt>
<trkpt lat="32.6042760" lon="35.1071550">
<ele>190.000000</ele>
<time>2022-10-14T06:14:42.000Z</time>
</trkpt>
<trkpt lat="32.6044360" lon="35.1072410">
<ele>189.000000</ele>
<time>2022-10-14T06:14:46.000Z</time>
</trkpt>
<trkpt lat="32.6044740" lon="35.1072510">
<ele>189.000000</ele>
<time>2022-10-14T06:14:47.000Z</time>
</trkpt>
<trkpt lat="32.6045460" lon="35.1072510">
<ele>188.600006</ele>
<time>2022-10-14T06:14:49.000Z</time>
</trkpt>
<trkpt lat="32.6046150" lon="35.1072710">
<ele>187.599991</ele>
<time>2022-10-14T06:14:51.000Z</time>
</trkpt>
<trkpt lat="32.6046820" lon="35.1072710">
<ele>187.199997</ele>
<time>2022-10-14T06:14:53.000Z</time>
</trkpt>
<trkpt lat="32.6047590" lon="35.1072980">
<ele>186.199997</ele>
<time>2022-10-14T06:14:55.000Z</time>
</trkpt>
<trkpt lat="32.6048490" lon="35.1073390">
<ele>184.799988</ele>
<time>2022-10-14T06:14:57.000Z</time>
</trkpt>
<trkpt lat="32.6050430" lon="35.1073970">
<ele>183.199997</ele>
<time>2022-10-14T06:15:01.000Z</time>
</trkpt>
<trkpt lat="32.6051850" lon="35.1074740">
<ele>182.000000</ele>
<time>2022-10-14T06:15:04.000Z</time>
</trkpt>
<trkpt lat="32.6053610" lon="35.1075990">
<ele>181.000000</ele>
<time>2022-10-14T06:15:08.000Z</time>
</trkpt>
<trkpt lat="32.6054900" lon="35.1076680">
<ele>180.000015</ele>
<time>2022-10-14T06:15:11.000Z</time>
</trkpt>
<trkpt lat="32.6055820" lon="35.1077390">
<ele>179.199997</ele>
<time>2022-10-14T06:15:13.000Z</time>
</trkpt>
<trkpt lat="32.6058540" lon="35.1079230">
<ele>177.199997</ele>
<time>2022-10-14T06:15:19.000Z</time>
</trkpt>
<trkpt lat="32.6059450" lon="35.1079620">
<ele>176.400009</ele>
<time>2022-10-14T06:15:21.000Z</time>
</trkpt>
<trkpt lat="32.6060340" lon="35.1080150">
<ele>175.999985</ele>
<time>2022-10-14T06:15:23.000Z</time>
</trkpt>
<trkpt lat="32.6061180" lon="35.1080940">
<ele>175.599991</ele>
<time>2022-10-14T06:15:25.000Z</time>
</trkpt>
<trkpt lat="32.6062820" lon="35.1083000">
<ele>174.200012</ele>
<time>2022-10-14T06:15:29.000Z</time>
</trkpt>
<trkpt lat="32.6063350" lon="35.1084190">
<ele>174.000000</ele>
<time>2022-10-14T06:15:31.000Z</time>
</trkpt>
<trkpt lat="32.6063890" lon="35.1085270">
<ele>173.400009</ele>
<time>2022-10-14T06:15:33.000Z</time>
</trkpt>
<trkpt lat="32.6064360" lon="35.1086330">
<ele>172.800003</ele>
<time>2022-10-14T06:15:35.000Z</time>
</trkpt>
<trkpt lat="32.6064550" lon="35.1086820">
<ele>172.599991</ele>
<time>2022-10-14T06:15:36.000Z</time>
</trkpt>
<trkpt lat="32.6064910" lon="35.1087770">
<ele>171.200012</ele>
<time>2022-10-14T06:15:38.000Z</time>
</trkpt>
<trkpt lat="32.6065350" lon="35.1088810">
<ele>170.199997</ele>
<time>2022-10-14T06:15:40.000Z</time>
</trkpt>
<trkpt lat="32.6066070" lon="35.1090030">
<ele>169.199997</ele>
<time>2022-10-14T06:15:42.000Z</time>
</trkpt>
<trkpt lat="32.6066420" lon="35.1090790">
<ele>168.800003</ele>
<time>2022-10-14T06:15:43.000Z</time>
</trkpt>
<trkpt lat="32.6066960" lon="35.1092330">
<ele>168.199997</ele>
<time>2022-10-14T06:15:45.000Z</time>
</trkpt>
<trkpt lat="32.6067180" lon="35.1094270">
<ele>168.199997</ele>
<time>2022-10-14T06:15:48.000Z</time>
</trkpt>
<trkpt lat="32.6067080" lon="35.1095570">
<ele>168.199997</ele>
<time>2022-10-14T06:15:51.000Z</time>
</trkpt>
<trkpt lat="32.6066840" lon="35.1096590">
<ele>168.199997</ele>
<time>2022-10-14T06:15:53.000Z</time>
</trkpt>
<trkpt lat="32.6066560" lon="35.1097670">
<ele>168.199997</ele>
<time>2022-10-14T06:15:55.000Z</time>
</trkpt>
<trkpt lat="32.6066400" lon="35.1098190">
<ele>168.199997</ele>
<time>2022-10-14T06:15:56.000Z</time>
</trkpt>
<trkpt lat="32.6065990" lon="35.1098970">
<ele>168.199997</ele>
<time>2022-10-14T06:15:58.000Z</time>
</trkpt>
<trkpt lat="32.6065880" lon="35.1099320">
<ele>168.399994</ele>
<time>2022-10-14T06:15:59.000Z</time>
</trkpt>
<trkpt lat="32.6065760" lon="35.1099560">
<ele>168.800003</ele>
<time>2022-10-14T06:16:00.000Z</time>
</trkpt>
<trkpt lat="32.6065510" lon="35.1100250">
<ele>168.999985</ele>
<time>2022-10-14T06:16:02.000Z</time>
</trkpt>
<trkpt lat="32.6065260" lon="35.1101600">
<ele>168.999985</ele>
<time>2022-10-14T06:16:05.000Z</time>
</trkpt>
<trkpt lat="32.6064920" lon="35.1102660">
<ele>168.199997</ele>
<time>2022-10-14T06:16:07.000Z</time>
</trkpt>
<trkpt lat="32.6064320" lon="35.1103710">
<ele>167.399994</ele>
<time>2022-10-14T06:16:10.000Z</time>
</trkpt>
<trkpt lat="32.6063980" lon="35.1105230">
<ele>166.399994</ele>
<time>2022-10-14T06:16:14.000Z</time>
</trkpt>
<trkpt lat="32.6063900" lon="35.1105520">
<ele>166.000000</ele>
<time>2022-10-14T06:16:15.000Z</time>
</trkpt>
<trkpt lat="32.6063510" lon="35.1106130">
<ele>165.199997</ele>
<time>2022-10-14T06:16:17.000Z</time>
</trkpt>
<trkpt lat="32.6062890" lon="35.1106810">
<ele>165.000000</ele>
<time>2022-10-14T06:16:20.000Z</time>
</trkpt>
<trkpt lat="32.6062460" lon="35.1107430">
<ele>165.800003</ele>
<time>2022-10-14T06:16:23.000Z</time>
</trkpt>
<trkpt lat="32.6061730" lon="35.1108310">
<ele>167.200012</ele>
<time>2022-10-14T06:16:28.000Z</time>
</trkpt>
<trkpt lat="32.6061500" lon="35.1108660">
<ele>167.600006</ele>
<time>2022-10-14T06:16:30.000Z</time>
</trkpt>
<trkpt lat="32.6061210" lon="35.1109630">
<ele>167.600006</ele>
<time>2022-10-14T06:16:33.000Z</time>
</trkpt>
<trkpt lat="32.6061080" lon="35.1110060">
<ele>167.200012</ele>
<time>2022-10-14T06:16:34.000Z</time>
</trkpt>
<trkpt lat="32.6060570" lon="35.1110770">
<ele>166.600006</ele>
<time>2022-10-14T06:16:36.000Z</time>
</trkpt>
<trkpt lat="32.6060120" lon="35.1111230">
<ele>166.600006</ele>
<time>2022-10-14T06:16:38.000Z</time>
</trkpt>
<trkpt lat="32.6059700" lon="35.1111550">
<ele>166.800003</ele>
<time>2022-10-14T06:16:40.000Z</time>
</trkpt>
<trkpt lat="32.6059260" lon="35.1111700">
<ele>167.399994</ele>
<time>2022-10-14T06:16:42.000Z</time>
</trkpt>
<trkpt lat="32.6059080" lon="35.1111740">
<ele>167.800003</ele>
<time>2022-10-14T06:16:43.000Z</time>
</trkpt>
<trkpt lat="32.6058740" lon="35.1111850">
<ele>168.399994</ele>
<time>2022-10-14T06:16:45.000Z</time>
</trkpt>
<trkpt lat="32.6058590" lon="35.1111880">
<ele>168.599991</ele>
<time>2022-10-14T06:16:46.000Z</time>
</trkpt>
<trkpt lat="32.6058460" lon="35.1112060">
<ele>168.800003</ele>
<time>2022-10-14T06:16:47.000Z</time>
</trkpt>
<trkpt lat="32.6058310" lon="35.1112570">
<ele>168.999985</ele>
<time>2022-10-14T06:16:49.000Z</time>
</trkpt>
<trkpt lat="32.6058130" lon="35.1112760">
<ele>169.199997</ele>
<time>2022-10-14T06:16:50.000Z</time>
</trkpt>
<trkpt lat="32.6057730" lon="35.1113060">
<ele>169.400009</ele>
<time>2022-10-14T06:16:52.000Z</time>
</trkpt>
<trkpt lat="32.6057300" lon="35.1113230">
<ele>169.599991</ele>
<time>2022-10-14T06:16:54.000Z</time>
</trkpt>
<trkpt lat="32.6057150" lon="35.1113290">
<ele>169.599991</ele>
<time>2022-10-14T06:16:55.000Z</time>
</trkpt>
<trkpt lat="32.6056640" lon="35.1113450">
<ele>170.399994</ele>
<time>2022-10-14T06:16:58.000Z</time>
</trkpt>
<trkpt lat="32.6056320" lon="35.1113640">
<ele>171.200012</ele>
<time>2022-10-14T06:17:01.000Z</time>
</trkpt>
<trkpt lat="32.6056230" lon="35.1113760">
<ele>171.399994</ele>
<time>2022-10-14T06:17:02.000Z</time>
</trkpt>
<trkpt lat="32.6055580" lon="35.1114210">
<ele>171.600006</ele>
<time>2022-10-14T06:17:05.000Z</time>
</trkpt>
<trkpt lat="32.6055190" lon="35.1114390">
<ele>171.800003</ele>
<time>2022-10-14T06:17:07.000Z</time>
</trkpt>
<trkpt lat="32.6054600" lon="35.1114570">
<ele>172.000000</ele>
<time>2022-10-14T06:17:10.000Z</time>
</trkpt>
<trkpt lat="32.6054160" lon="35.1114610">
<ele>172.400009</ele>
<time>2022-10-14T06:17:12.000Z</time>
</trkpt>
<trkpt lat="32.6053540" lon="35.1114870">
<ele>173.000015</ele>
<time>2022-10-14T06:17:15.000Z</time>
</trkpt>
<trkpt lat="32.6053170" lon="35.1115290">
<ele>173.199997</ele>
<time>2022-10-14T06:17:17.000Z</time>
</trkpt>
<trkpt lat="32.6052890" lon="35.1115550">
<ele>173.199997</ele>
<time>2022-10-14T06:17:18.000Z</time>
</trkpt>
<trkpt lat="32.6052490" lon="35.1115810">
<ele>173.199997</ele>
<time>2022-10-14T06:17:19.000Z</time>
</trkpt>
<trkpt lat="32.6051610" lon="35.1116620">
<ele>173.000015</ele>
<time>2022-10-14T06:17:22.000Z</time>
</trkpt>
<trkpt lat="32.6051430" lon="35.1116890">
<ele>173.000015</ele>
<time>2022-10-14T06:17:23.000Z</time>
</trkpt>
<trkpt lat="32.6051130" lon="35.1117510">
<ele>173.000015</ele>
<time>2022-10-14T06:17:25.000Z</time>
</trkpt>
<trkpt lat="32.6050850" lon="35.1118360">
<ele>173.000015</ele>
<time>2022-10-14T06:17:28.000Z</time>
</trkpt>
<trkpt lat="32.6050730" lon="35.1118780">
<ele>173.000015</ele>
<time>2022-10-14T06:17:29.000Z</time>
</trkpt>
<trkpt lat="32.6050450" lon="35.1120460">
<ele>171.800003</ele>
<time>2022-10-14T06:17:32.000Z</time>
</trkpt>
<trkpt lat="32.6050320" lon="35.1121060">
<ele>170.799988</ele>
<time>2022-10-14T06:17:33.000Z</time>
</trkpt>
<trkpt lat="32.6050190" lon="35.1121680">
<ele>170.000000</ele>
<time>2022-10-14T06:17:34.000Z</time>
</trkpt>
<trkpt lat="32.6049630" lon="35.1125470">
<ele>167.200012</ele>
<time>2022-10-14T06:17:40.000Z</time>
</trkpt>
<trkpt lat="32.6049570" lon="35.1125990">
<ele>167.000000</ele>
<time>2022-10-14T06:17:41.000Z</time>
</trkpt>
<trkpt lat="32.6049510" lon="35.1127390">
<ele>166.399994</ele>
<time>2022-10-14T06:17:44.000Z</time>
</trkpt>
<trkpt lat="32.6049730" lon="35.1128940">
<ele>165.400009</ele>
<time>2022-10-14T06:17:47.000Z</time>
</trkpt>
<trkpt lat="32.6049760" lon="35.1130940">
<ele>163.199997</ele>
<time>2022-10-14T06:17:51.000Z</time>
</trkpt>
<trkpt lat="32.6049790" lon="35.1131370">
<ele>162.800003</ele>
<time>2022-10-14T06:17:52.000Z</time>
</trkpt>
<trkpt lat="32.6049740" lon="35.1131780">
<ele>162.599991</ele>
<time>2022-10-14T06:17:53.000Z</time>
</trkpt>
<trkpt lat="32.6049700" lon="35.1132670">
<ele>162.400009</ele>
<time>2022-10-14T06:17:55.000Z</time>
</trkpt>
<trkpt lat="32.6049930" lon="35.1134340">
<ele>161.400009</ele>
<time>2022-10-14T06:17:59.000Z</time>
</trkpt>
<trkpt lat="32.6049850" lon="35.1135370">
<ele>160.600006</ele>
<time>2022-10-14T06:18:01.000Z</time>
</trkpt>
<trkpt lat="32.6049730" lon="35.1136330">
<ele>160.200012</ele>
<time>2022-10-14T06:18:03.000Z</time>
</trkpt>
<trkpt lat="32.6049560" lon="35.1137430">
<ele>160.000000</ele>
<time>2022-10-14T06:18:05.000Z</time>
</trkpt>
<trkpt lat="32.6049590" lon="35.1138110">
<ele>160.000000</ele>
<time>2022-10-14T06:18:06.000Z</time>
</trkpt>
<trkpt lat="32.6049260" lon="35.1139580">
<ele>160.399994</ele>
<time>2022-10-14T06:18:10.000Z</time>
</trkpt>
<trkpt lat="32.6049250" lon="35.1140670">
<ele>160.399994</ele>
<time>2022-10-14T06:18:13.000Z</time>
</trkpt>
<trkpt lat="32.6049090" lon="35.1141600">
<ele>159.600006</ele>
<time>2022-10-14T06:18:15.000Z</time>
</trkpt>
<trkpt lat="32.6048840" lon="35.1142610">
<ele>158.400009</ele>
<time>2022-10-14T06:18:17.000Z</time>
</trkpt>
<trkpt lat="32.6048530" lon="35.1144660">
<ele>157.399994</ele>
<time>2022-10-14T06:18:21.000Z</time>
</trkpt>
<trkpt lat="32.6048130" lon="35.1145700">
<ele>156.399994</ele>
<time>2022-10-14T06:18:23.000Z</time>
</trkpt>
<trkpt lat="32.6047430" lon="35.1146450">
<ele>156.000000</ele>
<time>2022-10-14T06:18:25.000Z</time>
</trkpt>
<trkpt lat="32.6046500" lon="35.1147740">
<ele>155.600006</ele>
<time>2022-10-14T06:18:28.000Z</time>
</trkpt>
<trkpt lat="32.6045680" lon="35.1148470">
<ele>155.199997</ele>
<time>2022-10-14T06:18:30.000Z</time>
</trkpt>
<trkpt lat="32.6044600" lon="35.1149280">
<ele>154.800003</ele>
<time>2022-10-14T06:18:33.000Z</time>
</trkpt>
<trkpt lat="32.6044250" lon="35.1149630">
<ele>154.599991</ele>
<time>2022-10-14T06:18:34.000Z</time>
</trkpt>
<trkpt lat="32.6043490" lon="35.1150070">
<ele>154.599991</ele>
<time>2022-10-14T06:18:36.000Z</time>
</trkpt>
<trkpt lat="32.6043080" lon="35.1150240">
<ele>154.399994</ele>
<time>2022-10-14T06:18:37.000Z</time>
</trkpt>
<trkpt lat="32.6041830" lon="35.1150730">
<ele>154.199997</ele>
<time>2022-10-14T06:18:40.000Z</time>
</trkpt>
<trkpt lat="32.6041390" lon="35.1150810">
<ele>154.199997</ele>
<time>2022-10-14T06:18:41.000Z</time>
</trkpt>
<trkpt lat="32.6040960" lon="35.1150810">
<ele>154.000000</ele>
<time>2022-10-14T06:18:42.000Z</time>
</trkpt>
<trkpt lat="32.6040090" lon="35.1150690">
<ele>154.000000</ele>
<time>2022-10-14T06:18:44.000Z</time>
</trkpt>
<trkpt lat="32.6039650" lon="35.1150640">
<ele>154.000000</ele>
<time>2022-10-14T06:18:45.000Z</time>
</trkpt>
<trkpt lat="32.6038880" lon="35.1150510">
<ele>154.000000</ele>
<time>2022-10-14T06:18:47.000Z</time>
</trkpt>
<trkpt lat="32.6038610" lon="35.1150520">
<ele>154.199997</ele>
<time>2022-10-14T06:18:48.000Z</time>
</trkpt>
<trkpt lat="32.6037600" lon="35.1150600">
<ele>154.800003</ele>
<time>2022-10-14T06:18:52.000Z</time>
</trkpt>
<trkpt lat="32.6035610" lon="35.1150980">
<ele>155.600006</ele>
<time>2022-10-14T06:18:58.000Z</time>
</trkpt>
<trkpt lat="32.6035120" lon="35.1150940">
<ele>155.400009</ele>
<time>2022-10-14T06:18:59.000Z</time>
</trkpt>
<trkpt lat="32.6033990" lon="35.1150940">
<ele>154.800003</ele>
<time>2022-10-14T06:19:02.000Z</time>
</trkpt>
<trkpt lat="32.6033710" lon="35.1151100">
<ele>154.599991</ele>
<time>2022-10-14T06:19:03.000Z</time>
</trkpt>
<trkpt lat="32.6033470" lon="35.1151330">
<ele>154.399994</ele>
<time>2022-10-14T06:19:04.000Z</time>
</trkpt>
<trkpt lat="32.6033210" lon="35.1151560">
<ele>154.399994</ele>
<time>2022-10-14T06:19:05.000Z</time>
</trkpt>
<trkpt lat="32.6032540" lon="35.1152310">
<ele>153.400009</ele>
<time>2022-10-14T06:19:42.000Z</time>
</trkpt>
<trkpt lat="32.6032370" lon="35.1152670">
<ele>153.199997</ele>
<time>2022-10-14T06:19:44.000Z</time>
</trkpt>
<trkpt lat="32.6032210" lon="35.1153100">
<ele>153.000000</ele>
<time>2022-10-14T06:19:46.000Z</time>
</trkpt>
<trkpt lat="32.6032150" lon="35.1153320">
<ele>153.000000</ele>
<time>2022-10-14T06:19:47.000Z</time>
</trkpt>
<trkpt lat="32.6031940" lon="35.1153920">
<ele>152.599991</ele>
<time>2022-10-14T06:19:50.000Z</time>
</trkpt>
<trkpt lat="32.6031840" lon="35.1154110">
<ele>152.399994</ele>
<time>2022-10-14T06:19:51.000Z</time>
</trkpt>
<trkpt lat="32.6031740" lon="35.1154290">
<ele>152.399994</ele>
<time>2022-10-14T06:19:52.000Z</time>
</trkpt>
<trkpt lat="32.6031630" lon="35.1154430">
<ele>152.199997</ele>
<time>2022-10-14T06:19:53.000Z</time>
</trkpt>
<trkpt lat="32.6031590" lon="35.1154930">
<ele>152.199997</ele>
<time>2022-10-14T06:19:55.000Z</time>
</trkpt>
<trkpt lat="32.6031570" lon="35.1156150">
<ele>152.599991</ele>
<time>2022-10-14T06:20:00.000Z</time>
</trkpt>
<trkpt lat="32.6031540" lon="35.1156530">
<ele>153.000000</ele>
<time>2022-10-14T06:20:02.000Z</time>
</trkpt>
<trkpt lat="32.6031830" lon="35.1157640">
<ele>153.800003</ele>
<time>2022-10-14T06:20:07.000Z</time>
</trkpt>
<trkpt lat="32.6032390" lon="35.1157940">
<ele>154.000000</ele>
<time>2022-10-14T06:20:10.000Z</time>
</trkpt>
<trkpt lat="32.6032590" lon="35.1158030">
<ele>154.000000</ele>
<time>2022-10-14T06:20:11.000Z</time>
</trkpt>
<trkpt lat="32.6032850" lon="35.1158080">
<ele>154.000000</ele>
<time>2022-10-14T06:20:12.000Z</time>
</trkpt>
<trkpt lat="32.6033130" lon="35.1158090">
<ele>154.000000</ele>
<time>2022-10-14T06:20:13.000Z</time>
</trkpt>
<trkpt lat="32.6033730" lon="35.1158050">
<ele>153.800003</ele>
<time>2022-10-14T06:20:15.000Z</time>
</trkpt>
<trkpt lat="32.6034360" lon="35.1157880">
<ele>153.800003</ele>
<time>2022-10-14T06:20:17.000Z</time>
</trkpt>
<trkpt lat="32.6034710" lon="35.1157670">
<ele>153.600006</ele>
<time>2022-10-14T06:20:18.000Z</time>
</trkpt>
<trkpt lat="32.6036770" lon="35.1157340">
<ele>153.000000</ele>
<time>2022-10-14T06:20:23.000Z</time>
</trkpt>
<trkpt lat="32.6038200" lon="35.1157340">
<ele>152.399994</ele>
<time>2022-10-14T06:20:26.000Z</time>
</trkpt>
<trkpt lat="32.6038740" lon="35.1157420">
<ele>152.199997</ele>
<time>2022-10-14T06:20:27.000Z</time>
</trkpt>
<trkpt lat="32.6041230" lon="35.1157410">
<ele>151.199997</ele>
<time>2022-10-14T06:20:32.000Z</time>
</trkpt>
<trkpt lat="32.6042950" lon="35.1157380">
<ele>150.399994</ele>
<time>2022-10-14T06:20:35.000Z</time>
</trkpt>
<trkpt lat="32.6043620" lon="35.1157350">
<ele>150.199997</ele>
<time>2022-10-14T06:20:36.000Z</time>
</trkpt>
<trkpt lat="32.6044350" lon="35.1157400">
<ele>149.800003</ele>
<time>2022-10-14T06:20:37.000Z</time>
</trkpt>
<trkpt lat="32.6045110" lon="35.1157430">
<ele>149.000000</ele>
<time>2022-10-14T06:20:38.000Z</time>
</trkpt>
<trkpt lat="32.6046680" lon="35.1157550">
<ele>147.800003</ele>
<time>2022-10-14T06:20:40.000Z</time>
</trkpt>
<trkpt lat="32.6048200" lon="35.1157590">
<ele>146.800003</ele>
<time>2022-10-14T06:20:42.000Z</time>
</trkpt>
<trkpt lat="32.6048910" lon="35.1157650">
<ele>146.600006</ele>
<time>2022-10-14T06:20:43.000Z</time>
</trkpt>
<trkpt lat="32.6051100" lon="35.1157770">
<ele>145.199997</ele>
<time>2022-10-14T06:20:46.000Z</time>
</trkpt>
<trkpt lat="32.6052650" lon="35.1158050">
<ele>144.800003</ele>
<time>2022-10-14T06:20:48.000Z</time>
</trkpt>
<trkpt lat="32.6053370" lon="35.1158070">
<ele>144.600006</ele>
<time>2022-10-14T06:20:49.000Z</time>
</trkpt>
<trkpt lat="32.6054570" lon="35.1158300">
<ele>144.400009</ele>
<time>2022-10-14T06:20:51.000Z</time>
</trkpt>
<trkpt lat="32.6055760" lon="35.1159210">
<ele>144.000000</ele>
<time>2022-10-14T06:20:53.000Z</time>
</trkpt>
<trkpt lat="32.6057260" lon="35.1159730">
<ele>143.599991</ele>
<time>2022-10-14T06:20:56.000Z</time>
</trkpt>
<trkpt lat="32.6057670" lon="35.1159860">
<ele>143.399994</ele>
<time>2022-10-14T06:20:57.000Z</time>
</trkpt>
<trkpt lat="32.6058620" lon="35.1160340">
<ele>142.600006</ele>
<time>2022-10-14T06:21:00.000Z</time>
</trkpt>
<trkpt lat="32.6058890" lon="35.1160510">
<ele>142.399994</ele>
<time>2022-10-14T06:21:01.000Z</time>
</trkpt>
<trkpt lat="32.6059170" lon="35.1160700">
<ele>142.199997</ele>
<time>2022-10-14T06:21:02.000Z</time>
</trkpt>
<trkpt lat="32.6059440" lon="35.1160870">
<ele>142.000000</ele>
<time>2022-10-14T06:21:03.000Z</time>
</trkpt>
<trkpt lat="32.6059660" lon="35.1161090">
<ele>142.000000</ele>
<time>2022-10-14T06:21:04.000Z</time>
</trkpt>
<trkpt lat="32.6060150" lon="35.1161450">
<ele>141.800003</ele>
<time>2022-10-14T06:21:08.000Z</time>
</trkpt>
<trkpt lat="32.6060260" lon="35.1161520">
<ele>141.800003</ele>
<time>2022-10-14T06:21:10.000Z</time>
</trkpt>
<trkpt lat="32.6060300" lon="35.1161490">
<ele>141.800003</ele>
<time>2022-10-14T06:21:11.000Z</time>
</trkpt>
<trkpt lat="32.6060570" lon="35.1161630">
<ele>141.600006</ele>
<time>2022-10-14T06:21:14.000Z</time>
</trkpt>
<trkpt lat="32.6060660" lon="35.1161940">
<ele>141.600006</ele>
<time>2022-10-14T06:21:16.000Z</time>
</trkpt>
<trkpt lat="32.6060560" lon="35.1162040">
<ele>141.600006</ele>
<time>2022-10-14T06:21:17.000Z</time>
</trkpt>
<trkpt lat="32.6060440" lon="35.1162030">
<ele>141.600006</ele>
<time>2022-10-14T06:21:18.000Z</time>
</trkpt>
<trkpt lat="32.6060120" lon="35.1161470">
<ele>141.600006</ele>
<time>2022-10-14T06:21:21.000Z</time>
</trkpt>
<trkpt lat="32.6059980" lon="35.1161230">
<ele>141.600006</ele>
<time>2022-10-14T06:21:22.000Z</time>
</trkpt>
<trkpt lat="32.6059490" lon="35.1160840">
<ele>141.800003</ele>
<time>2022-10-14T06:21:24.000Z</time>
</trkpt>
<trkpt lat="32.6058150" lon="35.1160060">
<ele>142.399994</ele>
<time>2022-10-14T06:21:29.000Z</time>
</trkpt>
<trkpt lat="32.6057660" lon="35.1159850">
<ele>142.600006</ele>
<time>2022-10-14T06:21:31.000Z</time>
</trkpt>
<trkpt lat="32.6057430" lon="35.1159770">
<ele>142.600006</ele>
<time>2022-10-14T06:21:32.000Z</time>
</trkpt>
<trkpt lat="32.6057210" lon="35.1159610">
<ele>142.800003</ele>
<time>2022-10-14T06:21:33.000Z</time>
</trkpt>
<trkpt lat="32.6056460" lon="35.1159250">
<ele>142.800003</ele>
<time>2022-10-14T06:21:36.000Z</time>
</trkpt>
<trkpt lat="32.6055620" lon="35.1158980">
<ele>143.199997</ele>
<time>2022-10-14T06:21:39.000Z</time>
</trkpt>
<trkpt lat="32.6055350" lon="35.1158950">
<ele>143.399994</ele>
<time>2022-10-14T06:21:40.000Z</time>
</trkpt>
<trkpt lat="32.6054790" lon="35.1158790">
<ele>143.399994</ele>
<time>2022-10-14T06:21:42.000Z</time>
</trkpt>
<trkpt lat="32.6054530" lon="35.1158760">
<ele>143.599991</ele>
<time>2022-10-14T06:21:43.000Z</time>
</trkpt>
<trkpt lat="32.6053690" lon="35.1158440">
<ele>144.000000</ele>
<time>2022-10-14T06:21:46.000Z</time>
</trkpt>
<trkpt lat="32.6053360" lon="35.1158380">
<ele>144.000000</ele>
<time>2022-10-14T06:21:47.000Z</time>
</trkpt>
<trkpt lat="32.6052810" lon="35.1158260">
<ele>144.199997</ele>
<time>2022-10-14T06:21:49.000Z</time>
</trkpt>
<trkpt lat="32.6052490" lon="35.1158190">
<ele>144.199997</ele>
<time>2022-10-14T06:21:50.000Z</time>
</trkpt>
<trkpt lat="32.6052170" lon="35.1158130">
<ele>144.400009</ele>
<time>2022-10-14T06:21:51.000Z</time>
</trkpt>
<trkpt lat="32.6050510" lon="35.1158100">
<ele>145.000000</ele>
<time>2022-10-14T06:21:58.000Z</time>
</trkpt>
<trkpt lat="32.6050350" lon="35.1158160">
<ele>145.000000</ele>
<time>2022-10-14T06:21:59.000Z</time>
</trkpt>
<trkpt lat="32.6050160" lon="35.1158380">
<ele>145.199997</ele>
<time>2022-10-14T06:22:01.000Z</time>
</trkpt>
<trkpt lat="32.6050190" lon="35.1158820">
<ele>145.599991</ele>
<time>2022-10-14T06:22:04.000Z</time>
</trkpt>
<trkpt lat="32.6050370" lon="35.1159180">
<ele>146.199997</ele>
<time>2022-10-14T06:22:07.000Z</time>
</trkpt>
<trkpt lat="32.6050660" lon="35.1159450">
<ele>147.000000</ele>
<time>2022-10-14T06:22:10.000Z</time>
</trkpt>
<trkpt lat="32.6050760" lon="35.1159510">
<ele>147.399994</ele>
<time>2022-10-14T06:22:11.000Z</time>
</trkpt>
<trkpt lat="32.6051030" lon="35.1159710">
<ele>148.000000</ele>
<time>2022-10-14T06:22:14.000Z</time>
</trkpt>
<trkpt lat="32.6051370" lon="35.1159950">
<ele>148.600006</ele>
<time>2022-10-14T06:22:17.000Z</time>
</trkpt>
<trkpt lat="32.6051870" lon="35.1160360">
<ele>149.000000</ele>
<time>2022-10-14T06:22:21.000Z</time>
</trkpt>
<trkpt lat="32.6052570" lon="35.1160590">
<ele>149.600006</ele>
<time>2022-10-14T06:22:26.000Z</time>
</trkpt>
<trkpt lat="32.6053540" lon="35.1161160">
<ele>150.000000</ele>
<time>2022-10-14T06:22:31.000Z</time>
</trkpt>
<trkpt lat="32.6053780" lon="35.1161230">
<ele>150.000000</ele>
<time>2022-10-14T06:22:32.000Z</time>
</trkpt>
<trkpt lat="32.6054380" lon="35.1161560">
<ele>150.399994</ele>
<time>2022-10-14T06:22:35.000Z</time>
</trkpt>
<trkpt lat="32.6054710" lon="35.1161690">
<ele>150.800003</ele>
<time>2022-10-14T06:22:37.000Z</time>
</trkpt>
<trkpt lat="32.6054880" lon="35.1161730">
<ele>151.000000</ele>
<time>2022-10-14T06:22:38.000Z</time>
</trkpt>
<trkpt lat="32.6055320" lon="35.1161930">
<ele>151.199997</ele>
<time>2022-10-14T06:22:40.000Z</time>
</trkpt>
<trkpt lat="32.6055540" lon="35.1162050">
<ele>151.399994</ele>
<time>2022-10-14T06:22:41.000Z</time>
</trkpt>
<trkpt lat="32.6056570" lon="35.1162380">
<ele>151.600006</ele>
<time>2022-10-14T06:22:46.000Z</time>
</trkpt>
<trkpt lat="32.6056810" lon="35.1162570">
<ele>151.800003</ele>
<time>2022-10-14T06:22:47.000Z</time>
</trkpt>
<trkpt lat="32.6057050" lon="35.1162730">
<ele>151.800003</ele>
<time>2022-10-14T06:22:48.000Z</time>
</trkpt>
<trkpt lat="32.6057530" lon="35.1162930">
<ele>152.000000</ele>
<time>2022-10-14T06:22:50.000Z</time>
</trkpt>
<trkpt lat="32.6057960" lon="35.1163220">
<ele>152.199997</ele>
<time>2022-10-14T06:22:52.000Z</time>
</trkpt>
<trkpt lat="32.6058360" lon="35.1163470">
<ele>152.199997</ele>
<time>2022-10-14T06:22:54.000Z</time>
</trkpt>
<trkpt lat="32.6058760" lon="35.1163770">
<ele>152.399994</ele>
<time>2022-10-14T06:22:56.000Z</time>
</trkpt>
<trkpt lat="32.6059260" lon="35.1164030">
<ele>152.399994</ele>
<time>2022-10-14T06:22:58.000Z</time>
</trkpt>
<trkpt lat="32.6059540" lon="35.1164130">
<ele>152.399994</ele>
<time>2022-10-14T06:22:59.000Z</time>
</trkpt>
<trkpt lat="32.6060620" lon="35.1164540">
<ele>152.599991</ele>
<time>2022-10-14T06:23:03.000Z</time>
</trkpt>
<trkpt lat="32.6061460" lon="35.1165150">
<ele>152.599991</ele>
<time>2022-10-14T06:23:06.000Z</time>
</trkpt>
<trkpt lat="32.6061680" lon="35.1165320">
<ele>152.800003</ele>
<time>2022-10-14T06:23:07.000Z</time>
</trkpt>
<trkpt lat="32.6062480" lon="35.1165740">
<ele>153.000000</ele>
<time>2022-10-14T06:23:10.000Z</time>
</trkpt>
<trkpt lat="32.6064270" lon="35.1166790">
<ele>153.199997</ele>
<time>2022-10-14T06:23:16.000Z</time>
</trkpt>
<trkpt lat="32.6065200" lon="35.1167410">
<ele>153.400009</ele>
<time>2022-10-14T06:23:19.000Z</time>
</trkpt>
<trkpt lat="32.6065900" lon="35.1167820">
<ele>153.400009</ele>
<time>2022-10-14T06:23:21.000Z</time>
</trkpt>
<trkpt lat="32.6066660" lon="35.1168240">
<ele>153.400009</ele>
<time>2022-10-14T06:23:23.000Z</time>
</trkpt>
<trkpt lat="32.6067790" lon="35.1169250">
<ele>153.199997</ele>
<time>2022-10-14T06:23:27.000Z</time>
</trkpt>
<trkpt lat="32.6068050" lon="35.1169530">
<ele>153.400009</ele>
<time>2022-10-14T06:23:28.000Z</time>
</trkpt>
<trkpt lat="32.6068550" lon="35.1169970">
<ele>153.400009</ele>
<time>2022-10-14T06:23:30.000Z</time>
</trkpt>
<trkpt lat="32.6068790" lon="35.1170180">
<ele>153.400009</ele>
<time>2022-10-14T06:23:31.000Z</time>
</trkpt>
<trkpt lat="32.6069890" lon="35.1171080">
<ele>154.000000</ele>
<time>2022-10-14T06:23:35.000Z</time>
</trkpt>
<trkpt lat="32.6070580" lon="35.1171850">
<ele>154.199997</ele>
<time>2022-10-14T06:23:38.000Z</time>
</trkpt>
<trkpt lat="32.6071260" lon="35.1172880">
<ele>155.000000</ele>
<time>2022-10-14T06:23:43.000Z</time>
</trkpt>
<trkpt lat="32.6071320" lon="35.1173120">
<ele>155.400009</ele>
<time>2022-10-14T06:23:44.000Z</time>
</trkpt>
<trkpt lat="32.6071400" lon="35.1173340">
<ele>155.600006</ele>
<time>2022-10-14T06:23:45.000Z</time>
</trkpt>
<trkpt lat="32.6072180" lon="35.1174460">
<ele>157.200012</ele>
<time>2022-10-14T06:23:51.000Z</time>
</trkpt>
<trkpt lat="32.6072390" lon="35.1174800">
<ele>157.600006</ele>
<time>2022-10-14T06:23:53.000Z</time>
</trkpt>
<trkpt lat="32.6072990" lon="35.1175690">
<ele>158.800003</ele>
<time>2022-10-14T06:23:59.000Z</time>
</trkpt>
<trkpt lat="32.6073400" lon="35.1176050">
<ele>159.199997</ele>
<time>2022-10-14T06:24:02.000Z</time>
</trkpt>
<trkpt lat="32.6073590" lon="35.1176090">
<ele>159.199997</ele>
<time>2022-10-14T06:24:03.000Z</time>
</trkpt>
<trkpt lat="32.6074110" lon="35.1176330">
<ele>159.600006</ele>
<time>2022-10-14T06:24:06.000Z</time>
</trkpt>
<trkpt lat="32.6074650" lon="35.1176470">
<ele>159.600006</ele>
<time>2022-10-14T06:24:09.000Z</time>
</trkpt>
<trkpt lat="32.6074870" lon="35.1176510">
<ele>159.600006</ele>
<time>2022-10-14T06:24:10.000Z</time>
</trkpt>
<trkpt lat="32.6075610" lon="35.1176850">
<ele>160.200012</ele>
<time>2022-10-14T06:24:14.000Z</time>
</trkpt>
<trkpt lat="32.6075930" lon="35.1176940">
<ele>160.399994</ele>
<time>2022-10-14T06:24:16.000Z</time>
</trkpt>
<trkpt lat="32.6076490" lon="35.1176920">
<ele>160.800003</ele>
<time>2022-10-14T06:24:19.000Z</time>
</trkpt>
<trkpt lat="32.6076710" lon="35.1176890">
<ele>160.800003</ele>
<time>2022-10-14T06:24:20.000Z</time>
</trkpt>
<trkpt lat="32.6077730" lon="35.1177000">
<ele>160.600006</ele>
<time>2022-10-14T06:24:24.000Z</time>
</trkpt>
<trkpt lat="32.6078000" lon="35.1177030">
<ele>160.600006</ele>
<time>2022-10-14T06:24:25.000Z</time>
</trkpt>
<trkpt lat="32.6078700" lon="35.1177120">
<ele>160.800003</ele>
<time>2022-10-14T06:24:28.000Z</time>
</trkpt>
<trkpt lat="32.6078930" lon="35.1177090">
<ele>161.000000</ele>
<time>2022-10-14T06:24:29.000Z</time>
</trkpt>
<trkpt lat="32.6079160" lon="35.1177100">
<ele>161.000000</ele>
<time>2022-10-14T06:24:30.000Z</time>
</trkpt>
<trkpt lat="32.6079730" lon="35.1177000">
<ele>161.000000</ele>
<time>2022-10-14T06:24:32.000Z</time>
</trkpt>
<trkpt lat="32.6080100" lon="35.1176930">
<ele>161.000000</ele>
<time>2022-10-14T06:24:33.000Z</time>
</trkpt>
<trkpt lat="32.6081040" lon="35.1176800">
<ele>160.600006</ele>
<time>2022-10-14T06:24:35.000Z</time>
</trkpt>
<trkpt lat="32.6081610" lon="35.1176730">
<ele>160.200012</ele>
<time>2022-10-14T06:24:36.000Z</time>
</trkpt>
<trkpt lat="32.6082840" lon="35.1176580">
<ele>159.399994</ele>
<time>2022-10-14T06:24:38.000Z</time>
</trkpt>
<trkpt lat="32.6083500" lon="35.1176530">
<ele>159.000000</ele>
<time>2022-10-14T06:24:39.000Z</time>
</trkpt>
<trkpt lat="32.6086920" lon="35.1176470">
<ele>156.600006</ele>
<time>2022-10-14T06:24:44.000Z</time>
</trkpt>
<trkpt lat="32.6087630" lon="35.1176370">
<ele>156.199997</ele>
<time>2022-10-14T06:24:45.000Z</time>
</trkpt>
<trkpt lat="32.6089120" lon="35.1176540">
<ele>155.800003</ele>
<time>2022-10-14T06:24:47.000Z</time>
</trkpt>
<trkpt lat="32.6090370" lon="35.1176820">
<ele>155.600006</ele>
<time>2022-10-14T06:24:49.000Z</time>
</trkpt>
<trkpt lat="32.6091750" lon="35.1177310">
<ele>156.000000</ele>
<time>2022-10-14T06:24:52.000Z</time>
</trkpt>
<trkpt lat="32.6092140" lon="35.1177390">
<ele>156.399994</ele>
<time>2022-10-14T06:24:53.000Z</time>
</trkpt>
<trkpt lat="32.6096500" lon="35.1177390">
<ele>156.399994</ele>
<time>2022-10-14T06:25:02.000Z</time>
</trkpt>
<trkpt lat="32.6097770" lon="35.1177260">
<ele>155.600006</ele>
<time>2022-10-14T06:25:04.000Z</time>
</trkpt>
<trkpt lat="32.6098450" lon="35.1177190">
<ele>155.400009</ele>
<time>2022-10-14T06:25:05.000Z</time>
</trkpt>
<trkpt lat="32.6099660" lon="35.1177160">
<ele>154.800003</ele>
<time>2022-10-14T06:25:07.000Z</time>
</trkpt>
<trkpt lat="32.6101370" lon="35.1177260">
<ele>154.399994</ele>
<time>2022-10-14T06:25:10.000Z</time>
</trkpt>
<trkpt lat="32.6103000" lon="35.1177800">
<ele>154.599991</ele>
<time>2022-10-14T06:25:13.000Z</time>
</trkpt>
<trkpt lat="32.6104300" lon="35.1178500">
<ele>154.800003</ele>
<time>2022-10-14T06:25:16.000Z</time>
</trkpt>
<trkpt lat="32.6105980" lon="35.1179590">
<ele>155.000000</ele>
<time>2022-10-14T06:25:20.000Z</time>
</trkpt>
<trkpt lat="32.6107420" lon="35.1180750">
<ele>154.000000</ele>
<time>2022-10-14T06:25:23.000Z</time>
</trkpt>
<trkpt lat="32.6111370" lon="35.1185100">
<ele>152.199997</ele>
<time>2022-10-14T06:25:31.000Z</time>
</trkpt>
<trkpt lat="32.6111830" lon="35.1185730">
<ele>152.000000</ele>
<time>2022-10-14T06:25:32.000Z</time>
</trkpt>
<trkpt lat="32.6113350" lon="35.1188380">
<ele>151.600006</ele>
<time>2022-10-14T06:25:36.000Z</time>
</trkpt>
<trkpt lat="32.6114230" lon="35.1190490">
<ele>151.600006</ele>
<time>2022-10-14T06:25:39.000Z</time>
</trkpt>
<trkpt lat="32.6114610" lon="35.1191910">
<ele>151.600006</ele>
<time>2022-10-14T06:25:41.000Z</time>
</trkpt>
<trkpt lat="32.6114640" lon="35.1194250">
<ele>154.599991</ele>
<time>2022-10-14T06:25:47.000Z</time>
</trkpt>
<trkpt lat="32.6114590" lon="35.1194620">
<ele>155.400009</ele>
<time>2022-10-14T06:25:49.000Z</time>
</trkpt>
<trkpt lat="32.6114560" lon="35.1195260">
<ele>156.199997</ele>
<time>2022-10-14T06:25:52.000Z</time>
</trkpt>
<trkpt lat="32.6114520" lon="35.1195470">
<ele>156.399994</ele>
<time>2022-10-14T06:25:53.000Z</time>
</trkpt>
<trkpt lat="32.6114470" lon="35.1195690">
<ele>156.799988</ele>
<time>2022-10-14T06:25:54.000Z</time>
</trkpt>
<trkpt lat="32.6114030" lon="35.1196900">
<ele>158.000000</ele>
<time>2022-10-14T06:26:00.000Z</time>
</trkpt>
<trkpt lat="32.6113850" lon="35.1197230">
<ele>158.400009</ele>
<time>2022-10-14T06:26:02.000Z</time>
</trkpt>
<trkpt lat="32.6113100" lon="35.1198310">
<ele>159.799988</ele>
<time>2022-10-14T06:26:09.000Z</time>
</trkpt>
<trkpt lat="32.6113000" lon="35.1198440">
<ele>160.000000</ele>
<time>2022-10-14T06:26:10.000Z</time>
</trkpt>
<trkpt lat="32.6112720" lon="35.1198870">
<ele>160.600006</ele>
<time>2022-10-14T06:26:13.000Z</time>
</trkpt>
<trkpt lat="32.6112190" lon="35.1199400">
<ele>161.400009</ele>
<time>2022-10-14T06:26:18.000Z</time>
</trkpt>
<trkpt lat="32.6111900" lon="35.1199660">
<ele>161.999985</ele>
<time>2022-10-14T06:26:21.000Z</time>
</trkpt>
<trkpt lat="32.6111710" lon="35.1199780">
<ele>162.400009</ele>
<time>2022-10-14T06:26:23.000Z</time>
</trkpt>
<trkpt lat="32.6111300" lon="35.1200190">
<ele>162.800003</ele>
<time>2022-10-14T06:26:27.000Z</time>
</trkpt>
<trkpt lat="32.6110920" lon="35.1200460">
<ele>163.399994</ele>
<time>2022-10-14T06:26:30.000Z</time>
</trkpt>
<trkpt lat="32.6110800" lon="35.1200520">
<ele>163.600006</ele>
<time>2022-10-14T06:26:31.000Z</time>
</trkpt>
<trkpt lat="32.6110600" lon="35.1200650">
<ele>164.000000</ele>
<time>2022-10-14T06:26:33.000Z</time>
</trkpt>
<trkpt lat="32.6110260" lon="35.1200890">
<ele>164.800003</ele>
<time>2022-10-14T06:26:37.000Z</time>
</trkpt>
<trkpt lat="32.6109980" lon="35.1201190">
<ele>165.400009</ele>
<time>2022-10-14T06:26:40.000Z</time>
</trkpt>
<trkpt lat="32.6109280" lon="35.1201690">
<ele>167.000000</ele>
<time>2022-10-14T06:26:47.000Z</time>
</trkpt>
<trkpt lat="32.6108910" lon="35.1201970">
<ele>167.600006</ele>
<time>2022-10-14T06:26:50.000Z</time>
</trkpt>
<trkpt lat="32.6108470" lon="35.1202350">
<ele>168.199997</ele>
<time>2022-10-14T06:26:54.000Z</time>
</trkpt>
<trkpt lat="32.6108080" lon="35.1202740">
<ele>168.800003</ele>
<time>2022-10-14T06:26:58.000Z</time>
</trkpt>
<trkpt lat="32.6107840" lon="35.1202860">
<ele>169.199997</ele>
<time>2022-10-14T06:27:00.000Z</time>
</trkpt>
<trkpt lat="32.6107750" lon="35.1202940">
<ele>169.199997</ele>
<time>2022-10-14T06:27:01.000Z</time>
</trkpt>
<trkpt lat="32.6107690" lon="35.1203030">
<ele>169.400009</ele>
<time>2022-10-14T06:27:02.000Z</time>
</trkpt>
<trkpt lat="32.6107640" lon="35.1204050">
<ele>169.599991</ele>
<time>2022-10-14T06:27:07.000Z</time>
</trkpt>
<trkpt lat="32.6107520" lon="35.1204430">
<ele>169.199997</ele>
<time>2022-10-14T06:27:08.000Z</time>
</trkpt>
<trkpt lat="32.6107310" lon="35.1205310">
<ele>168.800003</ele>
<time>2022-10-14T06:27:11.000Z</time>
</trkpt>
<trkpt lat="32.6107260" lon="35.1205540">
<ele>168.800003</ele>
<time>2022-10-14T06:27:12.000Z</time>
</trkpt>
<trkpt lat="32.6107190" lon="35.1206040">
<ele>168.800003</ele>
<time>2022-10-14T06:27:14.000Z</time>
</trkpt>
<trkpt lat="32.6106990" lon="35.1206790">
<ele>169.199997</ele>
<time>2022-10-14T06:27:18.000Z</time>
</trkpt>
<trkpt lat="32.6106880" lon="35.1207490">
<ele>169.800003</ele>
<time>2022-10-14T06:27:22.000Z</time>
</trkpt>
<trkpt lat="32.6106830" lon="35.1207630">
<ele>170.000000</ele>
<time>2022-10-14T06:27:23.000Z</time>
</trkpt>
<trkpt lat="32.6106740" lon="35.1207970">
<ele>170.000000</ele>
<time>2022-10-14T06:27:25.000Z</time>
</trkpt>
<trkpt lat="32.6107560" lon="35.1209550">
<ele>170.199997</ele>
<time>2022-10-14T06:27:31.000Z</time>
</trkpt>
<trkpt lat="32.6107950" lon="35.1210120">
<ele>170.000000</ele>
<time>2022-10-14T06:27:33.000Z</time>
</trkpt>
<trkpt lat="32.6108450" lon="35.1210360">
<ele>170.199997</ele>
<time>2022-10-14T06:27:35.000Z</time>
</trkpt>
<trkpt lat="32.6109320" lon="35.1210770">
<ele>170.600006</ele>
<time>2022-10-14T06:27:39.000Z</time>
</trkpt>
<trkpt lat="32.6109780" lon="35.1210810">
<ele>170.600006</ele>
<time>2022-10-14T06:27:41.000Z</time>
</trkpt>
<trkpt lat="32.6110480" lon="35.1210690">
<ele>170.799988</ele>
<time>2022-10-14T06:27:44.000Z</time>
</trkpt>
<trkpt lat="32.6111230" lon="35.1210910">
<ele>170.799988</ele>
<time>2022-10-14T06:27:47.000Z</time>
</trkpt>
<trkpt lat="32.6111520" lon="35.1211090">
<ele>170.799988</ele>
<time>2022-10-14T06:27:49.000Z</time>
</trkpt>
<trkpt lat="32.6111740" lon="35.1211170">
<ele>171.000000</ele>
<time>2022-10-14T06:27:50.000Z</time>
</trkpt>
<trkpt lat="32.6112260" lon="35.1211340">
<ele>171.200012</ele>
<time>2022-10-14T06:27:52.000Z</time>
</trkpt>
<trkpt lat="32.6112800" lon="35.1211680">
<ele>171.200012</ele>
<time>2022-10-14T06:27:54.000Z</time>
</trkpt>
<trkpt lat="32.6113190" lon="35.1212070">
<ele>171.399994</ele>
<time>2022-10-14T06:27:56.000Z</time>
</trkpt>
<trkpt lat="32.6113300" lon="35.1212260">
<ele>171.600006</ele>
<time>2022-10-14T06:27:57.000Z</time>
</trkpt>
<trkpt lat="32.6113490" lon="35.1212650">
<ele>171.800003</ele>
<time>2022-10-14T06:27:59.000Z</time>
</trkpt>
<trkpt lat="32.6114400" lon="35.1213600">
<ele>171.800003</ele>
<time>2022-10-14T06:28:04.000Z</time>
</trkpt>
<trkpt lat="32.6115190" lon="35.1215140">
<ele>171.399994</ele>
<time>2022-10-14T06:28:09.000Z</time>
</trkpt>
<trkpt lat="32.6115940" lon="35.1216120">
<ele>171.000000</ele>
<time>2022-10-14T06:28:13.000Z</time>
</trkpt>
<trkpt lat="32.6116210" lon="35.1216650">
<ele>170.600006</ele>
<time>2022-10-14T06:28:15.000Z</time>
</trkpt>
<trkpt lat="32.6116410" lon="35.1217200">
<ele>170.199997</ele>
<time>2022-10-14T06:28:17.000Z</time>
</trkpt>
<trkpt lat="32.6116620" lon="35.1217550">
<ele>170.000000</ele>
<time>2022-10-14T06:28:19.000Z</time>
</trkpt>
<trkpt lat="32.6116670" lon="35.1217740">
<ele>169.800003</ele>
<time>2022-10-14T06:28:20.000Z</time>
</trkpt>
<trkpt lat="32.6116670" lon="35.1218140">
<ele>169.800003</ele>
<time>2022-10-14T06:28:22.000Z</time>
</trkpt>
<trkpt lat="32.6116400" lon="35.1218340">
<ele>169.800003</ele>
<time>2022-10-14T06:28:24.000Z</time>
</trkpt>
<trkpt lat="32.6116270" lon="35.1218340">
<ele>169.800003</ele>
<time>2022-10-14T06:28:25.000Z</time>
</trkpt>
<trkpt lat="32.6116040" lon="35.1218110">
<ele>170.399994</ele>
<time>2022-10-14T06:28:27.000Z</time>
</trkpt>
<trkpt lat="32.6115900" lon="35.1217720">
<ele>170.799988</ele>
<time>2022-10-14T06:28:29.000Z</time>
</trkpt>
<trkpt lat="32.6115820" lon="35.1217540">
<ele>171.000000</ele>
<time>2022-10-14T06:28:30.000Z</time>
</trkpt>
<trkpt lat="32.6115070" lon="35.1215920">
<ele>172.199997</ele>
<time>2022-10-14T06:28:38.000Z</time>
</trkpt>
<trkpt lat="32.6114560" lon="35.1215440">
<ele>172.800003</ele>
<time>2022-10-14T06:28:41.000Z</time>
</trkpt>
<trkpt lat="32.6114440" lon="35.1215260">
<ele>173.000015</ele>
<time>2022-10-14T06:28:42.000Z</time>
</trkpt>
<trkpt lat="32.6114240" lon="35.1214760">
<ele>173.199997</ele>
<time>2022-10-14T06:28:44.000Z</time>
</trkpt>
<trkpt lat="32.6113420" lon="35.1214050">
<ele>173.400009</ele>
<time>2022-10-14T06:28:48.000Z</time>
</trkpt>
<trkpt lat="32.6112440" lon="35.1213620">
<ele>174.200012</ele>
<time>2022-10-14T06:28:52.000Z</time>
</trkpt>
<trkpt lat="32.6112190" lon="35.1213550">
<ele>174.399994</ele>
<time>2022-10-14T06:28:53.000Z</time>
</trkpt>
<trkpt lat="32.6111950" lon="35.1213550">
<ele>174.600006</ele>
<time>2022-10-14T06:28:54.000Z</time>
</trkpt>
<trkpt lat="32.6111480" lon="35.1213720">
<ele>175.199997</ele>
<time>2022-10-14T06:28:56.000Z</time>
</trkpt>
<trkpt lat="32.6111050" lon="35.1213780">
<ele>175.599991</ele>
<time>2022-10-14T06:28:58.000Z</time>
</trkpt>
<trkpt lat="32.6110290" lon="35.1212950">
<ele>175.800003</ele>
<time>2022-10-14T06:29:02.000Z</time>
</trkpt>
<trkpt lat="32.6109710" lon="35.1212750">
<ele>175.599991</ele>
<time>2022-10-14T06:29:04.000Z</time>
</trkpt>
<trkpt lat="32.6109440" lon="35.1212650">
<ele>175.599991</ele>
<time>2022-10-14T06:29:05.000Z</time>
</trkpt>
<trkpt lat="32.6109130" lon="35.1212650">
<ele>175.599991</ele>
<time>2022-10-14T06:29:06.000Z</time>
</trkpt>
<trkpt lat="32.6108160" lon="35.1213000">
<ele>176.199997</ele>
<time>2022-10-14T06:29:10.000Z</time>
</trkpt>
<trkpt lat="32.6107850" lon="35.1213170">
<ele>176.800003</ele>
<time>2022-10-14T06:29:12.000Z</time>
</trkpt>
<trkpt lat="32.6106990" lon="35.1213390">
<ele>178.200012</ele>
<time>2022-10-14T06:29:20.000Z</time>
</trkpt>
<trkpt lat="32.6106920" lon="35.1213500">
<ele>178.200012</ele>
<time>2022-10-14T06:29:21.000Z</time>
</trkpt>
<trkpt lat="32.6106900" lon="35.1213660">
<ele>178.200012</ele>
<time>2022-10-14T06:29:22.000Z</time>
</trkpt>
<trkpt lat="32.6106880" lon="35.1213740">
<ele>178.200012</ele>
<time>2022-10-14T06:29:23.000Z</time>
</trkpt>
<trkpt lat="32.6107040" lon="35.1213740">
<ele>178.399994</ele>
<time>2022-10-14T06:29:28.000Z</time>
</trkpt>
<trkpt lat="32.6107010" lon="35.1213760">
<ele>178.200012</ele>
<time>2022-10-14T06:31:28.000Z</time>
</trkpt>
<trkpt lat="32.6107120" lon="35.1213980">
<ele>178.200012</ele>
<time>2022-10-14T06:31:46.000Z</time>
</trkpt>
<trkpt lat="32.6107250" lon="35.1214070">
<ele>178.200012</ele>
<time>2022-10-14T06:31:52.000Z</time>
</trkpt>
<trkpt lat="32.6107330" lon="35.1214070">
<ele>178.200012</ele>
<time>2022-10-14T06:31:55.000Z</time>
</trkpt>
<trkpt lat="32.6107460" lon="35.1213880">
<ele>178.200012</ele>
<time>2022-10-14T06:31:58.000Z</time>
</trkpt>
<trkpt lat="32.6107850" lon="35.1213610">
<ele>178.200012</ele>
<time>2022-10-14T06:32:02.000Z</time>
</trkpt>
<trkpt lat="32.6107950" lon="35.1213500">
<ele>178.399994</ele>
<time>2022-10-14T06:32:04.000Z</time>
</trkpt>
<trkpt lat="32.6107940" lon="35.1213630">
<ele>178.600006</ele>
<time>2022-10-14T06:32:37.000Z</time>
</trkpt>
<trkpt lat="32.6107870" lon="35.1213710">
<ele>178.600006</ele>
<time>2022-10-14T06:32:38.000Z</time>
</trkpt>
<trkpt lat="32.6107700" lon="35.1213790">
<ele>178.600006</ele>
<time>2022-10-14T06:32:40.000Z</time>
</trkpt>
<trkpt lat="32.6107460" lon="35.1213860">
<ele>178.800003</ele>
<time>2022-10-14T06:32:43.000Z</time>
</trkpt>
<trkpt lat="32.6107350" lon="35.1213970">
<ele>179.199997</ele>
<time>2022-10-14T06:33:11.000Z</time>
</trkpt>
<trkpt lat="32.6107260" lon="35.1214070">
<ele>179.199997</ele>
<time>2022-10-14T06:33:13.000Z</time>
</trkpt>
<trkpt lat="32.6107150" lon="35.1214110">
<ele>179.199997</ele>
<time>2022-10-14T06:33:15.000Z</time>
</trkpt>
<trkpt lat="32.6107190" lon="35.1214170">
<ele>179.199997</ele>
<time>2022-10-14T06:33:17.000Z</time>
</trkpt>
<trkpt lat="32.6107510" lon="35.1213920">
<ele>179.400009</ele>
<time>2022-10-14T06:33:24.000Z</time>
</trkpt>
<trkpt lat="32.6107500" lon="35.1213550">
<ele>179.400009</ele>
<time>2022-10-14T06:33:26.000Z</time>
</trkpt>
<trkpt lat="32.6107220" lon="35.1213340">
<ele>179.400009</ele>
<time>2022-10-14T06:33:28.000Z</time>
</trkpt>
<trkpt lat="32.6107000" lon="35.1213290">
<ele>179.199997</ele>
<time>2022-10-14T06:33:29.000Z</time>
</trkpt>
<trkpt lat="32.6106260" lon="35.1213310">
<ele>179.199997</ele>
<time>2022-10-14T06:33:32.000Z</time>
</trkpt>
<trkpt lat="32.6105910" lon="35.1213480">
<ele>179.199997</ele>
<time>2022-10-14T06:33:34.000Z</time>
</trkpt>
<trkpt lat="32.6105780" lon="35.1213900">
<ele>179.599991</ele>
<time>2022-10-14T06:33:36.000Z</time>
</trkpt>
<trkpt lat="32.6105830" lon="35.1214230">
<ele>180.000015</ele>
<time>2022-10-14T06:33:38.000Z</time>
</trkpt>
<trkpt lat="32.6106020" lon="35.1214380">
<ele>180.600006</ele>
<time>2022-10-14T06:33:40.000Z</time>
</trkpt>
<trkpt lat="32.6107080" lon="35.1214930">
<ele>181.000000</ele>
<time>2022-10-14T06:33:46.000Z</time>
</trkpt>
<trkpt lat="32.6107970" lon="35.1215320">
<ele>181.399994</ele>
<time>2022-10-14T06:33:51.000Z</time>
</trkpt>
<trkpt lat="32.6108160" lon="35.1215390">
<ele>181.399994</ele>
<time>2022-10-14T06:33:52.000Z</time>
</trkpt>
<trkpt lat="32.6108550" lon="35.1215550">
<ele>181.600006</ele>
<time>2022-10-14T06:33:54.000Z</time>
</trkpt>
<trkpt lat="32.6109910" lon="35.1216340">
<ele>181.799988</ele>
<time>2022-10-14T06:34:00.000Z</time>
</trkpt>
<trkpt lat="32.6111100" lon="35.1217290">
<ele>182.000000</ele>
<time>2022-10-14T06:34:05.000Z</time>
</trkpt>
<trkpt lat="32.6111340" lon="35.1217490">
<ele>182.000000</ele>
<time>2022-10-14T06:34:06.000Z</time>
</trkpt>
<trkpt lat="32.6111610" lon="35.1217710">
<ele>182.000000</ele>
<time>2022-10-14T06:34:07.000Z</time>
</trkpt>
<trkpt lat="32.6112650" lon="35.1218890">
<ele>181.799988</ele>
<time>2022-10-14T06:34:11.000Z</time>
</trkpt>
<trkpt lat="32.6113150" lon="35.1219650">
<ele>181.799988</ele>
<time>2022-10-14T06:34:13.000Z</time>
</trkpt>
<trkpt lat="32.6113410" lon="35.1220090">
<ele>181.799988</ele>
<time>2022-10-14T06:34:14.000Z</time>
</trkpt>
<trkpt lat="32.6115270" lon="35.1223280">
<ele>181.199997</ele>
<time>2022-10-14T06:34:21.000Z</time>
</trkpt>
<trkpt lat="32.6116220" lon="35.1224380">
<ele>181.199997</ele>
<time>2022-10-14T06:34:24.000Z</time>
</trkpt>
<trkpt lat="32.6116820" lon="35.1225110">
<ele>181.399994</ele>
<time>2022-10-14T06:34:26.000Z</time>
</trkpt>
<trkpt lat="32.6117310" lon="35.1225870">
<ele>182.000000</ele>
<time>2022-10-14T06:34:29.000Z</time>
</trkpt>
<trkpt lat="32.6117550" lon="35.1226120">
<ele>183.199997</ele>
<time>2022-10-14T06:34:31.000Z</time>
</trkpt>
<trkpt lat="32.6117690" lon="35.1226160">
<ele>183.800003</ele>
<time>2022-10-14T06:34:32.000Z</time>
</trkpt>
<trkpt lat="32.6117850" lon="35.1226240">
<ele>184.000000</ele>
<time>2022-10-14T06:34:33.000Z</time>
</trkpt>
<trkpt lat="32.6118910" lon="35.1226390">
<ele>184.600006</ele>
<time>2022-10-14T06:34:37.000Z</time>
</trkpt>
<trkpt lat="32.6119160" lon="35.1226410">
<ele>184.600006</ele>
<time>2022-10-14T06:34:38.000Z</time>
</trkpt>
<trkpt lat="32.6120720" lon="35.1226490">
<ele>184.399994</ele>
<time>2022-10-14T06:34:42.000Z</time>
</trkpt>
<trkpt lat="32.6121090" lon="35.1226520">
<ele>184.199997</ele>
<time>2022-10-14T06:34:43.000Z</time>
</trkpt>
<trkpt lat="32.6121910" lon="35.1226580">
<ele>184.399994</ele>
<time>2022-10-14T06:34:45.000Z</time>
</trkpt>
<trkpt lat="32.6122260" lon="35.1226590">
<ele>184.399994</ele>
<time>2022-10-14T06:34:46.000Z</time>
</trkpt>
<trkpt lat="32.6123060" lon="35.1226600">
<ele>185.000000</ele>
<time>2022-10-14T06:34:49.000Z</time>
</trkpt>
<trkpt lat="32.6123330" lon="35.1226550">
<ele>185.200012</ele>
<time>2022-10-14T06:34:50.000Z</time>
</trkpt>
<trkpt lat="32.6124180" lon="35.1226570">
<ele>185.399994</ele>
<time>2022-10-14T06:34:53.000Z</time>
</trkpt>
<trkpt lat="32.6124530" lon="35.1226630">
<ele>185.399994</ele>
<time>2022-10-14T06:34:54.000Z</time>
</trkpt>
<trkpt lat="32.6124890" lon="35.1226650">
<ele>185.600006</ele>
<time>2022-10-14T06:34:55.000Z</time>
</trkpt>
<trkpt lat="32.6126530" lon="35.1227100">
<ele>185.200012</ele>
<time>2022-10-14T06:35:00.000Z</time>
</trkpt>
<trkpt lat="32.6128220" lon="35.1228120">
<ele>184.799988</ele>
<time>2022-10-14T06:35:04.000Z</time>
</trkpt>
<trkpt lat="32.6129440" lon="35.1228670">
<ele>184.600006</ele>
<time>2022-10-14T06:35:07.000Z</time>
</trkpt>
<trkpt lat="32.6130050" lon="35.1228860">
<ele>184.600006</ele>
<time>2022-10-14T06:35:09.000Z</time>
</trkpt>
<trkpt lat="32.6130560" lon="35.1228910">
<ele>184.600006</ele>
<time>2022-10-14T06:35:11.000Z</time>
</trkpt>
<trkpt lat="32.6130890" lon="35.1228870">
<ele>184.600006</ele>
<time>2022-10-14T06:35:12.000Z</time>
</trkpt>
<trkpt lat="32.6131280" lon="35.1228670">
<ele>184.600006</ele>
<time>2022-10-14T06:35:13.000Z</time>
</trkpt>
<trkpt lat="32.6132030" lon="35.1228020">
<ele>184.600006</ele>
<time>2022-10-14T06:35:15.000Z</time>
</trkpt>
<trkpt lat="32.6133710" lon="35.1225910">
<ele>185.200012</ele>
<time>2022-10-14T06:35:21.000Z</time>
</trkpt>
<trkpt lat="32.6134960" lon="35.1224860">
<ele>185.600006</ele>
<time>2022-10-14T06:35:25.000Z</time>
</trkpt>
<trkpt lat="32.6135710" lon="35.1224660">
<ele>185.600006</ele>
<time>2022-10-14T06:35:27.000Z</time>
</trkpt>
<trkpt lat="32.6136100" lon="35.1224670">
<ele>185.600006</ele>
<time>2022-10-14T06:35:28.000Z</time>
</trkpt>
<trkpt lat="32.6136480" lon="35.1224780">
<ele>185.600006</ele>
<time>2022-10-14T06:35:29.000Z</time>
</trkpt>
<trkpt lat="32.6136860" lon="35.1225010">
<ele>185.800003</ele>
<time>2022-10-14T06:35:30.000Z</time>
</trkpt>
<trkpt lat="32.6138370" lon="35.1225650">
<ele>185.800003</ele>
<time>2022-10-14T06:35:34.000Z</time>
</trkpt>
<trkpt lat="32.6141010" lon="35.1227180">
<ele>185.000000</ele>
<time>2022-10-14T06:35:40.000Z</time>
</trkpt>
<trkpt lat="32.6141870" lon="35.1227450">
<ele>184.600006</ele>
<time>2022-10-14T06:35:42.000Z</time>
</trkpt>
<trkpt lat="32.6142880" lon="35.1228270">
<ele>183.599991</ele>
<time>2022-10-14T06:35:45.000Z</time>
</trkpt>
<trkpt lat="32.6143250" lon="35.1228690">
<ele>183.400009</ele>
<time>2022-10-14T06:35:46.000Z</time>
</trkpt>
<trkpt lat="32.6143830" lon="35.1229740">
<ele>182.600006</ele>
<time>2022-10-14T06:35:48.000Z</time>
</trkpt>
<trkpt lat="32.6143960" lon="35.1230310">
<ele>182.199997</ele>
<time>2022-10-14T06:35:49.000Z</time>
</trkpt>
<trkpt lat="32.6144290" lon="35.1232540">
<ele>181.799988</ele>
<time>2022-10-14T06:35:53.000Z</time>
</trkpt>
<trkpt lat="32.6144450" lon="35.1233060">
<ele>181.799988</ele>
<time>2022-10-14T06:35:54.000Z</time>
</trkpt>
<trkpt lat="32.6144710" lon="35.1234040">
<ele>182.000000</ele>
<time>2022-10-14T06:35:56.000Z</time>
</trkpt>
<trkpt lat="32.6144810" lon="35.1234500">
<ele>182.199997</ele>
<time>2022-10-14T06:35:57.000Z</time>
</trkpt>
<trkpt lat="32.6144980" lon="35.1234910">
<ele>182.600006</ele>
<time>2022-10-14T06:35:58.000Z</time>
</trkpt>
<trkpt lat="32.6146660" lon="35.1236700">
<ele>183.599991</ele>
<time>2022-10-14T06:36:05.000Z</time>
</trkpt>
<trkpt lat="32.6147320" lon="35.1237110">
<ele>183.800003</ele>
<time>2022-10-14T06:36:07.000Z</time>
</trkpt>
<trkpt lat="32.6147870" lon="35.1237640">
<ele>184.399994</ele>
<time>2022-10-14T06:36:09.000Z</time>
</trkpt>
<trkpt lat="32.6148390" lon="35.1238280">
<ele>185.200012</ele>
<time>2022-10-14T06:36:12.000Z</time>
</trkpt>
<trkpt lat="32.6148590" lon="35.1238410">
<ele>185.399994</ele>
<time>2022-10-14T06:36:13.000Z</time>
</trkpt>
<trkpt lat="32.6148830" lon="35.1238480">
<ele>185.399994</ele>
<time>2022-10-14T06:36:14.000Z</time>
</trkpt>
<trkpt lat="32.6149350" lon="35.1238790">
<ele>185.600006</ele>
<time>2022-10-14T06:36:16.000Z</time>
</trkpt>
<trkpt lat="32.6149840" lon="35.1239300">
<ele>185.800003</ele>
<time>2022-10-14T06:36:18.000Z</time>
</trkpt>
<trkpt lat="32.6150100" lon="35.1239480">
<ele>185.800003</ele>
<time>2022-10-14T06:36:19.000Z</time>
</trkpt>
<trkpt lat="32.6150690" lon="35.1239540">
<ele>185.800003</ele>
<time>2022-10-14T06:36:21.000Z</time>
</trkpt>
<trkpt lat="32.6151320" lon="35.1239300">
<ele>185.800003</ele>
<time>2022-10-14T06:36:23.000Z</time>
</trkpt>
<trkpt lat="32.6151630" lon="35.1239110">
<ele>185.800003</ele>
<time>2022-10-14T06:36:24.000Z</time>
</trkpt>
<trkpt lat="32.6152960" lon="35.1238230">
<ele>186.000000</ele>
<time>2022-10-14T06:36:28.000Z</time>
</trkpt>
<trkpt lat="32.6153510" lon="35.1237780">
<ele>186.000000</ele>
<time>2022-10-14T06:36:30.000Z</time>
</trkpt>
<trkpt lat="32.6154170" lon="35.1236540">
<ele>186.800003</ele>
<time>2022-10-14T06:36:34.000Z</time>
</trkpt>
<trkpt lat="32.6154520" lon="35.1236200">
<ele>187.199997</ele>
<time>2022-10-14T06:36:36.000Z</time>
</trkpt>
<trkpt lat="32.6155010" lon="35.1236300">
<ele>187.599991</ele>
<time>2022-10-14T06:36:38.000Z</time>
</trkpt>
<trkpt lat="32.6155160" lon="35.1236560">
<ele>187.599991</ele>
<time>2022-10-14T06:36:39.000Z</time>
</trkpt>
<trkpt lat="32.6155420" lon="35.1237580">
<ele>187.400009</ele>
<time>2022-10-14T06:36:42.000Z</time>
</trkpt>
<trkpt lat="32.6155400" lon="35.1237940">
<ele>187.199997</ele>
<time>2022-10-14T06:36:43.000Z</time>
</trkpt>
<trkpt lat="32.6155270" lon="35.1238330">
<ele>187.000015</ele>
<time>2022-10-14T06:36:44.000Z</time>
</trkpt>
<trkpt lat="32.6154030" lon="35.1240280">
<ele>184.799988</ele>
<time>2022-10-14T06:36:51.000Z</time>
</trkpt>
<trkpt lat="32.6153900" lon="35.1240560">
<ele>184.799988</ele>
<time>2022-10-14T06:36:52.000Z</time>
</trkpt>
<trkpt lat="32.6153450" lon="35.1241110">
<ele>184.199997</ele>
<time>2022-10-14T06:36:54.000Z</time>
</trkpt>
<trkpt lat="32.6152540" lon="35.1241610">
<ele>183.800003</ele>
<time>2022-10-14T06:36:57.000Z</time>
</trkpt>
<trkpt lat="32.6152220" lon="35.1241780">
<ele>183.800003</ele>
<time>2022-10-14T06:36:58.000Z</time>
</trkpt>
<trkpt lat="32.6152000" lon="35.1242050">
<ele>183.800003</ele>
<time>2022-10-14T06:36:59.000Z</time>
</trkpt>
<trkpt lat="32.6151830" lon="35.1242370">
<ele>183.800003</ele>
<time>2022-10-14T06:37:00.000Z</time>
</trkpt>
<trkpt lat="32.6151730" lon="35.1243220">
<ele>183.599991</ele>
<time>2022-10-14T06:37:02.000Z</time>
</trkpt>
<trkpt lat="32.6151810" lon="35.1243550">
<ele>183.599991</ele>
<time>2022-10-14T06:37:03.000Z</time>
</trkpt>
<trkpt lat="32.6152020" lon="35.1243870">
<ele>183.199997</ele>
<time>2022-10-14T06:37:04.000Z</time>
</trkpt>
<trkpt lat="32.6152270" lon="35.1243920">
<ele>182.800003</ele>
<time>2022-10-14T06:37:05.000Z</time>
</trkpt>
<trkpt lat="32.6152850" lon="35.1243650">
<ele>182.000000</ele>
<time>2022-10-14T06:37:07.000Z</time>
</trkpt>
<trkpt lat="32.6153460" lon="35.1243250">
<ele>181.799988</ele>
<time>2022-10-14T06:37:09.000Z</time>
</trkpt>
<trkpt lat="32.6153790" lon="35.1243080">
<ele>181.600006</ele>
<time>2022-10-14T06:37:10.000Z</time>
</trkpt>
<trkpt lat="32.6154130" lon="35.1242950">
<ele>181.600006</ele>
<time>2022-10-14T06:37:11.000Z</time>
</trkpt>
<trkpt lat="32.6154890" lon="35.1242660">
<ele>181.600006</ele>
<time>2022-10-14T06:37:13.000Z</time>
</trkpt>
<trkpt lat="32.6155320" lon="35.1242450">
<ele>181.600006</ele>
<time>2022-10-14T06:37:14.000Z</time>
</trkpt>
<trkpt lat="32.6156260" lon="35.1241520">
<ele>182.000000</ele>
<time>2022-10-14T06:37:17.000Z</time>
</trkpt>
<trkpt lat="32.6156600" lon="35.1241320">
<ele>182.399994</ele>
<time>2022-10-14T06:37:18.000Z</time>
</trkpt>
<trkpt lat="32.6157110" lon="35.1241220">
<ele>183.000000</ele>
<time>2022-10-14T06:37:20.000Z</time>
</trkpt>
<trkpt lat="32.6157810" lon="35.1240860">
<ele>183.599991</ele>
<time>2022-10-14T06:37:23.000Z</time>
</trkpt>
<trkpt lat="32.6157960" lon="35.1240550">
<ele>184.199997</ele>
<time>2022-10-14T06:37:25.000Z</time>
</trkpt>
<trkpt lat="32.6157900" lon="35.1240250">
<ele>184.399994</ele>
<time>2022-10-14T06:37:26.000Z</time>
</trkpt>
<trkpt lat="32.6157580" lon="35.1239780">
<ele>185.000000</ele>
<time>2022-10-14T06:37:29.000Z</time>
</trkpt>
<trkpt lat="32.6157430" lon="35.1239140">
<ele>185.800003</ele>
<time>2022-10-14T06:37:32.000Z</time>
</trkpt>
<trkpt lat="32.6157450" lon="35.1238710">
<ele>186.400009</ele>
<time>2022-10-14T06:37:34.000Z</time>
</trkpt>
<trkpt lat="32.6157730" lon="35.1238600">
<ele>186.800003</ele>
<time>2022-10-14T06:37:36.000Z</time>
</trkpt>
<trkpt lat="32.6157800" lon="35.1238520">
<ele>187.000015</ele>
<time>2022-10-14T06:37:37.000Z</time>
</trkpt>
<trkpt lat="32.6158480" lon="35.1238190">
<ele>188.000000</ele>
<time>2022-10-14T06:37:42.000Z</time>
</trkpt>
<trkpt lat="32.6159760" lon="35.1238680">
<ele>188.600006</ele>
<time>2022-10-14T06:37:48.000Z</time>
</trkpt>
<trkpt lat="32.6159960" lon="35.1238740">
<ele>188.799988</ele>
<time>2022-10-14T06:37:49.000Z</time>
</trkpt>
<trkpt lat="32.6160120" lon="35.1238780">
<ele>188.799988</ele>
<time>2022-10-14T06:37:50.000Z</time>
</trkpt>
<trkpt lat="32.6160790" lon="35.1238840">
<ele>189.399994</ele>
<time>2022-10-14T06:37:54.000Z</time>
</trkpt>
<trkpt lat="32.6160930" lon="35.1238850">
<ele>189.399994</ele>
<time>2022-10-14T06:37:55.000Z</time>
</trkpt>
<trkpt lat="32.6161270" lon="35.1238660">
<ele>189.800003</ele>
<time>2022-10-14T06:37:57.000Z</time>
</trkpt>
<trkpt lat="32.6161410" lon="35.1238600">
<ele>189.800003</ele>
<time>2022-10-14T06:37:58.000Z</time>
</trkpt>
<trkpt lat="32.6161550" lon="35.1238600">
<ele>190.000000</ele>
<time>2022-10-14T06:37:59.000Z</time>
</trkpt>
<trkpt lat="32.6162150" lon="35.1239010">
<ele>190.599991</ele>
<time>2022-10-14T06:38:02.000Z</time>
</trkpt>
<trkpt lat="32.6162860" lon="35.1239200">
<ele>190.800003</ele>
<time>2022-10-14T06:38:05.000Z</time>
</trkpt>
<trkpt lat="32.6162960" lon="35.1239250">
<ele>190.800003</ele>
<time>2022-10-14T06:38:06.000Z</time>
</trkpt>
<trkpt lat="32.6163130" lon="35.1239320">
<ele>190.800003</ele>
<time>2022-10-14T06:38:07.000Z</time>
</trkpt>
<trkpt lat="32.6164080" lon="35.1239360">
<ele>190.800003</ele>
<time>2022-10-14T06:38:12.000Z</time>
</trkpt>
<trkpt lat="32.6164780" lon="35.1239470">
<ele>191.000000</ele>
<time>2022-10-14T06:38:16.000Z</time>
</trkpt>
<trkpt lat="32.6165000" lon="35.1239570">
<ele>191.199997</ele>
<time>2022-10-14T06:38:17.000Z</time>
</trkpt>
<trkpt lat="32.6165250" lon="35.1239590">
<ele>191.399994</ele>
<time>2022-10-14T06:38:18.000Z</time>
</trkpt>
<trkpt lat="32.6165680" lon="35.1239830">
<ele>191.600006</ele>
<time>2022-10-14T06:38:20.000Z</time>
</trkpt>
<trkpt lat="32.6166170" lon="35.1240210">
<ele>191.799988</ele>
<time>2022-10-14T06:38:22.000Z</time>
</trkpt>
<trkpt lat="32.6167070" lon="35.1241210">
<ele>192.399994</ele>
<time>2022-10-14T06:38:27.000Z</time>
</trkpt>
<trkpt lat="32.6167220" lon="35.1241620">
<ele>192.800003</ele>
<time>2022-10-14T06:38:29.000Z</time>
</trkpt>
<trkpt lat="32.6167270" lon="35.1241830">
<ele>192.800003</ele>
<time>2022-10-14T06:38:30.000Z</time>
</trkpt>
<trkpt lat="32.6167720" lon="35.1242920">
<ele>193.199997</ele>
<time>2022-10-14T06:38:34.000Z</time>
</trkpt>
<trkpt lat="32.6167940" lon="35.1243100">
<ele>193.599991</ele>
<time>2022-10-14T06:38:36.000Z</time>
</trkpt>
<trkpt lat="32.6168070" lon="35.1243090">
<ele>193.800003</ele>
<time>2022-10-14T06:38:37.000Z</time>
</trkpt>
<trkpt lat="32.6168190" lon="35.1243040">
<ele>193.999985</ele>
<time>2022-10-14T06:38:38.000Z</time>
</trkpt>
<trkpt lat="32.6168970" lon="35.1243020">
<ele>195.399994</ele>
<time>2022-10-14T06:38:44.000Z</time>
</trkpt>
<trkpt lat="32.6169040" lon="35.1242910">
<ele>195.399994</ele>
<time>2022-10-14T06:38:45.000Z</time>
</trkpt>
<trkpt lat="32.6169080" lon="35.1242760">
<ele>196.000000</ele>
<time>2022-10-14T06:38:47.000Z</time>
</trkpt>
<trkpt lat="32.6169120" lon="35.1242810">
<ele>196.399994</ele>
<time>2022-10-14T06:38:56.000Z</time>
</trkpt>
<trkpt lat="32.6169150" lon="35.1242700">
<ele>196.200012</ele>
<time>2022-10-14T06:39:58.000Z</time>
</trkpt>
<trkpt lat="32.6169300" lon="35.1242340">
<ele>196.200012</ele>
<time>2022-10-14T06:40:01.000Z</time>
</trkpt>
<trkpt lat="32.6169330" lon="35.1241970">
<ele>196.200012</ele>
<time>2022-10-14T06:40:03.000Z</time>
</trkpt>
<trkpt lat="32.6169460" lon="35.1241620">
<ele>196.399994</ele>
<time>2022-10-14T06:40:05.000Z</time>
</trkpt>
<trkpt lat="32.6169860" lon="35.1241130">
<ele>196.800003</ele>
<time>2022-10-14T06:40:08.000Z</time>
</trkpt>
<trkpt lat="32.6169960" lon="35.1240980">
<ele>197.000000</ele>
<time>2022-10-14T06:40:09.000Z</time>
</trkpt>
<trkpt lat="32.6170110" lon="35.1240670">
<ele>197.400009</ele>
<time>2022-10-14T06:40:11.000Z</time>
</trkpt>
<trkpt lat="32.6170150" lon="35.1240540">
<ele>197.599991</ele>
<time>2022-10-14T06:40:12.000Z</time>
</trkpt>
<trkpt lat="32.6170380" lon="35.1240160">
<ele>198.000000</ele>
<time>2022-10-14T06:40:15.000Z</time>
</trkpt>
<trkpt lat="32.6170470" lon="35.1240010">
<ele>198.000000</ele>
<time>2022-10-14T06:40:16.000Z</time>
</trkpt>
<trkpt lat="32.6170880" lon="35.1239610">
<ele>198.800003</ele>
<time>2022-10-14T06:40:19.000Z</time>
</trkpt>
<trkpt lat="32.6171340" lon="35.1239210">
<ele>199.600006</ele>
<time>2022-10-14T06:40:23.000Z</time>
</trkpt>
<trkpt lat="32.6172120" lon="35.1238280">
<ele>200.599991</ele>
<time>2022-10-14T06:40:29.000Z</time>
</trkpt>
<trkpt lat="32.6172570" lon="35.1237610">
<ele>201.199997</ele>
<time>2022-10-14T06:40:32.000Z</time>
</trkpt>
<trkpt lat="32.6172880" lon="35.1236940">
<ele>201.400009</ele>
<time>2022-10-14T06:40:35.000Z</time>
</trkpt>
<trkpt lat="32.6173160" lon="35.1236570">
<ele>201.800003</ele>
<time>2022-10-14T06:40:37.000Z</time>
</trkpt>
<trkpt lat="32.6173500" lon="35.1235840">
<ele>202.199997</ele>
<time>2022-10-14T06:40:40.000Z</time>
</trkpt>
<trkpt lat="32.6173700" lon="35.1235640">
<ele>202.199997</ele>
<time>2022-10-14T06:40:41.000Z</time>
</trkpt>
<trkpt lat="32.6173880" lon="35.1235280">
<ele>202.600006</ele>
<time>2022-10-14T06:40:43.000Z</time>
</trkpt>
<trkpt lat="32.6174320" lon="35.1234840">
<ele>202.799988</ele>
<time>2022-10-14T06:40:46.000Z</time>
</trkpt>
<trkpt lat="32.6175100" lon="35.1234270">
<ele>203.200012</ele>
<time>2022-10-14T06:40:50.000Z</time>
</trkpt>
<trkpt lat="32.6175880" lon="35.1233550">
<ele>203.600006</ele>
<time>2022-10-14T06:40:54.000Z</time>
</trkpt>
<trkpt lat="32.6176090" lon="35.1233330">
<ele>203.600006</ele>
<time>2022-10-14T06:40:55.000Z</time>
</trkpt>
<trkpt lat="32.6176810" lon="35.1232880">
<ele>204.000000</ele>
<time>2022-10-14T06:40:58.000Z</time>
</trkpt>
<trkpt lat="32.6177370" lon="35.1232810">
<ele>204.000000</ele>
<time>2022-10-14T06:41:00.000Z</time>
</trkpt>
<trkpt lat="32.6177710" lon="35.1232970">
<ele>204.400009</ele>
<time>2022-10-14T06:41:02.000Z</time>
</trkpt>
<trkpt lat="32.6178000" lon="35.1233270">
<ele>205.000015</ele>
<time>2022-10-14T06:41:05.000Z</time>
</trkpt>
<trkpt lat="32.6178230" lon="35.1233770">
<ele>205.199997</ele>
<time>2022-10-14T06:41:07.000Z</time>
</trkpt>
<trkpt lat="32.6178270" lon="35.1234380">
<ele>205.400009</ele>
<time>2022-10-14T06:41:09.000Z</time>
</trkpt>
<trkpt lat="32.6178030" lon="35.1235380">
<ele>206.000000</ele>
<time>2022-10-14T06:41:13.000Z</time>
</trkpt>
<trkpt lat="32.6177930" lon="35.1235600">
<ele>206.200012</ele>
<time>2022-10-14T06:41:14.000Z</time>
</trkpt>
<trkpt lat="32.6177750" lon="35.1235820">
<ele>206.200012</ele>
<time>2022-10-14T06:41:15.000Z</time>
</trkpt>
<trkpt lat="32.6177380" lon="35.1236450">
<ele>206.200012</ele>
<time>2022-10-14T06:41:17.000Z</time>
</trkpt>
<trkpt lat="32.6176880" lon="35.1237040">
<ele>205.800003</ele>
<time>2022-10-14T06:41:19.000Z</time>
</trkpt>
<trkpt lat="32.6175970" lon="35.1238120">
<ele>205.199997</ele>
<time>2022-10-14T06:41:22.000Z</time>
</trkpt>
<trkpt lat="32.6175750" lon="35.1238520">
<ele>205.199997</ele>
<time>2022-10-14T06:41:23.000Z</time>
</trkpt>
<trkpt lat="32.6175210" lon="35.1239270">
<ele>204.800003</ele>
<time>2022-10-14T06:41:25.000Z</time>
</trkpt>
<trkpt lat="32.6174870" lon="35.1239760">
<ele>204.599991</ele>
<time>2022-10-14T06:41:26.000Z</time>
</trkpt>
<trkpt lat="32.6174660" lon="35.1240300">
<ele>204.599991</ele>
<time>2022-10-14T06:41:27.000Z</time>
</trkpt>
<trkpt lat="32.6174640" lon="35.1240740">
<ele>204.199997</ele>
<time>2022-10-14T06:41:28.000Z</time>
</trkpt>
<trkpt lat="32.6174810" lon="35.1241410">
<ele>204.000000</ele>
<time>2022-10-14T06:41:30.000Z</time>
</trkpt>
<trkpt lat="32.6175180" lon="35.1241790">
<ele>204.400009</ele>
<time>2022-10-14T06:41:32.000Z</time>
</trkpt>
<trkpt lat="32.6175270" lon="35.1242120">
<ele>204.599991</ele>
<time>2022-10-14T06:41:33.000Z</time>
</trkpt>
<trkpt lat="32.6175420" lon="35.1243170">
<ele>205.400009</ele>
<time>2022-10-14T06:41:37.000Z</time>
</trkpt>
<trkpt lat="32.6175460" lon="35.1243690">
<ele>205.400009</ele>
<time>2022-10-14T06:41:39.000Z</time>
</trkpt>
<trkpt lat="32.6175560" lon="35.1243880">
<ele>205.600006</ele>
<time>2022-10-14T06:41:40.000Z</time>
</trkpt>
<trkpt lat="32.6175800" lon="35.1244130">
<ele>206.000000</ele>
<time>2022-10-14T06:41:42.000Z</time>
</trkpt>
<trkpt lat="32.6175860" lon="35.1244380">
<ele>206.399994</ele>
<time>2022-10-14T06:41:44.000Z</time>
</trkpt>
<trkpt lat="32.6176030" lon="35.1244710">
<ele>207.000000</ele>
<time>2022-10-14T06:41:46.000Z</time>
</trkpt>
<trkpt lat="32.6176760" lon="35.1246350">
<ele>207.199997</ele>
<time>2022-10-14T06:41:52.000Z</time>
</trkpt>
<trkpt lat="32.6176540" lon="35.1246810">
<ele>207.199997</ele>
<time>2022-10-14T06:41:54.000Z</time>
</trkpt>
<trkpt lat="32.6175780" lon="35.1247840">
<ele>207.000000</ele>
<time>2022-10-14T06:41:58.000Z</time>
</trkpt>
<trkpt lat="32.6175650" lon="35.1248230">
<ele>206.799988</ele>
<time>2022-10-14T06:41:59.000Z</time>
</trkpt>
<trkpt lat="32.6175550" lon="35.1248660">
<ele>206.600006</ele>
<time>2022-10-14T06:42:00.000Z</time>
</trkpt>
<trkpt lat="32.6175550" lon="35.1249150">
<ele>206.399994</ele>
<time>2022-10-14T06:42:01.000Z</time>
</trkpt>
<trkpt lat="32.6175660" lon="35.1250120">
<ele>206.200012</ele>
<time>2022-10-14T06:42:03.000Z</time>
</trkpt>
<trkpt lat="32.6175680" lon="35.1251370">
<ele>206.000000</ele>
<time>2022-10-14T06:42:06.000Z</time>
</trkpt>
<trkpt lat="32.6175570" lon="35.1252360">
<ele>205.600006</ele>
<time>2022-10-14T06:42:08.000Z</time>
</trkpt>
<trkpt lat="32.6175350" lon="35.1252780">
<ele>205.400009</ele>
<time>2022-10-14T06:42:09.000Z</time>
</trkpt>
<trkpt lat="32.6174930" lon="35.1253530">
<ele>205.000015</ele>
<time>2022-10-14T06:42:11.000Z</time>
</trkpt>
<trkpt lat="32.6174790" lon="35.1253970">
<ele>204.800003</ele>
<time>2022-10-14T06:42:12.000Z</time>
</trkpt>
<trkpt lat="32.6174750" lon="35.1254440">
<ele>204.599991</ele>
<time>2022-10-14T06:42:13.000Z</time>
</trkpt>
<trkpt lat="32.6174520" lon="35.1255960">
<ele>204.000000</ele>
<time>2022-10-14T06:42:16.000Z</time>
</trkpt>
<trkpt lat="32.6174320" lon="35.1256340">
<ele>203.800003</ele>
<time>2022-10-14T06:42:17.000Z</time>
</trkpt>
<trkpt lat="32.6174000" lon="35.1256540">
<ele>203.600006</ele>
<time>2022-10-14T06:42:18.000Z</time>
</trkpt>
<trkpt lat="32.6173430" lon="35.1256570">
<ele>203.399994</ele>
<time>2022-10-14T06:42:20.000Z</time>
</trkpt>
<trkpt lat="32.6173110" lon="35.1256850">
<ele>203.399994</ele>
<time>2022-10-14T06:42:22.000Z</time>
</trkpt>
<trkpt lat="32.6173020" lon="35.1257220">
<ele>203.200012</ele>
<time>2022-10-14T06:42:23.000Z</time>
</trkpt>
<trkpt lat="32.6172990" lon="35.1257640">
<ele>203.200012</ele>
<time>2022-10-14T06:42:24.000Z</time>
</trkpt>
<trkpt lat="32.6173350" lon="35.1258990">
<ele>202.600006</ele>
<time>2022-10-14T06:42:27.000Z</time>
</trkpt>
<trkpt lat="32.6173760" lon="35.1259560">
<ele>202.399994</ele>
<time>2022-10-14T06:42:29.000Z</time>
</trkpt>
<trkpt lat="32.6173980" lon="35.1259850">
<ele>202.199997</ele>
<time>2022-10-14T06:42:30.000Z</time>
</trkpt>
<trkpt lat="32.6174160" lon="35.1260470">
<ele>202.399994</ele>
<time>2022-10-14T06:42:32.000Z</time>
</trkpt>
<trkpt lat="32.6174480" lon="35.1260930">
<ele>202.399994</ele>
<time>2022-10-14T06:42:34.000Z</time>
</trkpt>
<trkpt lat="32.6174920" lon="35.1261370">
<ele>202.600006</ele>
<time>2022-10-14T06:42:36.000Z</time>
</trkpt>
<trkpt lat="32.6176190" lon="35.1262780">
<ele>202.600006</ele>
<time>2022-10-14T06:42:42.000Z</time>
</trkpt>
<trkpt lat="32.6176570" lon="35.1263920">
<ele>202.399994</ele>
<time>2022-10-14T06:42:46.000Z</time>
</trkpt>
<trkpt lat="32.6177180" lon="35.1264960">
<ele>201.599991</ele>
<time>2022-10-14T06:42:49.000Z</time>
</trkpt>
<trkpt lat="32.6177710" lon="35.1266530">
<ele>200.599991</ele>
<time>2022-10-14T06:42:52.000Z</time>
</trkpt>
<trkpt lat="32.6177910" lon="35.1266810">
<ele>200.199997</ele>
<time>2022-10-14T06:42:53.000Z</time>
</trkpt>
<trkpt lat="32.6178220" lon="35.1266920">
<ele>199.800003</ele>
<time>2022-10-14T06:42:54.000Z</time>
</trkpt>
<trkpt lat="32.6178550" lon="35.1266650">
<ele>199.600006</ele>
<time>2022-10-14T06:42:55.000Z</time>
</trkpt>
<trkpt lat="32.6178990" lon="35.1266200">
<ele>199.399994</ele>
<time>2022-10-14T06:42:57.000Z</time>
</trkpt>
<trkpt lat="32.6179330" lon="35.1265670">
<ele>199.399994</ele>
<time>2022-10-14T06:42:59.000Z</time>
</trkpt>
<trkpt lat="32.6179460" lon="35.1265530">
<ele>199.600006</ele>
<time>2022-10-14T06:43:00.000Z</time>
</trkpt>
<trkpt lat="32.6179530" lon="35.1265130">
<ele>199.600006</ele>
<time>2022-10-14T06:43:01.000Z</time>
</trkpt>
<trkpt lat="32.6179500" lon="35.1264230">
<ele>200.000000</ele>
<time>2022-10-14T06:43:04.000Z</time>
</trkpt>
<trkpt lat="32.6179640" lon="35.1263580">
<ele>200.199997</ele>
<time>2022-10-14T06:43:06.000Z</time>
</trkpt>
<trkpt lat="32.6180300" lon="35.1261610">
<ele>200.800003</ele>
<time>2022-10-14T06:43:14.000Z</time>
</trkpt>
<trkpt lat="32.6180540" lon="35.1260160">
<ele>200.999985</ele>
<time>2022-10-14T06:43:18.000Z</time>
</trkpt>
<trkpt lat="32.6181390" lon="35.1257890">
<ele>201.800003</ele>
<time>2022-10-14T06:43:27.000Z</time>
</trkpt>
<trkpt lat="32.6181560" lon="35.1257760">
<ele>201.800003</ele>
<time>2022-10-14T06:43:28.000Z</time>
</trkpt>
<trkpt lat="32.6181790" lon="35.1257690">
<ele>201.800003</ele>
<time>2022-10-14T06:43:29.000Z</time>
</trkpt>
<trkpt lat="32.6182860" lon="35.1257490">
<ele>202.000000</ele>
<time>2022-10-14T06:43:32.000Z</time>
</trkpt>
<trkpt lat="32.6183280" lon="35.1257470">
<ele>201.599991</ele>
<time>2022-10-14T06:43:33.000Z</time>
</trkpt>
<trkpt lat="32.6184940" lon="35.1257020">
<ele>200.800003</ele>
<time>2022-10-14T06:43:36.000Z</time>
</trkpt>
<trkpt lat="32.6185920" lon="35.1256800">
<ele>200.599991</ele>
<time>2022-10-14T06:43:38.000Z</time>
</trkpt>
<trkpt lat="32.6186640" lon="35.1256840">
<ele>200.599991</ele>
<time>2022-10-14T06:43:40.000Z</time>
</trkpt>
<trkpt lat="32.6187120" lon="35.1256530">
<ele>200.999985</ele>
<time>2022-10-14T06:43:42.000Z</time>
</trkpt>
<trkpt lat="32.6187270" lon="35.1256310">
<ele>201.400009</ele>
<time>2022-10-14T06:43:43.000Z</time>
</trkpt>
<trkpt lat="32.6187290" lon="35.1255860">
<ele>201.800003</ele>
<time>2022-10-14T06:43:45.000Z</time>
</trkpt>
<trkpt lat="32.6186600" lon="35.1255480">
<ele>202.000000</ele>
<time>2022-10-14T06:43:47.000Z</time>
</trkpt>
<trkpt lat="32.6186000" lon="35.1255320">
<ele>202.199997</ele>
<time>2022-10-14T06:43:49.000Z</time>
</trkpt>
<trkpt lat="32.6185520" lon="35.1255280">
<ele>202.199997</ele>
<time>2022-10-14T06:43:50.000Z</time>
</trkpt>
<trkpt lat="32.6184880" lon="35.1255070">
<ele>202.399994</ele>
<time>2022-10-14T06:43:52.000Z</time>
</trkpt>
<trkpt lat="32.6184000" lon="35.1254740">
<ele>202.799988</ele>
<time>2022-10-14T06:43:56.000Z</time>
</trkpt>
<trkpt lat="32.6183620" lon="35.1254690">
<ele>203.200012</ele>
<time>2022-10-14T06:43:58.000Z</time>
</trkpt>
<trkpt lat="32.6183150" lon="35.1254850">
<ele>203.399994</ele>
<time>2022-10-14T06:44:00.000Z</time>
</trkpt>
<trkpt lat="32.6182670" lon="35.1255160">
<ele>203.600006</ele>
<time>2022-10-14T06:44:02.000Z</time>
</trkpt>
<trkpt lat="32.6182400" lon="35.1255280">
<ele>203.800003</ele>
<time>2022-10-14T06:44:03.000Z</time>
</trkpt>
<trkpt lat="32.6181790" lon="35.1255230">
<ele>203.800003</ele>
<time>2022-10-14T06:44:05.000Z</time>
</trkpt>
<trkpt lat="32.6181560" lon="35.1255060">
<ele>203.800003</ele>
<time>2022-10-14T06:44:06.000Z</time>
</trkpt>
<trkpt lat="32.6181350" lon="35.1254840">
<ele>204.000000</ele>
<time>2022-10-14T06:44:07.000Z</time>
</trkpt>
<trkpt lat="32.6181270" lon="35.1254570">
<ele>204.000000</ele>
<time>2022-10-14T06:44:08.000Z</time>
</trkpt>
<trkpt lat="32.6181310" lon="35.1254270">
<ele>204.000000</ele>
<time>2022-10-14T06:44:09.000Z</time>
</trkpt>
<trkpt lat="32.6181430" lon="35.1253690">
<ele>204.400009</ele>
<time>2022-10-14T06:44:11.000Z</time>
</trkpt>
<trkpt lat="32.6181470" lon="35.1253420">
<ele>204.599991</ele>
<time>2022-10-14T06:44:12.000Z</time>
</trkpt>
<trkpt lat="32.6181600" lon="35.1253020">
<ele>204.800003</ele>
<time>2022-10-14T06:44:14.000Z</time>
</trkpt>
<trkpt lat="32.6181650" lon="35.1252800">
<ele>205.199997</ele>
<time>2022-10-14T06:44:15.000Z</time>
</trkpt>
<trkpt lat="32.6181640" lon="35.1252550">
<ele>205.400009</ele>
<time>2022-10-14T06:44:16.000Z</time>
</trkpt>
<trkpt lat="32.6181650" lon="35.1252320">
<ele>205.800003</ele>
<time>2022-10-14T06:44:17.000Z</time>
</trkpt>
<trkpt lat="32.6181630" lon="35.1252090">
<ele>206.000000</ele>
<time>2022-10-14T06:44:18.000Z</time>
</trkpt>
<trkpt lat="32.6181700" lon="35.1251670">
<ele>206.399994</ele>
<time>2022-10-14T06:44:20.000Z</time>
</trkpt>
<trkpt lat="32.6182160" lon="35.1250820">
<ele>206.799988</ele>
<time>2022-10-14T06:44:24.000Z</time>
</trkpt>
<trkpt lat="32.6182640" lon="35.1250250">
<ele>207.199997</ele>
<time>2022-10-14T06:44:27.000Z</time>
</trkpt>
<trkpt lat="32.6182850" lon="35.1249960">
<ele>207.199997</ele>
<time>2022-10-14T06:44:28.000Z</time>
</trkpt>
<trkpt lat="32.6183580" lon="35.1249170">
<ele>207.599991</ele>
<time>2022-10-14T06:44:31.000Z</time>
</trkpt>
<trkpt lat="32.6184800" lon="35.1248120">
<ele>208.199997</ele>
<time>2022-10-14T06:44:37.000Z</time>
</trkpt>
<trkpt lat="32.6185060" lon="35.1247950">
<ele>208.400009</ele>
<time>2022-10-14T06:44:38.000Z</time>
</trkpt>
<trkpt lat="32.6185320" lon="35.1247940">
<ele>208.400009</ele>
<time>2022-10-14T06:44:39.000Z</time>
</trkpt>
<trkpt lat="32.6186020" lon="35.1247890">
<ele>208.599991</ele>
<time>2022-10-14T06:44:42.000Z</time>
</trkpt>
<trkpt lat="32.6186350" lon="35.1247950">
<ele>208.800003</ele>
<time>2022-10-14T06:44:43.000Z</time>
</trkpt>
<trkpt lat="32.6186690" lon="35.1248020">
<ele>208.800003</ele>
<time>2022-10-14T06:44:44.000Z</time>
</trkpt>
<trkpt lat="32.6187250" lon="35.1248260">
<ele>208.800003</ele>
<time>2022-10-14T06:44:46.000Z</time>
</trkpt>
<trkpt lat="32.6188160" lon="35.1248520">
<ele>208.800003</ele>
<time>2022-10-14T06:44:49.000Z</time>
</trkpt>
<trkpt lat="32.6188770" lon="35.1249050">
<ele>208.800003</ele>
<time>2022-10-14T06:44:51.000Z</time>
</trkpt>
<trkpt lat="32.6189210" lon="35.1249040">
<ele>208.800003</ele>
<time>2022-10-14T06:44:52.000Z</time>
</trkpt>
<trkpt lat="32.6189480" lon="35.1249230">
<ele>208.800003</ele>
<time>2022-10-14T06:44:53.000Z</time>
</trkpt>
<trkpt lat="32.6190180" lon="35.1249950">
<ele>208.800003</ele>
<time>2022-10-14T06:44:56.000Z</time>
</trkpt>
<trkpt lat="32.6190770" lon="35.1251060">
<ele>208.199997</ele>
<time>2022-10-14T06:44:59.000Z</time>
</trkpt>
<trkpt lat="32.6191470" lon="35.1252400">
<ele>207.599991</ele>
<time>2022-10-14T06:45:02.000Z</time>
</trkpt>
<trkpt lat="32.6191860" lon="35.1253430">
<ele>207.199997</ele>
<time>2022-10-14T06:45:04.000Z</time>
</trkpt>
<trkpt lat="32.6192110" lon="35.1253940">
<ele>206.799988</ele>
<time>2022-10-14T06:45:05.000Z</time>
</trkpt>
<trkpt lat="32.6192350" lon="35.1254390">
<ele>206.600006</ele>
<time>2022-10-14T06:45:06.000Z</time>
</trkpt>
<trkpt lat="32.6192720" lon="35.1255430">
<ele>205.800003</ele>
<time>2022-10-14T06:45:08.000Z</time>
</trkpt>
<trkpt lat="32.6192880" lon="35.1255890">
<ele>205.400009</ele>
<time>2022-10-14T06:45:09.000Z</time>
</trkpt>
<trkpt lat="32.6192920" lon="35.1256710">
<ele>204.000000</ele>
<time>2022-10-14T06:45:11.000Z</time>
</trkpt>
<trkpt lat="32.6192900" lon="35.1257100">
<ele>203.399994</ele>
<time>2022-10-14T06:45:12.000Z</time>
</trkpt>
<trkpt lat="32.6192870" lon="35.1257400">
<ele>202.799988</ele>
<time>2022-10-14T06:45:13.000Z</time>
</trkpt>
<trkpt lat="32.6192950" lon="35.1258230">
<ele>201.199997</ele>
<time>2022-10-14T06:45:17.000Z</time>
</trkpt>
<trkpt lat="32.6193830" lon="35.1259860">
<ele>198.600006</ele>
<time>2022-10-14T06:45:23.000Z</time>
</trkpt>
<trkpt lat="32.6194090" lon="35.1260230">
<ele>197.800003</ele>
<time>2022-10-14T06:45:25.000Z</time>
</trkpt>
<trkpt lat="32.6194250" lon="35.1260430">
<ele>197.599991</ele>
<time>2022-10-14T06:45:26.000Z</time>
</trkpt>
<trkpt lat="32.6194320" lon="35.1260660">
<ele>197.199997</ele>
<time>2022-10-14T06:45:27.000Z</time>
</trkpt>
<trkpt lat="32.6194660" lon="35.1261110">
<ele>195.600006</ele>
<time>2022-10-14T06:45:29.000Z</time>
</trkpt>
<trkpt lat="32.6195190" lon="35.1261490">
<ele>194.800003</ele>
<time>2022-10-14T06:45:31.000Z</time>
</trkpt>
<trkpt lat="32.6195710" lon="35.1262080">
<ele>193.199997</ele>
<time>2022-10-14T06:45:34.000Z</time>
</trkpt>
<trkpt lat="32.6195870" lon="35.1262320">
<ele>192.600006</ele>
<time>2022-10-14T06:45:35.000Z</time>
</trkpt>
<trkpt lat="32.6196460" lon="35.1262670">
<ele>191.600006</ele>
<time>2022-10-14T06:45:37.000Z</time>
</trkpt>
<trkpt lat="32.6196790" lon="35.1262840">
<ele>190.599991</ele>
<time>2022-10-14T06:45:38.000Z</time>
</trkpt>
<trkpt lat="32.6197360" lon="35.1263060">
<ele>189.800003</ele>
<time>2022-10-14T06:45:40.000Z</time>
</trkpt>
<trkpt lat="32.6197660" lon="35.1263270">
<ele>189.399994</ele>
<time>2022-10-14T06:45:41.000Z</time>
</trkpt>
<trkpt lat="32.6197990" lon="35.1263520">
<ele>188.799988</ele>
<time>2022-10-14T06:45:42.000Z</time>
</trkpt>
<trkpt lat="32.6198300" lon="35.1263730">
<ele>188.600006</ele>
<time>2022-10-14T06:45:43.000Z</time>
</trkpt>
<trkpt lat="32.6198940" lon="35.1264060">
<ele>187.000015</ele>
<time>2022-10-14T06:45:45.000Z</time>
</trkpt>
<trkpt lat="32.6199520" lon="35.1264690">
<ele>186.000000</ele>
<time>2022-10-14T06:45:48.000Z</time>
</trkpt>
<trkpt lat="32.6200050" lon="35.1265650">
<ele>185.000000</ele>
<time>2022-10-14T06:45:50.000Z</time>
</trkpt>
<trkpt lat="32.6200910" lon="35.1267650">
<ele>183.000000</ele>
<time>2022-10-14T06:45:55.000Z</time>
</trkpt>
<trkpt lat="32.6201110" lon="35.1267990">
<ele>182.800003</ele>
<time>2022-10-14T06:45:56.000Z</time>
</trkpt>
<trkpt lat="32.6201370" lon="35.1268330">
<ele>182.199997</ele>
<time>2022-10-14T06:45:57.000Z</time>
</trkpt>
<trkpt lat="32.6201870" lon="35.1268730">
<ele>181.799988</ele>
<time>2022-10-14T06:45:59.000Z</time>
</trkpt>
<trkpt lat="32.6202370" lon="35.1269280">
<ele>181.000000</ele>
<time>2022-10-14T06:46:01.000Z</time>
</trkpt>
<trkpt lat="32.6202710" lon="35.1270090">
<ele>180.000015</ele>
<time>2022-10-14T06:46:03.000Z</time>
</trkpt>
<trkpt lat="32.6202820" lon="35.1270480">
<ele>179.599991</ele>
<time>2022-10-14T06:46:04.000Z</time>
</trkpt>
<trkpt lat="32.6203440" lon="35.1271540">
<ele>178.600006</ele>
<time>2022-10-14T06:46:07.000Z</time>
</trkpt>
<trkpt lat="32.6203810" lon="35.1272390">
<ele>178.000000</ele>
<time>2022-10-14T06:46:09.000Z</time>
</trkpt>
<trkpt lat="32.6204470" lon="35.1273290">
<ele>177.399994</ele>
<time>2022-10-14T06:46:12.000Z</time>
</trkpt>
<trkpt lat="32.6204720" lon="35.1273580">
<ele>177.399994</ele>
<time>2022-10-14T06:46:13.000Z</time>
</trkpt>
<trkpt lat="32.6205480" lon="35.1274010">
<ele>176.400009</ele>
<time>2022-10-14T06:46:15.000Z</time>
</trkpt>
<trkpt lat="32.6206030" lon="35.1274230">
<ele>175.399994</ele>
<time>2022-10-14T06:46:17.000Z</time>
</trkpt>
<trkpt lat="32.6208160" lon="35.1276630">
<ele>171.600006</ele>
<time>2022-10-14T06:46:27.000Z</time>
</trkpt>
<trkpt lat="32.6208630" lon="35.1276990">
<ele>170.600006</ele>
<time>2022-10-14T06:46:29.000Z</time>
</trkpt>
<trkpt lat="32.6209120" lon="35.1277230">
<ele>169.599991</ele>
<time>2022-10-14T06:46:31.000Z</time>
</trkpt>
<trkpt lat="32.6209690" lon="35.1277670">
<ele>168.199997</ele>
<time>2022-10-14T06:46:33.000Z</time>
</trkpt>
<trkpt lat="32.6209930" lon="35.1277950">
<ele>167.600006</ele>
<time>2022-10-14T06:46:34.000Z</time>
</trkpt>
<trkpt lat="32.6210220" lon="35.1278560">
<ele>166.199997</ele>
<time>2022-10-14T06:46:36.000Z</time>
</trkpt>
<trkpt lat="32.6210340" lon="35.1278910">
<ele>165.800003</ele>
<time>2022-10-14T06:46:37.000Z</time>
</trkpt>
<trkpt lat="32.6210570" lon="35.1279600">
<ele>164.800003</ele>
<time>2022-10-14T06:46:39.000Z</time>
</trkpt>
<trkpt lat="32.6210700" lon="35.1280740">
<ele>163.600006</ele>
<time>2022-10-14T06:46:42.000Z</time>
</trkpt>
<trkpt lat="32.6210960" lon="35.1281930">
<ele>160.800003</ele>
<time>2022-10-14T06:46:46.000Z</time>
</trkpt>
<trkpt lat="32.6211290" lon="35.1282510">
<ele>159.600006</ele>
<time>2022-10-14T06:46:49.000Z</time>
</trkpt>
<trkpt lat="32.6211360" lon="35.1282670">
<ele>159.199997</ele>
<time>2022-10-14T06:46:50.000Z</time>
</trkpt>
<trkpt lat="32.6211380" lon="35.1283460">
<ele>157.200012</ele>
<time>2022-10-14T06:46:54.000Z</time>
</trkpt>
<trkpt lat="32.6211490" lon="35.1283850">
<ele>156.600006</ele>
<time>2022-10-14T06:46:56.000Z</time>
</trkpt>
<trkpt lat="32.6211810" lon="35.1284120">
<ele>156.000000</ele>
<time>2022-10-14T06:46:58.000Z</time>
</trkpt>
<trkpt lat="32.6212280" lon="35.1284680">
<ele>155.000000</ele>
<time>2022-10-14T06:47:01.000Z</time>
</trkpt>
<trkpt lat="32.6212620" lon="35.1285410">
<ele>154.199997</ele>
<time>2022-10-14T06:47:04.000Z</time>
</trkpt>
<trkpt lat="32.6212770" lon="35.1286030">
<ele>153.400009</ele>
<time>2022-10-14T06:47:06.000Z</time>
</trkpt>
<trkpt lat="32.6212950" lon="35.1286770">
<ele>152.800003</ele>
<time>2022-10-14T06:47:08.000Z</time>
</trkpt>
<trkpt lat="32.6213020" lon="35.1287170">
<ele>152.599991</ele>
<time>2022-10-14T06:47:09.000Z</time>
</trkpt>
<trkpt lat="32.6213030" lon="35.1288510">
<ele>151.399994</ele>
<time>2022-10-14T06:47:12.000Z</time>
</trkpt>
<trkpt lat="32.6213370" lon="35.1290030">
<ele>149.399994</ele>
<time>2022-10-14T06:47:16.000Z</time>
</trkpt>
<trkpt lat="32.6213630" lon="35.1290610">
<ele>148.600006</ele>
<time>2022-10-14T06:47:18.000Z</time>
</trkpt>
<trkpt lat="32.6214020" lon="35.1291070">
<ele>148.000000</ele>
<time>2022-10-14T06:47:20.000Z</time>
</trkpt>
<trkpt lat="32.6214230" lon="35.1291460">
<ele>147.800003</ele>
<time>2022-10-14T06:47:21.000Z</time>
</trkpt>
<trkpt lat="32.6214360" lon="35.1291730">
<ele>147.199997</ele>
<time>2022-10-14T06:47:22.000Z</time>
</trkpt>
<trkpt lat="32.6214550" lon="35.1292000">
<ele>146.600006</ele>
<time>2022-10-14T06:47:23.000Z</time>
</trkpt>
<trkpt lat="32.6214780" lon="35.1292210">
<ele>146.199997</ele>
<time>2022-10-14T06:47:24.000Z</time>
</trkpt>
<trkpt lat="32.6216060" lon="35.1292970">
<ele>144.199997</ele>
<time>2022-10-14T06:47:28.000Z</time>
</trkpt>
<trkpt lat="32.6216570" lon="35.1293450">
<ele>143.599991</ele>
<time>2022-10-14T06:47:30.000Z</time>
</trkpt>
<trkpt lat="32.6217910" lon="35.1295160">
<ele>141.400009</ele>
<time>2022-10-14T06:47:36.000Z</time>
</trkpt>
<trkpt lat="32.6218070" lon="35.1295470">
<ele>140.600006</ele>
<time>2022-10-14T06:47:37.000Z</time>
</trkpt>
<trkpt lat="32.6218310" lon="35.1296680">
<ele>139.000000</ele>
<time>2022-10-14T06:47:41.000Z</time>
</trkpt>
<trkpt lat="32.6218800" lon="35.1297520">
<ele>137.600006</ele>
<time>2022-10-14T06:47:43.000Z</time>
</trkpt>
<trkpt lat="32.6219410" lon="35.1298450">
<ele>136.199997</ele>
<time>2022-10-14T06:47:46.000Z</time>
</trkpt>
<trkpt lat="32.6220090" lon="35.1299220">
<ele>135.600006</ele>
<time>2022-10-14T06:47:49.000Z</time>
</trkpt>
<trkpt lat="32.6220240" lon="35.1299910">
<ele>134.399994</ele>
<time>2022-10-14T06:47:51.000Z</time>
</trkpt>
<trkpt lat="32.6220050" lon="35.1300440">
<ele>133.600006</ele>
<time>2022-10-14T06:47:53.000Z</time>
</trkpt>
<trkpt lat="32.6219960" lon="35.1300980">
<ele>132.800003</ele>
<time>2022-10-14T06:47:55.000Z</time>
</trkpt>
<trkpt lat="32.6220230" lon="35.1301460">
<ele>132.199997</ele>
<time>2022-10-14T06:47:57.000Z</time>
</trkpt>
<trkpt lat="32.6221980" lon="35.1303130">
<ele>128.000000</ele>
<time>2022-10-14T06:48:04.000Z</time>
</trkpt>
<trkpt lat="32.6222090" lon="35.1303200">
<ele>127.800003</ele>
<time>2022-10-14T06:48:05.000Z</time>
</trkpt>
<trkpt lat="32.6222190" lon="35.1303220">
<ele>127.599998</ele>
<time>2022-10-14T06:48:06.000Z</time>
</trkpt>
<trkpt lat="32.6222230" lon="35.1303180">
<ele>127.400002</ele>
<time>2022-10-14T06:48:11.000Z</time>
</trkpt>
<trkpt lat="32.6222240" lon="35.1303200">
<ele>126.800003</ele>
<time>2022-10-14T06:48:37.000Z</time>
</trkpt>
<trkpt lat="32.6222280" lon="35.1303190">
<ele>127.000000</ele>
<time>2022-10-14T06:48:39.000Z</time>
</trkpt>
<trkpt lat="32.6222920" lon="35.1303130">
<ele>127.200005</ele>
<time>2022-10-14T06:48:42.000Z</time>
</trkpt>
<trkpt lat="32.6223690" lon="35.1302870">
<ele>126.600006</ele>
<time>2022-10-14T06:48:45.000Z</time>
</trkpt>
<trkpt lat="32.6223890" lon="35.1302810">
<ele>126.399994</ele>
<time>2022-10-14T06:48:46.000Z</time>
</trkpt>
<trkpt lat="32.6224220" lon="35.1302750">
<ele>126.000000</ele>
<time>2022-10-14T06:48:48.000Z</time>
</trkpt>
<trkpt lat="32.6224280" lon="35.1302740">
<ele>125.799995</ele>
<time>2022-10-14T06:48:49.000Z</time>
</trkpt>
<trkpt lat="32.6224190" lon="35.1302850">
<ele>125.200005</ele>
<time>2022-10-14T06:49:00.000Z</time>
</trkpt>
<trkpt lat="32.6224150" lon="35.1302840">
<ele>125.200005</ele>
<time>2022-10-14T06:49:01.000Z</time>
</trkpt>
<trkpt lat="32.6224140" lon="35.1302830">
<ele>125.000000</ele>
<time>2022-10-14T06:49:12.000Z</time>
</trkpt>
<trkpt lat="32.6224160" lon="35.1302810">
<ele>125.200005</ele>
<time>2022-10-14T06:49:18.000Z</time>
</trkpt>
<trkpt lat="32.6224130" lon="35.1302750">
<ele>125.000000</ele>
<time>2022-10-14T06:49:39.000Z</time>
</trkpt>
<trkpt lat="32.6224120" lon="35.1302640">
<ele>125.000000</ele>
<time>2022-10-14T06:49:41.000Z</time>
</trkpt>
<trkpt lat="32.6224370" lon="35.1302610">
<ele>125.000000</ele>
<time>2022-10-14T06:49:47.000Z</time>
</trkpt>
<trkpt lat="32.6224550" lon="35.1302860">
<ele>124.199997</ele>
<time>2022-10-14T06:50:16.000Z</time>
</trkpt>
<trkpt lat="32.6224450" lon="35.1302850">
<ele>124.399994</ele>
<time>2022-10-14T06:50:37.000Z</time>
</trkpt>
<trkpt lat="32.6224370" lon="35.1302830">
<ele>124.199997</ele>
<time>2022-10-14T06:50:38.000Z</time>
</trkpt>
<trkpt lat="32.6224200" lon="35.1302800">
<ele>124.399994</ele>
<time>2022-10-14T06:50:43.000Z</time>
</trkpt>
<trkpt lat="32.6224140" lon="35.1302830">
<ele>124.399994</ele>
<time>2022-10-14T06:50:44.000Z</time>
</trkpt>
<trkpt lat="32.6224130" lon="35.1302850">
<ele>124.399994</ele>
<time>2022-10-14T06:50:45.000Z</time>
</trkpt>
<trkpt lat="32.6224170" lon="35.1302850">
<ele>124.600006</ele>
<time>2022-10-14T06:51:13.000Z</time>
</trkpt>
<trkpt lat="32.6224150" lon="35.1302850">
<ele>124.000000</ele>
<time>2022-10-14T06:51:26.000Z</time>
</trkpt>
<trkpt lat="32.6224130" lon="35.1302820">
<ele>124.000000</ele>
<time>2022-10-14T06:52:18.000Z</time>
</trkpt>
<trkpt lat="32.6224110" lon="35.1302840">
<ele>124.000000</ele>
<time>2022-10-14T06:52:35.000Z</time>
</trkpt>
<trkpt lat="32.6224160" lon="35.1302860">
<ele>124.000000</ele>
<time>2022-10-14T06:53:05.000Z</time>
</trkpt>
<trkpt lat="32.6224150" lon="35.1302870">
<ele>124.000000</ele>
<time>2022-10-14T06:54:03.000Z</time>
</trkpt>
<trkpt lat="32.6224170" lon="35.1302770">
<ele>124.000000</ele>
<time>2022-10-14T06:54:22.000Z</time>
</trkpt>
<trkpt lat="32.6224170" lon="35.1302640">
<ele>124.000000</ele>
<time>2022-10-14T06:54:26.000Z</time>
</trkpt>
<trkpt lat="32.6224210" lon="35.1302680">
<ele>124.000000</ele>
<time>2022-10-14T06:54:28.000Z</time>
</trkpt>
<trkpt lat="32.6224070" lon="35.1302720">
<ele>124.000000</ele>
<time>2022-10-14T06:54:47.000Z</time>
</trkpt>
<trkpt lat="32.6224000" lon="35.1302750">
<ele>124.000000</ele>
<time>2022-10-14T06:54:48.000Z</time>
</trkpt>
<trkpt lat="32.6223770" lon="35.1302790">
<ele>124.000000</ele>
<time>2022-10-14T06:54:51.000Z</time>
</trkpt>
<trkpt lat="32.6223580" lon="35.1302720">
<ele>124.000000</ele>
<time>2022-10-14T06:54:54.000Z</time>
</trkpt>
<trkpt lat="32.6223530" lon="35.1302750">
<ele>124.000000</ele>
<time>2022-10-14T06:54:55.000Z</time>
</trkpt>
<trkpt lat="32.6223380" lon="35.1302830">
<ele>124.000000</ele>
<time>2022-10-14T06:55:33.000Z</time>
</trkpt>
<trkpt lat="32.6223240" lon="35.1302890">
<ele>124.000000</ele>
<time>2022-10-14T06:55:35.000Z</time>
</trkpt>
<trkpt lat="32.6223190" lon="35.1302940">
<ele>124.000000</ele>
<time>2022-10-14T06:55:36.000Z</time>
</trkpt>
<trkpt lat="32.6223090" lon="35.1302990">
<ele>124.000000</ele>
<time>2022-10-14T06:55:38.000Z</time>
</trkpt>
<trkpt lat="32.6222930" lon="35.1303080">
<ele>124.000000</ele>
<time>2022-10-14T06:56:04.000Z</time>
</trkpt>
<trkpt lat="32.6222870" lon="35.1303130">
<ele>124.000000</ele>
<time>2022-10-14T06:56:06.000Z</time>
</trkpt>
<trkpt lat="32.6222790" lon="35.1303180">
<ele>124.000000</ele>
<time>2022-10-14T06:56:08.000Z</time>
</trkpt>
<trkpt lat="32.6222760" lon="35.1303210">
<ele>124.000000</ele>
<time>2022-10-14T06:56:09.000Z</time>
</trkpt>
<trkpt lat="32.6222310" lon="35.1303400">
<ele>124.000000</ele>
<time>2022-10-14T06:56:16.000Z</time>
</trkpt>
<trkpt lat="32.6222250" lon="35.1303420">
<ele>124.000000</ele>
<time>2022-10-14T06:56:17.000Z</time>
</trkpt>
<trkpt lat="32.6222270" lon="35.1303430">
<ele>124.000000</ele>
<time>2022-10-14T06:56:18.000Z</time>
</trkpt>
<trkpt lat="32.6222270" lon="35.1303590">
<ele>124.000000</ele>
<time>2022-10-14T06:57:18.000Z</time>
</trkpt>
<trkpt lat="32.6222120" lon="35.1303950">
<ele>124.000000</ele>
<time>2022-10-14T06:57:20.000Z</time>
</trkpt>
<trkpt lat="32.6221870" lon="35.1304400">
<ele>124.000000</ele>
<time>2022-10-14T06:57:22.000Z</time>
</trkpt>
<trkpt lat="32.6219960" lon="35.1306270">
<ele>123.199997</ele>
<time>2022-10-14T06:57:29.000Z</time>
</trkpt>
<trkpt lat="32.6219460" lon="35.1307090">
<ele>123.000000</ele>
<time>2022-10-14T06:57:31.000Z</time>
</trkpt>
<trkpt lat="32.6219240" lon="35.1307590">
<ele>123.000000</ele>
<time>2022-10-14T06:57:32.000Z</time>
</trkpt>
<trkpt lat="32.6218940" lon="35.1308680">
<ele>122.000008</ele>
<time>2022-10-14T06:57:34.000Z</time>
</trkpt>
<trkpt lat="32.6218890" lon="35.1309230">
<ele>121.599998</ele>
<time>2022-10-14T06:57:35.000Z</time>
</trkpt>
<trkpt lat="32.6218930" lon="35.1309750">
<ele>121.199997</ele>
<time>2022-10-14T06:57:36.000Z</time>
</trkpt>
<trkpt lat="32.6219080" lon="35.1310200">
<ele>120.599998</ele>
<time>2022-10-14T06:57:37.000Z</time>
</trkpt>
<trkpt lat="32.6219350" lon="35.1310560">
<ele>120.000000</ele>
<time>2022-10-14T06:57:38.000Z</time>
</trkpt>
<trkpt lat="32.6219730" lon="35.1310800">
<ele>119.599998</ele>
<time>2022-10-14T06:57:39.000Z</time>
</trkpt>
<trkpt lat="32.6221020" lon="35.1311000">
<ele>117.800003</ele>
<time>2022-10-14T06:57:42.000Z</time>
</trkpt>
<trkpt lat="32.6221430" lon="35.1311210">
<ele>117.399994</ele>
<time>2022-10-14T06:57:43.000Z</time>
</trkpt>
<trkpt lat="32.6221820" lon="35.1311510">
<ele>117.000000</ele>
<time>2022-10-14T06:57:44.000Z</time>
</trkpt>
<trkpt lat="32.6222140" lon="35.1311910">
<ele>116.400002</ele>
<time>2022-10-14T06:57:45.000Z</time>
</trkpt>
<trkpt lat="32.6223920" lon="35.1314930">
<ele>112.400002</ele>
<time>2022-10-14T06:57:51.000Z</time>
</trkpt>
<trkpt lat="32.6224240" lon="35.1315860">
<ele>110.800003</ele>
<time>2022-10-14T06:57:53.000Z</time>
</trkpt>
<trkpt lat="32.6224100" lon="35.1316920">
<ele>109.599998</ele>
<time>2022-10-14T06:57:55.000Z</time>
</trkpt>
<trkpt lat="32.6223670" lon="35.1318030">
<ele>108.000000</ele>
<time>2022-10-14T06:57:57.000Z</time>
</trkpt>
<trkpt lat="32.6222730" lon="35.1319720">
<ele>106.000008</ele>
<time>2022-10-14T06:58:00.000Z</time>
</trkpt>
<trkpt lat="32.6221590" lon="35.1321410">
<ele>104.400002</ele>
<time>2022-10-14T06:58:03.000Z</time>
</trkpt>
<trkpt lat="32.6220720" lon="35.1322240">
<ele>103.000000</ele>
<time>2022-10-14T06:58:05.000Z</time>
</trkpt>
<trkpt lat="32.6220220" lon="35.1322430">
<ele>102.000000</ele>
<time>2022-10-14T06:58:06.000Z</time>
</trkpt>
<trkpt lat="32.6219670" lon="35.1322490">
<ele>101.399994</ele>
<time>2022-10-14T06:58:07.000Z</time>
</trkpt>
<trkpt lat="32.6218540" lon="35.1322510">
<ele>101.000000</ele>
<time>2022-10-14T06:58:09.000Z</time>
</trkpt>
<trkpt lat="32.6217490" lon="35.1322310">
<ele>101.000000</ele>
<time>2022-10-14T06:58:11.000Z</time>
</trkpt>
<trkpt lat="32.6216980" lon="35.1322180">
<ele>101.000000</ele>
<time>2022-10-14T06:58:12.000Z</time>
</trkpt>
<trkpt lat="32.6216080" lon="35.1321960">
<ele>101.199997</ele>
<time>2022-10-14T06:58:14.000Z</time>
</trkpt>
<trkpt lat="32.6215660" lon="35.1321830">
<ele>101.199997</ele>
<time>2022-10-14T06:58:15.000Z</time>
</trkpt>
<trkpt lat="32.6214040" lon="35.1321490">
<ele>101.800003</ele>
<time>2022-10-14T06:58:19.000Z</time>
</trkpt>
<trkpt lat="32.6213610" lon="35.1321500">
<ele>101.600006</ele>
<time>2022-10-14T06:58:20.000Z</time>
</trkpt>
<trkpt lat="32.6212040" lon="35.1321560">
<ele>101.000000</ele>
<time>2022-10-14T06:58:23.000Z</time>
</trkpt>
<trkpt lat="32.6211450" lon="35.1321590">
<ele>100.400002</ele>
<time>2022-10-14T06:58:24.000Z</time>
</trkpt>
<trkpt lat="32.6210880" lon="35.1321560">
<ele>99.800003</ele>
<time>2022-10-14T06:58:25.000Z</time>
</trkpt>
<trkpt lat="32.6210320" lon="35.1321400">
<ele>99.199997</ele>
<time>2022-10-14T06:58:26.000Z</time>
</trkpt>
<trkpt lat="32.6209860" lon="35.1321150">
<ele>98.599998</ele>
<time>2022-10-14T06:58:27.000Z</time>
</trkpt>
<trkpt lat="32.6209440" lon="35.1320920">
<ele>98.400002</ele>
<time>2022-10-14T06:58:28.000Z</time>
</trkpt>
<trkpt lat="32.6208650" lon="35.1320670">
<ele>98.199997</ele>
<time>2022-10-14T06:58:30.000Z</time>
</trkpt>
<trkpt lat="32.6208320" lon="35.1320720">
<ele>98.000000</ele>
<time>2022-10-14T06:58:31.000Z</time>
</trkpt>
<trkpt lat="32.6208030" lon="35.1320920">
<ele>97.400002</ele>
<time>2022-10-14T06:58:32.000Z</time>
</trkpt>
<trkpt lat="32.6207800" lon="35.1321240">
<ele>96.999992</ele>
<time>2022-10-14T06:58:33.000Z</time>
</trkpt>
<trkpt lat="32.6207700" lon="35.1321660">
<ele>96.599998</ele>
<time>2022-10-14T06:58:34.000Z</time>
</trkpt>
<trkpt lat="32.6207780" lon="35.1322130">
<ele>96.400002</ele>
<time>2022-10-14T06:58:35.000Z</time>
</trkpt>
<trkpt lat="32.6208500" lon="35.1322880">
<ele>95.599998</ele>
<time>2022-10-14T06:58:37.000Z</time>
</trkpt>
<trkpt lat="32.6209000" lon="35.1323120">
<ele>95.000000</ele>
<time>2022-10-14T06:58:38.000Z</time>
</trkpt>
<trkpt lat="32.6211470" lon="35.1323800">
<ele>93.200005</ele>
<time>2022-10-14T06:58:42.000Z</time>
</trkpt>
<trkpt lat="32.6212640" lon="35.1324400">
<ele>92.399994</ele>
<time>2022-10-14T06:58:44.000Z</time>
</trkpt>
<trkpt lat="32.6213200" lon="35.1324790">
<ele>92.000000</ele>
<time>2022-10-14T06:58:45.000Z</time>
</trkpt>
<trkpt lat="32.6213760" lon="35.1325220">
<ele>91.599998</ele>
<time>2022-10-14T06:58:46.000Z</time>
</trkpt>
<trkpt lat="32.6217890" lon="35.1329060">
<ele>88.400002</ele>
<time>2022-10-14T06:58:53.000Z</time>
</trkpt>
<trkpt lat="32.6218480" lon="35.1329730">
<ele>87.599998</ele>
<time>2022-10-14T06:58:54.000Z</time>
</trkpt>
<trkpt lat="32.6222140" lon="35.1334900">
<ele>84.599998</ele>
<time>2022-10-14T06:59:01.000Z</time>
</trkpt>
<trkpt lat="32.6222980" lon="35.1336430">
<ele>84.000000</ele>
<time>2022-10-14T06:59:03.000Z</time>
</trkpt>
<trkpt lat="32.6224530" lon="35.1339590">
<ele>82.000000</ele>
<time>2022-10-14T06:59:07.000Z</time>
</trkpt>
<trkpt lat="32.6225520" lon="35.1341270">
<ele>80.599998</ele>
<time>2022-10-14T06:59:09.000Z</time>
</trkpt>
<trkpt lat="32.6226110" lon="35.1342060">
<ele>79.599998</ele>
<time>2022-10-14T06:59:10.000Z</time>
</trkpt>
<trkpt lat="32.6228630" lon="35.1345120">
<ele>76.599998</ele>
<time>2022-10-14T06:59:14.000Z</time>
</trkpt>
<trkpt lat="32.6229300" lon="35.1345820">
<ele>76.599998</ele>
<time>2022-10-14T06:59:15.000Z</time>
</trkpt>
<trkpt lat="32.6233540" lon="35.1350340">
<ele>74.000000</ele>
<time>2022-10-14T06:59:22.000Z</time>
</trkpt>
<trkpt lat="32.6234420" lon="35.1350970">
<ele>73.400002</ele>
<time>2022-10-14T06:59:24.000Z</time>
</trkpt>
<trkpt lat="32.6234920" lon="35.1351150">
<ele>73.200005</ele>
<time>2022-10-14T06:59:25.000Z</time>
</trkpt>
<trkpt lat="32.6235970" lon="35.1351150">
<ele>72.599998</ele>
<time>2022-10-14T06:59:27.000Z</time>
</trkpt>
<trkpt lat="32.6237000" lon="35.1350840">
<ele>72.599998</ele>
<time>2022-10-14T06:59:29.000Z</time>
</trkpt>
<trkpt lat="32.6238460" lon="35.1350140">
<ele>72.599998</ele>
<time>2022-10-14T06:59:32.000Z</time>
</trkpt>
<trkpt lat="32.6239170" lon="35.1349750">
<ele>72.799995</ele>
<time>2022-10-14T06:59:34.000Z</time>
</trkpt>
<trkpt lat="32.6239720" lon="35.1349530">
<ele>73.599998</ele>
<time>2022-10-14T06:59:36.000Z</time>
</trkpt>
<trkpt lat="32.6241410" lon="35.1348100">
<ele>75.800003</ele>
<time>2022-10-14T06:59:44.000Z</time>
</trkpt>
<trkpt lat="32.6241530" lon="35.1347930">
<ele>76.000000</ele>
<time>2022-10-14T06:59:45.000Z</time>
</trkpt>
<trkpt lat="32.6242350" lon="35.1347080">
<ele>77.000000</ele>
<time>2022-10-14T06:59:50.000Z</time>
</trkpt>
<trkpt lat="32.6242520" lon="35.1346910">
<ele>77.000000</ele>
<time>2022-10-14T06:59:51.000Z</time>
</trkpt>
<trkpt lat="32.6242710" lon="35.1346740">
<ele>77.199997</ele>
<time>2022-10-14T06:59:52.000Z</time>
</trkpt>
<trkpt lat="32.6243550" lon="35.1345730">
<ele>77.000000</ele>
<time>2022-10-14T06:59:56.000Z</time>
</trkpt>
<trkpt lat="32.6244640" lon="35.1344710">
<ele>76.599998</ele>
<time>2022-10-14T06:59:59.000Z</time>
</trkpt>
<trkpt lat="32.6246390" lon="35.1343470">
<ele>75.800003</ele>
<time>2022-10-14T07:00:03.000Z</time>
</trkpt>
<trkpt lat="32.6247130" lon="35.1342780">
<ele>75.400002</ele>
<time>2022-10-14T07:00:05.000Z</time>
</trkpt>
<trkpt lat="32.6247770" lon="35.1342030">
<ele>75.199997</ele>
<time>2022-10-14T07:00:07.000Z</time>
</trkpt>
<trkpt lat="32.6248600" lon="35.1341250">
<ele>75.000000</ele>
<time>2022-10-14T07:00:09.000Z</time>
</trkpt>
<trkpt lat="32.6251240" lon="35.1339140">
<ele>73.400002</ele>
<time>2022-10-14T07:00:14.000Z</time>
</trkpt>
<trkpt lat="32.6253620" lon="35.1337270">
<ele>72.400002</ele>
<time>2022-10-14T07:00:18.000Z</time>
</trkpt>
<trkpt lat="32.6254190" lon="35.1336810">
<ele>72.200005</ele>
<time>2022-10-14T07:00:19.000Z</time>
</trkpt>
<trkpt lat="32.6255880" lon="35.1335430">
<ele>71.400002</ele>
<time>2022-10-14T07:00:22.000Z</time>
</trkpt>
<trkpt lat="32.6256980" lon="35.1334590">
<ele>71.199997</ele>
<time>2022-10-14T07:00:24.000Z</time>
</trkpt>
<trkpt lat="32.6258700" lon="35.1333510">
<ele>70.800003</ele>
<time>2022-10-14T07:00:27.000Z</time>
</trkpt>
<trkpt lat="32.6260740" lon="35.1332120">
<ele>70.400002</ele>
<time>2022-10-14T07:00:31.000Z</time>
</trkpt>
<trkpt lat="32.6262830" lon="35.1331140">
<ele>68.800003</ele>
<time>2022-10-14T07:00:35.000Z</time>
</trkpt>
<trkpt lat="32.6264530" lon="35.1329860">
<ele>67.400002</ele>
<time>2022-10-14T07:00:38.000Z</time>
</trkpt>
<trkpt lat="32.6265610" lon="35.1328990">
<ele>67.000000</ele>
<time>2022-10-14T07:00:40.000Z</time>
</trkpt>
<trkpt lat="32.6267550" lon="35.1327220">
<ele>65.599998</ele>
<time>2022-10-14T07:00:45.000Z</time>
</trkpt>
<trkpt lat="32.6268340" lon="35.1326990">
<ele>64.400002</ele>
<time>2022-10-14T07:00:48.000Z</time>
</trkpt>
<trkpt lat="32.6268580" lon="35.1326920">
<ele>64.000000</ele>
<time>2022-10-14T07:00:49.000Z</time>
</trkpt>
<trkpt lat="32.6270170" lon="35.1326440">
<ele>61.799999</ele>
<time>2022-10-14T07:00:53.000Z</time>
</trkpt>
<trkpt lat="32.6270770" lon="35.1326150">
<ele>61.000004</ele>
<time>2022-10-14T07:00:54.000Z</time>
</trkpt>
<trkpt lat="32.6271990" lon="35.1325230">
<ele>59.000000</ele>
<time>2022-10-14T07:00:56.000Z</time>
</trkpt>
<trkpt lat="32.6273550" lon="35.1323690">
<ele>57.600002</ele>
<time>2022-10-14T07:00:59.000Z</time>
</trkpt>
<trkpt lat="32.6274800" lon="35.1321770">
<ele>58.000000</ele>
<time>2022-10-14T07:01:03.000Z</time>
</trkpt>
<trkpt lat="32.6275080" lon="35.1321300">
<ele>58.200001</ele>
<time>2022-10-14T07:01:04.000Z</time>
</trkpt>
<trkpt lat="32.6275780" lon="35.1319880">
<ele>59.200001</ele>
<time>2022-10-14T07:01:07.000Z</time>
</trkpt>
<trkpt lat="32.6276380" lon="35.1318530">
<ele>60.400002</ele>
<time>2022-10-14T07:01:11.000Z</time>
</trkpt>
<trkpt lat="32.6276490" lon="35.1318310">
<ele>60.799999</ele>
<time>2022-10-14T07:01:12.000Z</time>
</trkpt>
<trkpt lat="32.6277090" lon="35.1317780">
<ele>61.799999</ele>
<time>2022-10-14T07:01:16.000Z</time>
</trkpt>
<trkpt lat="32.6277090" lon="35.1317610">
<ele>62.000000</ele>
<time>2022-10-14T07:01:17.000Z</time>
</trkpt>
<trkpt lat="32.6276990" lon="35.1317450">
<ele>62.000000</ele>
<time>2022-10-14T07:01:18.000Z</time>
</trkpt>
<trkpt lat="32.6276840" lon="35.1317290">
<ele>62.199997</ele>
<time>2022-10-14T07:01:19.000Z</time>
</trkpt>
<trkpt lat="32.6276500" lon="35.1317080">
<ele>62.400002</ele>
<time>2022-10-14T07:01:21.000Z</time>
</trkpt>
<trkpt lat="32.6276060" lon="35.1316650">
<ele>63.199997</ele>
<time>2022-10-14T07:01:24.000Z</time>
</trkpt>
<trkpt lat="32.6275910" lon="35.1316270">
<ele>64.000000</ele>
<time>2022-10-14T07:01:26.000Z</time>
</trkpt>
<trkpt lat="32.6276000" lon="35.1315860">
<ele>64.400002</ele>
<time>2022-10-14T07:01:28.000Z</time>
</trkpt>
<trkpt lat="32.6276360" lon="35.1315450">
<ele>64.799995</ele>
<time>2022-10-14T07:01:31.000Z</time>
</trkpt>
<trkpt lat="32.6276480" lon="35.1315370">
<ele>65.000000</ele>
<time>2022-10-14T07:01:32.000Z</time>
</trkpt>
<trkpt lat="32.6276960" lon="35.1315010">
<ele>65.800003</ele>
<time>2022-10-14T07:01:36.000Z</time>
</trkpt>
<trkpt lat="32.6277070" lon="35.1314880">
<ele>65.800003</ele>
<time>2022-10-14T07:01:37.000Z</time>
</trkpt>
<trkpt lat="32.6277160" lon="35.1314520">
<ele>66.400002</ele>
<time>2022-10-14T07:01:39.000Z</time>
</trkpt>
<trkpt lat="32.6277160" lon="35.1314330">
<ele>66.800003</ele>
<time>2022-10-14T07:01:40.000Z</time>
</trkpt>
<trkpt lat="32.6277000" lon="35.1313900">
<ele>67.199997</ele>
<time>2022-10-14T07:01:42.000Z</time>
</trkpt>
<trkpt lat="32.6276720" lon="35.1313640">
<ele>67.800003</ele>
<time>2022-10-14T07:01:45.000Z</time>
</trkpt>
<trkpt lat="32.6276610" lon="35.1313570">
<ele>67.800003</ele>
<time>2022-10-14T07:01:46.000Z</time>
</trkpt>
<trkpt lat="32.6275880" lon="35.1313140">
<ele>69.400002</ele>
<time>2022-10-14T07:01:53.000Z</time>
</trkpt>
<trkpt lat="32.6275700" lon="35.1312970">
<ele>69.800003</ele>
<time>2022-10-14T07:01:55.000Z</time>
</trkpt>
<trkpt lat="32.6275230" lon="35.1312460">
<ele>71.000000</ele>
<time>2022-10-14T07:02:01.000Z</time>
</trkpt>
<trkpt lat="32.6274950" lon="35.1311980">
<ele>71.799995</ele>
<time>2022-10-14T07:02:06.000Z</time>
</trkpt>
<trkpt lat="32.6274690" lon="35.1311690">
<ele>72.200005</ele>
<time>2022-10-14T07:02:09.000Z</time>
</trkpt>
<trkpt lat="32.6274500" lon="35.1311470">
<ele>72.400002</ele>
<time>2022-10-14T07:02:11.000Z</time>
</trkpt>
<trkpt lat="32.6273770" lon="35.1310650">
<ele>73.200005</ele>
<time>2022-10-14T07:02:19.000Z</time>
</trkpt>
<trkpt lat="32.6273340" lon="35.1310070">
<ele>74.000000</ele>
<time>2022-10-14T07:02:24.000Z</time>
</trkpt>
<trkpt lat="32.6273050" lon="35.1309640">
<ele>74.400002</ele>
<time>2022-10-14T07:02:27.000Z</time>
</trkpt>
<trkpt lat="32.6272650" lon="35.1309150">
<ele>74.800003</ele>
<time>2022-10-14T07:02:31.000Z</time>
</trkpt>
<trkpt lat="32.6272170" lon="35.1308380">
<ele>75.400002</ele>
<time>2022-10-14T07:02:37.000Z</time>
</trkpt>
<trkpt lat="32.6272050" lon="35.1308060">
<ele>75.800003</ele>
<time>2022-10-14T07:02:39.000Z</time>
</trkpt>
<trkpt lat="32.6271910" lon="35.1307630">
<ele>76.199997</ele>
<time>2022-10-14T07:02:42.000Z</time>
</trkpt>
<trkpt lat="32.6271750" lon="35.1307150">
<ele>76.599998</ele>
<time>2022-10-14T07:02:45.000Z</time>
</trkpt>
<trkpt lat="32.6271710" lon="35.1306770">
<ele>76.800003</ele>
<time>2022-10-14T07:02:47.000Z</time>
</trkpt>
<trkpt lat="32.6271660" lon="35.1306630">
<ele>76.800003</ele>
<time>2022-10-14T07:02:48.000Z</time>
</trkpt>
<trkpt lat="32.6271460" lon="35.1306010">
<ele>77.400002</ele>
<time>2022-10-14T07:02:52.000Z</time>
</trkpt>
<trkpt lat="32.6271320" lon="35.1305700">
<ele>77.599998</ele>
<time>2022-10-14T07:02:54.000Z</time>
</trkpt>
<trkpt lat="32.6270690" lon="35.1304720">
<ele>78.199997</ele>
<time>2022-10-14T07:03:01.000Z</time>
</trkpt>
<trkpt lat="32.6270390" lon="35.1304070">
<ele>78.800003</ele>
<time>2022-10-14T07:03:05.000Z</time>
</trkpt>
<trkpt lat="32.6269550" lon="35.1303030">
<ele>79.599998</ele>
<time>2022-10-14T07:03:13.000Z</time>
</trkpt>
<trkpt lat="32.6269270" lon="35.1302560">
<ele>80.000000</ele>
<time>2022-10-14T07:03:16.000Z</time>
</trkpt>
<trkpt lat="32.6268810" lon="35.1301820">
<ele>80.599998</ele>
<time>2022-10-14T07:03:21.000Z</time>
</trkpt>
<trkpt lat="32.6268450" lon="35.1301300">
<ele>81.200005</ele>
<time>2022-10-14T07:03:25.000Z</time>
</trkpt>
<trkpt lat="32.6267870" lon="35.1300690">
<ele>81.800003</ele>
<time>2022-10-14T07:03:30.000Z</time>
</trkpt>
<trkpt lat="32.6267280" lon="35.1300120">
<ele>82.799995</ele>
<time>2022-10-14T07:03:36.000Z</time>
</trkpt>
<trkpt lat="32.6267180" lon="35.1300050">
<ele>83.000000</ele>
<time>2022-10-14T07:03:37.000Z</time>
</trkpt>
<trkpt lat="32.6266900" lon="35.1299850">
<ele>83.199997</ele>
<time>2022-10-14T07:03:40.000Z</time>
</trkpt>
<trkpt lat="32.6266800" lon="35.1299790">
<ele>83.400002</ele>
<time>2022-10-14T07:03:41.000Z</time>
</trkpt>
<trkpt lat="32.6266170" lon="35.1299480">
<ele>84.000000</ele>
<time>2022-10-14T07:03:46.000Z</time>
</trkpt>
<trkpt lat="32.6265900" lon="35.1299330">
<ele>84.199997</ele>
<time>2022-10-14T07:03:48.000Z</time>
</trkpt>
<trkpt lat="32.6265140" lon="35.1298940">
<ele>85.000000</ele>
<time>2022-10-14T07:03:54.000Z</time>
</trkpt>
<trkpt lat="32.6263910" lon="35.1297880">
<ele>86.400002</ele>
<time>2022-10-14T07:04:05.000Z</time>
</trkpt>
<trkpt lat="32.6263120" lon="35.1296810">
<ele>87.399994</ele>
<time>2022-10-14T07:04:13.000Z</time>
</trkpt>
<trkpt lat="32.6262890" lon="35.1296330">
<ele>87.999992</ele>
<time>2022-10-14T07:04:16.000Z</time>
</trkpt>
<trkpt lat="32.6262640" lon="35.1295820">
<ele>88.400002</ele>
<time>2022-10-14T07:04:19.000Z</time>
</trkpt>
<trkpt lat="32.6262480" lon="35.1295510">
<ele>88.599998</ele>
<time>2022-10-14T07:04:21.000Z</time>
</trkpt>
<trkpt lat="32.6262420" lon="35.1295320">
<ele>88.599998</ele>
<time>2022-10-14T07:04:22.000Z</time>
</trkpt>
<trkpt lat="32.6262050" lon="35.1294410">
<ele>89.199997</ele>
<time>2022-10-14T07:04:27.000Z</time>
</trkpt>
<trkpt lat="32.6261960" lon="35.1294240">
<ele>89.400002</ele>
<time>2022-10-14T07:04:28.000Z</time>
</trkpt>
<trkpt lat="32.6261890" lon="35.1294060">
<ele>89.599998</ele>
<time>2022-10-14T07:04:29.000Z</time>
</trkpt>
<trkpt lat="32.6261030" lon="35.1291950">
<ele>91.199997</ele>
<time>2022-10-14T07:04:41.000Z</time>
</trkpt>
<trkpt lat="32.6260970" lon="35.1291780">
<ele>91.199997</ele>
<time>2022-10-14T07:04:42.000Z</time>
</trkpt>
<trkpt lat="32.6260920" lon="35.1291430">
<ele>91.599998</ele>
<time>2022-10-14T07:04:44.000Z</time>
</trkpt>
<trkpt lat="32.6260880" lon="35.1291260">
<ele>91.599998</ele>
<time>2022-10-14T07:04:45.000Z</time>
</trkpt>
<trkpt lat="32.6260770" lon="35.1290580">
<ele>92.199997</ele>
<time>2022-10-14T07:04:49.000Z</time>
</trkpt>
<trkpt lat="32.6260720" lon="35.1290410">
<ele>92.399994</ele>
<time>2022-10-14T07:04:50.000Z</time>
</trkpt>
<trkpt lat="32.6260660" lon="35.1290030">
<ele>92.800003</ele>
<time>2022-10-14T07:04:52.000Z</time>
</trkpt>
<trkpt lat="32.6260610" lon="35.1289420">
<ele>93.000000</ele>
<time>2022-10-14T07:04:55.000Z</time>
</trkpt>
<trkpt lat="32.6260510" lon="35.1288860">
<ele>93.400002</ele>
<time>2022-10-14T07:04:58.000Z</time>
</trkpt>
<trkpt lat="32.6260450" lon="35.1288510">
<ele>93.799995</ele>
<time>2022-10-14T07:05:00.000Z</time>
</trkpt>
<trkpt lat="32.6260350" lon="35.1288100">
<ele>94.199997</ele>
<time>2022-10-14T07:05:02.000Z</time>
</trkpt>
<trkpt lat="32.6260300" lon="35.1287700">
<ele>94.199997</ele>
<time>2022-10-14T07:05:04.000Z</time>
</trkpt>
<trkpt lat="32.6260280" lon="35.1287520">
<ele>94.399994</ele>
<time>2022-10-14T07:05:05.000Z</time>
</trkpt>
<trkpt lat="32.6260230" lon="35.1287150">
<ele>94.800003</ele>
<time>2022-10-14T07:05:07.000Z</time>
</trkpt>
<trkpt lat="32.6260210" lon="35.1286950">
<ele>95.000000</ele>
<time>2022-10-14T07:05:08.000Z</time>
</trkpt>
<trkpt lat="32.6260170" lon="35.1286560">
<ele>95.200005</ele>
<time>2022-10-14T07:05:10.000Z</time>
</trkpt>
<trkpt lat="32.6260180" lon="35.1286140">
<ele>95.400002</ele>
<time>2022-10-14T07:05:12.000Z</time>
</trkpt>
<trkpt lat="32.6260220" lon="35.1285970">
<ele>95.400002</ele>
<time>2022-10-14T07:05:13.000Z</time>
</trkpt>
<trkpt lat="32.6260280" lon="35.1285390">
<ele>96.000000</ele>
<time>2022-10-14T07:05:16.000Z</time>
</trkpt>
<trkpt lat="32.6260370" lon="35.1285030">
<ele>96.199997</ele>
<time>2022-10-14T07:05:18.000Z</time>
</trkpt>
<trkpt lat="32.6260390" lon="35.1284090">
<ele>96.799995</ele>
<time>2022-10-14T07:05:23.000Z</time>
</trkpt>
<trkpt lat="32.6260400" lon="35.1283360">
<ele>97.400002</ele>
<time>2022-10-14T07:05:27.000Z</time>
</trkpt>
<trkpt lat="32.6260360" lon="35.1283170">
<ele>97.599998</ele>
<time>2022-10-14T07:05:28.000Z</time>
</trkpt>
<trkpt lat="32.6260330" lon="35.1282240">
<ele>98.199997</ele>
<time>2022-10-14T07:05:33.000Z</time>
</trkpt>
<trkpt lat="32.6260330" lon="35.1281630">
<ele>98.599998</ele>
<time>2022-10-14T07:05:36.000Z</time>
</trkpt>
<trkpt lat="32.6260290" lon="35.1281390">
<ele>98.599998</ele>
<time>2022-10-14T07:05:37.000Z</time>
</trkpt>
<trkpt lat="32.6260260" lon="35.1280740">
<ele>98.799995</ele>
<time>2022-10-14T07:05:40.000Z</time>
</trkpt>
<trkpt lat="32.6260230" lon="35.1280280">
<ele>99.199997</ele>
<time>2022-10-14T07:05:42.000Z</time>
</trkpt>
<trkpt lat="32.6260210" lon="35.1280080">
<ele>99.400002</ele>
<time>2022-10-14T07:05:43.000Z</time>
</trkpt>
<trkpt lat="32.6260190" lon="35.1279660">
<ele>99.600006</ele>
<time>2022-10-14T07:05:45.000Z</time>
</trkpt>
<trkpt lat="32.6260220" lon="35.1279460">
<ele>99.600006</ele>
<time>2022-10-14T07:05:46.000Z</time>
</trkpt>
<trkpt lat="32.6260210" lon="35.1279260">
<ele>99.800003</ele>
<time>2022-10-14T07:05:47.000Z</time>
</trkpt>
<trkpt lat="32.6260250" lon="35.1278910">
<ele>100.000000</ele>
<time>2022-10-14T07:05:49.000Z</time>
</trkpt>
<trkpt lat="32.6260300" lon="35.1278570">
<ele>100.199997</ele>
<time>2022-10-14T07:05:51.000Z</time>
</trkpt>
<trkpt lat="32.6260360" lon="35.1276560">
<ele>101.800003</ele>
<time>2022-10-14T07:06:02.000Z</time>
</trkpt>
<trkpt lat="32.6260390" lon="35.1276380">
<ele>102.000000</ele>
<time>2022-10-14T07:06:03.000Z</time>
</trkpt>
<trkpt lat="32.6260470" lon="35.1276000">
<ele>102.200005</ele>
<time>2022-10-14T07:06:05.000Z</time>
</trkpt>
<trkpt lat="32.6260490" lon="35.1275280">
<ele>102.599998</ele>
<time>2022-10-14T07:06:09.000Z</time>
</trkpt>
<trkpt lat="32.6260480" lon="35.1274890">
<ele>103.000000</ele>
<time>2022-10-14T07:06:11.000Z</time>
</trkpt>
<trkpt lat="32.6260520" lon="35.1274730">
<ele>103.000000</ele>
<time>2022-10-14T07:06:12.000Z</time>
</trkpt>
<trkpt lat="32.6260560" lon="35.1274130">
<ele>103.599998</ele>
<time>2022-10-14T07:06:15.000Z</time>
</trkpt>
<trkpt lat="32.6260520" lon="35.1273780">
<ele>103.599998</ele>
<time>2022-10-14T07:06:17.000Z</time>
</trkpt>
<trkpt lat="32.6260490" lon="35.1273600">
<ele>103.799995</ele>
<time>2022-10-14T07:06:18.000Z</time>
</trkpt>
<trkpt lat="32.6260440" lon="35.1273190">
<ele>104.200005</ele>
<time>2022-10-14T07:06:20.000Z</time>
</trkpt>
<trkpt lat="32.6260420" lon="35.1272820">
<ele>104.400002</ele>
<time>2022-10-14T07:06:22.000Z</time>
</trkpt>
<trkpt lat="32.6260560" lon="35.1271790">
<ele>105.000000</ele>
<time>2022-10-14T07:06:27.000Z</time>
</trkpt>
<trkpt lat="32.6260600" lon="35.1271570">
<ele>105.000000</ele>
<time>2022-10-14T07:06:28.000Z</time>
</trkpt>
<trkpt lat="32.6260640" lon="35.1270300">
<ele>106.599998</ele>
<time>2022-10-14T07:06:37.000Z</time>
</trkpt>
<trkpt lat="32.6260660" lon="35.1270090">
<ele>107.199997</ele>
<time>2022-10-14T07:06:39.000Z</time>
</trkpt>
<trkpt lat="32.6260690" lon="35.1270000">
<ele>107.400002</ele>
<time>2022-10-14T07:06:40.000Z</time>
</trkpt>
<trkpt lat="32.6260760" lon="35.1269870">
<ele>107.599998</ele>
<time>2022-10-14T07:06:41.000Z</time>
</trkpt>
<trkpt lat="32.6260810" lon="35.1269740">
<ele>108.000000</ele>
<time>2022-10-14T07:06:42.000Z</time>
</trkpt>
<trkpt lat="32.6260840" lon="35.1269610">
<ele>108.199997</ele>
<time>2022-10-14T07:06:43.000Z</time>
</trkpt>
<trkpt lat="32.6260880" lon="35.1269170">
<ele>108.800003</ele>
<time>2022-10-14T07:06:46.000Z</time>
</trkpt>
<trkpt lat="32.6260860" lon="35.1269010">
<ele>109.000000</ele>
<time>2022-10-14T07:06:47.000Z</time>
</trkpt>
<trkpt lat="32.6260900" lon="35.1268880">
<ele>109.200005</ele>
<time>2022-10-14T07:06:48.000Z</time>
</trkpt>
<trkpt lat="32.6260970" lon="35.1268620">
<ele>109.599998</ele>
<time>2022-10-14T07:06:50.000Z</time>
</trkpt>
<trkpt lat="32.6260980" lon="35.1268520">
<ele>109.799995</ele>
<time>2022-10-14T07:06:51.000Z</time>
</trkpt>
<trkpt lat="32.6260990" lon="35.1267920">
<ele>111.000000</ele>
<time>2022-10-14T07:06:56.000Z</time>
</trkpt>
<trkpt lat="32.6261010" lon="35.1267370">
<ele>112.000000</ele>
<time>2022-10-14T07:07:01.000Z</time>
</trkpt>
<trkpt lat="32.6261010" lon="35.1267130">
<ele>112.199997</ele>
<time>2022-10-14T07:07:03.000Z</time>
</trkpt>
<trkpt lat="32.6261100" lon="35.1266750">
<ele>112.999992</ele>
<time>2022-10-14T07:07:06.000Z</time>
</trkpt>
<trkpt lat="32.6261150" lon="35.1266610">
<ele>113.200005</ele>
<time>2022-10-14T07:07:07.000Z</time>
</trkpt>
<trkpt lat="32.6261180" lon="35.1266220">
<ele>113.599998</ele>
<time>2022-10-14T07:07:10.000Z</time>
</trkpt>
<trkpt lat="32.6261220" lon="35.1265950">
<ele>114.000000</ele>
<time>2022-10-14T07:07:12.000Z</time>
</trkpt>
<trkpt lat="32.6261250" lon="35.1265580">
<ele>114.599998</ele>
<time>2022-10-14T07:07:15.000Z</time>
</trkpt>
<trkpt lat="32.6261280" lon="35.1265360">
<ele>115.000000</ele>
<time>2022-10-14T07:07:17.000Z</time>
</trkpt>
<trkpt lat="32.6261280" lon="35.1265110">
<ele>115.200005</ele>
<time>2022-10-14T07:07:19.000Z</time>
</trkpt>
<trkpt lat="32.6261270" lon="35.1264990">
<ele>115.400002</ele>
<time>2022-10-14T07:07:20.000Z</time>
</trkpt>
<trkpt lat="32.6261290" lon="35.1264890">
<ele>115.600006</ele>
<time>2022-10-14T07:07:21.000Z</time>
</trkpt>
<trkpt lat="32.6261360" lon="35.1264810">
<ele>115.800003</ele>
<time>2022-10-14T07:07:22.000Z</time>
</trkpt>
<trkpt lat="32.6261100" lon="35.1264180">
<ele>117.000000</ele>
<time>2022-10-14T07:07:28.000Z</time>
</trkpt>
<trkpt lat="32.6261110" lon="35.1263670">
<ele>117.800003</ele>
<time>2022-10-14T07:07:32.000Z</time>
</trkpt>
<trkpt lat="32.6260210" lon="35.1262360">
<ele>120.000000</ele>
<time>2022-10-14T07:07:44.000Z</time>
</trkpt>
<trkpt lat="32.6260440" lon="35.1261010">
<ele>121.400002</ele>
<time>2022-10-14T07:07:54.000Z</time>
</trkpt>
<trkpt lat="32.6260600" lon="35.1260750">
<ele>121.799995</ele>
<time>2022-10-14T07:07:56.000Z</time>
</trkpt>
<trkpt lat="32.6260900" lon="35.1260240">
<ele>122.599998</ele>
<time>2022-10-14T07:08:01.000Z</time>
</trkpt>
<trkpt lat="32.6261030" lon="35.1260010">
<ele>123.199997</ele>
<time>2022-10-14T07:08:04.000Z</time>
</trkpt>
<trkpt lat="32.6261180" lon="35.1259850">
<ele>123.599998</ele>
<time>2022-10-14T07:08:06.000Z</time>
</trkpt>
<trkpt lat="32.6261230" lon="35.1259740">
<ele>123.599998</ele>
<time>2022-10-14T07:08:07.000Z</time>
</trkpt>
<trkpt lat="32.6261260" lon="35.1259440">
<ele>123.799995</ele>
<time>2022-10-14T07:08:09.000Z</time>
</trkpt>
<trkpt lat="32.6261370" lon="35.1259190">
<ele>124.199997</ele>
<time>2022-10-14T07:08:11.000Z</time>
</trkpt>
<trkpt lat="32.6261300" lon="35.1258650">
<ele>124.800003</ele>
<time>2022-10-14T07:08:15.000Z</time>
</trkpt>
<trkpt lat="32.6261080" lon="35.1258490">
<ele>125.400002</ele>
<time>2022-10-14T07:08:18.000Z</time>
</trkpt>
<trkpt lat="32.6260510" lon="35.1258410">
<ele>126.199997</ele>
<time>2022-10-14T07:08:23.000Z</time>
</trkpt>
<trkpt lat="32.6260170" lon="35.1258210">
<ele>126.600006</ele>
<time>2022-10-14T07:08:26.000Z</time>
</trkpt>
<trkpt lat="32.6259980" lon="35.1258200">
<ele>127.000000</ele>
<time>2022-10-14T07:08:28.000Z</time>
</trkpt>
<trkpt lat="32.6259700" lon="35.1258210">
<ele>127.200005</ele>
<time>2022-10-14T07:08:30.000Z</time>
</trkpt>
<trkpt lat="32.6259390" lon="35.1258320">
<ele>127.200005</ele>
<time>2022-10-14T07:08:32.000Z</time>
</trkpt>
<trkpt lat="32.6258660" lon="35.1258380">
<ele>127.599998</ele>
<time>2022-10-14T07:08:37.000Z</time>
</trkpt>
<trkpt lat="32.6258340" lon="35.1258320">
<ele>127.800003</ele>
<time>2022-10-14T07:08:39.000Z</time>
</trkpt>
<trkpt lat="32.6258190" lon="35.1258310">
<ele>127.800003</ele>
<time>2022-10-14T07:08:40.000Z</time>
</trkpt>
<trkpt lat="32.6257860" lon="35.1258330">
<ele>128.000000</ele>
<time>2022-10-14T07:08:42.000Z</time>
</trkpt>
<trkpt lat="32.6257510" lon="35.1258300">
<ele>128.199997</ele>
<time>2022-10-14T07:08:44.000Z</time>
</trkpt>
<trkpt lat="32.6257170" lon="35.1258280">
<ele>128.400009</ele>
<time>2022-10-14T07:08:46.000Z</time>
</trkpt>
<trkpt lat="32.6256820" lon="35.1258320">
<ele>128.600006</ele>
<time>2022-10-14T07:08:48.000Z</time>
</trkpt>
<trkpt lat="32.6256520" lon="35.1258410">
<ele>129.000000</ele>
<time>2022-10-14T07:08:50.000Z</time>
</trkpt>
<trkpt lat="32.6255730" lon="35.1258370">
<ele>129.399994</ele>
<time>2022-10-14T07:08:55.000Z</time>
</trkpt>
<trkpt lat="32.6254930" lon="35.1258250">
<ele>129.599991</ele>
<time>2022-10-14T07:08:59.000Z</time>
</trkpt>
<trkpt lat="32.6253950" lon="35.1257800">
<ele>130.000000</ele>
<time>2022-10-14T07:09:04.000Z</time>
</trkpt>
<trkpt lat="32.6253760" lon="35.1257680">
<ele>130.000000</ele>
<time>2022-10-14T07:09:05.000Z</time>
</trkpt>
<trkpt lat="32.6252670" lon="35.1256820">
<ele>130.199997</ele>
<time>2022-10-14T07:09:10.000Z</time>
</trkpt>
<trkpt lat="32.6251850" lon="35.1255610">
<ele>130.600006</ele>
<time>2022-10-14T07:09:15.000Z</time>
</trkpt>
<trkpt lat="32.6251280" lon="35.1254650">
<ele>131.000000</ele>
<time>2022-10-14T07:09:19.000Z</time>
</trkpt>
<trkpt lat="32.6250990" lon="35.1253550">
<ele>131.399994</ele>
<time>2022-10-14T07:09:23.000Z</time>
</trkpt>
<trkpt lat="32.6250880" lon="35.1253300">
<ele>131.399994</ele>
<time>2022-10-14T07:09:24.000Z</time>
</trkpt>
<trkpt lat="32.6250740" lon="35.1253070">
<ele>131.600006</ele>
<time>2022-10-14T07:09:25.000Z</time>
</trkpt>
<trkpt lat="32.6250100" lon="35.1252290">
<ele>131.800003</ele>
<time>2022-10-14T07:09:29.000Z</time>
</trkpt>
<trkpt lat="32.6249600" lon="35.1251460">
<ele>132.000000</ele>
<time>2022-10-14T07:09:32.000Z</time>
</trkpt>
<trkpt lat="32.6248600" lon="35.1249760">
<ele>131.600006</ele>
<time>2022-10-14T07:09:37.000Z</time>
</trkpt>
<trkpt lat="32.6248220" lon="35.1249050">
<ele>131.399994</ele>
<time>2022-10-14T07:09:39.000Z</time>
</trkpt>
<trkpt lat="32.6248020" lon="35.1248640">
<ele>131.399994</ele>
<time>2022-10-14T07:09:40.000Z</time>
</trkpt>
<trkpt lat="32.6246470" lon="35.1245800">
<ele>130.400009</ele>
<time>2022-10-14T07:09:47.000Z</time>
</trkpt>
<trkpt lat="32.6245710" lon="35.1243640">
<ele>130.199997</ele>
<time>2022-10-14T07:09:52.000Z</time>
</trkpt>
<trkpt lat="32.6245580" lon="35.1243150">
<ele>130.199997</ele>
<time>2022-10-14T07:09:53.000Z</time>
</trkpt>
<trkpt lat="32.6245480" lon="35.1242640">
<ele>130.199997</ele>
<time>2022-10-14T07:09:54.000Z</time>
</trkpt>
<trkpt lat="32.6245230" lon="35.1241270">
<ele>130.199997</ele>
<time>2022-10-14T07:09:57.000Z</time>
</trkpt>
<trkpt lat="32.6245200" lon="35.1240900">
<ele>130.600006</ele>
<time>2022-10-14T07:09:58.000Z</time>
</trkpt>
<trkpt lat="32.6245160" lon="35.1240570">
<ele>131.000000</ele>
<time>2022-10-14T07:09:59.000Z</time>
</trkpt>
<trkpt lat="32.6245110" lon="35.1240230">
<ele>131.199997</ele>
<time>2022-10-14T07:10:00.000Z</time>
</trkpt>
<trkpt lat="32.6245030" lon="35.1239590">
<ele>131.399994</ele>
<time>2022-10-14T07:10:02.000Z</time>
</trkpt>
<trkpt lat="32.6244890" lon="35.1238390">
<ele>131.800003</ele>
<time>2022-10-14T07:10:06.000Z</time>
</trkpt>
<trkpt lat="32.6244880" lon="35.1238110">
<ele>132.000000</ele>
<time>2022-10-14T07:10:07.000Z</time>
</trkpt>
<trkpt lat="32.6244810" lon="35.1237490">
<ele>132.400009</ele>
<time>2022-10-14T07:10:09.000Z</time>
</trkpt>
<trkpt lat="32.6244720" lon="35.1236510">
<ele>132.800003</ele>
<time>2022-10-14T07:10:12.000Z</time>
</trkpt>
<trkpt lat="32.6244580" lon="35.1235460">
<ele>132.800003</ele>
<time>2022-10-14T07:10:15.000Z</time>
</trkpt>
<trkpt lat="32.6244140" lon="35.1232430">
<ele>131.800003</ele>
<time>2022-10-14T07:10:21.000Z</time>
</trkpt>
<trkpt lat="32.6244100" lon="35.1231780">
<ele>131.600006</ele>
<time>2022-10-14T07:10:22.000Z</time>
</trkpt>
<trkpt lat="32.6244070" lon="35.1228250">
<ele>129.599991</ele>
<time>2022-10-14T07:10:27.000Z</time>
</trkpt>
<trkpt lat="32.6243620" lon="35.1226430">
<ele>129.199997</ele>
<time>2022-10-14T07:10:30.000Z</time>
</trkpt>
<trkpt lat="32.6243290" lon="35.1225620">
<ele>129.399994</ele>
<time>2022-10-14T07:10:32.000Z</time>
</trkpt>
<trkpt lat="32.6242920" lon="35.1225010">
<ele>129.800003</ele>
<time>2022-10-14T07:10:34.000Z</time>
</trkpt>
<trkpt lat="32.6242300" lon="35.1224160">
<ele>130.400009</ele>
<time>2022-10-14T07:10:37.000Z</time>
</trkpt>
<trkpt lat="32.6241690" lon="35.1223120">
<ele>130.600006</ele>
<time>2022-10-14T07:10:40.000Z</time>
</trkpt>
<trkpt lat="32.6241330" lon="35.1222230">
<ele>130.600006</ele>
<time>2022-10-14T07:10:42.000Z</time>
</trkpt>
<trkpt lat="32.6241150" lon="35.1221820">
<ele>130.600006</ele>
<time>2022-10-14T07:10:43.000Z</time>
</trkpt>
<trkpt lat="32.6240970" lon="35.1221400">
<ele>130.600006</ele>
<time>2022-10-14T07:10:44.000Z</time>
</trkpt>
<trkpt lat="32.6240160" lon="35.1219670">
<ele>131.399994</ele>
<time>2022-10-14T07:10:49.000Z</time>
</trkpt>
<trkpt lat="32.6239730" lon="35.1218570">
<ele>132.199997</ele>
<time>2022-10-14T07:10:53.000Z</time>
</trkpt>
<trkpt lat="32.6239560" lon="35.1218300">
<ele>132.400009</ele>
<time>2022-10-14T07:10:54.000Z</time>
</trkpt>
<trkpt lat="32.6239320" lon="35.1217730">
<ele>132.600006</ele>
<time>2022-10-14T07:10:56.000Z</time>
</trkpt>
<trkpt lat="32.6238990" lon="35.1215840">
<ele>133.199997</ele>
<time>2022-10-14T07:11:01.000Z</time>
</trkpt>
<trkpt lat="32.6239020" lon="35.1214660">
<ele>133.800003</ele>
<time>2022-10-14T07:11:05.000Z</time>
</trkpt>
<trkpt lat="32.6238980" lon="35.1214140">
<ele>134.199997</ele>
<time>2022-10-14T07:11:07.000Z</time>
</trkpt>
<trkpt lat="32.6238950" lon="35.1213910">
<ele>134.199997</ele>
<time>2022-10-14T07:11:08.000Z</time>
</trkpt>
<trkpt lat="32.6238910" lon="35.1213060">
<ele>134.599991</ele>
<time>2022-10-14T07:11:11.000Z</time>
</trkpt>
<trkpt lat="32.6238980" lon="35.1212520">
<ele>134.800003</ele>
<time>2022-10-14T07:11:13.000Z</time>
</trkpt>
<trkpt lat="32.6238950" lon="35.1212240">
<ele>134.800003</ele>
<time>2022-10-14T07:11:14.000Z</time>
</trkpt>
<trkpt lat="32.6238940" lon="35.1211660">
<ele>135.399994</ele>
<time>2022-10-14T07:11:16.000Z</time>
</trkpt>
<trkpt lat="32.6238970" lon="35.1211380">
<ele>135.399994</ele>
<time>2022-10-14T07:11:17.000Z</time>
</trkpt>
<trkpt lat="32.6239030" lon="35.1210860">
<ele>135.600006</ele>
<time>2022-10-14T07:11:19.000Z</time>
</trkpt>
<trkpt lat="32.6239070" lon="35.1210620">
<ele>135.800003</ele>
<time>2022-10-14T07:11:20.000Z</time>
</trkpt>
<trkpt lat="32.6239110" lon="35.1210020">
<ele>135.800003</ele>
<time>2022-10-14T07:11:23.000Z</time>
</trkpt>
<trkpt lat="32.6239290" lon="35.1207360">
<ele>135.800003</ele>
<time>2022-10-14T07:11:30.000Z</time>
</trkpt>
<trkpt lat="32.6239350" lon="35.1206960">
<ele>135.800003</ele>
<time>2022-10-14T07:11:31.000Z</time>
</trkpt>
<trkpt lat="32.6239490" lon="35.1205640">
<ele>135.600006</ele>
<time>2022-10-14T07:11:34.000Z</time>
</trkpt>
<trkpt lat="32.6239620" lon="35.1204550">
<ele>135.399994</ele>
<time>2022-10-14T07:11:36.000Z</time>
</trkpt>
<trkpt lat="32.6239720" lon="35.1203960">
<ele>135.399994</ele>
<time>2022-10-14T07:11:37.000Z</time>
</trkpt>
<trkpt lat="32.6239820" lon="35.1203320">
<ele>135.199997</ele>
<time>2022-10-14T07:11:38.000Z</time>
</trkpt>
<trkpt lat="32.6239930" lon="35.1202630">
<ele>134.800003</ele>
<time>2022-10-14T07:11:39.000Z</time>
</trkpt>
<trkpt lat="32.6241070" lon="35.1197920">
<ele>133.600006</ele>
<time>2022-10-14T07:11:46.000Z</time>
</trkpt>
<trkpt lat="32.6241540" lon="35.1196160">
<ele>133.600006</ele>
<time>2022-10-14T07:11:49.000Z</time>
</trkpt>
<trkpt lat="32.6241760" lon="35.1195560">
<ele>133.600006</ele>
<time>2022-10-14T07:11:50.000Z</time>
</trkpt>
<trkpt lat="32.6243030" lon="35.1192670">
<ele>133.000000</ele>
<time>2022-10-14T07:11:55.000Z</time>
</trkpt>
<trkpt lat="32.6243640" lon="35.1191640">
<ele>132.800003</ele>
<time>2022-10-14T07:11:57.000Z</time>
</trkpt>
<trkpt lat="32.6243880" lon="35.1191170">
<ele>132.400009</ele>
<time>2022-10-14T07:11:58.000Z</time>
</trkpt>
<trkpt lat="32.6243970" lon="35.1190760">
<ele>132.400009</ele>
<time>2022-10-14T07:11:59.000Z</time>
</trkpt>
<trkpt lat="32.6243920" lon="35.1190350">
<ele>132.199997</ele>
<time>2022-10-14T07:12:00.000Z</time>
</trkpt>
<trkpt lat="32.6243800" lon="35.1190010">
<ele>132.199997</ele>
<time>2022-10-14T07:12:01.000Z</time>
</trkpt>
<trkpt lat="32.6243640" lon="35.1189830">
<ele>132.199997</ele>
<time>2022-10-14T07:12:02.000Z</time>
</trkpt>
<trkpt lat="32.6243440" lon="35.1189760">
<ele>132.199997</ele>
<time>2022-10-14T07:12:03.000Z</time>
</trkpt>
<trkpt lat="32.6243080" lon="35.1189790">
<ele>132.600006</ele>
<time>2022-10-14T07:12:05.000Z</time>
</trkpt>
<trkpt lat="32.6242880" lon="35.1189870">
<ele>132.600006</ele>
<time>2022-10-14T07:12:06.000Z</time>
</trkpt>
<trkpt lat="32.6241360" lon="35.1191140">
<ele>133.000000</ele>
<time>2022-10-14T07:12:12.000Z</time>
</trkpt>
<trkpt lat="32.6241030" lon="35.1191350">
<ele>133.000000</ele>
<time>2022-10-14T07:12:13.000Z</time>
</trkpt>
<trkpt lat="32.6239840" lon="35.1191970">
<ele>132.800003</ele>
<time>2022-10-14T07:12:16.000Z</time>
</trkpt>
<trkpt lat="32.6239470" lon="35.1192280">
<ele>132.800003</ele>
<time>2022-10-14T07:12:17.000Z</time>
</trkpt>
<trkpt lat="32.6238650" lon="35.1192860">
<ele>132.800003</ele>
<time>2022-10-14T07:12:19.000Z</time>
</trkpt>
<trkpt lat="32.6237460" lon="35.1193750">
<ele>132.600006</ele>
<time>2022-10-14T07:12:22.000Z</time>
</trkpt>
<trkpt lat="32.6236680" lon="35.1194470">
<ele>132.600006</ele>
<time>2022-10-14T07:12:24.000Z</time>
</trkpt>
<trkpt lat="32.6235700" lon="35.1195410">
<ele>132.000000</ele>
<time>2022-10-14T07:12:26.000Z</time>
</trkpt>
<trkpt lat="32.6233290" lon="35.1197530">
<ele>130.600006</ele>
<time>2022-10-14T07:12:31.000Z</time>
</trkpt>
<trkpt lat="32.6231570" lon="35.1198620">
<ele>129.599991</ele>
<time>2022-10-14T07:12:34.000Z</time>
</trkpt>
<trkpt lat="32.6230940" lon="35.1198920">
<ele>129.399994</ele>
<time>2022-10-14T07:12:35.000Z</time>
</trkpt>
<trkpt lat="32.6229150" lon="35.1199460">
<ele>128.800003</ele>
<time>2022-10-14T07:12:38.000Z</time>
</trkpt>
<trkpt lat="32.6228060" lon="35.1199540">
<ele>128.800003</ele>
<time>2022-10-14T07:12:40.000Z</time>
</trkpt>
<trkpt lat="32.6227550" lon="35.1199550">
<ele>129.000000</ele>
<time>2022-10-14T07:12:41.000Z</time>
</trkpt>
<trkpt lat="32.6226170" lon="35.1199420">
<ele>129.800003</ele>
<time>2022-10-14T07:12:44.000Z</time>
</trkpt>
<trkpt lat="32.6225340" lon="35.1199230">
<ele>130.000000</ele>
<time>2022-10-14T07:12:46.000Z</time>
</trkpt>
<trkpt lat="32.6224270" lon="35.1198820">
<ele>130.400009</ele>
<time>2022-10-14T07:12:49.000Z</time>
</trkpt>
<trkpt lat="32.6223560" lon="35.1198560">
<ele>130.800003</ele>
<time>2022-10-14T07:12:51.000Z</time>
</trkpt>
<trkpt lat="32.6222450" lon="35.1198140">
<ele>131.199997</ele>
<time>2022-10-14T07:12:54.000Z</time>
</trkpt>
<trkpt lat="32.6221260" lon="35.1197520">
<ele>131.399994</ele>
<time>2022-10-14T07:12:57.000Z</time>
</trkpt>
<trkpt lat="32.6220310" lon="35.1196910">
<ele>131.800003</ele>
<time>2022-10-14T07:13:00.000Z</time>
</trkpt>
<trkpt lat="32.6219490" lon="35.1196400">
<ele>132.400009</ele>
<time>2022-10-14T07:13:03.000Z</time>
</trkpt>
<trkpt lat="32.6219050" lon="35.1196110">
<ele>133.000000</ele>
<time>2022-10-14T07:13:05.000Z</time>
</trkpt>
<trkpt lat="32.6218820" lon="35.1195960">
<ele>133.199997</ele>
<time>2022-10-14T07:13:06.000Z</time>
</trkpt>
<trkpt lat="32.6218390" lon="35.1195580">
<ele>133.600006</ele>
<time>2022-10-14T07:13:08.000Z</time>
</trkpt>
<trkpt lat="32.6217450" lon="35.1194970">
<ele>134.000000</ele>
<time>2022-10-14T07:13:12.000Z</time>
</trkpt>
<trkpt lat="32.6215600" lon="35.1193330">
<ele>135.000000</ele>
<time>2022-10-14T07:13:20.000Z</time>
</trkpt>
<trkpt lat="32.6214810" lon="35.1192380">
<ele>135.399994</ele>
<time>2022-10-14T07:13:24.000Z</time>
</trkpt>
<trkpt lat="32.6214180" lon="35.1191510">
<ele>135.800003</ele>
<time>2022-10-14T07:13:27.000Z</time>
</trkpt>
<trkpt lat="32.6213760" lon="35.1190910">
<ele>136.199997</ele>
<time>2022-10-14T07:13:29.000Z</time>
</trkpt>
<trkpt lat="32.6212230" lon="35.1189110">
<ele>138.000000</ele>
<time>2022-10-14T07:13:39.000Z</time>
</trkpt>
<trkpt lat="32.6212120" lon="35.1188900">
<ele>138.199997</ele>
<time>2022-10-14T07:13:40.000Z</time>
</trkpt>
<trkpt lat="32.6211750" lon="35.1188290">
<ele>138.599991</ele>
<time>2022-10-14T07:13:43.000Z</time>
</trkpt>
<trkpt lat="32.6211640" lon="35.1188090">
<ele>138.800003</ele>
<time>2022-10-14T07:13:44.000Z</time>
</trkpt>
<trkpt lat="32.6211450" lon="35.1187730">
<ele>139.000000</ele>
<time>2022-10-14T07:13:46.000Z</time>
</trkpt>
<trkpt lat="32.6210970" lon="35.1186990">
<ele>140.000000</ele>
<time>2022-10-14T07:13:51.000Z</time>
</trkpt>
<trkpt lat="32.6210860" lon="35.1186870">
<ele>140.000000</ele>
<time>2022-10-14T07:13:52.000Z</time>
</trkpt>
<trkpt lat="32.6210750" lon="35.1186730">
<ele>140.199997</ele>
<time>2022-10-14T07:13:53.000Z</time>
</trkpt>
<trkpt lat="32.6210250" lon="35.1186120">
<ele>140.800003</ele>
<time>2022-10-14T07:13:57.000Z</time>
</trkpt>
<trkpt lat="32.6209900" lon="35.1185560">
<ele>141.199997</ele>
<time>2022-10-14T07:14:00.000Z</time>
</trkpt>
<trkpt lat="32.6209630" lon="35.1185210">
<ele>141.400009</ele>
<time>2022-10-14T07:14:02.000Z</time>
</trkpt>
<trkpt lat="32.6209340" lon="35.1184970">
<ele>141.600006</ele>
<time>2022-10-14T07:14:04.000Z</time>
</trkpt>
<trkpt lat="32.6208810" lon="35.1184240">
<ele>142.199997</ele>
<time>2022-10-14T07:14:08.000Z</time>
</trkpt>
<trkpt lat="32.6208680" lon="35.1183880">
<ele>142.600006</ele>
<time>2022-10-14T07:14:10.000Z</time>
</trkpt>
<trkpt lat="32.6208450" lon="35.1183570">
<ele>142.800003</ele>
<time>2022-10-14T07:14:12.000Z</time>
</trkpt>
<trkpt lat="32.6208210" lon="35.1183230">
<ele>143.199997</ele>
<time>2022-10-14T07:14:14.000Z</time>
</trkpt>
<trkpt lat="32.6207970" lon="35.1182880">
<ele>143.399994</ele>
<time>2022-10-14T07:14:16.000Z</time>
</trkpt>
<trkpt lat="32.6207760" lon="35.1182500">
<ele>143.599991</ele>
<time>2022-10-14T07:14:18.000Z</time>
</trkpt>
<trkpt lat="32.6207650" lon="35.1182330">
<ele>143.800003</ele>
<time>2022-10-14T07:14:19.000Z</time>
</trkpt>
<trkpt lat="32.6207380" lon="35.1181740">
<ele>144.199997</ele>
<time>2022-10-14T07:14:22.000Z</time>
</trkpt>
<trkpt lat="32.6207270" lon="35.1181540">
<ele>144.199997</ele>
<time>2022-10-14T07:14:23.000Z</time>
</trkpt>
<trkpt lat="32.6207020" lon="35.1180940">
<ele>144.400009</ele>
<time>2022-10-14T07:14:26.000Z</time>
</trkpt>
<trkpt lat="32.6206910" lon="35.1180730">
<ele>144.600006</ele>
<time>2022-10-14T07:14:27.000Z</time>
</trkpt>
<trkpt lat="32.6206370" lon="35.1179510">
<ele>145.599991</ele>
<time>2022-10-14T07:14:33.000Z</time>
</trkpt>
<trkpt lat="32.6206150" lon="35.1178680">
<ele>145.800003</ele>
<time>2022-10-14T07:14:36.000Z</time>
</trkpt>
<trkpt lat="32.6206110" lon="35.1178420">
<ele>146.000000</ele>
<time>2022-10-14T07:14:37.000Z</time>
</trkpt>
<trkpt lat="32.6206000" lon="35.1177910">
<ele>146.000000</ele>
<time>2022-10-14T07:14:39.000Z</time>
</trkpt>
<trkpt lat="32.6206000" lon="35.1176530">
<ele>146.600006</ele>
<time>2022-10-14T07:14:44.000Z</time>
</trkpt>
<trkpt lat="32.6206050" lon="35.1176240">
<ele>146.800003</ele>
<time>2022-10-14T07:14:45.000Z</time>
</trkpt>
<trkpt lat="32.6206110" lon="35.1175960">
<ele>146.800003</ele>
<time>2022-10-14T07:14:46.000Z</time>
</trkpt>
<trkpt lat="32.6206150" lon="35.1175360">
<ele>147.199997</ele>
<time>2022-10-14T07:14:48.000Z</time>
</trkpt>
<trkpt lat="32.6206280" lon="35.1174800">
<ele>147.399994</ele>
<time>2022-10-14T07:14:50.000Z</time>
</trkpt>
<trkpt lat="32.6206310" lon="35.1174520">
<ele>147.600006</ele>
<time>2022-10-14T07:14:51.000Z</time>
</trkpt>
<trkpt lat="32.6206470" lon="35.1173880">
<ele>147.600006</ele>
<time>2022-10-14T07:14:53.000Z</time>
</trkpt>
<trkpt lat="32.6206710" lon="35.1172860">
<ele>148.199997</ele>
<time>2022-10-14T07:14:56.000Z</time>
</trkpt>
<trkpt lat="32.6206880" lon="35.1172140">
<ele>148.400009</ele>
<time>2022-10-14T07:14:58.000Z</time>
</trkpt>
<trkpt lat="32.6207100" lon="35.1171440">
<ele>148.800003</ele>
<time>2022-10-14T07:15:01.000Z</time>
</trkpt>
<trkpt lat="32.6207140" lon="35.1171240">
<ele>149.000000</ele>
<time>2022-10-14T07:15:02.000Z</time>
</trkpt>
<trkpt lat="32.6207180" lon="35.1171070">
<ele>149.399994</ele>
<time>2022-10-14T07:15:03.000Z</time>
</trkpt>
<trkpt lat="32.6207240" lon="35.1170720">
<ele>149.600006</ele>
<time>2022-10-14T07:15:05.000Z</time>
</trkpt>
<trkpt lat="32.6207350" lon="35.1170370">
<ele>149.800003</ele>
<time>2022-10-14T07:15:07.000Z</time>
</trkpt>
<trkpt lat="32.6207370" lon="35.1169490">
<ele>151.399994</ele>
<time>2022-10-14T07:15:13.000Z</time>
</trkpt>
<trkpt lat="32.6207410" lon="35.1169360">
<ele>151.600006</ele>
<time>2022-10-14T07:15:14.000Z</time>
</trkpt>
<trkpt lat="32.6207470" lon="35.1169140">
<ele>151.800003</ele>
<time>2022-10-14T07:15:15.000Z</time>
</trkpt>
<trkpt lat="32.6207530" lon="35.1168780">
<ele>152.000000</ele>
<time>2022-10-14T07:15:17.000Z</time>
</trkpt>
<trkpt lat="32.6207840" lon="35.1167320">
<ele>152.399994</ele>
<time>2022-10-14T07:15:23.000Z</time>
</trkpt>
<trkpt lat="32.6207820" lon="35.1166780">
<ele>152.599991</ele>
<time>2022-10-14T07:15:25.000Z</time>
</trkpt>
<trkpt lat="32.6207820" lon="35.1166210">
<ele>152.599991</ele>
<time>2022-10-14T07:15:27.000Z</time>
</trkpt>
<trkpt lat="32.6207850" lon="35.1165930">
<ele>152.800003</ele>
<time>2022-10-14T07:15:28.000Z</time>
</trkpt>
<trkpt lat="32.6207770" lon="35.1165270">
<ele>152.800003</ele>
<time>2022-10-14T07:15:30.000Z</time>
</trkpt>
<trkpt lat="32.6207650" lon="35.1164910">
<ele>152.800003</ele>
<time>2022-10-14T07:15:31.000Z</time>
</trkpt>
<trkpt lat="32.6207500" lon="35.1164080">
<ele>152.800003</ele>
<time>2022-10-14T07:15:33.000Z</time>
</trkpt>
<trkpt lat="32.6207460" lon="35.1163690">
<ele>152.599991</ele>
<time>2022-10-14T07:15:34.000Z</time>
</trkpt>
<trkpt lat="32.6207300" lon="35.1162930">
<ele>152.800003</ele>
<time>2022-10-14T07:15:36.000Z</time>
</trkpt>
<trkpt lat="32.6207240" lon="35.1162550">
<ele>152.800003</ele>
<time>2022-10-14T07:15:37.000Z</time>
</trkpt>
<trkpt lat="32.6207150" lon="35.1161770">
<ele>153.000000</ele>
<time>2022-10-14T07:15:39.000Z</time>
</trkpt>
<trkpt lat="32.6207170" lon="35.1161430">
<ele>153.000000</ele>
<time>2022-10-14T07:15:40.000Z</time>
</trkpt>
<trkpt lat="32.6206990" lon="35.1160620">
<ele>153.199997</ele>
<time>2022-10-14T07:15:43.000Z</time>
</trkpt>
<trkpt lat="32.6206940" lon="35.1160340">
<ele>153.199997</ele>
<time>2022-10-14T07:15:44.000Z</time>
</trkpt>
<trkpt lat="32.6206800" lon="35.1159810">
<ele>153.400009</ele>
<time>2022-10-14T07:15:46.000Z</time>
</trkpt>
<trkpt lat="32.6206460" lon="35.1158920">
<ele>153.800003</ele>
<time>2022-10-14T07:15:50.000Z</time>
</trkpt>
<trkpt lat="32.6206450" lon="35.1158740">
<ele>154.000000</ele>
<time>2022-10-14T07:15:51.000Z</time>
</trkpt>
<trkpt lat="32.6206230" lon="35.1158160">
<ele>154.399994</ele>
<time>2022-10-14T07:15:54.000Z</time>
</trkpt>
<trkpt lat="32.6206360" lon="35.1158120">
<ele>154.399994</ele>
<time>2022-10-14T07:16:23.000Z</time>
</trkpt>
<trkpt lat="32.6206430" lon="35.1158180">
<ele>154.599991</ele>
<time>2022-10-14T07:16:53.000Z</time>
</trkpt>
<trkpt lat="32.6206190" lon="35.1157860">
<ele>154.599991</ele>
<time>2022-10-14T07:17:04.000Z</time>
</trkpt>
<trkpt lat="32.6206150" lon="35.1157700">
<ele>154.599991</ele>
<time>2022-10-14T07:17:05.000Z</time>
</trkpt>
<trkpt lat="32.6206220" lon="35.1157380">
<ele>154.599991</ele>
<time>2022-10-14T07:17:07.000Z</time>
</trkpt>
<trkpt lat="32.6206280" lon="35.1157200">
<ele>154.800003</ele>
<time>2022-10-14T07:17:08.000Z</time>
</trkpt>
<trkpt lat="32.6206260" lon="35.1156470">
<ele>155.800003</ele>
<time>2022-10-14T07:17:12.000Z</time>
</trkpt>
<trkpt lat="32.6205820" lon="35.1155450">
<ele>156.799988</ele>
<time>2022-10-14T07:17:17.000Z</time>
</trkpt>
<trkpt lat="32.6205530" lon="35.1154900">
<ele>157.200012</ele>
<time>2022-10-14T07:17:21.000Z</time>
</trkpt>
<trkpt lat="32.6205370" lon="35.1154490">
<ele>157.800003</ele>
<time>2022-10-14T07:17:24.000Z</time>
</trkpt>
<trkpt lat="32.6205340" lon="35.1154320">
<ele>158.000000</ele>
<time>2022-10-14T07:17:25.000Z</time>
</trkpt>
<trkpt lat="32.6205160" lon="35.1153790">
<ele>158.199997</ele>
<time>2022-10-14T07:17:28.000Z</time>
</trkpt>
<trkpt lat="32.6205110" lon="35.1153590">
<ele>158.199997</ele>
<time>2022-10-14T07:17:29.000Z</time>
</trkpt>
<trkpt lat="32.6205040" lon="35.1153390">
<ele>158.400009</ele>
<time>2022-10-14T07:17:30.000Z</time>
</trkpt>
<trkpt lat="32.6204760" lon="35.1152810">
<ele>158.599991</ele>
<time>2022-10-14T07:17:33.000Z</time>
</trkpt>
<trkpt lat="32.6204180" lon="35.1152050">
<ele>158.599991</ele>
<time>2022-10-14T07:17:36.000Z</time>
</trkpt>
<trkpt lat="32.6203670" lon="35.1151410">
<ele>158.400009</ele>
<time>2022-10-14T07:17:38.000Z</time>
</trkpt>
<trkpt lat="32.6203470" lon="35.1150980">
<ele>158.000000</ele>
<time>2022-10-14T07:17:39.000Z</time>
</trkpt>
<trkpt lat="32.6203210" lon="35.1150050">
<ele>157.600006</ele>
<time>2022-10-14T07:17:41.000Z</time>
</trkpt>
<trkpt lat="32.6203010" lon="35.1149380">
<ele>157.399994</ele>
<time>2022-10-14T07:17:43.000Z</time>
</trkpt>
<trkpt lat="32.6202760" lon="35.1149040">
<ele>157.399994</ele>
<time>2022-10-14T07:17:44.000Z</time>
</trkpt>
<trkpt lat="32.6201470" lon="35.1147570">
<ele>157.200012</ele>
<time>2022-10-14T07:17:49.000Z</time>
</trkpt>
<trkpt lat="32.6200880" lon="35.1147240">
<ele>157.000000</ele>
<time>2022-10-14T07:17:51.000Z</time>
</trkpt>
<trkpt lat="32.6200290" lon="35.1147040">
<ele>157.000000</ele>
<time>2022-10-14T07:17:53.000Z</time>
</trkpt>
<trkpt lat="32.6200170" lon="35.1146870">
<ele>157.000000</ele>
<time>2022-10-14T07:17:54.000Z</time>
</trkpt>
<trkpt lat="32.6200300" lon="35.1146440">
<ele>157.200012</ele>
<time>2022-10-14T07:17:56.000Z</time>
</trkpt>
<trkpt lat="32.6200670" lon="35.1146260">
<ele>157.600006</ele>
<time>2022-10-14T07:17:58.000Z</time>
</trkpt>
<trkpt lat="32.6201090" lon="35.1146340">
<ele>157.800003</ele>
<time>2022-10-14T07:18:00.000Z</time>
</trkpt>
<trkpt lat="32.6202130" lon="35.1146670">
<ele>158.199997</ele>
<time>2022-10-14T07:18:05.000Z</time>
</trkpt>
<trkpt lat="32.6202300" lon="35.1146660">
<ele>158.400009</ele>
<time>2022-10-14T07:18:06.000Z</time>
</trkpt>
<trkpt lat="32.6202480" lon="35.1146620">
<ele>158.599991</ele>
<time>2022-10-14T07:18:07.000Z</time>
</trkpt>
<trkpt lat="32.6202960" lon="35.1146690">
<ele>159.000000</ele>
<time>2022-10-14T07:18:10.000Z</time>
</trkpt>
<trkpt lat="32.6203080" lon="35.1146810">
<ele>159.199997</ele>
<time>2022-10-14T07:18:11.000Z</time>
</trkpt>
<trkpt lat="32.6203210" lon="35.1146980">
<ele>159.199997</ele>
<time>2022-10-14T07:18:12.000Z</time>
</trkpt>
<trkpt lat="32.6203280" lon="35.1147190">
<ele>159.399994</ele>
<time>2022-10-14T07:18:13.000Z</time>
</trkpt>
<trkpt lat="32.6203490" lon="35.1147740">
<ele>159.600006</ele>
<time>2022-10-14T07:18:16.000Z</time>
</trkpt>
<trkpt lat="32.6203780" lon="35.1148280">
<ele>160.200012</ele>
<time>2022-10-14T07:18:20.000Z</time>
</trkpt>
<trkpt lat="32.6204050" lon="35.1148560">
<ele>160.800003</ele>
<time>2022-10-14T07:18:23.000Z</time>
</trkpt>
<trkpt lat="32.6204380" lon="35.1149070">
<ele>161.599991</ele>
<time>2022-10-14T07:18:27.000Z</time>
</trkpt>
<trkpt lat="32.6204430" lon="35.1149150">
<ele>161.800003</ele>
<time>2022-10-14T07:18:28.000Z</time>
</trkpt>
<trkpt lat="32.6204460" lon="35.1149270">
<ele>161.999985</ele>
<time>2022-10-14T07:18:29.000Z</time>
</trkpt>
<trkpt lat="32.6204860" lon="35.1149730">
<ele>162.800003</ele>
<time>2022-10-14T07:18:34.000Z</time>
</trkpt>
<trkpt lat="32.6205330" lon="35.1150140">
<ele>163.399994</ele>
<time>2022-10-14T07:18:38.000Z</time>
</trkpt>
<trkpt lat="32.6205500" lon="35.1150440">
<ele>163.600006</ele>
<time>2022-10-14T07:18:40.000Z</time>
</trkpt>
<trkpt lat="32.6206030" lon="35.1151000">
<ele>163.799988</ele>
<time>2022-10-14T07:18:44.000Z</time>
</trkpt>
<trkpt lat="32.6206230" lon="35.1151240">
<ele>164.200012</ele>
<time>2022-10-14T07:18:46.000Z</time>
</trkpt>
<trkpt lat="32.6206770" lon="35.1151840">
<ele>165.400009</ele>
<time>2022-10-14T07:18:52.000Z</time>
</trkpt>
<trkpt lat="32.6207230" lon="35.1152210">
<ele>166.000000</ele>
<time>2022-10-14T07:18:57.000Z</time>
</trkpt>
<trkpt lat="32.6208110" lon="35.1153490">
<ele>166.600006</ele>
<time>2022-10-14T07:19:04.000Z</time>
</trkpt>
<trkpt lat="32.6208430" lon="35.1153890">
<ele>166.600006</ele>
<time>2022-10-14T07:19:06.000Z</time>
</trkpt>
<trkpt lat="32.6208530" lon="35.1154070">
<ele>166.600006</ele>
<time>2022-10-14T07:19:07.000Z</time>
</trkpt>
<trkpt lat="32.6208690" lon="35.1154490">
<ele>166.800003</ele>
<time>2022-10-14T07:19:10.000Z</time>
</trkpt>
<trkpt lat="32.6209060" lon="35.1155000">
<ele>167.200012</ele>
<time>2022-10-14T07:19:14.000Z</time>
</trkpt>
<trkpt lat="32.6209090" lon="35.1155130">
<ele>167.399994</ele>
<time>2022-10-14T07:19:15.000Z</time>
</trkpt>
<trkpt lat="32.6209230" lon="35.1155400">
<ele>167.600006</ele>
<time>2022-10-14T07:19:17.000Z</time>
</trkpt>
<trkpt lat="32.6209670" lon="35.1155670">
<ele>168.000000</ele>
<time>2022-10-14T07:19:22.000Z</time>
</trkpt>
<trkpt lat="32.6210010" lon="35.1155950">
<ele>168.999985</ele>
<time>2022-10-14T07:19:25.000Z</time>
</trkpt>
<trkpt lat="32.6210360" lon="35.1156460">
<ele>169.599991</ele>
<time>2022-10-14T07:19:29.000Z</time>
</trkpt>
<trkpt lat="32.6210440" lon="35.1156560">
<ele>170.000000</ele>
<time>2022-10-14T07:19:30.000Z</time>
</trkpt>
<trkpt lat="32.6210730" lon="35.1156670">
<ele>170.399994</ele>
<time>2022-10-14T07:19:33.000Z</time>
</trkpt>
<trkpt lat="32.6210900" lon="35.1156500">
<ele>170.799988</ele>
<time>2022-10-14T07:19:35.000Z</time>
</trkpt>
<trkpt lat="32.6210900" lon="35.1156250">
<ele>171.000000</ele>
<time>2022-10-14T07:19:37.000Z</time>
</trkpt>
<trkpt lat="32.6210850" lon="35.1156110">
<ele>171.200012</ele>
<time>2022-10-14T07:19:38.000Z</time>
</trkpt>
<trkpt lat="32.6210750" lon="35.1155790">
<ele>171.600006</ele>
<time>2022-10-14T07:19:41.000Z</time>
</trkpt>
<trkpt lat="32.6210590" lon="35.1155660">
<ele>171.600006</ele>
<time>2022-10-14T07:19:43.000Z</time>
</trkpt>
<trkpt lat="32.6210300" lon="35.1155210">
<ele>171.600006</ele>
<time>2022-10-14T07:19:45.000Z</time>
</trkpt>
<trkpt lat="32.6210180" lon="35.1154660">
<ele>171.399994</ele>
<time>2022-10-14T07:19:47.000Z</time>
</trkpt>
<trkpt lat="32.6210130" lon="35.1154430">
<ele>171.200012</ele>
<time>2022-10-14T07:19:48.000Z</time>
</trkpt>
<trkpt lat="32.6209490" lon="35.1153260">
<ele>171.200012</ele>
<time>2022-10-14T07:19:54.000Z</time>
</trkpt>
<trkpt lat="32.6209210" lon="35.1152330">
<ele>170.799988</ele>
<time>2022-10-14T07:19:57.000Z</time>
</trkpt>
<trkpt lat="32.6209100" lon="35.1152020">
<ele>170.799988</ele>
<time>2022-10-14T07:19:58.000Z</time>
</trkpt>
<trkpt lat="32.6209030" lon="35.1151740">
<ele>170.799988</ele>
<time>2022-10-14T07:19:59.000Z</time>
</trkpt>
<trkpt lat="32.6209040" lon="35.1151310">
<ele>170.799988</ele>
<time>2022-10-14T07:20:01.000Z</time>
</trkpt>
<trkpt lat="32.6208700" lon="35.1150510">
<ele>170.600006</ele>
<time>2022-10-14T07:20:04.000Z</time>
</trkpt>
<trkpt lat="32.6208700" lon="35.1150130">
<ele>170.600006</ele>
<time>2022-10-14T07:20:05.000Z</time>
</trkpt>
<trkpt lat="32.6208980" lon="35.1149400">
<ele>170.600006</ele>
<time>2022-10-14T07:20:07.000Z</time>
</trkpt>
<trkpt lat="32.6209170" lon="35.1148630">
<ele>170.600006</ele>
<time>2022-10-14T07:20:10.000Z</time>
</trkpt>
<trkpt lat="32.6209150" lon="35.1148420">
<ele>170.600006</ele>
<time>2022-10-14T07:20:11.000Z</time>
</trkpt>
<trkpt lat="32.6208730" lon="35.1147110">
<ele>170.000000</ele>
<time>2022-10-14T07:20:16.000Z</time>
</trkpt>
<trkpt lat="32.6208570" lon="35.1146050">
<ele>169.800003</ele>
<time>2022-10-14T07:20:18.000Z</time>
</trkpt>
<trkpt lat="32.6208600" lon="35.1145520">
<ele>169.599991</ele>
<time>2022-10-14T07:20:19.000Z</time>
</trkpt>
<trkpt lat="32.6208840" lon="35.1145120">
<ele>169.599991</ele>
<time>2022-10-14T07:20:20.000Z</time>
</trkpt>
<trkpt lat="32.6209630" lon="35.1144740">
<ele>169.599991</ele>
<time>2022-10-14T07:20:24.000Z</time>
</trkpt>
<trkpt lat="32.6210280" lon="35.1144170">
<ele>169.800003</ele>
<time>2022-10-14T07:20:29.000Z</time>
</trkpt>
<trkpt lat="32.6211050" lon="35.1142890">
<ele>170.399994</ele>
<time>2022-10-14T07:20:37.000Z</time>
</trkpt>
<trkpt lat="32.6211150" lon="35.1142680">
<ele>170.399994</ele>
<time>2022-10-14T07:20:38.000Z</time>
</trkpt>
<trkpt lat="32.6211190" lon="35.1142490">
<ele>170.399994</ele>
<time>2022-10-14T07:20:39.000Z</time>
</trkpt>
<trkpt lat="32.6211230" lon="35.1141720">
<ele>170.399994</ele>
<time>2022-10-14T07:20:42.000Z</time>
</trkpt>
<trkpt lat="32.6210660" lon="35.1140420">
<ele>170.600006</ele>
<time>2022-10-14T07:20:49.000Z</time>
</trkpt>
<trkpt lat="32.6210360" lon="35.1140160">
<ele>171.000000</ele>
<time>2022-10-14T07:20:51.000Z</time>
</trkpt>
<trkpt lat="32.6209570" lon="35.1139830">
<ele>171.200012</ele>
<time>2022-10-14T07:20:55.000Z</time>
</trkpt>
<trkpt lat="32.6208720" lon="35.1138930">
<ele>171.800003</ele>
<time>2022-10-14T07:21:01.000Z</time>
</trkpt>
<trkpt lat="32.6208220" lon="35.1138460">
<ele>172.199997</ele>
<time>2022-10-14T07:21:05.000Z</time>
</trkpt>
<trkpt lat="32.6208170" lon="35.1138430">
<ele>172.400009</ele>
<time>2022-10-14T07:21:06.000Z</time>
</trkpt>
<trkpt lat="32.6208130" lon="35.1138460">
<ele>172.800003</ele>
<time>2022-10-14T07:21:11.000Z</time>
</trkpt>
<trkpt lat="32.6208000" lon="35.1138050">
<ele>173.199997</ele>
<time>2022-10-14T07:21:17.000Z</time>
</trkpt>
<trkpt lat="32.6207970" lon="35.1137980">
<ele>173.199997</ele>
<time>2022-10-14T07:21:18.000Z</time>
</trkpt>
<trkpt lat="32.6207740" lon="35.1137900">
<ele>173.400009</ele>
<time>2022-10-14T07:21:26.000Z</time>
</trkpt>
<trkpt lat="32.6207640" lon="35.1137870">
<ele>173.600006</ele>
<time>2022-10-14T07:21:27.000Z</time>
</trkpt>
<trkpt lat="32.6207360" lon="35.1137760">
<ele>173.600006</ele>
<time>2022-10-14T07:21:29.000Z</time>
</trkpt>
<trkpt lat="32.6206960" lon="35.1137270">
<ele>173.800003</ele>
<time>2022-10-14T07:21:32.000Z</time>
</trkpt>
<trkpt lat="32.6206830" lon="35.1136580">
<ele>174.000000</ele>
<time>2022-10-14T07:21:35.000Z</time>
</trkpt>
<trkpt lat="32.6206080" lon="35.1135820">
<ele>174.000000</ele>
<time>2022-10-14T07:21:40.000Z</time>
</trkpt>
<trkpt lat="32.6205980" lon="35.1135620">
<ele>174.000000</ele>
<time>2022-10-14T07:21:41.000Z</time>
</trkpt>
<trkpt lat="32.6205950" lon="35.1135180">
<ele>174.000000</ele>
<time>2022-10-14T07:21:43.000Z</time>
</trkpt>
<trkpt lat="32.6206010" lon="35.1134950">
<ele>174.000000</ele>
<time>2022-10-14T07:21:44.000Z</time>
</trkpt>
<trkpt lat="32.6206590" lon="35.1134080">
<ele>174.799988</ele>
<time>2022-10-14T07:21:51.000Z</time>
</trkpt>
<trkpt lat="32.6206730" lon="35.1134050">
<ele>175.199997</ele>
<time>2022-10-14T07:21:52.000Z</time>
</trkpt>
<trkpt lat="32.6206870" lon="35.1134090">
<ele>175.399994</ele>
<time>2022-10-14T07:21:53.000Z</time>
</trkpt>
<trkpt lat="32.6207150" lon="35.1134250">
<ele>175.999985</ele>
<time>2022-10-14T07:21:55.000Z</time>
</trkpt>
<trkpt lat="32.6207550" lon="35.1134380">
<ele>176.199997</ele>
<time>2022-10-14T07:21:58.000Z</time>
</trkpt>
<trkpt lat="32.6207950" lon="35.1134220">
<ele>176.800003</ele>
<time>2022-10-14T07:22:01.000Z</time>
</trkpt>
<trkpt lat="32.6208290" lon="35.1133860">
<ele>177.399994</ele>
<time>2022-10-14T07:22:05.000Z</time>
</trkpt>
<trkpt lat="32.6208490" lon="35.1133750">
<ele>177.600006</ele>
<time>2022-10-14T07:22:07.000Z</time>
</trkpt>
<trkpt lat="32.6208810" lon="35.1133560">
<ele>178.000000</ele>
<time>2022-10-14T07:22:10.000Z</time>
</trkpt>
<trkpt lat="32.6208940" lon="35.1133510">
<ele>178.200012</ele>
<time>2022-10-14T07:22:11.000Z</time>
</trkpt>
<trkpt lat="32.6209450" lon="35.1133330">
<ele>178.399994</ele>
<time>2022-10-14T07:22:14.000Z</time>
</trkpt>
<trkpt lat="32.6209950" lon="35.1133110">
<ele>178.600006</ele>
<time>2022-10-14T07:22:17.000Z</time>
</trkpt>
<trkpt lat="32.6210100" lon="35.1133040">
<ele>178.800003</ele>
<time>2022-10-14T07:22:18.000Z</time>
</trkpt>
<trkpt lat="32.6210960" lon="35.1132420">
<ele>179.400009</ele>
<time>2022-10-14T07:22:24.000Z</time>
</trkpt>
<trkpt lat="32.6211400" lon="35.1132000">
<ele>179.800003</ele>
<time>2022-10-14T07:22:27.000Z</time>
</trkpt>
<trkpt lat="32.6212320" lon="35.1131540">
<ele>180.199997</ele>
<time>2022-10-14T07:22:32.000Z</time>
</trkpt>
<trkpt lat="32.6213240" lon="35.1130990">
<ele>180.199997</ele>
<time>2022-10-14T07:22:37.000Z</time>
</trkpt>
<trkpt lat="32.6214260" lon="35.1130300">
<ele>180.199997</ele>
<time>2022-10-14T07:22:42.000Z</time>
</trkpt>
<trkpt lat="32.6214400" lon="35.1130060">
<ele>180.199997</ele>
<time>2022-10-14T07:22:43.000Z</time>
</trkpt>
<trkpt lat="32.6214520" lon="35.1129510">
<ele>180.000015</ele>
<time>2022-10-14T07:22:45.000Z</time>
</trkpt>
<trkpt lat="32.6214570" lon="35.1129270">
<ele>180.000015</ele>
<time>2022-10-14T07:22:46.000Z</time>
</trkpt>
<trkpt lat="32.6214650" lon="35.1129040">
<ele>180.000015</ele>
<time>2022-10-14T07:22:47.000Z</time>
</trkpt>
<trkpt lat="32.6214800" lon="35.1128830">
<ele>180.000015</ele>
<time>2022-10-14T07:22:48.000Z</time>
</trkpt>
<trkpt lat="32.6215050" lon="35.1128630">
<ele>180.000015</ele>
<time>2022-10-14T07:22:49.000Z</time>
</trkpt>
<trkpt lat="32.6215360" lon="35.1128440">
<ele>180.000015</ele>
<time>2022-10-14T07:22:50.000Z</time>
</trkpt>
<trkpt lat="32.6217480" lon="35.1126230">
<ele>178.600006</ele>
<time>2022-10-14T07:22:56.000Z</time>
</trkpt>
<trkpt lat="32.6217600" lon="35.1125880">
<ele>178.399994</ele>
<time>2022-10-14T07:22:57.000Z</time>
</trkpt>
<trkpt lat="32.6217530" lon="35.1125550">
<ele>178.399994</ele>
<time>2022-10-14T07:22:58.000Z</time>
</trkpt>
<trkpt lat="32.6217360" lon="35.1125280">
<ele>178.800003</ele>
<time>2022-10-14T07:22:59.000Z</time>
</trkpt>
<trkpt lat="32.6216910" lon="35.1124980">
<ele>179.199997</ele>
<time>2022-10-14T07:23:01.000Z</time>
</trkpt>
<trkpt lat="32.6216440" lon="35.1125010">
<ele>179.599991</ele>
<time>2022-10-14T07:23:03.000Z</time>
</trkpt>
<trkpt lat="32.6215960" lon="35.1125420">
<ele>179.800003</ele>
<time>2022-10-14T07:23:05.000Z</time>
</trkpt>
<trkpt lat="32.6214580" lon="35.1126220">
<ele>180.400009</ele>
<time>2022-10-14T07:23:10.000Z</time>
</trkpt>
<trkpt lat="32.6214250" lon="35.1126380">
<ele>180.800003</ele>
<time>2022-10-14T07:23:12.000Z</time>
</trkpt>
<trkpt lat="32.6213690" lon="35.1127010">
<ele>181.600006</ele>
<time>2022-10-14T07:23:17.000Z</time>
</trkpt>
<trkpt lat="32.6213280" lon="35.1127240">
<ele>182.000000</ele>
<time>2022-10-14T07:23:19.000Z</time>
</trkpt>
<trkpt lat="32.6213110" lon="35.1127270">
<ele>182.000000</ele>
<time>2022-10-14T07:23:20.000Z</time>
</trkpt>
<trkpt lat="32.6212960" lon="35.1127170">
<ele>182.199997</ele>
<time>2022-10-14T07:23:21.000Z</time>
</trkpt>
<trkpt lat="32.6212810" lon="35.1126810">
<ele>182.600006</ele>
<time>2022-10-14T07:23:23.000Z</time>
</trkpt>
<trkpt lat="32.6212810" lon="35.1126600">
<ele>182.800003</ele>
<time>2022-10-14T07:23:24.000Z</time>
</trkpt>
<trkpt lat="32.6212920" lon="35.1126370">
<ele>183.000000</ele>
<time>2022-10-14T07:23:25.000Z</time>
</trkpt>
<trkpt lat="32.6213380" lon="35.1125850">
<ele>183.000000</ele>
<time>2022-10-14T07:23:27.000Z</time>
</trkpt>
<trkpt lat="32.6213530" lon="35.1125530">
<ele>182.800003</ele>
<time>2022-10-14T07:23:28.000Z</time>
</trkpt>
<trkpt lat="32.6213670" lon="35.1124760">
<ele>182.800003</ele>
<time>2022-10-14T07:23:30.000Z</time>
</trkpt>
<trkpt lat="32.6213970" lon="35.1124100">
<ele>182.800003</ele>
<time>2022-10-14T07:23:32.000Z</time>
</trkpt>
<trkpt lat="32.6214180" lon="35.1123790">
<ele>182.800003</ele>
<time>2022-10-14T07:23:33.000Z</time>
</trkpt>
<trkpt lat="32.6214350" lon="35.1123490">
<ele>183.000000</ele>
<time>2022-10-14T07:23:34.000Z</time>
</trkpt>
<trkpt lat="32.6214460" lon="35.1122810">
<ele>183.000000</ele>
<time>2022-10-14T07:23:36.000Z</time>
</trkpt>
<trkpt lat="32.6214580" lon="35.1122300">
<ele>183.199997</ele>
<time>2022-10-14T07:23:38.000Z</time>
</trkpt>
<trkpt lat="32.6214810" lon="35.1121860">
<ele>183.400009</ele>
<time>2022-10-14T07:23:40.000Z</time>
</trkpt>
<trkpt lat="32.6215490" lon="35.1121650">
<ele>183.400009</ele>
<time>2022-10-14T07:23:43.000Z</time>
</trkpt>
<trkpt lat="32.6215960" lon="35.1121660">
<ele>183.199997</ele>
<time>2022-10-14T07:23:45.000Z</time>
</trkpt>
<trkpt lat="32.6216160" lon="35.1121750">
<ele>183.000000</ele>
<time>2022-10-14T07:23:46.000Z</time>
</trkpt>
<trkpt lat="32.6216280" lon="35.1121930">
<ele>183.000000</ele>
<time>2022-10-14T07:23:47.000Z</time>
</trkpt>
<trkpt lat="32.6216310" lon="35.1122260">
<ele>182.800003</ele>
<time>2022-10-14T07:23:48.000Z</time>
</trkpt>
<trkpt lat="32.6216460" lon="35.1123010">
<ele>182.800003</ele>
<time>2022-10-14T07:23:50.000Z</time>
</trkpt>
<trkpt lat="32.6216670" lon="35.1123350">
<ele>182.399994</ele>
<time>2022-10-14T07:23:51.000Z</time>
</trkpt>
<trkpt lat="32.6216940" lon="35.1123590">
<ele>182.199997</ele>
<time>2022-10-14T07:23:52.000Z</time>
</trkpt>
<trkpt lat="32.6217510" lon="35.1123810">
<ele>182.000000</ele>
<time>2022-10-14T07:23:54.000Z</time>
</trkpt>
<trkpt lat="32.6218650" lon="35.1124580">
<ele>182.399994</ele>
<time>2022-10-14T07:24:00.000Z</time>
</trkpt>
<trkpt lat="32.6219180" lon="35.1124620">
<ele>182.800003</ele>
<time>2022-10-14T07:24:03.000Z</time>
</trkpt>
<trkpt lat="32.6219980" lon="35.1124520">
<ele>183.199997</ele>
<time>2022-10-14T07:24:07.000Z</time>
</trkpt>
<trkpt lat="32.6220280" lon="35.1124490">
<ele>183.800003</ele>
<time>2022-10-14T07:24:09.000Z</time>
</trkpt>
<trkpt lat="32.6220620" lon="35.1124370">
<ele>184.199997</ele>
<time>2022-10-14T07:24:11.000Z</time>
</trkpt>
<trkpt lat="32.6221130" lon="35.1124480">
<ele>184.799988</ele>
<time>2022-10-14T07:24:14.000Z</time>
</trkpt>
<trkpt lat="32.6221430" lon="35.1124230">
<ele>185.000000</ele>
<time>2022-10-14T07:24:16.000Z</time>
</trkpt>
<trkpt lat="32.6221450" lon="35.1124090">
<ele>185.000000</ele>
<time>2022-10-14T07:24:17.000Z</time>
</trkpt>
<trkpt lat="32.6220940" lon="35.1123180">
<ele>186.199997</ele>
<time>2022-10-14T07:24:24.000Z</time>
</trkpt>
<trkpt lat="32.6220660" lon="35.1122860">
<ele>186.599991</ele>
<time>2022-10-14T07:24:27.000Z</time>
</trkpt>
<trkpt lat="32.6220600" lon="35.1122730">
<ele>186.599991</ele>
<time>2022-10-14T07:24:28.000Z</time>
</trkpt>
<trkpt lat="32.6219770" lon="35.1122080">
<ele>187.199997</ele>
<time>2022-10-14T07:24:34.000Z</time>
</trkpt>
<trkpt lat="32.6219610" lon="35.1121960">
<ele>187.199997</ele>
<time>2022-10-14T07:24:35.000Z</time>
</trkpt>
<trkpt lat="32.6219300" lon="35.1121540">
<ele>187.199997</ele>
<time>2022-10-14T07:24:37.000Z</time>
</trkpt>
<trkpt lat="32.6218690" lon="35.1121080">
<ele>187.199997</ele>
<time>2022-10-14T07:24:40.000Z</time>
</trkpt>
<trkpt lat="32.6217320" lon="35.1120530">
<ele>187.599991</ele>
<time>2022-10-14T07:24:46.000Z</time>
</trkpt>
<trkpt lat="32.6217090" lon="35.1120410">
<ele>187.599991</ele>
<time>2022-10-14T07:24:47.000Z</time>
</trkpt>
<trkpt lat="32.6216660" lon="35.1120120">
<ele>187.800003</ele>
<time>2022-10-14T07:24:49.000Z</time>
</trkpt>
<trkpt lat="32.6216260" lon="35.1119950">
<ele>188.000000</ele>
<time>2022-10-14T07:24:51.000Z</time>
</trkpt>
<trkpt lat="32.6215420" lon="35.1119170">
<ele>189.000000</ele>
<time>2022-10-14T07:24:56.000Z</time>
</trkpt>
<trkpt lat="32.6215240" lon="35.1118960">
<ele>189.000000</ele>
<time>2022-10-14T07:24:57.000Z</time>
</trkpt>
<trkpt lat="32.6214870" lon="35.1118550">
<ele>189.200012</ele>
<time>2022-10-14T07:24:59.000Z</time>
</trkpt>
<trkpt lat="32.6214790" lon="35.1118020">
<ele>189.399994</ele>
<time>2022-10-14T07:25:01.000Z</time>
</trkpt>
<trkpt lat="32.6214870" lon="35.1117820">
<ele>189.399994</ele>
<time>2022-10-14T07:25:02.000Z</time>
</trkpt>
<trkpt lat="32.6214980" lon="35.1117720">
<ele>189.600006</ele>
<time>2022-10-14T07:25:03.000Z</time>
</trkpt>
<trkpt lat="32.6215220" lon="35.1117670">
<ele>189.800003</ele>
<time>2022-10-14T07:25:04.000Z</time>
</trkpt>
<trkpt lat="32.6215610" lon="35.1117620">
<ele>190.000000</ele>
<time>2022-10-14T07:25:06.000Z</time>
</trkpt>
<trkpt lat="32.6215880" lon="35.1117490">
<ele>190.199997</ele>
<time>2022-10-14T07:25:08.000Z</time>
</trkpt>
<trkpt lat="32.6215990" lon="35.1117440">
<ele>190.599991</ele>
<time>2022-10-14T07:25:09.000Z</time>
</trkpt>
<trkpt lat="32.6216390" lon="35.1117260">
<ele>191.000000</ele>
<time>2022-10-14T07:25:12.000Z</time>
</trkpt>
<trkpt lat="32.6216570" lon="35.1116770">
<ele>191.600006</ele>
<time>2022-10-14T07:25:16.000Z</time>
</trkpt>
<trkpt lat="32.6216590" lon="35.1116400">
<ele>192.200012</ele>
<time>2022-10-14T07:25:19.000Z</time>
</trkpt>
<trkpt lat="32.6216520" lon="35.1116230">
<ele>192.399994</ele>
<time>2022-10-14T07:25:20.000Z</time>
</trkpt>
<trkpt lat="32.6215750" lon="35.1115120">
<ele>193.199997</ele>
<time>2022-10-14T07:25:28.000Z</time>
</trkpt>
<trkpt lat="32.6215450" lon="35.1115020">
<ele>193.400009</ele>
<time>2022-10-14T07:25:30.000Z</time>
</trkpt>
<trkpt lat="32.6214620" lon="35.1114580">
<ele>194.199997</ele>
<time>2022-10-14T07:25:35.000Z</time>
</trkpt>
<trkpt lat="32.6214190" lon="35.1114460">
<ele>194.199997</ele>
<time>2022-10-14T07:25:37.000Z</time>
</trkpt>
<trkpt lat="32.6213780" lon="35.1114270">
<ele>194.400009</ele>
<time>2022-10-14T07:25:39.000Z</time>
</trkpt>
<trkpt lat="32.6213050" lon="35.1113930">
<ele>194.599991</ele>
<time>2022-10-14T07:25:42.000Z</time>
</trkpt>
<trkpt lat="32.6212840" lon="35.1113710">
<ele>194.800003</ele>
<time>2022-10-14T07:25:43.000Z</time>
</trkpt>
<trkpt lat="32.6212250" lon="35.1112650">
<ele>195.600006</ele>
<time>2022-10-14T07:25:48.000Z</time>
</trkpt>
<trkpt lat="32.6211820" lon="35.1112380">
<ele>196.000000</ele>
<time>2022-10-14T07:25:51.000Z</time>
</trkpt>
<trkpt lat="32.6211530" lon="35.1112320">
<ele>196.600006</ele>
<time>2022-10-14T07:25:53.000Z</time>
</trkpt>
<trkpt lat="32.6211420" lon="35.1112290">
<ele>196.600006</ele>
<time>2022-10-14T07:25:54.000Z</time>
</trkpt>
<trkpt lat="32.6211260" lon="35.1112310">
<ele>196.800003</ele>
<time>2022-10-14T07:25:55.000Z</time>
</trkpt>
<trkpt lat="32.6210710" lon="35.1112390">
<ele>196.600006</ele>
<time>2022-10-14T07:25:57.000Z</time>
</trkpt>
<trkpt lat="32.6209850" lon="35.1112450">
<ele>196.600006</ele>
<time>2022-10-14T07:26:00.000Z</time>
</trkpt>
<trkpt lat="32.6209580" lon="35.1112520">
<ele>196.600006</ele>
<time>2022-10-14T07:26:01.000Z</time>
</trkpt>
<trkpt lat="32.6207930" lon="35.1112400">
<ele>196.800003</ele>
<time>2022-10-14T07:26:07.000Z</time>
</trkpt>
<trkpt lat="32.6207050" lon="35.1112510">
<ele>197.400009</ele>
<time>2022-10-14T07:26:11.000Z</time>
</trkpt>
<trkpt lat="32.6206640" lon="35.1112700">
<ele>197.400009</ele>
<time>2022-10-14T07:26:13.000Z</time>
</trkpt>
<trkpt lat="32.6205710" lon="35.1113030">
<ele>197.599991</ele>
<time>2022-10-14T07:26:16.000Z</time>
</trkpt>
<trkpt lat="32.6204590" lon="35.1113300">
<ele>197.400009</ele>
<time>2022-10-14T07:26:19.000Z</time>
</trkpt>
<trkpt lat="32.6203760" lon="35.1113260">
<ele>197.199997</ele>
<time>2022-10-14T07:26:21.000Z</time>
</trkpt>
<trkpt lat="32.6202760" lon="35.1113210">
<ele>197.000000</ele>
<time>2022-10-14T07:26:24.000Z</time>
</trkpt>
<trkpt lat="32.6202400" lon="35.1113350">
<ele>196.800003</ele>
<time>2022-10-14T07:26:25.000Z</time>
</trkpt>
<trkpt lat="32.6202070" lon="35.1113490">
<ele>196.800003</ele>
<time>2022-10-14T07:26:26.000Z</time>
</trkpt>
<trkpt lat="32.6201710" lon="35.1113670">
<ele>196.600006</ele>
<time>2022-10-14T07:26:27.000Z</time>
</trkpt>
<trkpt lat="32.6201240" lon="35.1113720">
<ele>196.600006</ele>
<time>2022-10-14T07:26:28.000Z</time>
</trkpt>
<trkpt lat="32.6200700" lon="35.1113830">
<ele>196.399994</ele>
<time>2022-10-14T07:26:29.000Z</time>
</trkpt>
<trkpt lat="32.6199950" lon="35.1114310">
<ele>195.600006</ele>
<time>2022-10-14T07:26:31.000Z</time>
</trkpt>
<trkpt lat="32.6199410" lon="35.1114400">
<ele>195.000000</ele>
<time>2022-10-14T07:26:32.000Z</time>
</trkpt>
<trkpt lat="32.6198340" lon="35.1114370">
<ele>194.199997</ele>
<time>2022-10-14T07:26:34.000Z</time>
</trkpt>
<trkpt lat="32.6197960" lon="35.1114470">
<ele>193.800003</ele>
<time>2022-10-14T07:26:35.000Z</time>
</trkpt>
<trkpt lat="32.6197570" lon="35.1114750">
<ele>193.599991</ele>
<time>2022-10-14T07:26:36.000Z</time>
</trkpt>
<trkpt lat="32.6196970" lon="35.1114970">
<ele>192.800003</ele>
<time>2022-10-14T07:26:38.000Z</time>
</trkpt>
<trkpt lat="32.6196490" lon="35.1115580">
<ele>191.799988</ele>
<time>2022-10-14T07:26:40.000Z</time>
</trkpt>
<trkpt lat="32.6196400" lon="35.1115830">
<ele>191.199997</ele>
<time>2022-10-14T07:26:41.000Z</time>
</trkpt>
<trkpt lat="32.6196480" lon="35.1116090">
<ele>190.599991</ele>
<time>2022-10-14T07:26:42.000Z</time>
</trkpt>
<trkpt lat="32.6196700" lon="35.1116370">
<ele>190.199997</ele>
<time>2022-10-14T07:26:43.000Z</time>
</trkpt>
<trkpt lat="32.6197010" lon="35.1116630">
<ele>189.800003</ele>
<time>2022-10-14T07:26:44.000Z</time>
</trkpt>
<trkpt lat="32.6197900" lon="35.1117230">
<ele>188.799988</ele>
<time>2022-10-14T07:26:47.000Z</time>
</trkpt>
<trkpt lat="32.6198100" lon="35.1117460">
<ele>188.600006</ele>
<time>2022-10-14T07:26:48.000Z</time>
</trkpt>
<trkpt lat="32.6198150" lon="35.1117760">
<ele>188.399994</ele>
<time>2022-10-14T07:26:49.000Z</time>
</trkpt>
<trkpt lat="32.6198100" lon="35.1118090">
<ele>188.199997</ele>
<time>2022-10-14T07:26:50.000Z</time>
</trkpt>
<trkpt lat="32.6197740" lon="35.1118650">
<ele>187.000015</ele>
<time>2022-10-14T07:26:52.000Z</time>
</trkpt>
<trkpt lat="32.6197460" lon="35.1118840">
<ele>186.400009</ele>
<time>2022-10-14T07:26:53.000Z</time>
</trkpt>
<trkpt lat="32.6196750" lon="35.1119050">
<ele>185.000000</ele>
<time>2022-10-14T07:26:55.000Z</time>
</trkpt>
<trkpt lat="32.6196400" lon="35.1119080">
<ele>184.600006</ele>
<time>2022-10-14T07:26:56.000Z</time>
</trkpt>
<trkpt lat="32.6195820" lon="35.1119140">
<ele>184.000000</ele>
<time>2022-10-14T07:26:58.000Z</time>
</trkpt>
<trkpt lat="32.6194290" lon="35.1119930">
<ele>182.800003</ele>
<time>2022-10-14T07:27:03.000Z</time>
</trkpt>
<trkpt lat="32.6193720" lon="35.1120430">
<ele>182.000000</ele>
<time>2022-10-14T07:27:05.000Z</time>
</trkpt>
<trkpt lat="32.6193450" lon="35.1120590">
<ele>181.600006</ele>
<time>2022-10-14T07:27:06.000Z</time>
</trkpt>
<trkpt lat="32.6192750" lon="35.1120770">
<ele>180.800003</ele>
<time>2022-10-14T07:27:08.000Z</time>
</trkpt>
<trkpt lat="32.6192310" lon="35.1120800">
<ele>180.199997</ele>
<time>2022-10-14T07:27:09.000Z</time>
</trkpt>
<trkpt lat="32.6191190" lon="35.1120500">
<ele>179.199997</ele>
<time>2022-10-14T07:27:12.000Z</time>
</trkpt>
<trkpt lat="32.6190350" lon="35.1120040">
<ele>179.400009</ele>
<time>2022-10-14T07:27:15.000Z</time>
</trkpt>
<trkpt lat="32.6189670" lon="35.1119390">
<ele>179.599991</ele>
<time>2022-10-14T07:27:18.000Z</time>
</trkpt>
<trkpt lat="32.6189060" lon="35.1118480">
<ele>179.400009</ele>
<time>2022-10-14T07:27:21.000Z</time>
</trkpt>
<trkpt lat="32.6188420" lon="35.1116910">
<ele>179.000000</ele>
<time>2022-10-14T07:27:25.000Z</time>
</trkpt>
<trkpt lat="32.6188410" lon="35.1116160">
<ele>178.399994</ele>
<time>2022-10-14T07:27:27.000Z</time>
</trkpt>
<trkpt lat="32.6188380" lon="35.1115750">
<ele>178.399994</ele>
<time>2022-10-14T07:27:28.000Z</time>
</trkpt>
<trkpt lat="32.6188460" lon="35.1115030">
<ele>178.200012</ele>
<time>2022-10-14T07:27:30.000Z</time>
</trkpt>
<trkpt lat="32.6188350" lon="35.1113820">
<ele>178.200012</ele>
<time>2022-10-14T07:27:33.000Z</time>
</trkpt>
<trkpt lat="32.6188180" lon="35.1112910">
<ele>178.000000</ele>
<time>2022-10-14T07:27:35.000Z</time>
</trkpt>
<trkpt lat="32.6187680" lon="35.1111030">
<ele>176.800003</ele>
<time>2022-10-14T07:27:38.000Z</time>
</trkpt>
<trkpt lat="32.6187530" lon="35.1110230">
<ele>176.400009</ele>
<time>2022-10-14T07:27:39.000Z</time>
</trkpt>
<trkpt lat="32.6187510" lon="35.1109860">
<ele>176.199997</ele>
<time>2022-10-14T07:27:40.000Z</time>
</trkpt>
<trkpt lat="32.6187440" lon="35.1109590">
<ele>175.599991</ele>
<time>2022-10-14T07:27:41.000Z</time>
</trkpt>
<trkpt lat="32.6187400" lon="35.1109240">
<ele>175.399994</ele>
<time>2022-10-14T07:27:42.000Z</time>
</trkpt>
<trkpt lat="32.6187440" lon="35.1108880">
<ele>175.199997</ele>
<time>2022-10-14T07:27:43.000Z</time>
</trkpt>
<trkpt lat="32.6187410" lon="35.1108580">
<ele>175.000000</ele>
<time>2022-10-14T07:27:44.000Z</time>
</trkpt>
<trkpt lat="32.6187290" lon="35.1108160">
<ele>174.600006</ele>
<time>2022-10-14T07:27:45.000Z</time>
</trkpt>
<trkpt lat="32.6186860" lon="35.1107170">
<ele>174.200012</ele>
<time>2022-10-14T07:27:47.000Z</time>
</trkpt>
<trkpt lat="32.6186760" lon="35.1106620">
<ele>173.600006</ele>
<time>2022-10-14T07:27:48.000Z</time>
</trkpt>
<trkpt lat="32.6186780" lon="35.1105500">
<ele>172.800003</ele>
<time>2022-10-14T07:27:50.000Z</time>
</trkpt>
<trkpt lat="32.6186630" lon="35.1104780">
<ele>172.599991</ele>
<time>2022-10-14T07:27:52.000Z</time>
</trkpt>
<trkpt lat="32.6186590" lon="35.1104010">
<ele>172.800003</ele>
<time>2022-10-14T07:27:58.000Z</time>
</trkpt>
<trkpt lat="32.6186660" lon="35.1103470">
<ele>173.000015</ele>
<time>2022-10-14T07:28:00.000Z</time>
</trkpt>
<trkpt lat="32.6186650" lon="35.1103140">
<ele>173.000015</ele>
<time>2022-10-14T07:28:01.000Z</time>
</trkpt>
<trkpt lat="32.6186580" lon="35.1102430">
<ele>173.000015</ele>
<time>2022-10-14T07:28:03.000Z</time>
</trkpt>
<trkpt lat="32.6186570" lon="35.1101990">
<ele>173.000015</ele>
<time>2022-10-14T07:28:04.000Z</time>
</trkpt>
<trkpt lat="32.6186550" lon="35.1101470">
<ele>173.000015</ele>
<time>2022-10-14T07:28:05.000Z</time>
</trkpt>
<trkpt lat="32.6186670" lon="35.1100510">
<ele>173.199997</ele>
<time>2022-10-14T07:28:07.000Z</time>
</trkpt>
<trkpt lat="32.6186680" lon="35.1100060">
<ele>173.400009</ele>
<time>2022-10-14T07:28:08.000Z</time>
</trkpt>
<trkpt lat="32.6186540" lon="35.1099270">
<ele>173.800003</ele>
<time>2022-10-14T07:28:10.000Z</time>
</trkpt>
<trkpt lat="32.6186200" lon="35.1098090">
<ele>174.200012</ele>
<time>2022-10-14T07:28:13.000Z</time>
</trkpt>
<trkpt lat="32.6186120" lon="35.1097710">
<ele>174.399994</ele>
<time>2022-10-14T07:28:14.000Z</time>
</trkpt>
<trkpt lat="32.6186090" lon="35.1097380">
<ele>174.399994</ele>
<time>2022-10-14T07:28:15.000Z</time>
</trkpt>
<trkpt lat="32.6186090" lon="35.1097100">
<ele>174.399994</ele>
<time>2022-10-14T07:28:16.000Z</time>
</trkpt>
<trkpt lat="32.6186040" lon="35.1096820">
<ele>174.600006</ele>
<time>2022-10-14T07:28:17.000Z</time>
</trkpt>
<trkpt lat="32.6185490" lon="35.1095930">
<ele>174.600006</ele>
<time>2022-10-14T07:28:19.000Z</time>
</trkpt>
<trkpt lat="32.6185420" lon="35.1095550">
<ele>174.600006</ele>
<time>2022-10-14T07:28:20.000Z</time>
</trkpt>
<trkpt lat="32.6185430" lon="35.1095220">
<ele>174.600006</ele>
<time>2022-10-14T07:28:21.000Z</time>
</trkpt>
<trkpt lat="32.6185510" lon="35.1094940">
<ele>174.600006</ele>
<time>2022-10-14T07:28:22.000Z</time>
</trkpt>
<trkpt lat="32.6185820" lon="35.1094290">
<ele>175.199997</ele>
<time>2022-10-14T07:28:26.000Z</time>
</trkpt>
<trkpt lat="32.6185850" lon="35.1094140">
<ele>175.399994</ele>
<time>2022-10-14T07:28:27.000Z</time>
</trkpt>
<trkpt lat="32.6185940" lon="35.1094020">
<ele>175.599991</ele>
<time>2022-10-14T07:28:28.000Z</time>
</trkpt>
<trkpt lat="32.6185950" lon="35.1093890">
<ele>175.599991</ele>
<time>2022-10-14T07:28:29.000Z</time>
</trkpt>
<trkpt lat="32.6185960" lon="35.1093700">
<ele>175.599991</ele>
<time>2022-10-14T07:28:30.000Z</time>
</trkpt>
<trkpt lat="32.6186050" lon="35.1093390">
<ele>175.800003</ele>
<time>2022-10-14T07:28:32.000Z</time>
</trkpt>
<trkpt lat="32.6186080" lon="35.1092730">
<ele>175.999985</ele>
<time>2022-10-14T07:28:35.000Z</time>
</trkpt>
<trkpt lat="32.6186190" lon="35.1091800">
<ele>176.400009</ele>
<time>2022-10-14T07:28:39.000Z</time>
</trkpt>
<trkpt lat="32.6186200" lon="35.1091610">
<ele>176.400009</ele>
<time>2022-10-14T07:28:40.000Z</time>
</trkpt>
<trkpt lat="32.6186180" lon="35.1091410">
<ele>176.599991</ele>
<time>2022-10-14T07:28:41.000Z</time>
</trkpt>
<trkpt lat="32.6186250" lon="35.1091040">
<ele>177.199997</ele>
<time>2022-10-14T07:28:43.000Z</time>
</trkpt>
<trkpt lat="32.6186720" lon="35.1089950">
<ele>177.600006</ele>
<time>2022-10-14T07:28:48.000Z</time>
</trkpt>
<trkpt lat="32.6187140" lon="35.1089360">
<ele>177.600006</ele>
<time>2022-10-14T07:28:52.000Z</time>
</trkpt>
<trkpt lat="32.6187690" lon="35.1088940">
<ele>177.799988</ele>
<time>2022-10-14T07:28:56.000Z</time>
</trkpt>
<trkpt lat="32.6188410" lon="35.1088490">
<ele>178.000000</ele>
<time>2022-10-14T07:29:00.000Z</time>
</trkpt>
<trkpt lat="32.6188640" lon="35.1088420">
<ele>178.000000</ele>
<time>2022-10-14T07:29:01.000Z</time>
</trkpt>
<trkpt lat="32.6189070" lon="35.1088300">
<ele>178.200012</ele>
<time>2022-10-14T07:29:03.000Z</time>
</trkpt>
<trkpt lat="32.6189790" lon="35.1088140">
<ele>178.399994</ele>
<time>2022-10-14T07:29:06.000Z</time>
</trkpt>
<trkpt lat="32.6190250" lon="35.1088040">
<ele>178.600006</ele>
<time>2022-10-14T07:29:08.000Z</time>
</trkpt>
<trkpt lat="32.6191170" lon="35.1087870">
<ele>178.600006</ele>
<time>2022-10-14T07:29:12.000Z</time>
</trkpt>
<trkpt lat="32.6192200" lon="35.1087670">
<ele>178.800003</ele>
<time>2022-10-14T07:29:16.000Z</time>
</trkpt>
<trkpt lat="32.6193030" lon="35.1087510">
<ele>179.000000</ele>
<time>2022-10-14T07:29:19.000Z</time>
</trkpt>
<trkpt lat="32.6193570" lon="35.1087400">
<ele>179.199997</ele>
<time>2022-10-14T07:29:21.000Z</time>
</trkpt>
<trkpt lat="32.6193860" lon="35.1087330">
<ele>179.400009</ele>
<time>2022-10-14T07:29:22.000Z</time>
</trkpt>
<trkpt lat="32.6195210" lon="35.1086930">
<ele>179.800003</ele>
<time>2022-10-14T07:29:27.000Z</time>
</trkpt>
<trkpt lat="32.6195660" lon="35.1086780">
<ele>180.000015</ele>
<time>2022-10-14T07:29:29.000Z</time>
</trkpt>
<trkpt lat="32.6196430" lon="35.1086640">
<ele>180.400009</ele>
<time>2022-10-14T07:29:33.000Z</time>
</trkpt>
<trkpt lat="32.6196850" lon="35.1086510">
<ele>180.600006</ele>
<time>2022-10-14T07:29:35.000Z</time>
</trkpt>
<trkpt lat="32.6197080" lon="35.1086450">
<ele>180.600006</ele>
<time>2022-10-14T07:29:36.000Z</time>
</trkpt>
<trkpt lat="32.6198060" lon="35.1086080">
<ele>181.199997</ele>
<time>2022-10-14T07:29:40.000Z</time>
</trkpt>
<trkpt lat="32.6198310" lon="35.1085970">
<ele>181.199997</ele>
<time>2022-10-14T07:29:41.000Z</time>
</trkpt>
<trkpt lat="32.6200080" lon="35.1085340">
<ele>182.000000</ele>
<time>2022-10-14T07:29:48.000Z</time>
</trkpt>
<trkpt lat="32.6200370" lon="35.1085260">
<ele>182.199997</ele>
<time>2022-10-14T07:29:49.000Z</time>
</trkpt>
<trkpt lat="32.6200920" lon="35.1085150">
<ele>182.399994</ele>
<time>2022-10-14T07:29:51.000Z</time>
</trkpt>
<trkpt lat="32.6201180" lon="35.1085080">
<ele>182.600006</ele>
<time>2022-10-14T07:29:52.000Z</time>
</trkpt>
<trkpt lat="32.6201710" lon="35.1084980">
<ele>183.000000</ele>
<time>2022-10-14T07:29:54.000Z</time>
</trkpt>
<trkpt lat="32.6202220" lon="35.1084920">
<ele>183.199997</ele>
<time>2022-10-14T07:29:56.000Z</time>
</trkpt>
<trkpt lat="32.6203480" lon="35.1084700">
<ele>184.000000</ele>
<time>2022-10-14T07:30:01.000Z</time>
</trkpt>
<trkpt lat="32.6203900" lon="35.1084630">
<ele>184.199997</ele>
<time>2022-10-14T07:30:03.000Z</time>
</trkpt>
<trkpt lat="32.6204130" lon="35.1084610">
<ele>184.399994</ele>
<time>2022-10-14T07:30:04.000Z</time>
</trkpt>
<trkpt lat="32.6208000" lon="35.1084620">
<ele>186.400009</ele>
<time>2022-10-14T07:30:20.000Z</time>
</trkpt>
<trkpt lat="32.6208250" lon="35.1084630">
<ele>186.599991</ele>
<time>2022-10-14T07:30:21.000Z</time>
</trkpt>
<trkpt lat="32.6209020" lon="35.1084680">
<ele>186.800003</ele>
<time>2022-10-14T07:30:24.000Z</time>
</trkpt>
<trkpt lat="32.6209740" lon="35.1084910">
<ele>187.199997</ele>
<time>2022-10-14T07:30:27.000Z</time>
</trkpt>
<trkpt lat="32.6210260" lon="35.1085170">
<ele>187.599991</ele>
<time>2022-10-14T07:30:29.000Z</time>
</trkpt>
<trkpt lat="32.6210770" lon="35.1085370">
<ele>187.800003</ele>
<time>2022-10-14T07:30:31.000Z</time>
</trkpt>
<trkpt lat="32.6211040" lon="35.1085430">
<ele>187.800003</ele>
<time>2022-10-14T07:30:32.000Z</time>
</trkpt>
<trkpt lat="32.6211520" lon="35.1085530">
<ele>188.000000</ele>
<time>2022-10-14T07:30:34.000Z</time>
</trkpt>
<trkpt lat="32.6212070" lon="35.1085600">
<ele>188.000000</ele>
<time>2022-10-14T07:30:36.000Z</time>
</trkpt>
<trkpt lat="32.6212380" lon="35.1085620">
<ele>188.000000</ele>
<time>2022-10-14T07:30:37.000Z</time>
</trkpt>
<trkpt lat="32.6214030" lon="35.1085660">
<ele>187.800003</ele>
<time>2022-10-14T07:30:42.000Z</time>
</trkpt>
<trkpt lat="32.6215390" lon="35.1085960">
<ele>187.199997</ele>
<time>2022-10-14T07:30:45.000Z</time>
</trkpt>
<trkpt lat="32.6216350" lon="35.1086480">
<ele>186.599991</ele>
<time>2022-10-14T07:30:47.000Z</time>
</trkpt>
<trkpt lat="32.6217160" lon="35.1087220">
<ele>186.199997</ele>
<time>2022-10-14T07:30:49.000Z</time>
</trkpt>
<trkpt lat="32.6217840" lon="35.1088030">
<ele>185.800003</ele>
<time>2022-10-14T07:30:51.000Z</time>
</trkpt>
<trkpt lat="32.6218220" lon="35.1088380">
<ele>185.600006</ele>
<time>2022-10-14T07:30:52.000Z</time>
</trkpt>
<trkpt lat="32.6218640" lon="35.1088660">
<ele>185.399994</ele>
<time>2022-10-14T07:30:53.000Z</time>
</trkpt>
<trkpt lat="32.6219450" lon="35.1089360">
<ele>185.000000</ele>
<time>2022-10-14T07:30:55.000Z</time>
</trkpt>
<trkpt lat="32.6219710" lon="35.1089720">
<ele>185.000000</ele>
<time>2022-10-14T07:30:56.000Z</time>
</trkpt>
<trkpt lat="32.6220220" lon="35.1090820">
<ele>184.799988</ele>
<time>2022-10-14T07:30:58.000Z</time>
</trkpt>
<trkpt lat="32.6220420" lon="35.1091330">
<ele>184.600006</ele>
<time>2022-10-14T07:30:59.000Z</time>
</trkpt>
<trkpt lat="32.6220640" lon="35.1091750">
<ele>184.600006</ele>
<time>2022-10-14T07:31:00.000Z</time>
</trkpt>
<trkpt lat="32.6221080" lon="35.1092230">
<ele>184.399994</ele>
<time>2022-10-14T07:31:02.000Z</time>
</trkpt>
<trkpt lat="32.6221610" lon="35.1092300">
<ele>184.399994</ele>
<time>2022-10-14T07:31:04.000Z</time>
</trkpt>
<trkpt lat="32.6221800" lon="35.1092240">
<ele>184.199997</ele>
<time>2022-10-14T07:31:05.000Z</time>
</trkpt>
<trkpt lat="32.6221940" lon="35.1092140">
<ele>184.199997</ele>
<time>2022-10-14T07:31:06.000Z</time>
</trkpt>
<trkpt lat="32.6222060" lon="35.1091960">
<ele>184.199997</ele>
<time>2022-10-14T07:31:07.000Z</time>
</trkpt>
<trkpt lat="32.6222410" lon="35.1091230">
<ele>184.399994</ele>
<time>2022-10-14T07:31:10.000Z</time>
</trkpt>
<trkpt lat="32.6222580" lon="35.1091010">
<ele>184.600006</ele>
<time>2022-10-14T07:31:12.000Z</time>
</trkpt>
<trkpt lat="32.6222580" lon="35.1091040">
<ele>184.600006</ele>
<time>2022-10-14T07:31:15.000Z</time>
</trkpt>
<trkpt lat="32.6222560" lon="35.1091050">
<ele>184.600006</ele>
<time>2022-10-14T07:31:20.000Z</time>
</trkpt>
<trkpt lat="32.6222540" lon="35.1090710">
<ele>184.600006</ele>
<time>2022-10-14T07:31:22.000Z</time>
</trkpt>
<trkpt lat="32.6222570" lon="35.1090490">
<ele>184.600006</ele>
<time>2022-10-14T07:31:23.000Z</time>
</trkpt>
<trkpt lat="32.6222610" lon="35.1088780">
<ele>184.600006</ele>
<time>2022-10-14T07:31:28.000Z</time>
</trkpt>
<trkpt lat="32.6222650" lon="35.1088390">
<ele>184.600006</ele>
<time>2022-10-14T07:31:29.000Z</time>
</trkpt>
<trkpt lat="32.6223200" lon="35.1086650">
<ele>184.000000</ele>
<time>2022-10-14T07:31:33.000Z</time>
</trkpt>
<trkpt lat="32.6223410" lon="35.1085670">
<ele>183.599991</ele>
<time>2022-10-14T07:31:35.000Z</time>
</trkpt>
<trkpt lat="32.6223510" lon="35.1085140">
<ele>183.400009</ele>
<time>2022-10-14T07:31:36.000Z</time>
</trkpt>
<trkpt lat="32.6223570" lon="35.1084610">
<ele>183.000000</ele>
<time>2022-10-14T07:31:37.000Z</time>
</trkpt>
<trkpt lat="32.6223610" lon="35.1083150">
<ele>181.600006</ele>
<time>2022-10-14T07:31:40.000Z</time>
</trkpt>
<trkpt lat="32.6223750" lon="35.1082700">
<ele>181.199997</ele>
<time>2022-10-14T07:31:41.000Z</time>
</trkpt>
<trkpt lat="32.6223980" lon="35.1082250">
<ele>181.000000</ele>
<time>2022-10-14T07:31:42.000Z</time>
</trkpt>
<trkpt lat="32.6224580" lon="35.1081380">
<ele>180.400009</ele>
<time>2022-10-14T07:31:44.000Z</time>
</trkpt>
<trkpt lat="32.6224860" lon="35.1080940">
<ele>180.199997</ele>
<time>2022-10-14T07:31:45.000Z</time>
</trkpt>
<trkpt lat="32.6225320" lon="35.1079950">
<ele>179.000000</ele>
<time>2022-10-14T07:31:47.000Z</time>
</trkpt>
<trkpt lat="32.6225610" lon="35.1079470">
<ele>178.800003</ele>
<time>2022-10-14T07:31:48.000Z</time>
</trkpt>
<trkpt lat="32.6226680" lon="35.1078340">
<ele>178.000000</ele>
<time>2022-10-14T07:31:51.000Z</time>
</trkpt>
<trkpt lat="32.6226930" lon="35.1077920">
<ele>177.799988</ele>
<time>2022-10-14T07:31:52.000Z</time>
</trkpt>
<trkpt lat="32.6227260" lon="35.1077000">
<ele>177.199997</ele>
<time>2022-10-14T07:31:54.000Z</time>
</trkpt>
<trkpt lat="32.6227440" lon="35.1076510">
<ele>176.800003</ele>
<time>2022-10-14T07:31:55.000Z</time>
</trkpt>
<trkpt lat="32.6228000" lon="35.1075510">
<ele>176.199997</ele>
<time>2022-10-14T07:31:57.000Z</time>
</trkpt>
<trkpt lat="32.6228380" lon="35.1075090">
<ele>175.800003</ele>
<time>2022-10-14T07:31:58.000Z</time>
</trkpt>
<trkpt lat="32.6228800" lon="35.1074790">
<ele>175.599991</ele>
<time>2022-10-14T07:31:59.000Z</time>
</trkpt>
<trkpt lat="32.6229210" lon="35.1074610">
<ele>175.199997</ele>
<time>2022-10-14T07:32:00.000Z</time>
</trkpt>
<trkpt lat="32.6229930" lon="35.1074400">
<ele>174.600006</ele>
<time>2022-10-14T07:32:02.000Z</time>
</trkpt>
<trkpt lat="32.6230980" lon="35.1073680">
<ele>174.000000</ele>
<time>2022-10-14T07:32:06.000Z</time>
</trkpt>
<trkpt lat="32.6231500" lon="35.1073360">
<ele>173.600006</ele>
<time>2022-10-14T07:32:08.000Z</time>
</trkpt>
<trkpt lat="32.6232870" lon="35.1072490">
<ele>172.000000</ele>
<time>2022-10-14T07:32:13.000Z</time>
</trkpt>
<trkpt lat="32.6233160" lon="35.1072350">
<ele>171.399994</ele>
<time>2022-10-14T07:32:14.000Z</time>
</trkpt>
<trkpt lat="32.6235530" lon="35.1071590">
<ele>167.000000</ele>
<time>2022-10-14T07:32:22.000Z</time>
</trkpt>
<trkpt lat="32.6236710" lon="35.1070970">
<ele>164.399994</ele>
<time>2022-10-14T07:32:26.000Z</time>
</trkpt>
<trkpt lat="32.6237070" lon="35.1070910">
<ele>164.200012</ele>
<time>2022-10-14T07:32:27.000Z</time>
</trkpt>
<trkpt lat="32.6237440" lon="35.1070990">
<ele>163.600006</ele>
<time>2022-10-14T07:32:28.000Z</time>
</trkpt>
<trkpt lat="32.6237770" lon="35.1071190">
<ele>163.399994</ele>
<time>2022-10-14T07:32:29.000Z</time>
</trkpt>
<trkpt lat="32.6238240" lon="35.1071690">
<ele>163.000000</ele>
<time>2022-10-14T07:32:31.000Z</time>
</trkpt>
<trkpt lat="32.6238720" lon="35.1071770">
<ele>162.800003</ele>
<time>2022-10-14T07:32:33.000Z</time>
</trkpt>
<trkpt lat="32.6239410" lon="35.1071140">
<ele>161.999985</ele>
<time>2022-10-14T07:32:36.000Z</time>
</trkpt>
<trkpt lat="32.6239680" lon="35.1070900">
<ele>161.800003</ele>
<time>2022-10-14T07:32:37.000Z</time>
</trkpt>
<trkpt lat="32.6239950" lon="35.1070750">
<ele>161.599991</ele>
<time>2022-10-14T07:32:38.000Z</time>
</trkpt>
<trkpt lat="32.6240250" lon="35.1070650">
<ele>161.000000</ele>
<time>2022-10-14T07:32:39.000Z</time>
</trkpt>
<trkpt lat="32.6240580" lon="35.1070580">
<ele>160.600006</ele>
<time>2022-10-14T07:32:40.000Z</time>
</trkpt>
<trkpt lat="32.6241250" lon="35.1070390">
<ele>159.799988</ele>
<time>2022-10-14T07:32:42.000Z</time>
</trkpt>
<trkpt lat="32.6242100" lon="35.1070240">
<ele>158.599991</ele>
<time>2022-10-14T07:32:44.000Z</time>
</trkpt>
<trkpt lat="32.6243070" lon="35.1070100">
<ele>157.000000</ele>
<time>2022-10-14T07:32:46.000Z</time>
</trkpt>
<trkpt lat="32.6243520" lon="35.1070050">
<ele>156.399994</ele>
<time>2022-10-14T07:32:47.000Z</time>
</trkpt>
<trkpt lat="32.6244730" lon="35.1069790">
<ele>154.399994</ele>
<time>2022-10-14T07:32:50.000Z</time>
</trkpt>
<trkpt lat="32.6245590" lon="35.1069410">
<ele>153.400009</ele>
<time>2022-10-14T07:32:52.000Z</time>
</trkpt>
<trkpt lat="32.6247060" lon="35.1068630">
<ele>151.199997</ele>
<time>2022-10-14T07:32:55.000Z</time>
</trkpt>
<trkpt lat="32.6248150" lon="35.1068260">
<ele>150.199997</ele>
<time>2022-10-14T07:32:57.000Z</time>
</trkpt>
<trkpt lat="32.6248720" lon="35.1068130">
<ele>149.600006</ele>
<time>2022-10-14T07:32:58.000Z</time>
</trkpt>
<trkpt lat="32.6251020" lon="35.1067380">
<ele>147.600006</ele>
<time>2022-10-14T07:33:02.000Z</time>
</trkpt>
<trkpt lat="32.6252110" lon="35.1067040">
<ele>146.600006</ele>
<time>2022-10-14T07:33:04.000Z</time>
</trkpt>
<trkpt lat="32.6253250" lon="35.1066750">
<ele>146.199997</ele>
<time>2022-10-14T07:33:06.000Z</time>
</trkpt>
<trkpt lat="32.6254930" lon="35.1066420">
<ele>146.000000</ele>
<time>2022-10-14T07:33:09.000Z</time>
</trkpt>
<trkpt lat="32.6256000" lon="35.1066330">
<ele>145.800003</ele>
<time>2022-10-14T07:33:11.000Z</time>
</trkpt>
<trkpt lat="32.6258070" lon="35.1065960">
<ele>146.600006</ele>
<time>2022-10-14T07:33:16.000Z</time>
</trkpt>
<trkpt lat="32.6258400" lon="35.1065880">
<ele>146.800003</ele>
<time>2022-10-14T07:33:17.000Z</time>
</trkpt>
<trkpt lat="32.6258960" lon="35.1065730">
<ele>147.199997</ele>
<time>2022-10-14T07:33:19.000Z</time>
</trkpt>
<trkpt lat="32.6259240" lon="35.1065610">
<ele>147.600006</ele>
<time>2022-10-14T07:33:20.000Z</time>
</trkpt>
<trkpt lat="32.6259650" lon="35.1065360">
<ele>148.000000</ele>
<time>2022-10-14T07:33:22.000Z</time>
</trkpt>
<trkpt lat="32.6259770" lon="35.1065150">
<ele>148.199997</ele>
<time>2022-10-14T07:33:23.000Z</time>
</trkpt>
<trkpt lat="32.6260210" lon="35.1063750">
<ele>148.800003</ele>
<time>2022-10-14T07:33:28.000Z</time>
</trkpt>
<trkpt lat="32.6260740" lon="35.1062520">
<ele>149.199997</ele>
<time>2022-10-14T07:33:32.000Z</time>
</trkpt>
<trkpt lat="32.6260980" lon="35.1061930">
<ele>149.399994</ele>
<time>2022-10-14T07:33:34.000Z</time>
</trkpt>
<trkpt lat="32.6261110" lon="35.1061620">
<ele>149.399994</ele>
<time>2022-10-14T07:33:35.000Z</time>
</trkpt>
<trkpt lat="32.6261500" lon="35.1061070">
<ele>149.600006</ele>
<time>2022-10-14T07:33:37.000Z</time>
</trkpt>
<trkpt lat="32.6262290" lon="35.1060670">
<ele>149.800003</ele>
<time>2022-10-14T07:33:40.000Z</time>
</trkpt>
<trkpt lat="32.6262500" lon="35.1060520">
<ele>149.800003</ele>
<time>2022-10-14T07:33:41.000Z</time>
</trkpt>
<trkpt lat="32.6262670" lon="35.1060050">
<ele>149.800003</ele>
<time>2022-10-14T07:33:43.000Z</time>
</trkpt>
<trkpt lat="32.6262620" lon="35.1059790">
<ele>149.800003</ele>
<time>2022-10-14T07:33:44.000Z</time>
</trkpt>
<trkpt lat="32.6262450" lon="35.1059570">
<ele>149.600006</ele>
<time>2022-10-14T07:33:45.000Z</time>
</trkpt>
<trkpt lat="32.6262180" lon="35.1059460">
<ele>149.399994</ele>
<time>2022-10-14T07:33:46.000Z</time>
</trkpt>
<trkpt lat="32.6261550" lon="35.1059470">
<ele>148.199997</ele>
<time>2022-10-14T07:33:48.000Z</time>
</trkpt>
<trkpt lat="32.6260430" lon="35.1060140">
<ele>147.199997</ele>
<time>2022-10-14T07:33:51.000Z</time>
</trkpt>
<trkpt lat="32.6258560" lon="35.1060980">
<ele>145.599991</ele>
<time>2022-10-14T07:33:55.000Z</time>
</trkpt>
<trkpt lat="32.6257620" lon="35.1060930">
<ele>144.800003</ele>
<time>2022-10-14T07:33:57.000Z</time>
</trkpt>
<trkpt lat="32.6257130" lon="35.1060910">
<ele>144.400009</ele>
<time>2022-10-14T07:33:58.000Z</time>
</trkpt>
<trkpt lat="32.6256660" lon="35.1060920">
<ele>144.199997</ele>
<time>2022-10-14T07:33:59.000Z</time>
</trkpt>
<trkpt lat="32.6255690" lon="35.1060960">
<ele>144.000000</ele>
<time>2022-10-14T07:34:01.000Z</time>
</trkpt>
<trkpt lat="32.6255190" lon="35.1061030">
<ele>143.800003</ele>
<time>2022-10-14T07:34:02.000Z</time>
</trkpt>
<trkpt lat="32.6254250" lon="35.1061490">
<ele>143.199997</ele>
<time>2022-10-14T07:34:04.000Z</time>
</trkpt>
<trkpt lat="32.6253330" lon="35.1061730">
<ele>142.600006</ele>
<time>2022-10-14T07:34:06.000Z</time>
</trkpt>
<trkpt lat="32.6252410" lon="35.1061480">
<ele>141.800003</ele>
<time>2022-10-14T07:34:08.000Z</time>
</trkpt>
<trkpt lat="32.6250950" lon="35.1060910">
<ele>140.600006</ele>
<time>2022-10-14T07:34:11.000Z</time>
</trkpt>
<trkpt lat="32.6250410" lon="35.1060820">
<ele>140.000000</ele>
<time>2022-10-14T07:34:12.000Z</time>
</trkpt>
<trkpt lat="32.6249850" lon="35.1060820">
<ele>139.800003</ele>
<time>2022-10-14T07:34:13.000Z</time>
</trkpt>
<trkpt lat="32.6248820" lon="35.1060940">
<ele>138.399994</ele>
<time>2022-10-14T07:34:15.000Z</time>
</trkpt>
<trkpt lat="32.6248380" lon="35.1061100">
<ele>138.000000</ele>
<time>2022-10-14T07:34:16.000Z</time>
</trkpt>
<trkpt lat="32.6247990" lon="35.1061230">
<ele>137.800003</ele>
<time>2022-10-14T07:34:17.000Z</time>
</trkpt>
<trkpt lat="32.6247650" lon="35.1061190">
<ele>137.400009</ele>
<time>2022-10-14T07:34:18.000Z</time>
</trkpt>
<trkpt lat="32.6247410" lon="35.1060960">
<ele>137.199997</ele>
<time>2022-10-14T07:34:19.000Z</time>
</trkpt>
<trkpt lat="32.6247310" lon="35.1060550">
<ele>137.000000</ele>
<time>2022-10-14T07:34:20.000Z</time>
</trkpt>
<trkpt lat="32.6247330" lon="35.1060080">
<ele>136.599991</ele>
<time>2022-10-14T07:34:21.000Z</time>
</trkpt>
<trkpt lat="32.6247680" lon="35.1059410">
<ele>136.399994</ele>
<time>2022-10-14T07:34:23.000Z</time>
</trkpt>
<trkpt lat="32.6247990" lon="35.1059140">
<ele>136.000000</ele>
<time>2022-10-14T07:34:24.000Z</time>
</trkpt>
<trkpt lat="32.6249870" lon="35.1057920">
<ele>134.000000</ele>
<time>2022-10-14T07:34:29.000Z</time>
</trkpt>
<trkpt lat="32.6250240" lon="35.1057690">
<ele>133.800003</ele>
<time>2022-10-14T07:34:30.000Z</time>
</trkpt>
<trkpt lat="32.6250510" lon="35.1057510">
<ele>133.600006</ele>
<time>2022-10-14T07:34:32.000Z</time>
</trkpt>
<trkpt lat="32.6250640" lon="35.1057370">
<ele>133.399994</ele>
<time>2022-10-14T07:34:38.000Z</time>
</trkpt>
<trkpt lat="32.6253550" lon="35.1055210">
<ele>132.800003</ele>
<time>2022-10-14T07:34:48.000Z</time>
</trkpt>
<trkpt lat="32.6253840" lon="35.1054890">
<ele>132.800003</ele>
<time>2022-10-14T07:34:49.000Z</time>
</trkpt>
<trkpt lat="32.6254590" lon="35.1053590">
<ele>132.400009</ele>
<time>2022-10-14T07:34:52.000Z</time>
</trkpt>
<trkpt lat="32.6254900" lon="35.1053100">
<ele>132.000000</ele>
<time>2022-10-14T07:34:53.000Z</time>
</trkpt>
<trkpt lat="32.6255270" lon="35.1052640">
<ele>131.600006</ele>
<time>2022-10-14T07:34:54.000Z</time>
</trkpt>
<trkpt lat="32.6255690" lon="35.1052250">
<ele>131.399994</ele>
<time>2022-10-14T07:34:55.000Z</time>
</trkpt>
<trkpt lat="32.6256100" lon="35.1051990">
<ele>131.399994</ele>
<time>2022-10-14T07:34:56.000Z</time>
</trkpt>
<trkpt lat="32.6256450" lon="35.1051830">
<ele>131.399994</ele>
<time>2022-10-14T07:34:57.000Z</time>
</trkpt>
<trkpt lat="32.6256670" lon="35.1051650">
<ele>131.000000</ele>
<time>2022-10-14T07:34:58.000Z</time>
</trkpt>
<trkpt lat="32.6256700" lon="35.1051460">
<ele>131.000000</ele>
<time>2022-10-14T07:34:59.000Z</time>
</trkpt>
<trkpt lat="32.6256600" lon="35.1051330">
<ele>130.800003</ele>
<time>2022-10-14T07:35:00.000Z</time>
</trkpt>
<trkpt lat="32.6256410" lon="35.1051270">
<ele>130.800003</ele>
<time>2022-10-14T07:35:01.000Z</time>
</trkpt>
<trkpt lat="32.6255600" lon="35.1051310">
<ele>130.600006</ele>
<time>2022-10-14T07:35:04.000Z</time>
</trkpt>
<trkpt lat="32.6255280" lon="35.1051260">
<ele>130.000000</ele>
<time>2022-10-14T07:35:05.000Z</time>
</trkpt>
<trkpt lat="32.6253960" lon="35.1050700">
<ele>128.199997</ele>
<time>2022-10-14T07:35:09.000Z</time>
</trkpt>
<trkpt lat="32.6253620" lon="35.1050650">
<ele>127.800003</ele>
<time>2022-10-14T07:35:10.000Z</time>
</trkpt>
<trkpt lat="32.6253280" lon="35.1050660">
<ele>127.400002</ele>
<time>2022-10-14T07:35:11.000Z</time>
</trkpt>
<trkpt lat="32.6252500" lon="35.1050930">
<ele>126.399994</ele>
<time>2022-10-14T07:35:13.000Z</time>
</trkpt>
<trkpt lat="32.6251680" lon="35.1051160">
<ele>126.000000</ele>
<time>2022-10-14T07:35:15.000Z</time>
</trkpt>
<trkpt lat="32.6251210" lon="35.1051240">
<ele>125.799995</ele>
<time>2022-10-14T07:35:16.000Z</time>
</trkpt>
<trkpt lat="32.6249360" lon="35.1051330">
<ele>125.000000</ele>
<time>2022-10-14T07:35:20.000Z</time>
</trkpt>
<trkpt lat="32.6248590" lon="35.1051480">
<ele>124.399994</ele>
<time>2022-10-14T07:35:22.000Z</time>
</trkpt>
<trkpt lat="32.6248110" lon="35.1051220">
<ele>124.199997</ele>
<time>2022-10-14T07:35:24.000Z</time>
</trkpt>
<trkpt lat="32.6248080" lon="35.1050880">
<ele>124.000000</ele>
<time>2022-10-14T07:35:25.000Z</time>
</trkpt>
<trkpt lat="32.6248370" lon="35.1049680">
<ele>123.000000</ele>
<time>2022-10-14T07:35:28.000Z</time>
</trkpt>
<trkpt lat="32.6249100" lon="35.1047160">
<ele>121.000000</ele>
<time>2022-10-14T07:35:33.000Z</time>
</trkpt>
<trkpt lat="32.6249220" lon="35.1046690">
<ele>121.000000</ele>
<time>2022-10-14T07:35:34.000Z</time>
</trkpt>
<trkpt lat="32.6249420" lon="35.1045800">
<ele>120.400002</ele>
<time>2022-10-14T07:35:36.000Z</time>
</trkpt>
<trkpt lat="32.6249520" lon="35.1045380">
<ele>120.200005</ele>
<time>2022-10-14T07:35:37.000Z</time>
</trkpt>
<trkpt lat="32.6249920" lon="35.1044570">
<ele>119.399994</ele>
<time>2022-10-14T07:35:39.000Z</time>
</trkpt>
<trkpt lat="32.6250430" lon="35.1043820">
<ele>118.000000</ele>
<time>2022-10-14T07:35:41.000Z</time>
</trkpt>
<trkpt lat="32.6250670" lon="35.1042350">
<ele>117.000000</ele>
<time>2022-10-14T07:35:44.000Z</time>
</trkpt>
<trkpt lat="32.6250630" lon="35.1041810">
<ele>116.400002</ele>
<time>2022-10-14T07:35:45.000Z</time>
</trkpt>
<trkpt lat="32.6250590" lon="35.1040890">
<ele>115.800003</ele>
<time>2022-10-14T07:35:47.000Z</time>
</trkpt>
<trkpt lat="32.6250650" lon="35.1040270">
<ele>115.000000</ele>
<time>2022-10-14T07:35:49.000Z</time>
</trkpt>
<trkpt lat="32.6250670" lon="35.1040050">
<ele>114.599998</ele>
<time>2022-10-14T07:35:50.000Z</time>
</trkpt>
<trkpt lat="32.6250690" lon="35.1039930">
<ele>114.199997</ele>
<time>2022-10-14T07:35:51.000Z</time>
</trkpt>
<trkpt lat="32.6250720" lon="35.1040140">
<ele>114.199997</ele>
<time>2022-10-14T07:35:57.000Z</time>
</trkpt>
<trkpt lat="32.6250590" lon="35.1040200">
<ele>114.199997</ele>
<time>2022-10-14T07:36:02.000Z</time>
</trkpt>
<trkpt lat="32.6250410" lon="35.1040160">
<ele>114.000000</ele>
<time>2022-10-14T07:36:03.000Z</time>
</trkpt>
<trkpt lat="32.6250230" lon="35.1039790">
<ele>113.800003</ele>
<time>2022-10-14T07:36:05.000Z</time>
</trkpt>
<trkpt lat="32.6250270" lon="35.1039380">
<ele>113.400002</ele>
<time>2022-10-14T07:36:08.000Z</time>
</trkpt>
<trkpt lat="32.6250290" lon="35.1039200">
<ele>113.400002</ele>
<time>2022-10-14T07:36:09.000Z</time>
</trkpt>
<trkpt lat="32.6250320" lon="35.1038550">
<ele>113.200005</ele>
<time>2022-10-14T07:36:12.000Z</time>
</trkpt>
<trkpt lat="32.6250240" lon="35.1038330">
<ele>112.999992</ele>
<time>2022-10-14T07:36:13.000Z</time>
</trkpt>
<trkpt lat="32.6249340" lon="35.1037650">
<ele>112.199997</ele>
<time>2022-10-14T07:36:18.000Z</time>
</trkpt>
<trkpt lat="32.6249080" lon="35.1037540">
<ele>112.199997</ele>
<time>2022-10-14T07:36:19.000Z</time>
</trkpt>
<trkpt lat="32.6248770" lon="35.1037480">
<ele>112.000000</ele>
<time>2022-10-14T07:36:20.000Z</time>
</trkpt>
<trkpt lat="32.6248440" lon="35.1037480">
<ele>112.000000</ele>
<time>2022-10-14T07:36:21.000Z</time>
</trkpt>
<trkpt lat="32.6248170" lon="35.1037490">
<ele>111.800003</ele>
<time>2022-10-14T07:36:22.000Z</time>
</trkpt>
<trkpt lat="32.6247750" lon="35.1037480">
<ele>111.800003</ele>
<time>2022-10-14T07:36:23.000Z</time>
</trkpt>
<trkpt lat="32.6247430" lon="35.1037340">
<ele>111.800003</ele>
<time>2022-10-14T07:36:24.000Z</time>
</trkpt>
<trkpt lat="32.6246800" lon="35.1036920">
<ele>111.800003</ele>
<time>2022-10-14T07:36:26.000Z</time>
</trkpt>
<trkpt lat="32.6245680" lon="35.1036390">
<ele>112.000000</ele>
<time>2022-10-14T07:36:29.000Z</time>
</trkpt>
<trkpt lat="32.6244950" lon="35.1036110">
<ele>112.199997</ele>
<time>2022-10-14T07:36:31.000Z</time>
</trkpt>
<trkpt lat="32.6244320" lon="35.1035960">
<ele>112.199997</ele>
<time>2022-10-14T07:36:33.000Z</time>
</trkpt>
<trkpt lat="32.6243780" lon="35.1035860">
<ele>112.599998</ele>
<time>2022-10-14T07:36:35.000Z</time>
</trkpt>
<trkpt lat="32.6243510" lon="35.1035790">
<ele>112.799995</ele>
<time>2022-10-14T07:36:36.000Z</time>
</trkpt>
<trkpt lat="32.6242310" lon="35.1035340">
<ele>113.200005</ele>
<time>2022-10-14T07:36:40.000Z</time>
</trkpt>
<trkpt lat="32.6242080" lon="35.1035210">
<ele>113.400002</ele>
<time>2022-10-14T07:36:41.000Z</time>
</trkpt>
<trkpt lat="32.6239420" lon="35.1034260">
<ele>114.000000</ele>
<time>2022-10-14T07:36:49.000Z</time>
</trkpt>
<trkpt lat="32.6239120" lon="35.1034100">
<ele>114.199997</ele>
<time>2022-10-14T07:36:50.000Z</time>
</trkpt>
<trkpt lat="32.6238540" lon="35.1033940">
<ele>114.599998</ele>
<time>2022-10-14T07:36:52.000Z</time>
</trkpt>
<trkpt lat="32.6238050" lon="35.1033690">
<ele>115.200005</ele>
<time>2022-10-14T07:36:54.000Z</time>
</trkpt>
<trkpt lat="32.6237820" lon="35.1033570">
<ele>115.200005</ele>
<time>2022-10-14T07:36:55.000Z</time>
</trkpt>
<trkpt lat="32.6237390" lon="35.1033330">
<ele>115.600006</ele>
<time>2022-10-14T07:36:57.000Z</time>
</trkpt>
<trkpt lat="32.6236910" lon="35.1033070">
<ele>116.000000</ele>
<time>2022-10-14T07:36:59.000Z</time>
</trkpt>
<trkpt lat="32.6235490" lon="35.1031700">
<ele>116.599998</ele>
<time>2022-10-14T07:37:06.000Z</time>
</trkpt>
<trkpt lat="32.6235230" lon="35.1031450">
<ele>116.599998</ele>
<time>2022-10-14T07:37:07.000Z</time>
</trkpt>
<trkpt lat="32.6234670" lon="35.1030890">
<ele>116.400002</ele>
<time>2022-10-14T07:37:09.000Z</time>
</trkpt>
<trkpt lat="32.6234090" lon="35.1030350">
<ele>116.199997</ele>
<time>2022-10-14T07:37:11.000Z</time>
</trkpt>
<trkpt lat="32.6233330" lon="35.1029550">
<ele>116.400002</ele>
<time>2022-10-14T07:37:14.000Z</time>
</trkpt>
<trkpt lat="32.6232760" lon="35.1028800">
<ele>116.599998</ele>
<time>2022-10-14T07:37:17.000Z</time>
</trkpt>
<trkpt lat="32.6232310" lon="35.1028350">
<ele>116.400002</ele>
<time>2022-10-14T07:37:19.000Z</time>
</trkpt>
<trkpt lat="32.6231620" lon="35.1027940">
<ele>116.199997</ele>
<time>2022-10-14T07:37:22.000Z</time>
</trkpt>
<trkpt lat="32.6231420" lon="35.1027730">
<ele>116.400002</ele>
<time>2022-10-14T07:37:24.000Z</time>
</trkpt>
<trkpt lat="32.6231260" lon="35.1027410">
<ele>116.400002</ele>
<time>2022-10-14T07:37:42.000Z</time>
</trkpt>
<trkpt lat="32.6231040" lon="35.1026730">
<ele>116.400002</ele>
<time>2022-10-14T07:37:45.000Z</time>
</trkpt>
<trkpt lat="32.6231090" lon="35.1026200">
<ele>116.199997</ele>
<time>2022-10-14T07:37:47.000Z</time>
</trkpt>
<trkpt lat="32.6231200" lon="35.1025910">
<ele>116.199997</ele>
<time>2022-10-14T07:37:48.000Z</time>
</trkpt>
<trkpt lat="32.6231850" lon="35.1025030">
<ele>115.800003</ele>
<time>2022-10-14T07:37:52.000Z</time>
</trkpt>
<trkpt lat="32.6231970" lon="35.1024930">
<ele>115.800003</ele>
<time>2022-10-14T07:37:53.000Z</time>
</trkpt>
<trkpt lat="32.6232190" lon="35.1024880">
<ele>115.600006</ele>
<time>2022-10-14T07:37:55.000Z</time>
</trkpt>
<trkpt lat="32.6232750" lon="35.1024570">
<ele>115.800003</ele>
<time>2022-10-14T07:37:58.000Z</time>
</trkpt>
<trkpt lat="32.6233370" lon="35.1024590">
<ele>116.000000</ele>
<time>2022-10-14T07:38:01.000Z</time>
</trkpt>
<trkpt lat="32.6233590" lon="35.1024690">
<ele>116.000000</ele>
<time>2022-10-14T07:38:02.000Z</time>
</trkpt>
<trkpt lat="32.6234390" lon="35.1025150">
<ele>116.199997</ele>
<time>2022-10-14T07:38:06.000Z</time>
</trkpt>
<trkpt lat="32.6234740" lon="35.1025340">
<ele>116.199997</ele>
<time>2022-10-14T07:38:08.000Z</time>
</trkpt>
<trkpt lat="32.6234910" lon="35.1025400">
<ele>116.400002</ele>
<time>2022-10-14T07:38:10.000Z</time>
</trkpt>
<trkpt lat="32.6235070" lon="35.1025500">
<ele>117.000000</ele>
<time>2022-10-14T07:38:18.000Z</time>
</trkpt>
<trkpt lat="32.6236790" lon="35.1025530">
<ele>117.199997</ele>
<time>2022-10-14T07:38:25.000Z</time>
</trkpt>
<trkpt lat="32.6237340" lon="35.1025600">
<ele>117.399994</ele>
<time>2022-10-14T07:38:27.000Z</time>
</trkpt>
<trkpt lat="32.6238230" lon="35.1025590">
<ele>117.399994</ele>
<time>2022-10-14T07:38:30.000Z</time>
</trkpt>
<trkpt lat="32.6238540" lon="35.1025580">
<ele>117.399994</ele>
<time>2022-10-14T07:38:31.000Z</time>
</trkpt>
<trkpt lat="32.6240090" lon="35.1025500">
<ele>118.200005</ele>
<time>2022-10-14T07:38:36.000Z</time>
</trkpt>
<trkpt lat="32.6240680" lon="35.1025390">
<ele>118.400002</ele>
<time>2022-10-14T07:38:38.000Z</time>
</trkpt>
<trkpt lat="32.6240990" lon="35.1025330">
<ele>118.400002</ele>
<time>2022-10-14T07:38:39.000Z</time>
</trkpt>
<trkpt lat="32.6241290" lon="35.1025200">
<ele>118.599998</ele>
<time>2022-10-14T07:38:40.000Z</time>
</trkpt>
<trkpt lat="32.6241880" lon="35.1024940">
<ele>118.599998</ele>
<time>2022-10-14T07:38:42.000Z</time>
</trkpt>
<trkpt lat="32.6243810" lon="35.1024290">
<ele>119.000000</ele>
<time>2022-10-14T07:38:49.000Z</time>
</trkpt>
<trkpt lat="32.6244370" lon="35.1024150">
<ele>119.000000</ele>
<time>2022-10-14T07:38:51.000Z</time>
</trkpt>
<trkpt lat="32.6245440" lon="35.1023840">
<ele>119.399994</ele>
<time>2022-10-14T07:38:55.000Z</time>
</trkpt>
<trkpt lat="32.6246050" lon="35.1023840">
<ele>119.399994</ele>
<time>2022-10-14T07:38:57.000Z</time>
</trkpt>
<trkpt lat="32.6248130" lon="35.1023580">
<ele>119.399994</ele>
<time>2022-10-14T07:39:03.000Z</time>
</trkpt>
<trkpt lat="32.6248870" lon="35.1023470">
<ele>119.199997</ele>
<time>2022-10-14T07:39:05.000Z</time>
</trkpt>
<trkpt lat="32.6249930" lon="35.1023440">
<ele>119.199997</ele>
<time>2022-10-14T07:39:08.000Z</time>
</trkpt>
<trkpt lat="32.6250270" lon="35.1023420">
<ele>119.199997</ele>
<time>2022-10-14T07:39:09.000Z</time>
</trkpt>
<trkpt lat="32.6250920" lon="35.1023550">
<ele>119.199997</ele>
<time>2022-10-14T07:39:11.000Z</time>
</trkpt>
<trkpt lat="32.6255320" lon="35.1023680">
<ele>118.000000</ele>
<time>2022-10-14T07:39:22.000Z</time>
</trkpt>
<trkpt lat="32.6257340" lon="35.1023560">
<ele>117.199997</ele>
<time>2022-10-14T07:39:26.000Z</time>
</trkpt>
<trkpt lat="32.6259840" lon="35.1023240">
<ele>116.799995</ele>
<time>2022-10-14T07:39:31.000Z</time>
</trkpt>
<trkpt lat="32.6260340" lon="35.1023180">
<ele>116.599998</ele>
<time>2022-10-14T07:39:32.000Z</time>
</trkpt>
<trkpt lat="32.6261790" lon="35.1022970">
<ele>116.199997</ele>
<time>2022-10-14T07:39:35.000Z</time>
</trkpt>
<trkpt lat="32.6262700" lon="35.1022880">
<ele>115.800003</ele>
<time>2022-10-14T07:39:37.000Z</time>
</trkpt>
<trkpt lat="32.6264940" lon="35.1022800">
<ele>115.400002</ele>
<time>2022-10-14T07:39:42.000Z</time>
</trkpt>
<trkpt lat="32.6266870" lon="35.1022520">
<ele>115.000000</ele>
<time>2022-10-14T07:39:46.000Z</time>
</trkpt>
<trkpt lat="32.6267380" lon="35.1022540">
<ele>114.599998</ele>
<time>2022-10-14T07:39:47.000Z</time>
</trkpt>
<trkpt lat="32.6268350" lon="35.1022500">
<ele>114.000000</ele>
<time>2022-10-14T07:39:49.000Z</time>
</trkpt>
<trkpt lat="32.6269370" lon="35.1022520">
<ele>113.400002</ele>
<time>2022-10-14T07:39:51.000Z</time>
</trkpt>
<trkpt lat="32.6269870" lon="35.1022550">
<ele>113.200005</ele>
<time>2022-10-14T07:39:52.000Z</time>
</trkpt>
<trkpt lat="32.6271310" lon="35.1022540">
<ele>112.999992</ele>
<time>2022-10-14T07:39:55.000Z</time>
</trkpt>
<trkpt lat="32.6271790" lon="35.1022520">
<ele>112.999992</ele>
<time>2022-10-14T07:39:56.000Z</time>
</trkpt>
<trkpt lat="32.6273280" lon="35.1022720">
<ele>112.400002</ele>
<time>2022-10-14T07:39:59.000Z</time>
</trkpt>
<trkpt lat="32.6276060" lon="35.1022730">
<ele>110.600006</ele>
<time>2022-10-14T07:40:04.000Z</time>
</trkpt>
<trkpt lat="32.6277110" lon="35.1022580">
<ele>110.399994</ele>
<time>2022-10-14T07:40:06.000Z</time>
</trkpt>
<trkpt lat="32.6277590" lon="35.1022440">
<ele>110.600006</ele>
<time>2022-10-14T07:40:07.000Z</time>
</trkpt>
<trkpt lat="32.6278510" lon="35.1022130">
<ele>110.600006</ele>
<time>2022-10-14T07:40:09.000Z</time>
</trkpt>
<trkpt lat="32.6279350" lon="35.1021730">
<ele>110.800003</ele>
<time>2022-10-14T07:40:11.000Z</time>
</trkpt>
<trkpt lat="32.6279730" lon="35.1021550">
<ele>110.800003</ele>
<time>2022-10-14T07:40:12.000Z</time>
</trkpt>
<trkpt lat="32.6280090" lon="35.1021330">
<ele>111.000000</ele>
<time>2022-10-14T07:40:13.000Z</time>
</trkpt>
<trkpt lat="32.6282410" lon="35.1020060">
<ele>112.199997</ele>
<time>2022-10-14T07:40:21.000Z</time>
</trkpt>
<trkpt lat="32.6283220" lon="35.1019750">
<ele>112.599998</ele>
<time>2022-10-14T07:40:24.000Z</time>
</trkpt>
<trkpt lat="32.6283810" lon="35.1019540">
<ele>112.999992</ele>
<time>2022-10-14T07:40:26.000Z</time>
</trkpt>
<trkpt lat="32.6286070" lon="35.1018800">
<ele>114.199997</ele>
<time>2022-10-14T07:40:34.000Z</time>
</trkpt>
<trkpt lat="32.6286820" lon="35.1018550">
<ele>114.799995</ele>
<time>2022-10-14T07:40:37.000Z</time>
</trkpt>
<trkpt lat="32.6287100" lon="35.1018470">
<ele>115.000000</ele>
<time>2022-10-14T07:40:38.000Z</time>
</trkpt>
<trkpt lat="32.6287380" lon="35.1018420">
<ele>115.000000</ele>
<time>2022-10-14T07:40:39.000Z</time>
</trkpt>
<trkpt lat="32.6287670" lon="35.1018380">
<ele>115.000000</ele>
<time>2022-10-14T07:40:40.000Z</time>
</trkpt>
<trkpt lat="32.6290290" lon="35.1017650">
<ele>115.400002</ele>
<time>2022-10-14T07:40:50.000Z</time>
</trkpt>
<trkpt lat="32.6290770" lon="35.1017490">
<ele>115.600006</ele>
<time>2022-10-14T07:40:52.000Z</time>
</trkpt>
<trkpt lat="32.6291520" lon="35.1017490">
<ele>115.800003</ele>
<time>2022-10-14T07:40:55.000Z</time>
</trkpt>
<trkpt lat="32.6291780" lon="35.1017460">
<ele>115.800003</ele>
<time>2022-10-14T07:40:56.000Z</time>
</trkpt>
<trkpt lat="32.6292530" lon="35.1017400">
<ele>116.000000</ele>
<time>2022-10-14T07:40:59.000Z</time>
</trkpt>
<trkpt lat="32.6292800" lon="35.1017370">
<ele>116.000000</ele>
<time>2022-10-14T07:41:00.000Z</time>
</trkpt>
<trkpt lat="32.6293360" lon="35.1017310">
<ele>115.800003</ele>
<time>2022-10-14T07:41:02.000Z</time>
</trkpt>
<trkpt lat="32.6293930" lon="35.1017400">
<ele>115.800003</ele>
<time>2022-10-14T07:41:04.000Z</time>
</trkpt>
<trkpt lat="32.6294710" lon="35.1017470">
<ele>115.800003</ele>
<time>2022-10-14T07:41:07.000Z</time>
</trkpt>
<trkpt lat="32.6295010" lon="35.1017500">
<ele>115.800003</ele>
<time>2022-10-14T07:41:08.000Z</time>
</trkpt>
<trkpt lat="32.6295620" lon="35.1017510">
<ele>115.800003</ele>
<time>2022-10-14T07:41:10.000Z</time>
</trkpt>
<trkpt lat="32.6296170" lon="35.1017540">
<ele>116.000000</ele>
<time>2022-10-14T07:41:12.000Z</time>
</trkpt>
<trkpt lat="32.6296490" lon="35.1017570">
<ele>116.000000</ele>
<time>2022-10-14T07:41:13.000Z</time>
</trkpt>
<trkpt lat="32.6297100" lon="35.1017630">
<ele>116.199997</ele>
<time>2022-10-14T07:41:15.000Z</time>
</trkpt>
<trkpt lat="32.6297830" lon="35.1017770">
<ele>116.599998</ele>
<time>2022-10-14T07:41:17.000Z</time>
</trkpt>
<trkpt lat="32.6298190" lon="35.1017770">
<ele>116.799995</ele>
<time>2022-10-14T07:41:18.000Z</time>
</trkpt>
<trkpt lat="32.6298930" lon="35.1017660">
<ele>116.799995</ele>
<time>2022-10-14T07:41:20.000Z</time>
</trkpt>
<trkpt lat="32.6299600" lon="35.1017550">
<ele>116.799995</ele>
<time>2022-10-14T07:41:22.000Z</time>
</trkpt>
<trkpt lat="32.6300060" lon="35.1017480">
<ele>116.799995</ele>
<time>2022-10-14T07:41:23.000Z</time>
</trkpt>
<trkpt lat="32.6300790" lon="35.1017380">
<ele>117.000000</ele>
<time>2022-10-14T07:41:25.000Z</time>
</trkpt>
<trkpt lat="32.6301520" lon="35.1017370">
<ele>117.000000</ele>
<time>2022-10-14T07:41:27.000Z</time>
</trkpt>
<trkpt lat="32.6302310" lon="35.1017420">
<ele>117.000000</ele>
<time>2022-10-14T07:41:29.000Z</time>
</trkpt>
<trkpt lat="32.6303470" lon="35.1017710">
<ele>117.000000</ele>
<time>2022-10-14T07:41:32.000Z</time>
</trkpt>
<trkpt lat="32.6303850" lon="35.1017800">
<ele>117.000000</ele>
<time>2022-10-14T07:41:33.000Z</time>
</trkpt>
<trkpt lat="32.6304180" lon="35.1017900">
<ele>116.799995</ele>
<time>2022-10-14T07:41:34.000Z</time>
</trkpt>
<trkpt lat="32.6304670" lon="35.1018100">
<ele>116.799995</ele>
<time>2022-10-14T07:41:35.000Z</time>
</trkpt>
<trkpt lat="32.6305450" lon="35.1018470">
<ele>116.799995</ele>
<time>2022-10-14T07:41:37.000Z</time>
</trkpt>
<trkpt lat="32.6305890" lon="35.1018610">
<ele>116.799995</ele>
<time>2022-10-14T07:41:38.000Z</time>
</trkpt>
<trkpt lat="32.6306800" lon="35.1018900">
<ele>116.799995</ele>
<time>2022-10-14T07:41:40.000Z</time>
</trkpt>
<trkpt lat="32.6307740" lon="35.1019270">
<ele>116.599998</ele>
<time>2022-10-14T07:41:42.000Z</time>
</trkpt>
<trkpt lat="32.6308250" lon="35.1019480">
<ele>116.599998</ele>
<time>2022-10-14T07:41:43.000Z</time>
</trkpt>
<trkpt lat="32.6309290" lon="35.1019680">
<ele>116.400002</ele>
<time>2022-10-14T07:41:45.000Z</time>
</trkpt>
<trkpt lat="32.6309790" lon="35.1019680">
<ele>116.199997</ele>
<time>2022-10-14T07:41:46.000Z</time>
</trkpt>
<trkpt lat="32.6310770" lon="35.1019520">
<ele>116.000000</ele>
<time>2022-10-14T07:41:48.000Z</time>
</trkpt>
<trkpt lat="32.6311210" lon="35.1019320">
<ele>116.000000</ele>
<time>2022-10-14T07:41:49.000Z</time>
</trkpt>
<trkpt lat="32.6311940" lon="35.1018850">
<ele>116.000000</ele>
<time>2022-10-14T07:41:51.000Z</time>
</trkpt>
<trkpt lat="32.6312990" lon="35.1018010">
<ele>116.400002</ele>
<time>2022-10-14T07:41:54.000Z</time>
</trkpt>
<trkpt lat="32.6314030" lon="35.1017250">
<ele>116.599998</ele>
<time>2022-10-14T07:41:57.000Z</time>
</trkpt>
<trkpt lat="32.6315420" lon="35.1016320">
<ele>116.799995</ele>
<time>2022-10-14T07:42:01.000Z</time>
</trkpt>
<trkpt lat="32.6315760" lon="35.1016100">
<ele>117.000000</ele>
<time>2022-10-14T07:42:02.000Z</time>
</trkpt>
<trkpt lat="32.6316090" lon="35.1015880">
<ele>117.000000</ele>
<time>2022-10-14T07:42:03.000Z</time>
</trkpt>
<trkpt lat="32.6316390" lon="35.1015620">
<ele>117.000000</ele>
<time>2022-10-14T07:42:04.000Z</time>
</trkpt>
<trkpt lat="32.6318330" lon="35.1014480">
<ele>118.000000</ele>
<time>2022-10-14T07:42:11.000Z</time>
</trkpt>
<trkpt lat="32.6318600" lon="35.1014350">
<ele>118.000000</ele>
<time>2022-10-14T07:42:12.000Z</time>
</trkpt>
<trkpt lat="32.6319120" lon="35.1014110">
<ele>118.400002</ele>
<time>2022-10-14T07:42:14.000Z</time>
</trkpt>
<trkpt lat="32.6319970" lon="35.1013790">
<ele>119.000000</ele>
<time>2022-10-14T07:42:17.000Z</time>
</trkpt>
<trkpt lat="32.6320280" lon="35.1013680">
<ele>119.199997</ele>
<time>2022-10-14T07:42:18.000Z</time>
</trkpt>
<trkpt lat="32.6320590" lon="35.1013620">
<ele>119.199997</ele>
<time>2022-10-14T07:42:19.000Z</time>
</trkpt>
<trkpt lat="32.6320850" lon="35.1013560">
<ele>119.399994</ele>
<time>2022-10-14T07:42:20.000Z</time>
</trkpt>
<trkpt lat="32.6321700" lon="35.1013560">
<ele>119.799995</ele>
<time>2022-10-14T07:42:23.000Z</time>
</trkpt>
<trkpt lat="32.6321930" lon="35.1013610">
<ele>119.799995</ele>
<time>2022-10-14T07:42:24.000Z</time>
</trkpt>
<trkpt lat="32.6322460" lon="35.1013650">
<ele>120.400002</ele>
<time>2022-10-14T07:42:27.000Z</time>
</trkpt>
<trkpt lat="32.6322860" lon="35.1013790">
<ele>121.000000</ele>
<time>2022-10-14T07:42:30.000Z</time>
</trkpt>
<trkpt lat="32.6323190" lon="35.1013830">
<ele>121.199997</ele>
<time>2022-10-14T07:42:32.000Z</time>
</trkpt>
<trkpt lat="32.6323380" lon="35.1013870">
<ele>121.400002</ele>
<time>2022-10-14T07:42:33.000Z</time>
</trkpt>
<trkpt lat="32.6324180" lon="35.1014010">
<ele>122.000008</ele>
<time>2022-10-14T07:42:38.000Z</time>
</trkpt>
<trkpt lat="32.6324340" lon="35.1014070">
<ele>122.000008</ele>
<time>2022-10-14T07:42:39.000Z</time>
</trkpt>
<trkpt lat="32.6324530" lon="35.1014130">
<ele>122.200005</ele>
<time>2022-10-14T07:42:40.000Z</time>
</trkpt>
<trkpt lat="32.6324710" lon="35.1014140">
<ele>122.200005</ele>
<time>2022-10-14T07:42:41.000Z</time>
</trkpt>
<trkpt lat="32.6324960" lon="35.1014190">
<ele>122.599998</ele>
<time>2022-10-14T07:42:43.000Z</time>
</trkpt>
<trkpt lat="32.6325480" lon="35.1014340">
<ele>123.000000</ele>
<time>2022-10-14T07:42:46.000Z</time>
</trkpt>
<trkpt lat="32.6326180" lon="35.1014470">
<ele>123.400002</ele>
<time>2022-10-14T07:42:50.000Z</time>
</trkpt>
<trkpt lat="32.6326510" lon="35.1014600">
<ele>123.599998</ele>
<time>2022-10-14T07:42:52.000Z</time>
</trkpt>
<trkpt lat="32.6326870" lon="35.1014660">
<ele>124.000000</ele>
<time>2022-10-14T07:42:54.000Z</time>
</trkpt>
<trkpt lat="32.6327040" lon="35.1014690">
<ele>124.199997</ele>
<time>2022-10-14T07:42:55.000Z</time>
</trkpt>
<trkpt lat="32.6327300" lon="35.1014760">
<ele>124.399994</ele>
<time>2022-10-14T07:42:57.000Z</time>
</trkpt>
<trkpt lat="32.6327710" lon="35.1014890">
<ele>125.200005</ele>
<time>2022-10-14T07:43:00.000Z</time>
</trkpt>
<trkpt lat="32.6329190" lon="35.1015020">
<ele>126.399994</ele>
<time>2022-10-14T07:43:09.000Z</time>
</trkpt>
<trkpt lat="32.6330210" lon="35.1015310">
<ele>127.200005</ele>
<time>2022-10-14T07:43:15.000Z</time>
</trkpt>
<trkpt lat="32.6330710" lon="35.1015370">
<ele>127.599998</ele>
<time>2022-10-14T07:43:18.000Z</time>
</trkpt>
<trkpt lat="32.6331140" lon="35.1015400">
<ele>127.800003</ele>
<time>2022-10-14T07:43:20.000Z</time>
</trkpt>
<trkpt lat="32.6331310" lon="35.1015420">
<ele>128.000000</ele>
<time>2022-10-14T07:43:21.000Z</time>
</trkpt>
<trkpt lat="32.6331560" lon="35.1015490">
<ele>128.000000</ele>
<time>2022-10-14T07:43:22.000Z</time>
</trkpt>
<trkpt lat="32.6331950" lon="35.1015600">
<ele>128.000000</ele>
<time>2022-10-14T07:43:24.000Z</time>
</trkpt>
<trkpt lat="32.6332600" lon="35.1015670">
<ele>128.400009</ele>
<time>2022-10-14T07:43:27.000Z</time>
</trkpt>
<trkpt lat="32.6332800" lon="35.1015720">
<ele>128.400009</ele>
<time>2022-10-14T07:43:28.000Z</time>
</trkpt>
<trkpt lat="32.6333210" lon="35.1015730">
<ele>128.600006</ele>
<time>2022-10-14T07:43:30.000Z</time>
</trkpt>
<trkpt lat="32.6333390" lon="35.1015780">
<ele>128.800003</ele>
<time>2022-10-14T07:43:31.000Z</time>
</trkpt>
<trkpt lat="32.6333570" lon="35.1015820">
<ele>128.800003</ele>
<time>2022-10-14T07:43:32.000Z</time>
</trkpt>
<trkpt lat="32.6333960" lon="35.1015950">
<ele>129.199997</ele>
<time>2022-10-14T07:43:34.000Z</time>
</trkpt>
<trkpt lat="32.6334600" lon="35.1016080">
<ele>129.800003</ele>
<time>2022-10-14T07:43:38.000Z</time>
</trkpt>
<trkpt lat="32.6334790" lon="35.1016110">
<ele>129.800003</ele>
<time>2022-10-14T07:43:39.000Z</time>
</trkpt>
<trkpt lat="32.6334970" lon="35.1016150">
<ele>130.000000</ele>
<time>2022-10-14T07:43:40.000Z</time>
</trkpt>
<trkpt lat="32.6335320" lon="35.1016200">
<ele>130.199997</ele>
<time>2022-10-14T07:43:42.000Z</time>
</trkpt>
<trkpt lat="32.6335970" lon="35.1016410">
<ele>131.000000</ele>
<time>2022-10-14T07:43:46.000Z</time>
</trkpt>
<trkpt lat="32.6336130" lon="35.1016430">
<ele>131.199997</ele>
<time>2022-10-14T07:43:47.000Z</time>
</trkpt>
<trkpt lat="32.6336700" lon="35.1016580">
<ele>131.600006</ele>
<time>2022-10-14T07:43:50.000Z</time>
</trkpt>
<trkpt lat="32.6337180" lon="35.1016640">
<ele>132.000000</ele>
<time>2022-10-14T07:43:53.000Z</time>
</trkpt>
<trkpt lat="32.6337360" lon="35.1016590">
<ele>132.199997</ele>
<time>2022-10-14T07:43:54.000Z</time>
</trkpt>
<trkpt lat="32.6337540" lon="35.1016550">
<ele>132.400009</ele>
<time>2022-10-14T07:43:55.000Z</time>
</trkpt>
<trkpt lat="32.6338590" lon="35.1016610">
<ele>133.000000</ele>
<time>2022-10-14T07:44:01.000Z</time>
</trkpt>
<trkpt lat="32.6338800" lon="35.1016600">
<ele>133.199997</ele>
<time>2022-10-14T07:44:02.000Z</time>
</trkpt>
<trkpt lat="32.6340570" lon="35.1017310">
<ele>134.399994</ele>
<time>2022-10-14T07:44:12.000Z</time>
</trkpt>
<trkpt lat="32.6341070" lon="35.1017380">
<ele>134.800003</ele>
<time>2022-10-14T07:44:15.000Z</time>
</trkpt>
<trkpt lat="32.6341190" lon="35.1017400">
<ele>135.000000</ele>
<time>2022-10-14T07:44:16.000Z</time>
</trkpt>
<trkpt lat="32.6341410" lon="35.1017450">
<ele>135.199997</ele>
<time>2022-10-14T07:44:17.000Z</time>
</trkpt>
<trkpt lat="32.6341930" lon="35.1017580">
<ele>135.600006</ele>
<time>2022-10-14T07:44:20.000Z</time>
</trkpt>
<trkpt lat="32.6342260" lon="35.1017640">
<ele>136.000000</ele>
<time>2022-10-14T07:44:22.000Z</time>
</trkpt>
<trkpt lat="32.6342460" lon="35.1017660">
<ele>136.199997</ele>
<time>2022-10-14T07:44:23.000Z</time>
</trkpt>
<trkpt lat="32.6343550" lon="35.1017740">
<ele>136.800003</ele>
<time>2022-10-14T07:44:29.000Z</time>
</trkpt>
<trkpt lat="32.6344080" lon="35.1017850">
<ele>137.199997</ele>
<time>2022-10-14T07:44:32.000Z</time>
</trkpt>
<trkpt lat="32.6344420" lon="35.1017930">
<ele>137.800003</ele>
<time>2022-10-14T07:44:34.000Z</time>
</trkpt>
<trkpt lat="32.6344870" lon="35.1018000">
<ele>138.399994</ele>
<time>2022-10-14T07:44:37.000Z</time>
</trkpt>
<trkpt lat="32.6345030" lon="35.1018020">
<ele>138.399994</ele>
<time>2022-10-14T07:44:38.000Z</time>
</trkpt>
<trkpt lat="32.6345380" lon="35.1018070">
<ele>138.800003</ele>
<time>2022-10-14T07:44:40.000Z</time>
</trkpt>
<trkpt lat="32.6345960" lon="35.1018210">
<ele>139.199997</ele>
<time>2022-10-14T07:44:43.000Z</time>
</trkpt>
<trkpt lat="32.6346680" lon="35.1018390">
<ele>139.800003</ele>
<time>2022-10-14T07:44:47.000Z</time>
</trkpt>
<trkpt lat="32.6347160" lon="35.1018450">
<ele>140.399994</ele>
<time>2022-10-14T07:44:50.000Z</time>
</trkpt>
<trkpt lat="32.6347330" lon="35.1018490">
<ele>140.600006</ele>
<time>2022-10-14T07:44:51.000Z</time>
</trkpt>
<trkpt lat="32.6347650" lon="35.1018550">
<ele>141.000000</ele>
<time>2022-10-14T07:44:53.000Z</time>
</trkpt>
<trkpt lat="32.6347810" lon="35.1018590">
<ele>141.199997</ele>
<time>2022-10-14T07:44:54.000Z</time>
</trkpt>
<trkpt lat="32.6348550" lon="35.1018700">
<ele>141.600006</ele>
<time>2022-10-14T07:44:59.000Z</time>
</trkpt>
<trkpt lat="32.6348670" lon="35.1018740">
<ele>141.800003</ele>
<time>2022-10-14T07:45:00.000Z</time>
</trkpt>
<trkpt lat="32.6349180" lon="35.1018810">
<ele>142.199997</ele>
<time>2022-10-14T07:45:03.000Z</time>
</trkpt>
<trkpt lat="32.6349350" lon="35.1018860">
<ele>142.199997</ele>
<time>2022-10-14T07:45:04.000Z</time>
</trkpt>
<trkpt lat="32.6351100" lon="35.1018880">
<ele>143.800003</ele>
<time>2022-10-14T07:45:15.000Z</time>
</trkpt>
<trkpt lat="32.6351640" lon="35.1018860">
<ele>144.000000</ele>
<time>2022-10-14T07:45:19.000Z</time>
</trkpt>
<trkpt lat="32.6351880" lon="35.1018900">
<ele>144.199997</ele>
<time>2022-10-14T07:45:21.000Z</time>
</trkpt>
<trkpt lat="32.6352310" lon="35.1019020">
<ele>144.600006</ele>
<time>2022-10-14T07:45:24.000Z</time>
</trkpt>
<trkpt lat="32.6353090" lon="35.1019090">
<ele>144.800003</ele>
<time>2022-10-14T07:45:30.000Z</time>
</trkpt>
<trkpt lat="32.6353220" lon="35.1019210">
<ele>144.800003</ele>
<time>2022-10-14T07:45:31.000Z</time>
</trkpt>
<trkpt lat="32.6353230" lon="35.1019480">
<ele>144.800003</ele>
<time>2022-10-14T07:45:33.000Z</time>
</trkpt>
<trkpt lat="32.6353120" lon="35.1019560">
<ele>144.800003</ele>
<time>2022-10-14T07:45:34.000Z</time>
</trkpt>
<trkpt lat="32.6352820" lon="35.1019630">
<ele>145.000000</ele>
<time>2022-10-14T07:45:36.000Z</time>
</trkpt>
<trkpt lat="32.6352270" lon="35.1020180">
<ele>145.000000</ele>
<time>2022-10-14T07:45:39.000Z</time>
</trkpt>
<trkpt lat="32.6351800" lon="35.1020650">
<ele>144.800003</ele>
<time>2022-10-14T07:45:41.000Z</time>
</trkpt>
<trkpt lat="32.6351530" lon="35.1020890">
<ele>144.600006</ele>
<time>2022-10-14T07:45:42.000Z</time>
</trkpt>
<trkpt lat="32.6350630" lon="35.1021930">
<ele>144.400009</ele>
<time>2022-10-14T07:45:46.000Z</time>
</trkpt>
<trkpt lat="32.6349760" lon="35.1022930">
<ele>144.800003</ele>
<time>2022-10-14T07:45:51.000Z</time>
</trkpt>
<trkpt lat="32.6349180" lon="35.1023710">
<ele>144.800003</ele>
<time>2022-10-14T07:45:54.000Z</time>
</trkpt>
<trkpt lat="32.6348720" lon="35.1024300">
<ele>144.800003</ele>
<time>2022-10-14T07:45:57.000Z</time>
</trkpt>
<trkpt lat="32.6348440" lon="35.1024720">
<ele>144.800003</ele>
<time>2022-10-14T07:45:59.000Z</time>
</trkpt>
<trkpt lat="32.6347040" lon="35.1026370">
<ele>145.399994</ele>
<time>2022-10-14T07:46:08.000Z</time>
</trkpt>
<trkpt lat="32.6346710" lon="35.1026680">
<ele>145.399994</ele>
<time>2022-10-14T07:46:10.000Z</time>
</trkpt>
<trkpt lat="32.6346520" lon="35.1026830">
<ele>145.399994</ele>
<time>2022-10-14T07:46:11.000Z</time>
</trkpt>
<trkpt lat="32.6346360" lon="35.1026980">
<ele>145.399994</ele>
<time>2022-10-14T07:46:12.000Z</time>
</trkpt>
<trkpt lat="32.6345660" lon="35.1027780">
<ele>146.000000</ele>
<time>2022-10-14T07:46:16.000Z</time>
</trkpt>
<trkpt lat="32.6345490" lon="35.1028050">
<ele>146.000000</ele>
<time>2022-10-14T07:46:17.000Z</time>
</trkpt>
<trkpt lat="32.6344660" lon="35.1029000">
<ele>146.199997</ele>
<time>2022-10-14T07:46:22.000Z</time>
</trkpt>
<trkpt lat="32.6344050" lon="35.1030080">
<ele>146.199997</ele>
<time>2022-10-14T07:46:26.000Z</time>
</trkpt>
<trkpt lat="32.6343490" lon="35.1030740">
<ele>146.199997</ele>
<time>2022-10-14T07:46:29.000Z</time>
</trkpt>
<trkpt lat="32.6343110" lon="35.1031110">
<ele>146.199997</ele>
<time>2022-10-14T07:46:31.000Z</time>
</trkpt>
<trkpt lat="32.6342950" lon="35.1031260">
<ele>146.199997</ele>
<time>2022-10-14T07:46:32.000Z</time>
</trkpt>
<trkpt lat="32.6342800" lon="35.1031380">
<ele>146.199997</ele>
<time>2022-10-14T07:46:33.000Z</time>
</trkpt>
<trkpt lat="32.6341870" lon="35.1032020">
<ele>146.199997</ele>
<time>2022-10-14T07:46:37.000Z</time>
</trkpt>
<trkpt lat="32.6339930" lon="35.1034560">
<ele>145.599991</ele>
<time>2022-10-14T07:46:47.000Z</time>
</trkpt>
<trkpt lat="32.6338940" lon="35.1035420">
<ele>145.399994</ele>
<time>2022-10-14T07:46:51.000Z</time>
</trkpt>
<trkpt lat="32.6337970" lon="35.1036110">
<ele>145.000000</ele>
<time>2022-10-14T07:46:55.000Z</time>
</trkpt>
<trkpt lat="32.6336960" lon="35.1037070">
<ele>144.600006</ele>
<time>2022-10-14T07:46:59.000Z</time>
</trkpt>
<trkpt lat="32.6336730" lon="35.1037290">
<ele>144.400009</ele>
<time>2022-10-14T07:47:00.000Z</time>
</trkpt>
<trkpt lat="32.6336290" lon="35.1037760">
<ele>144.400009</ele>
<time>2022-10-14T07:47:02.000Z</time>
</trkpt>
<trkpt lat="32.6336110" lon="35.1038000">
<ele>144.400009</ele>
<time>2022-10-14T07:47:03.000Z</time>
</trkpt>
<trkpt lat="32.6335830" lon="35.1038520">
<ele>144.400009</ele>
<time>2022-10-14T07:47:05.000Z</time>
</trkpt>
<trkpt lat="32.6335780" lon="35.1038830">
<ele>144.199997</ele>
<time>2022-10-14T07:47:06.000Z</time>
</trkpt>
<trkpt lat="32.6335760" lon="35.1039860">
<ele>144.800003</ele>
<time>2022-10-14T07:47:10.000Z</time>
</trkpt>
<trkpt lat="32.6335650" lon="35.1040270">
<ele>145.000000</ele>
<time>2022-10-14T07:47:12.000Z</time>
</trkpt>
<trkpt lat="32.6335600" lon="35.1040620">
<ele>145.599991</ele>
<time>2022-10-14T07:47:14.000Z</time>
</trkpt>
<trkpt lat="32.6335340" lon="35.1041930">
<ele>146.600006</ele>
<time>2022-10-14T07:47:20.000Z</time>
</trkpt>
<trkpt lat="32.6335280" lon="35.1042390">
<ele>147.000000</ele>
<time>2022-10-14T07:47:22.000Z</time>
</trkpt>
<trkpt lat="32.6335220" lon="35.1042830">
<ele>147.199997</ele>
<time>2022-10-14T07:47:24.000Z</time>
</trkpt>
<trkpt lat="32.6335200" lon="35.1043060">
<ele>147.399994</ele>
<time>2022-10-14T07:47:25.000Z</time>
</trkpt>
<trkpt lat="32.6335180" lon="35.1044490">
<ele>148.400009</ele>
<time>2022-10-14T07:47:31.000Z</time>
</trkpt>
<trkpt lat="32.6335260" lon="35.1044640">
<ele>148.600006</ele>
<time>2022-10-14T07:47:32.000Z</time>
</trkpt>
<trkpt lat="32.6335540" lon="35.1044860">
<ele>149.000000</ele>
<time>2022-10-14T07:47:34.000Z</time>
</trkpt>
<trkpt lat="32.6335760" lon="35.1044930">
<ele>149.199997</ele>
<time>2022-10-14T07:47:35.000Z</time>
</trkpt>
<trkpt lat="32.6336220" lon="35.1044880">
<ele>149.399994</ele>
<time>2022-10-14T07:47:37.000Z</time>
</trkpt>
<trkpt lat="32.6336510" lon="35.1044850">
<ele>149.399994</ele>
<time>2022-10-14T07:47:38.000Z</time>
</trkpt>
<trkpt lat="32.6339250" lon="35.1044800">
<ele>147.600006</ele>
<time>2022-10-14T07:47:45.000Z</time>
</trkpt>
<trkpt lat="32.6339560" lon="35.1044950">
<ele>147.000000</ele>
<time>2022-10-14T07:47:46.000Z</time>
</trkpt>
<trkpt lat="32.6340650" lon="35.1046100">
<ele>146.400009</ele>
<time>2022-10-14T07:47:50.000Z</time>
</trkpt>
<trkpt lat="32.6341230" lon="35.1046820">
<ele>145.800003</ele>
<time>2022-10-14T07:47:52.000Z</time>
</trkpt>
<trkpt lat="32.6341500" lon="35.1047530">
<ele>145.199997</ele>
<time>2022-10-14T07:47:54.000Z</time>
</trkpt>
<trkpt lat="32.6342630" lon="35.1049840">
<ele>143.000000</ele>
<time>2022-10-14T07:48:02.000Z</time>
</trkpt>
<trkpt lat="32.6342880" lon="35.1050230">
<ele>142.800003</ele>
<time>2022-10-14T07:48:03.000Z</time>
</trkpt>
<trkpt lat="32.6343370" lon="35.1051110">
<ele>141.400009</ele>
<time>2022-10-14T07:48:05.000Z</time>
</trkpt>
<trkpt lat="32.6344290" lon="35.1052230">
<ele>139.600006</ele>
<time>2022-10-14T07:48:08.000Z</time>
</trkpt>
<trkpt lat="32.6345310" lon="35.1054100">
<ele>136.399994</ele>
<time>2022-10-14T07:48:12.000Z</time>
</trkpt>
<trkpt lat="32.6346300" lon="35.1055960">
<ele>133.600006</ele>
<time>2022-10-14T07:48:16.000Z</time>
</trkpt>
<trkpt lat="32.6346440" lon="35.1056330">
<ele>132.800003</ele>
<time>2022-10-14T07:48:17.000Z</time>
</trkpt>
<trkpt lat="32.6347330" lon="35.1057830">
<ele>130.199997</ele>
<time>2022-10-14T07:48:21.000Z</time>
</trkpt>
<trkpt lat="32.6347510" lon="35.1058310">
<ele>129.800003</ele>
<time>2022-10-14T07:48:22.000Z</time>
</trkpt>
<trkpt lat="32.6347650" lon="35.1058790">
<ele>129.599991</ele>
<time>2022-10-14T07:48:23.000Z</time>
</trkpt>
<trkpt lat="32.6347800" lon="35.1059220">
<ele>128.600006</ele>
<time>2022-10-14T07:48:24.000Z</time>
</trkpt>
<trkpt lat="32.6349000" lon="35.1061030">
<ele>126.600006</ele>
<time>2022-10-14T07:48:28.000Z</time>
</trkpt>
<trkpt lat="32.6349360" lon="35.1062090">
<ele>125.200005</ele>
<time>2022-10-14T07:48:30.000Z</time>
</trkpt>
<trkpt lat="32.6349570" lon="35.1062550">
<ele>124.000000</ele>
<time>2022-10-14T07:48:31.000Z</time>
</trkpt>
<trkpt lat="32.6350190" lon="35.1063210">
<ele>122.800003</ele>
<time>2022-10-14T07:48:33.000Z</time>
</trkpt>
<trkpt lat="32.6350500" lon="35.1063680">
<ele>122.200005</ele>
<time>2022-10-14T07:48:34.000Z</time>
</trkpt>
<trkpt lat="32.6351110" lon="35.1064920">
<ele>121.000000</ele>
<time>2022-10-14T07:48:36.000Z</time>
</trkpt>
<trkpt lat="32.6352910" lon="35.1068120">
<ele>117.399994</ele>
<time>2022-10-14T07:48:41.000Z</time>
</trkpt>
<trkpt lat="32.6353320" lon="35.1069050">
<ele>116.000000</ele>
<time>2022-10-14T07:48:43.000Z</time>
</trkpt>
<trkpt lat="32.6354370" lon="35.1070290">
<ele>114.199997</ele>
<time>2022-10-14T07:48:46.000Z</time>
</trkpt>
<trkpt lat="32.6354990" lon="35.1071270">
<ele>112.999992</ele>
<time>2022-10-14T07:48:48.000Z</time>
</trkpt>
<trkpt lat="32.6355670" lon="35.1072740">
<ele>112.000000</ele>
<time>2022-10-14T07:48:51.000Z</time>
</trkpt>
<trkpt lat="32.6356070" lon="35.1073490">
<ele>111.200005</ele>
<time>2022-10-14T07:48:53.000Z</time>
</trkpt>
<trkpt lat="32.6356580" lon="35.1074050">
<ele>110.399994</ele>
<time>2022-10-14T07:48:55.000Z</time>
</trkpt>
<trkpt lat="32.6358520" lon="35.1077540">
<ele>105.199997</ele>
<time>2022-10-14T07:49:04.000Z</time>
</trkpt>
<trkpt lat="32.6358700" lon="35.1078030">
<ele>104.599998</ele>
<time>2022-10-14T07:49:05.000Z</time>
</trkpt>
<trkpt lat="32.6359000" lon="35.1079640">
<ele>103.000000</ele>
<time>2022-10-14T07:49:08.000Z</time>
</trkpt>
<trkpt lat="32.6359450" lon="35.1081020">
<ele>102.200005</ele>
<time>2022-10-14T07:49:11.000Z</time>
</trkpt>
<trkpt lat="32.6359510" lon="35.1081590">
<ele>101.600006</ele>
<time>2022-10-14T07:49:12.000Z</time>
</trkpt>
<trkpt lat="32.6359640" lon="35.1082780">
<ele>100.599998</ele>
<time>2022-10-14T07:49:14.000Z</time>
</trkpt>
<trkpt lat="32.6359640" lon="35.1084020">
<ele>99.800003</ele>
<time>2022-10-14T07:49:16.000Z</time>
</trkpt>
<trkpt lat="32.6359670" lon="35.1084640">
<ele>99.400002</ele>
<time>2022-10-14T07:49:17.000Z</time>
</trkpt>
<trkpt lat="32.6359610" lon="35.1085890">
<ele>98.799995</ele>
<time>2022-10-14T07:49:19.000Z</time>
</trkpt>
<trkpt lat="32.6359470" lon="35.1086990">
<ele>98.000000</ele>
<time>2022-10-14T07:49:21.000Z</time>
</trkpt>
<trkpt lat="32.6359530" lon="35.1088140">
<ele>97.800003</ele>
<time>2022-10-14T07:49:23.000Z</time>
</trkpt>
<trkpt lat="32.6359610" lon="35.1089370">
<ele>96.799995</ele>
<time>2022-10-14T07:49:25.000Z</time>
</trkpt>
<trkpt lat="32.6359620" lon="35.1090310">
<ele>95.800003</ele>
<time>2022-10-14T07:49:27.000Z</time>
</trkpt>
<trkpt lat="32.6359560" lon="35.1090590">
<ele>95.200005</ele>
<time>2022-10-14T07:49:29.000Z</time>
</trkpt>
<trkpt lat="32.6359590" lon="35.1090680">
<ele>94.600006</ele>
<time>2022-10-14T07:49:32.000Z</time>
</trkpt>
<trkpt lat="32.6360050" lon="35.1090760">
<ele>94.199997</ele>
<time>2022-10-14T07:49:34.000Z</time>
</trkpt>
<trkpt lat="32.6360550" lon="35.1090600">
<ele>93.400002</ele>
<time>2022-10-14T07:49:36.000Z</time>
</trkpt>
<trkpt lat="32.6360990" lon="35.1090240">
<ele>93.000000</ele>
<time>2022-10-14T07:49:38.000Z</time>
</trkpt>
<trkpt lat="32.6361950" lon="35.1089730">
<ele>92.399994</ele>
<time>2022-10-14T07:49:41.000Z</time>
</trkpt>
<trkpt lat="32.6362290" lon="35.1089750">
<ele>92.000000</ele>
<time>2022-10-14T07:49:42.000Z</time>
</trkpt>
<trkpt lat="32.6362540" lon="35.1090110">
<ele>91.400002</ele>
<time>2022-10-14T07:49:43.000Z</time>
</trkpt>
<trkpt lat="32.6362500" lon="35.1090950">
<ele>90.599998</ele>
<time>2022-10-14T07:49:45.000Z</time>
</trkpt>
<trkpt lat="32.6362200" lon="35.1091600">
<ele>90.200005</ele>
<time>2022-10-14T07:49:47.000Z</time>
</trkpt>
<trkpt lat="32.6361800" lon="35.1091760">
<ele>90.000008</ele>
<time>2022-10-14T07:49:49.000Z</time>
</trkpt>
<trkpt lat="32.6361700" lon="35.1091740">
<ele>87.599998</ele>
<time>2022-10-14T07:49:58.000Z</time>
</trkpt>
<trkpt lat="32.6361720" lon="35.1091650">
<ele>87.599998</ele>
<time>2022-10-14T07:50:03.000Z</time>
</trkpt>
<trkpt lat="32.6361690" lon="35.1091620">
<ele>87.399994</ele>
<time>2022-10-14T07:50:10.000Z</time>
</trkpt>
</trkseg>
</trk>
</gpx>
